<?xml version="1.0" encoding="UTF-8" standalone="no" ?>
<gpx xmlns="http://www.topografix.com/GPX/1/1" xmlns:xsi="http://www.w3.org/2001/XMLSchema-instance" xsi:schemaLocation="http://www.topografix.com/GPX/1/1 http://www.topografix.com/GPX/1/1/gpx.xsd" version="1.1" creator="VisuGPX - https://www.visugpx.com">
  <metadata>
    <name>Pinède Montferrier Sur Lez</name>
    <desc><![CDATA[Randonnée Organisée par l'association http://aqueduc-montferrier.fr/]]></desc>
  </metadata>
  <trk>
    <name><![CDATA[09/10/2016 08:40:31]]></name>
    <trkseg>
      <trkpt lat="43.66531" lon="3.85699">
        <ele>86.799987792969</ele>
        <time>2016-10-09T06:40:31Z</time>
      </trkpt>
      <trkpt lat="43.66534" lon="3.85701">
        <ele>86.599975585938</ele>
        <time>2016-10-09T06:40:36Z</time>
      </trkpt>
      <trkpt lat="43.66539" lon="3.85701">
        <ele>85.799987792969</ele>
        <time>2016-10-09T06:40:38Z</time>
      </trkpt>
      <trkpt lat="43.66542" lon="3.857">
        <ele>85.599975585938</ele>
        <time>2016-10-09T06:40:39Z</time>
      </trkpt>
      <trkpt lat="43.66546" lon="3.857">
        <ele>85.200012207031</ele>
        <time>2016-10-09T06:40:40Z</time>
      </trkpt>
      <trkpt lat="43.66559" lon="3.85699">
        <ele>86</ele>
        <time>2016-10-09T06:40:44Z</time>
      </trkpt>
      <trkpt lat="43.66586" lon="3.85697">
        <ele>86.400024414062</ele>
        <time>2016-10-09T06:40:51Z</time>
      </trkpt>
      <trkpt lat="43.6661" lon="3.857">
        <ele>85.799987792969</ele>
        <time>2016-10-09T06:40:57Z</time>
      </trkpt>
      <trkpt lat="43.66615" lon="3.85706">
        <ele>85.799987792969</ele>
        <time>2016-10-09T06:40:59Z</time>
      </trkpt>
      <trkpt lat="43.66617" lon="3.85711">
        <ele>85.599975585938</ele>
        <time>2016-10-09T06:41:00Z</time>
      </trkpt>
      <trkpt lat="43.6662" lon="3.85744">
        <ele>85.599975585938</ele>
        <time>2016-10-09T06:41:06Z</time>
      </trkpt>
      <trkpt lat="43.66624" lon="3.85793">
        <ele>85.599975585938</ele>
        <time>2016-10-09T06:41:15Z</time>
      </trkpt>
      <trkpt lat="43.66631" lon="3.85821">
        <ele>85.400024414062</ele>
        <time>2016-10-09T06:41:21Z</time>
      </trkpt>
      <trkpt lat="43.66635" lon="3.85824">
        <ele>85.400024414062</ele>
        <time>2016-10-09T06:41:22Z</time>
      </trkpt>
      <trkpt lat="43.66657" lon="3.85833">
        <ele>85.799987792969</ele>
        <time>2016-10-09T06:41:27Z</time>
      </trkpt>
      <trkpt lat="43.66669" lon="3.85834">
        <ele>85.599975585938</ele>
        <time>2016-10-09T06:41:30Z</time>
      </trkpt>
      <trkpt lat="43.66672" lon="3.8583">
        <ele>85.200012207031</ele>
        <time>2016-10-09T06:41:31Z</time>
      </trkpt>
      <trkpt lat="43.6668" lon="3.85819">
        <ele>84.400024414062</ele>
        <time>2016-10-09T06:41:33Z</time>
      </trkpt>
      <trkpt lat="43.66684" lon="3.85812">
        <ele>84</ele>
        <time>2016-10-09T06:41:34Z</time>
      </trkpt>
      <trkpt lat="43.66688" lon="3.85805">
        <ele>83.599975585938</ele>
        <time>2016-10-09T06:41:35Z</time>
      </trkpt>
      <trkpt lat="43.66692" lon="3.85798">
        <ele>83.200012207031</ele>
        <time>2016-10-09T06:41:36Z</time>
      </trkpt>
      <trkpt lat="43.6671" lon="3.8577">
        <ele>82.400024414062</ele>
        <time>2016-10-09T06:41:40Z</time>
      </trkpt>
      <trkpt lat="43.66714" lon="3.85763">
        <ele>82.200012207031</ele>
        <time>2016-10-09T06:41:41Z</time>
      </trkpt>
      <trkpt lat="43.66717" lon="3.85755">
        <ele>81.799987792969</ele>
        <time>2016-10-09T06:41:42Z</time>
      </trkpt>
      <trkpt lat="43.66726" lon="3.85739">
        <ele>81.200012207031</ele>
        <time>2016-10-09T06:41:45Z</time>
      </trkpt>
      <trkpt lat="43.66729" lon="3.85735">
        <ele>81</ele>
        <time>2016-10-09T06:41:46Z</time>
      </trkpt>
      <trkpt lat="43.66733" lon="3.8573">
        <ele>80.599975585938</ele>
        <time>2016-10-09T06:41:48Z</time>
      </trkpt>
      <trkpt lat="43.66735" lon="3.8573">
        <ele>80.400024414062</ele>
        <time>2016-10-09T06:41:49Z</time>
      </trkpt>
      <trkpt lat="43.66739" lon="3.85739">
        <ele>80.200012207031</ele>
        <time>2016-10-09T06:41:57Z</time>
      </trkpt>
      <trkpt lat="43.66738" lon="3.85745">
        <ele>80.200012207031</ele>
        <time>2016-10-09T06:42:00Z</time>
      </trkpt>
      <trkpt lat="43.66738" lon="3.85746">
        <ele>80.400024414062</ele>
        <time>2016-10-09T06:42:01Z</time>
      </trkpt>
      <trkpt lat="43.66732" lon="3.85756">
        <ele>81.799987792969</ele>
        <time>2016-10-09T06:42:16Z</time>
      </trkpt>
      <trkpt lat="43.66729" lon="3.85757">
        <ele>82</ele>
        <time>2016-10-09T06:42:18Z</time>
      </trkpt>
      <trkpt lat="43.66743" lon="3.85766">
        <ele>80.200012207031</ele>
        <time>2016-10-09T07:14:23Z</time>
      </trkpt>
      <trkpt lat="43.66745" lon="3.85767">
        <ele>80.400024414062</ele>
        <time>2016-10-09T07:14:24Z</time>
      </trkpt>
      <trkpt lat="43.66756" lon="3.85774">
        <ele>79.599975585938</ele>
        <time>2016-10-09T07:14:53Z</time>
      </trkpt>
      <trkpt lat="43.66757" lon="3.85776">
        <ele>79.599975585938</ele>
        <time>2016-10-09T07:14:54Z</time>
      </trkpt>
      <trkpt lat="43.66758" lon="3.85781">
        <ele>79.799987792969</ele>
        <time>2016-10-09T07:14:57Z</time>
      </trkpt>
      <trkpt lat="43.66756" lon="3.85786">
        <ele>80</ele>
        <time>2016-10-09T07:14:59Z</time>
      </trkpt>
      <trkpt lat="43.66752" lon="3.85791">
        <ele>80.200012207031</ele>
        <time>2016-10-09T07:15:01Z</time>
      </trkpt>
      <trkpt lat="43.66745" lon="3.85807">
        <ele>81.599975585938</ele>
        <time>2016-10-09T07:15:07Z</time>
      </trkpt>
      <trkpt lat="43.66737" lon="3.85813">
        <ele>82.799987792969</ele>
        <time>2016-10-09T07:15:11Z</time>
      </trkpt>
      <trkpt lat="43.66735" lon="3.85811">
        <ele>82.799987792969</ele>
        <time>2016-10-09T07:15:12Z</time>
      </trkpt>
      <trkpt lat="43.66728" lon="3.85809">
        <ele>83.799987792969</ele>
        <time>2016-10-09T07:15:16Z</time>
      </trkpt>
      <trkpt lat="43.66726" lon="3.85812">
        <ele>84.200012207031</ele>
        <time>2016-10-09T07:15:20Z</time>
      </trkpt>
      <trkpt lat="43.66724" lon="3.85819">
        <ele>84.400024414062</ele>
        <time>2016-10-09T07:15:23Z</time>
      </trkpt>
      <trkpt lat="43.66721" lon="3.85833">
        <ele>84.799987792969</ele>
        <time>2016-10-09T07:15:28Z</time>
      </trkpt>
      <trkpt lat="43.66718" lon="3.85848">
        <ele>85.599975585938</ele>
        <time>2016-10-09T07:15:32Z</time>
      </trkpt>
      <trkpt lat="43.66716" lon="3.8585">
        <ele>85.799987792969</ele>
        <time>2016-10-09T07:15:33Z</time>
      </trkpt>
      <trkpt lat="43.66713" lon="3.85853">
        <ele>86.599975585938</ele>
        <time>2016-10-09T07:15:35Z</time>
      </trkpt>
      <trkpt lat="43.66711" lon="3.85852">
        <ele>87.200012207031</ele>
        <time>2016-10-09T07:15:36Z</time>
      </trkpt>
      <trkpt lat="43.66706" lon="3.8585">
        <ele>88.599975585938</ele>
        <time>2016-10-09T07:15:38Z</time>
      </trkpt>
      <trkpt lat="43.66702" lon="3.85848">
        <ele>89</ele>
        <time>2016-10-09T07:15:39Z</time>
      </trkpt>
      <trkpt lat="43.66692" lon="3.85844">
        <ele>89.799987792969</ele>
        <time>2016-10-09T07:15:42Z</time>
      </trkpt>
      <trkpt lat="43.6669" lon="3.85842">
        <ele>89.799987792969</ele>
        <time>2016-10-09T07:15:43Z</time>
      </trkpt>
      <trkpt lat="43.6667" lon="3.85835">
        <ele>90.200012207031</ele>
        <time>2016-10-09T07:15:50Z</time>
      </trkpt>
      <trkpt lat="43.66658" lon="3.8583">
        <ele>90.599975585938</ele>
        <time>2016-10-09T07:15:55Z</time>
      </trkpt>
      <trkpt lat="43.66644" lon="3.85824">
        <ele>90.799987792969</ele>
        <time>2016-10-09T07:16:02Z</time>
      </trkpt>
      <trkpt lat="43.66639" lon="3.85822">
        <ele>91</ele>
        <time>2016-10-09T07:16:04Z</time>
      </trkpt>
      <trkpt lat="43.66637" lon="3.85824">
        <ele>91.200012207031</ele>
        <time>2016-10-09T07:16:05Z</time>
      </trkpt>
      <trkpt lat="43.66633" lon="3.85831">
        <ele>91.799987792969</ele>
        <time>2016-10-09T07:16:07Z</time>
      </trkpt>
      <trkpt lat="43.66625" lon="3.85844">
        <ele>93</ele>
        <time>2016-10-09T07:16:11Z</time>
      </trkpt>
      <trkpt lat="43.66621" lon="3.85855">
        <ele>94.400024414062</ele>
        <time>2016-10-09T07:16:14Z</time>
      </trkpt>
      <trkpt lat="43.66618" lon="3.85863">
        <ele>95.400024414062</ele>
        <time>2016-10-09T07:16:16Z</time>
      </trkpt>
      <trkpt lat="43.66617" lon="3.85867">
        <ele>95.599975585938</ele>
        <time>2016-10-09T07:16:17Z</time>
      </trkpt>
      <trkpt lat="43.66609" lon="3.85887">
        <ele>96.799987792969</ele>
        <time>2016-10-09T07:16:23Z</time>
      </trkpt>
      <trkpt lat="43.66606" lon="3.85893">
        <ele>96.799987792969</ele>
        <time>2016-10-09T07:16:25Z</time>
      </trkpt>
      <trkpt lat="43.666" lon="3.85919">
        <ele>97.400024414062</ele>
        <time>2016-10-09T07:16:32Z</time>
      </trkpt>
      <trkpt lat="43.66605" lon="3.85939">
        <ele>96.200012207031</ele>
        <time>2016-10-09T07:16:37Z</time>
      </trkpt>
      <trkpt lat="43.66612" lon="3.85968">
        <ele>96.400024414062</ele>
        <time>2016-10-09T07:16:46Z</time>
      </trkpt>
      <trkpt lat="43.66613" lon="3.85973">
        <ele>96.599975585938</ele>
        <time>2016-10-09T07:16:48Z</time>
      </trkpt>
      <trkpt lat="43.66611" lon="3.8598">
        <ele>96.400024414062</ele>
        <time>2016-10-09T07:16:51Z</time>
      </trkpt>
      <trkpt lat="43.66609" lon="3.85985">
        <ele>96.200012207031</ele>
        <time>2016-10-09T07:16:54Z</time>
      </trkpt>
      <trkpt lat="43.66605" lon="3.85991">
        <ele>96</ele>
        <time>2016-10-09T07:16:56Z</time>
      </trkpt>
      <trkpt lat="43.66604" lon="3.85996">
        <ele>96</ele>
        <time>2016-10-09T07:16:57Z</time>
      </trkpt>
      <trkpt lat="43.66602" lon="3.86017">
        <ele>96</ele>
        <time>2016-10-09T07:17:03Z</time>
      </trkpt>
      <trkpt lat="43.66602" lon="3.86037">
        <ele>95.400024414062</ele>
        <time>2016-10-09T07:17:08Z</time>
      </trkpt>
      <trkpt lat="43.66602" lon="3.86046">
        <ele>95.400024414062</ele>
        <time>2016-10-09T07:17:10Z</time>
      </trkpt>
      <trkpt lat="43.66597" lon="3.86067">
        <ele>94.400024414062</ele>
        <time>2016-10-09T07:17:14Z</time>
      </trkpt>
      <trkpt lat="43.66595" lon="3.86073">
        <ele>94</ele>
        <time>2016-10-09T07:17:15Z</time>
      </trkpt>
      <trkpt lat="43.66593" lon="3.8608">
        <ele>93.599975585938</ele>
        <time>2016-10-09T07:17:16Z</time>
      </trkpt>
      <trkpt lat="43.66592" lon="3.86087">
        <ele>93.400024414062</ele>
        <time>2016-10-09T07:17:17Z</time>
      </trkpt>
      <trkpt lat="43.66595" lon="3.86101">
        <ele>92.799987792969</ele>
        <time>2016-10-09T07:17:19Z</time>
      </trkpt>
      <trkpt lat="43.666" lon="3.86112">
        <ele>92.400024414062</ele>
        <time>2016-10-09T07:17:21Z</time>
      </trkpt>
      <trkpt lat="43.66602" lon="3.86116">
        <ele>92.400024414062</ele>
        <time>2016-10-09T07:17:22Z</time>
      </trkpt>
      <trkpt lat="43.66606" lon="3.86124">
        <ele>92.200012207031</ele>
        <time>2016-10-09T07:17:24Z</time>
      </trkpt>
      <trkpt lat="43.66621" lon="3.86145">
        <ele>91.400024414062</ele>
        <time>2016-10-09T07:17:29Z</time>
      </trkpt>
      <trkpt lat="43.66625" lon="3.86148">
        <ele>91.200012207031</ele>
        <time>2016-10-09T07:17:30Z</time>
      </trkpt>
      <trkpt lat="43.66642" lon="3.86161">
        <ele>91.599975585938</ele>
        <time>2016-10-09T07:17:35Z</time>
      </trkpt>
      <trkpt lat="43.66645" lon="3.86165">
        <ele>91.400024414062</ele>
        <time>2016-10-09T07:17:36Z</time>
      </trkpt>
      <trkpt lat="43.66657" lon="3.86176">
        <ele>90.599975585938</ele>
        <time>2016-10-09T07:17:39Z</time>
      </trkpt>
      <trkpt lat="43.66662" lon="3.86178">
        <ele>90.200012207031</ele>
        <time>2016-10-09T07:17:40Z</time>
      </trkpt>
      <trkpt lat="43.66668" lon="3.8618">
        <ele>90</ele>
        <time>2016-10-09T07:17:41Z</time>
      </trkpt>
      <trkpt lat="43.66681" lon="3.86182">
        <ele>89.799987792969</ele>
        <time>2016-10-09T07:17:43Z</time>
      </trkpt>
      <trkpt lat="43.66699" lon="3.86181">
        <ele>89.799987792969</ele>
        <time>2016-10-09T07:17:47Z</time>
      </trkpt>
      <trkpt lat="43.66715" lon="3.86186">
        <ele>89.799987792969</ele>
        <time>2016-10-09T07:17:52Z</time>
      </trkpt>
      <trkpt lat="43.6674" lon="3.86196">
        <ele>89.799987792969</ele>
        <time>2016-10-09T07:17:56Z</time>
      </trkpt>
      <trkpt lat="43.66747" lon="3.86198">
        <ele>89.799987792969</ele>
        <time>2016-10-09T07:17:57Z</time>
      </trkpt>
      <trkpt lat="43.66761" lon="3.86198">
        <ele>89.799987792969</ele>
        <time>2016-10-09T07:17:59Z</time>
      </trkpt>
      <trkpt lat="43.66767" lon="3.86198">
        <ele>89.799987792969</ele>
        <time>2016-10-09T07:18:00Z</time>
      </trkpt>
      <trkpt lat="43.66798" lon="3.86205">
        <ele>89.200012207031</ele>
        <time>2016-10-09T07:18:05Z</time>
      </trkpt>
      <trkpt lat="43.66814" lon="3.86204">
        <ele>88</ele>
        <time>2016-10-09T07:18:09Z</time>
      </trkpt>
      <trkpt lat="43.66817" lon="3.86207">
        <ele>87.400024414062</ele>
        <time>2016-10-09T07:18:10Z</time>
      </trkpt>
      <trkpt lat="43.66819" lon="3.86211">
        <ele>86.799987792969</ele>
        <time>2016-10-09T07:18:11Z</time>
      </trkpt>
      <trkpt lat="43.66821" lon="3.86214">
        <ele>86.200012207031</ele>
        <time>2016-10-09T07:18:12Z</time>
      </trkpt>
      <trkpt lat="43.66821" lon="3.86217">
        <ele>85.599975585938</ele>
        <time>2016-10-09T07:18:13Z</time>
      </trkpt>
      <trkpt lat="43.6682" lon="3.86224">
        <ele>84.400024414062</ele>
        <time>2016-10-09T07:18:15Z</time>
      </trkpt>
      <trkpt lat="43.66818" lon="3.86229">
        <ele>84</ele>
        <time>2016-10-09T07:18:16Z</time>
      </trkpt>
      <trkpt lat="43.66813" lon="3.8624">
        <ele>83.200012207031</ele>
        <time>2016-10-09T07:18:18Z</time>
      </trkpt>
      <trkpt lat="43.66805" lon="3.86244">
        <ele>82.799987792969</ele>
        <time>2016-10-09T07:18:20Z</time>
      </trkpt>
      <trkpt lat="43.66792" lon="3.86243">
        <ele>82.400024414062</ele>
        <time>2016-10-09T07:18:23Z</time>
      </trkpt>
      <trkpt lat="43.66788" lon="3.86241">
        <ele>82.400024414062</ele>
        <time>2016-10-09T07:18:24Z</time>
      </trkpt>
      <trkpt lat="43.66784" lon="3.86241">
        <ele>82.200012207031</ele>
        <time>2016-10-09T07:18:25Z</time>
      </trkpt>
      <trkpt lat="43.66774" lon="3.86242">
        <ele>82</ele>
        <time>2016-10-09T07:18:28Z</time>
      </trkpt>
      <trkpt lat="43.66749" lon="3.86246">
        <ele>81</ele>
        <time>2016-10-09T07:18:34Z</time>
      </trkpt>
      <trkpt lat="43.66744" lon="3.86246">
        <ele>80.799987792969</ele>
        <time>2016-10-09T07:18:35Z</time>
      </trkpt>
      <trkpt lat="43.6673" lon="3.86241">
        <ele>80.599975585938</ele>
        <time>2016-10-09T07:18:38Z</time>
      </trkpt>
      <trkpt lat="43.66704" lon="3.86229">
        <ele>80.799987792969</ele>
        <time>2016-10-09T07:18:44Z</time>
      </trkpt>
      <trkpt lat="43.66696" lon="3.86226">
        <ele>80.799987792969</ele>
        <time>2016-10-09T07:18:46Z</time>
      </trkpt>
      <trkpt lat="43.66682" lon="3.86225">
        <ele>81.200012207031</ele>
        <time>2016-10-09T07:18:49Z</time>
      </trkpt>
      <trkpt lat="43.66656" lon="3.86222">
        <ele>81</ele>
        <time>2016-10-09T07:18:53Z</time>
      </trkpt>
      <trkpt lat="43.66651" lon="3.86221">
        <ele>80.799987792969</ele>
        <time>2016-10-09T07:18:54Z</time>
      </trkpt>
      <trkpt lat="43.66633" lon="3.8621">
        <ele>81.599975585938</ele>
        <time>2016-10-09T07:18:59Z</time>
      </trkpt>
      <trkpt lat="43.66628" lon="3.86207">
        <ele>82</ele>
        <time>2016-10-09T07:19:01Z</time>
      </trkpt>
      <trkpt lat="43.66616" lon="3.86202">
        <ele>82.799987792969</ele>
        <time>2016-10-09T07:19:06Z</time>
      </trkpt>
      <trkpt lat="43.66607" lon="3.86204">
        <ele>83.200012207031</ele>
        <time>2016-10-09T07:19:09Z</time>
      </trkpt>
      <trkpt lat="43.66598" lon="3.86206">
        <ele>83.200012207031</ele>
        <time>2016-10-09T07:19:11Z</time>
      </trkpt>
      <trkpt lat="43.6658" lon="3.86206">
        <ele>83.400024414062</ele>
        <time>2016-10-09T07:19:16Z</time>
      </trkpt>
      <trkpt lat="43.66575" lon="3.86204">
        <ele>83.400024414062</ele>
        <time>2016-10-09T07:19:17Z</time>
      </trkpt>
      <trkpt lat="43.66561" lon="3.86197">
        <ele>82</ele>
        <time>2016-10-09T07:19:19Z</time>
      </trkpt>
      <trkpt lat="43.66554" lon="3.86194">
        <ele>81.400024414062</ele>
        <time>2016-10-09T07:19:20Z</time>
      </trkpt>
      <trkpt lat="43.66549" lon="3.86192">
        <ele>80.799987792969</ele>
        <time>2016-10-09T07:19:21Z</time>
      </trkpt>
      <trkpt lat="43.66544" lon="3.86188">
        <ele>79.799987792969</ele>
        <time>2016-10-09T07:19:23Z</time>
      </trkpt>
      <trkpt lat="43.66542" lon="3.86186">
        <ele>79.400024414062</ele>
        <time>2016-10-09T07:19:24Z</time>
      </trkpt>
      <trkpt lat="43.66538" lon="3.86181">
        <ele>79.200012207031</ele>
        <time>2016-10-09T07:19:25Z</time>
      </trkpt>
      <trkpt lat="43.66531" lon="3.86172">
        <ele>78.799987792969</ele>
        <time>2016-10-09T07:19:27Z</time>
      </trkpt>
      <trkpt lat="43.66529" lon="3.86167">
        <ele>78.400024414062</ele>
        <time>2016-10-09T07:19:28Z</time>
      </trkpt>
      <trkpt lat="43.66527" lon="3.86161">
        <ele>77.799987792969</ele>
        <time>2016-10-09T07:19:30Z</time>
      </trkpt>
      <trkpt lat="43.66526" lon="3.86155">
        <ele>77.200012207031</ele>
        <time>2016-10-09T07:19:32Z</time>
      </trkpt>
      <trkpt lat="43.66527" lon="3.86144">
        <ele>77</ele>
        <time>2016-10-09T07:19:36Z</time>
      </trkpt>
      <trkpt lat="43.66527" lon="3.86128">
        <ele>76.200012207031</ele>
        <time>2016-10-09T07:19:43Z</time>
      </trkpt>
      <trkpt lat="43.66526" lon="3.86127">
        <ele>76.200012207031</ele>
        <time>2016-10-09T07:19:44Z</time>
      </trkpt>
      <trkpt lat="43.66518" lon="3.86121">
        <ele>75.799987792969</ele>
        <time>2016-10-09T07:19:48Z</time>
      </trkpt>
      <trkpt lat="43.66507" lon="3.86107">
        <ele>75.400024414062</ele>
        <time>2016-10-09T07:19:52Z</time>
      </trkpt>
      <trkpt lat="43.66504" lon="3.86104">
        <ele>75.200012207031</ele>
        <time>2016-10-09T07:19:53Z</time>
      </trkpt>
      <trkpt lat="43.66494" lon="3.86095">
        <ele>74.400024414062</ele>
        <time>2016-10-09T07:19:56Z</time>
      </trkpt>
      <trkpt lat="43.66491" lon="3.86093">
        <ele>74.200012207031</ele>
        <time>2016-10-09T07:19:57Z</time>
      </trkpt>
      <trkpt lat="43.66489" lon="3.86092">
        <ele>74</ele>
        <time>2016-10-09T07:19:58Z</time>
      </trkpt>
      <trkpt lat="43.66486" lon="3.8609">
        <ele>73.400024414062</ele>
        <time>2016-10-09T07:20:01Z</time>
      </trkpt>
      <trkpt lat="43.66482" lon="3.86094">
        <ele>72</ele>
        <time>2016-10-09T07:20:11Z</time>
      </trkpt>
      <trkpt lat="43.66474" lon="3.86096">
        <ele>71</ele>
        <time>2016-10-09T07:20:14Z</time>
      </trkpt>
      <trkpt lat="43.66464" lon="3.86099">
        <ele>69.799987792969</ele>
        <time>2016-10-09T07:20:17Z</time>
      </trkpt>
      <trkpt lat="43.66461" lon="3.86098">
        <ele>69.400024414062</ele>
        <time>2016-10-09T07:20:18Z</time>
      </trkpt>
      <trkpt lat="43.66457" lon="3.86097">
        <ele>69.200012207031</ele>
        <time>2016-10-09T07:20:19Z</time>
      </trkpt>
      <trkpt lat="43.66449" lon="3.86093">
        <ele>68.400024414062</ele>
        <time>2016-10-09T07:20:21Z</time>
      </trkpt>
      <trkpt lat="43.66436" lon="3.86085">
        <ele>67.599975585938</ele>
        <time>2016-10-09T07:20:25Z</time>
      </trkpt>
      <trkpt lat="43.66433" lon="3.86082">
        <ele>67.400024414062</ele>
        <time>2016-10-09T07:20:26Z</time>
      </trkpt>
      <trkpt lat="43.66418" lon="3.86072">
        <ele>66.400024414062</ele>
        <time>2016-10-09T07:20:31Z</time>
      </trkpt>
      <trkpt lat="43.66416" lon="3.8607">
        <ele>66.200012207031</ele>
        <time>2016-10-09T07:20:32Z</time>
      </trkpt>
      <trkpt lat="43.6641" lon="3.86067">
        <ele>64.799987792969</ele>
        <time>2016-10-09T07:20:35Z</time>
      </trkpt>
      <trkpt lat="43.66405" lon="3.86063">
        <ele>64.400024414062</ele>
        <time>2016-10-09T07:20:37Z</time>
      </trkpt>
      <trkpt lat="43.66389" lon="3.86059">
        <ele>63.799987792969</ele>
        <time>2016-10-09T07:20:43Z</time>
      </trkpt>
      <trkpt lat="43.66387" lon="3.86058">
        <ele>63.599975585938</ele>
        <time>2016-10-09T07:20:44Z</time>
      </trkpt>
      <trkpt lat="43.6638" lon="3.86059">
        <ele>62.599975585938</ele>
        <time>2016-10-09T07:21:03Z</time>
      </trkpt>
      <trkpt lat="43.66377" lon="3.86059">
        <ele>62.400024414062</ele>
        <time>2016-10-09T07:21:04Z</time>
      </trkpt>
      <trkpt lat="43.66363" lon="3.86063">
        <ele>61.200012207031</ele>
        <time>2016-10-09T07:21:08Z</time>
      </trkpt>
      <trkpt lat="43.66361" lon="3.86064">
        <ele>60.799987792969</ele>
        <time>2016-10-09T07:21:09Z</time>
      </trkpt>
      <trkpt lat="43.66351" lon="3.86065">
        <ele>59.799987792969</ele>
        <time>2016-10-09T07:21:12Z</time>
      </trkpt>
      <trkpt lat="43.66344" lon="3.86063">
        <ele>58.799987792969</ele>
        <time>2016-10-09T07:21:14Z</time>
      </trkpt>
      <trkpt lat="43.66334" lon="3.8606">
        <ele>57.400024414062</ele>
        <time>2016-10-09T07:21:17Z</time>
      </trkpt>
      <trkpt lat="43.66329" lon="3.86055">
        <ele>56.400024414062</ele>
        <time>2016-10-09T07:21:19Z</time>
      </trkpt>
      <trkpt lat="43.66324" lon="3.86049">
        <ele>55.400024414062</ele>
        <time>2016-10-09T07:21:21Z</time>
      </trkpt>
      <trkpt lat="43.66317" lon="3.86041">
        <ele>54.799987792969</ele>
        <time>2016-10-09T07:21:23Z</time>
      </trkpt>
      <trkpt lat="43.66312" lon="3.86037">
        <ele>54.400024414062</ele>
        <time>2016-10-09T07:21:24Z</time>
      </trkpt>
      <trkpt lat="43.66306" lon="3.86032">
        <ele>54</ele>
        <time>2016-10-09T07:21:25Z</time>
      </trkpt>
      <trkpt lat="43.66294" lon="3.86026">
        <ele>53.400024414062</ele>
        <time>2016-10-09T07:21:27Z</time>
      </trkpt>
      <trkpt lat="43.66288" lon="3.86026">
        <ele>53.200012207031</ele>
        <time>2016-10-09T07:21:28Z</time>
      </trkpt>
      <trkpt lat="43.66281" lon="3.86025">
        <ele>52.799987792969</ele>
        <time>2016-10-09T07:21:29Z</time>
      </trkpt>
      <trkpt lat="43.66276" lon="3.86024">
        <ele>52.400024414062</ele>
        <time>2016-10-09T07:21:30Z</time>
      </trkpt>
      <trkpt lat="43.66262" lon="3.86019">
        <ele>51.599975585938</ele>
        <time>2016-10-09T07:21:33Z</time>
      </trkpt>
      <trkpt lat="43.66245" lon="3.86016">
        <ele>51.799987792969</ele>
        <time>2016-10-09T07:21:38Z</time>
      </trkpt>
      <trkpt lat="43.66238" lon="3.86016">
        <ele>51.799987792969</ele>
        <time>2016-10-09T07:21:41Z</time>
      </trkpt>
      <trkpt lat="43.66234" lon="3.86019">
        <ele>52.200012207031</ele>
        <time>2016-10-09T07:21:43Z</time>
      </trkpt>
      <trkpt lat="43.66228" lon="3.86023">
        <ele>52.799987792969</ele>
        <time>2016-10-09T07:21:46Z</time>
      </trkpt>
      <trkpt lat="43.66226" lon="3.86023">
        <ele>53.200012207031</ele>
        <time>2016-10-09T07:21:47Z</time>
      </trkpt>
      <trkpt lat="43.66223" lon="3.86025">
        <ele>53.599975585938</ele>
        <time>2016-10-09T07:21:49Z</time>
      </trkpt>
      <trkpt lat="43.66222" lon="3.86025">
        <ele>53.799987792969</ele>
        <time>2016-10-09T07:21:50Z</time>
      </trkpt>
      <trkpt lat="43.66212" lon="3.86027">
        <ele>55.599975585938</ele>
        <time>2016-10-09T07:23:03Z</time>
      </trkpt>
      <trkpt lat="43.66205" lon="3.86029">
        <ele>55.799987792969</ele>
        <time>2016-10-09T07:23:05Z</time>
      </trkpt>
      <trkpt lat="43.66183" lon="3.86027">
        <ele>55.200012207031</ele>
        <time>2016-10-09T07:23:11Z</time>
      </trkpt>
      <trkpt lat="43.66177" lon="3.86027">
        <ele>54.599975585938</ele>
        <time>2016-10-09T07:23:13Z</time>
      </trkpt>
      <trkpt lat="43.66171" lon="3.86025">
        <ele>53.200012207031</ele>
        <time>2016-10-09T07:23:16Z</time>
      </trkpt>
      <trkpt lat="43.66169" lon="3.86026">
        <ele>52.599975585938</ele>
        <time>2016-10-09T07:23:17Z</time>
      </trkpt>
      <trkpt lat="43.66166" lon="3.86026">
        <ele>51.799987792969</ele>
        <time>2016-10-09T07:23:19Z</time>
      </trkpt>
      <trkpt lat="43.6616" lon="3.86025">
        <ele>50.400024414062</ele>
        <time>2016-10-09T07:23:22Z</time>
      </trkpt>
      <trkpt lat="43.66156" lon="3.86025">
        <ele>49.599975585938</ele>
        <time>2016-10-09T07:23:24Z</time>
      </trkpt>
      <trkpt lat="43.66154" lon="3.86025">
        <ele>49.200012207031</ele>
        <time>2016-10-09T07:23:25Z</time>
      </trkpt>
      <trkpt lat="43.66146" lon="3.86025">
        <ele>48</ele>
        <time>2016-10-09T07:23:28Z</time>
      </trkpt>
      <trkpt lat="43.6614" lon="3.86025">
        <ele>46.799987792969</ele>
        <time>2016-10-09T07:23:30Z</time>
      </trkpt>
      <trkpt lat="43.66136" lon="3.86025">
        <ele>46.200012207031</ele>
        <time>2016-10-09T07:23:31Z</time>
      </trkpt>
      <trkpt lat="43.66133" lon="3.86025">
        <ele>45.799987792969</ele>
        <time>2016-10-09T07:23:32Z</time>
      </trkpt>
      <trkpt lat="43.66112" lon="3.86024">
        <ele>45.200012207031</ele>
        <time>2016-10-09T07:23:37Z</time>
      </trkpt>
      <trkpt lat="43.66084" lon="3.86006">
        <ele>45.599975585938</ele>
        <time>2016-10-09T07:23:43Z</time>
      </trkpt>
      <trkpt lat="43.66069" lon="3.85998">
        <ele>44.799987792969</ele>
        <time>2016-10-09T07:23:46Z</time>
      </trkpt>
      <trkpt lat="43.66054" lon="3.8599">
        <ele>44</ele>
        <time>2016-10-09T07:23:49Z</time>
      </trkpt>
      <trkpt lat="43.6605" lon="3.85987">
        <ele>43.799987792969</ele>
        <time>2016-10-09T07:23:50Z</time>
      </trkpt>
      <trkpt lat="43.66042" lon="3.85978">
        <ele>43.200012207031</ele>
        <time>2016-10-09T07:23:53Z</time>
      </trkpt>
      <trkpt lat="43.66024" lon="3.8597">
        <ele>42.599975585938</ele>
        <time>2016-10-09T07:23:58Z</time>
      </trkpt>
      <trkpt lat="43.66015" lon="3.85971">
        <ele>42</ele>
        <time>2016-10-09T07:24:00Z</time>
      </trkpt>
      <trkpt lat="43.66004" lon="3.85973">
        <ele>41.400024414062</ele>
        <time>2016-10-09T07:24:02Z</time>
      </trkpt>
      <trkpt lat="43.65994" lon="3.85975">
        <ele>41.200012207031</ele>
        <time>2016-10-09T07:24:04Z</time>
      </trkpt>
      <trkpt lat="43.65953" lon="3.85981">
        <ele>41</ele>
        <time>2016-10-09T07:24:10Z</time>
      </trkpt>
      <trkpt lat="43.65907" lon="3.85982">
        <ele>41</ele>
        <time>2016-10-09T07:24:17Z</time>
      </trkpt>
      <trkpt lat="43.65898" lon="3.85981">
        <ele>41.400024414062</ele>
        <time>2016-10-09T07:24:19Z</time>
      </trkpt>
      <trkpt lat="43.65891" lon="3.85975">
        <ele>41.799987792969</ele>
        <time>2016-10-09T07:24:21Z</time>
      </trkpt>
      <trkpt lat="43.65887" lon="3.8597">
        <ele>42.799987792969</ele>
        <time>2016-10-09T07:24:23Z</time>
      </trkpt>
      <trkpt lat="43.65883" lon="3.85965">
        <ele>43.799987792969</ele>
        <time>2016-10-09T07:24:25Z</time>
      </trkpt>
      <trkpt lat="43.65881" lon="3.85964">
        <ele>44.200012207031</ele>
        <time>2016-10-09T07:24:26Z</time>
      </trkpt>
      <trkpt lat="43.65876" lon="3.85957">
        <ele>45.400024414062</ele>
        <time>2016-10-09T07:24:29Z</time>
      </trkpt>
      <trkpt lat="43.65872" lon="3.8595">
        <ele>46.599975585938</ele>
        <time>2016-10-09T07:24:32Z</time>
      </trkpt>
      <trkpt lat="43.65866" lon="3.85944">
        <ele>48</ele>
        <time>2016-10-09T07:24:35Z</time>
      </trkpt>
      <trkpt lat="43.65864" lon="3.8594">
        <ele>49</ele>
        <time>2016-10-09T07:24:37Z</time>
      </trkpt>
      <trkpt lat="43.6586" lon="3.85936">
        <ele>50.200012207031</ele>
        <time>2016-10-09T07:24:39Z</time>
      </trkpt>
      <trkpt lat="43.65857" lon="3.85934">
        <ele>51.599975585938</ele>
        <time>2016-10-09T07:24:41Z</time>
      </trkpt>
      <trkpt lat="43.65853" lon="3.85932">
        <ele>52.599975585938</ele>
        <time>2016-10-09T07:24:43Z</time>
      </trkpt>
      <trkpt lat="43.65851" lon="3.85931">
        <ele>53</ele>
        <time>2016-10-09T07:24:44Z</time>
      </trkpt>
      <trkpt lat="43.65848" lon="3.8593">
        <ele>54</ele>
        <time>2016-10-09T07:24:46Z</time>
      </trkpt>
      <trkpt lat="43.65844" lon="3.85929">
        <ele>55.200012207031</ele>
        <time>2016-10-09T07:24:48Z</time>
      </trkpt>
      <trkpt lat="43.65841" lon="3.85927">
        <ele>56.200012207031</ele>
        <time>2016-10-09T07:24:50Z</time>
      </trkpt>
      <trkpt lat="43.65839" lon="3.85926">
        <ele>56.799987792969</ele>
        <time>2016-10-09T07:24:51Z</time>
      </trkpt>
      <trkpt lat="43.65838" lon="3.85924">
        <ele>57.400024414062</ele>
        <time>2016-10-09T07:24:52Z</time>
      </trkpt>
      <trkpt lat="43.65833" lon="3.85919">
        <ele>58.799987792969</ele>
        <time>2016-10-09T07:24:55Z</time>
      </trkpt>
      <trkpt lat="43.65829" lon="3.85913">
        <ele>60.200012207031</ele>
        <time>2016-10-09T07:24:58Z</time>
      </trkpt>
      <trkpt lat="43.65828" lon="3.85912">
        <ele>60.599975585938</ele>
        <time>2016-10-09T07:24:59Z</time>
      </trkpt>
      <trkpt lat="43.65827" lon="3.8591">
        <ele>61.200012207031</ele>
        <time>2016-10-09T07:25:00Z</time>
      </trkpt>
      <trkpt lat="43.65822" lon="3.85904">
        <ele>62.599975585938</ele>
        <time>2016-10-09T07:25:03Z</time>
      </trkpt>
      <trkpt lat="43.65818" lon="3.85898">
        <ele>63.799987792969</ele>
        <time>2016-10-09T07:25:06Z</time>
      </trkpt>
      <trkpt lat="43.65812" lon="3.85895">
        <ele>65</ele>
        <time>2016-10-09T07:25:09Z</time>
      </trkpt>
      <trkpt lat="43.65804" lon="3.85898">
        <ele>66.200012207031</ele>
        <time>2016-10-09T07:25:12Z</time>
      </trkpt>
      <trkpt lat="43.65799" lon="3.85899">
        <ele>66.799987792969</ele>
        <time>2016-10-09T07:25:14Z</time>
      </trkpt>
      <trkpt lat="43.65794" lon="3.859">
        <ele>67.200012207031</ele>
        <time>2016-10-09T07:25:16Z</time>
      </trkpt>
      <trkpt lat="43.65787" lon="3.85899">
        <ele>68.200012207031</ele>
        <time>2016-10-09T07:25:19Z</time>
      </trkpt>
      <trkpt lat="43.65782" lon="3.85897">
        <ele>68.799987792969</ele>
        <time>2016-10-09T07:25:21Z</time>
      </trkpt>
      <trkpt lat="43.6578" lon="3.85896">
        <ele>69.200012207031</ele>
        <time>2016-10-09T07:25:22Z</time>
      </trkpt>
      <trkpt lat="43.65773" lon="3.85892">
        <ele>70.400024414062</ele>
        <time>2016-10-09T07:25:25Z</time>
      </trkpt>
      <trkpt lat="43.65765" lon="3.85889">
        <ele>70.599975585938</ele>
        <time>2016-10-09T07:25:28Z</time>
      </trkpt>
      <trkpt lat="43.65749" lon="3.85881">
        <ele>71.799987792969</ele>
        <time>2016-10-09T07:25:34Z</time>
      </trkpt>
      <trkpt lat="43.65747" lon="3.8588">
        <ele>72</ele>
        <time>2016-10-09T07:25:35Z</time>
      </trkpt>
      <trkpt lat="43.65741" lon="3.85878">
        <ele>73</ele>
        <time>2016-10-09T07:25:38Z</time>
      </trkpt>
      <trkpt lat="43.65733" lon="3.85876">
        <ele>74.200012207031</ele>
        <time>2016-10-09T07:25:42Z</time>
      </trkpt>
      <trkpt lat="43.65731" lon="3.85876">
        <ele>74.599975585938</ele>
        <time>2016-10-09T07:25:43Z</time>
      </trkpt>
      <trkpt lat="43.65726" lon="3.85876">
        <ele>75.599975585938</ele>
        <time>2016-10-09T07:25:45Z</time>
      </trkpt>
      <trkpt lat="43.65709" lon="3.85877">
        <ele>76.599975585938</ele>
        <time>2016-10-09T07:25:51Z</time>
      </trkpt>
      <trkpt lat="43.65689" lon="3.85866">
        <ele>76.599975585938</ele>
        <time>2016-10-09T07:25:58Z</time>
      </trkpt>
      <trkpt lat="43.65673" lon="3.85851">
        <ele>75.400024414062</ele>
        <time>2016-10-09T07:26:03Z</time>
      </trkpt>
      <trkpt lat="43.65667" lon="3.85845">
        <ele>75.200012207031</ele>
        <time>2016-10-09T07:26:05Z</time>
      </trkpt>
      <trkpt lat="43.65645" lon="3.85836">
        <ele>75.799987792969</ele>
        <time>2016-10-09T07:26:11Z</time>
      </trkpt>
      <trkpt lat="43.65626" lon="3.85825">
        <ele>76</ele>
        <time>2016-10-09T07:26:17Z</time>
      </trkpt>
      <trkpt lat="43.65616" lon="3.85821">
        <ele>76</ele>
        <time>2016-10-09T07:26:21Z</time>
      </trkpt>
      <trkpt lat="43.656" lon="3.85829">
        <ele>76</ele>
        <time>2016-10-09T07:26:26Z</time>
      </trkpt>
      <trkpt lat="43.65572" lon="3.85843">
        <ele>76</ele>
        <time>2016-10-09T07:26:34Z</time>
      </trkpt>
      <trkpt lat="43.65549" lon="3.85851">
        <ele>75.799987792969</ele>
        <time>2016-10-09T07:26:40Z</time>
      </trkpt>
      <trkpt lat="43.65538" lon="3.8585">
        <ele>75.799987792969</ele>
        <time>2016-10-09T07:26:43Z</time>
      </trkpt>
      <trkpt lat="43.65536" lon="3.85846">
        <ele>75.799987792969</ele>
        <time>2016-10-09T07:26:44Z</time>
      </trkpt>
      <trkpt lat="43.65529" lon="3.85821">
        <ele>74.200012207031</ele>
        <time>2016-10-09T07:26:47Z</time>
      </trkpt>
      <trkpt lat="43.65526" lon="3.85816">
        <ele>73.599975585938</ele>
        <time>2016-10-09T07:26:48Z</time>
      </trkpt>
      <trkpt lat="43.65523" lon="3.85811">
        <ele>72.799987792969</ele>
        <time>2016-10-09T07:26:50Z</time>
      </trkpt>
      <trkpt lat="43.65528" lon="3.85809">
        <ele>69</ele>
        <time>2016-10-09T07:27:06Z</time>
      </trkpt>
      <trkpt lat="43.6552" lon="3.85797">
        <ele>68.400024414062</ele>
        <time>2016-10-09T07:27:09Z</time>
      </trkpt>
      <trkpt lat="43.65504" lon="3.85785">
        <ele>67.799987792969</ele>
        <time>2016-10-09T07:27:12Z</time>
      </trkpt>
      <trkpt lat="43.65498" lon="3.85781">
        <ele>67.799987792969</ele>
        <time>2016-10-09T07:27:13Z</time>
      </trkpt>
      <trkpt lat="43.65492" lon="3.85776">
        <ele>67.599975585938</ele>
        <time>2016-10-09T07:27:14Z</time>
      </trkpt>
      <trkpt lat="43.65482" lon="3.85771">
        <ele>67.200012207031</ele>
        <time>2016-10-09T07:27:16Z</time>
      </trkpt>
      <trkpt lat="43.65471" lon="3.85768">
        <ele>67</ele>
        <time>2016-10-09T07:27:18Z</time>
      </trkpt>
      <trkpt lat="43.65466" lon="3.85767">
        <ele>66.799987792969</ele>
        <time>2016-10-09T07:27:19Z</time>
      </trkpt>
      <trkpt lat="43.65461" lon="3.85763">
        <ele>66.599975585938</ele>
        <time>2016-10-09T07:27:20Z</time>
      </trkpt>
      <trkpt lat="43.65451" lon="3.85752">
        <ele>65.799987792969</ele>
        <time>2016-10-09T07:27:22Z</time>
      </trkpt>
      <trkpt lat="43.65448" lon="3.85743">
        <ele>65.200012207031</ele>
        <time>2016-10-09T07:27:23Z</time>
      </trkpt>
      <trkpt lat="43.65444" lon="3.85735">
        <ele>64.599975585938</ele>
        <time>2016-10-09T07:27:24Z</time>
      </trkpt>
      <trkpt lat="43.65441" lon="3.85725">
        <ele>63.799987792969</ele>
        <time>2016-10-09T07:27:25Z</time>
      </trkpt>
      <trkpt lat="43.65438" lon="3.85714">
        <ele>63</ele>
        <time>2016-10-09T07:27:26Z</time>
      </trkpt>
      <trkpt lat="43.65434" lon="3.85705">
        <ele>62.400024414062</ele>
        <time>2016-10-09T07:27:27Z</time>
      </trkpt>
      <trkpt lat="43.65429" lon="3.8569">
        <ele>61.200012207031</ele>
        <time>2016-10-09T07:27:29Z</time>
      </trkpt>
      <trkpt lat="43.65426" lon="3.85683">
        <ele>60.599975585938</ele>
        <time>2016-10-09T07:27:30Z</time>
      </trkpt>
      <trkpt lat="43.65426" lon="3.85676">
        <ele>59.799987792969</ele>
        <time>2016-10-09T07:27:31Z</time>
      </trkpt>
      <trkpt lat="43.65421" lon="3.85663">
        <ele>58.599975585938</ele>
        <time>2016-10-09T07:27:33Z</time>
      </trkpt>
      <trkpt lat="43.65417" lon="3.85657">
        <ele>58.200012207031</ele>
        <time>2016-10-09T07:27:34Z</time>
      </trkpt>
      <trkpt lat="43.65409" lon="3.85647">
        <ele>57.400024414062</ele>
        <time>2016-10-09T07:27:36Z</time>
      </trkpt>
      <trkpt lat="43.65404" lon="3.8564">
        <ele>56.599975585938</ele>
        <time>2016-10-09T07:27:38Z</time>
      </trkpt>
      <trkpt lat="43.65403" lon="3.85636">
        <ele>56.400024414062</ele>
        <time>2016-10-09T07:27:39Z</time>
      </trkpt>
      <trkpt lat="43.65396" lon="3.85627">
        <ele>55.400024414062</ele>
        <time>2016-10-09T07:27:42Z</time>
      </trkpt>
      <trkpt lat="43.65392" lon="3.85627">
        <ele>55</ele>
        <time>2016-10-09T07:27:43Z</time>
      </trkpt>
      <trkpt lat="43.6538" lon="3.85636">
        <ele>54.400024414062</ele>
        <time>2016-10-09T07:27:46Z</time>
      </trkpt>
      <trkpt lat="43.65376" lon="3.85641">
        <ele>54.200012207031</ele>
        <time>2016-10-09T07:27:47Z</time>
      </trkpt>
      <trkpt lat="43.65369" lon="3.85651">
        <ele>53.799987792969</ele>
        <time>2016-10-09T07:27:49Z</time>
      </trkpt>
      <trkpt lat="43.65361" lon="3.85662">
        <ele>53.200012207031</ele>
        <time>2016-10-09T07:27:51Z</time>
      </trkpt>
      <trkpt lat="43.65358" lon="3.85667">
        <ele>53</ele>
        <time>2016-10-09T07:27:52Z</time>
      </trkpt>
      <trkpt lat="43.65344" lon="3.85685">
        <ele>52</ele>
        <time>2016-10-09T07:27:57Z</time>
      </trkpt>
      <trkpt lat="43.6533" lon="3.85684">
        <ele>51.200012207031</ele>
        <time>2016-10-09T07:28:02Z</time>
      </trkpt>
      <trkpt lat="43.65328" lon="3.85684">
        <ele>51</ele>
        <time>2016-10-09T07:28:03Z</time>
      </trkpt>
      <trkpt lat="43.65322" lon="3.85685">
        <ele>50.400024414062</ele>
        <time>2016-10-09T07:28:07Z</time>
      </trkpt>
      <trkpt lat="43.65322" lon="3.85678">
        <ele>49.400024414062</ele>
        <time>2016-10-09T07:28:15Z</time>
      </trkpt>
      <trkpt lat="43.65322" lon="3.85673">
        <ele>49.200012207031</ele>
        <time>2016-10-09T07:28:17Z</time>
      </trkpt>
      <trkpt lat="43.65322" lon="3.85667">
        <ele>48.799987792969</ele>
        <time>2016-10-09T07:28:19Z</time>
      </trkpt>
      <trkpt lat="43.6532" lon="3.85662">
        <ele>48.200012207031</ele>
        <time>2016-10-09T07:28:21Z</time>
      </trkpt>
      <trkpt lat="43.65316" lon="3.85659">
        <ele>47.599975585938</ele>
        <time>2016-10-09T07:28:23Z</time>
      </trkpt>
      <trkpt lat="43.65302" lon="3.85648">
        <ele>47</ele>
        <time>2016-10-09T07:28:28Z</time>
      </trkpt>
      <trkpt lat="43.65293" lon="3.85638">
        <ele>47.400024414062</ele>
        <time>2016-10-09T07:28:33Z</time>
      </trkpt>
      <trkpt lat="43.65295" lon="3.85617">
        <ele>47.799987792969</ele>
        <time>2016-10-09T07:28:38Z</time>
      </trkpt>
      <trkpt lat="43.65297" lon="3.85612">
        <ele>48</ele>
        <time>2016-10-09T07:28:39Z</time>
      </trkpt>
      <trkpt lat="43.65308" lon="3.85586">
        <ele>48</ele>
        <time>2016-10-09T07:28:45Z</time>
      </trkpt>
      <trkpt lat="43.6533" lon="3.85557">
        <ele>48.799987792969</ele>
        <time>2016-10-09T07:28:53Z</time>
      </trkpt>
      <trkpt lat="43.65341" lon="3.85549">
        <ele>49.799987792969</ele>
        <time>2016-10-09T07:28:56Z</time>
      </trkpt>
      <trkpt lat="43.65355" lon="3.85544">
        <ele>50.200012207031</ele>
        <time>2016-10-09T07:28:59Z</time>
      </trkpt>
      <trkpt lat="43.65367" lon="3.85537">
        <ele>50.599975585938</ele>
        <time>2016-10-09T07:29:02Z</time>
      </trkpt>
      <trkpt lat="43.65371" lon="3.85535">
        <ele>50.799987792969</ele>
        <time>2016-10-09T07:29:03Z</time>
      </trkpt>
      <trkpt lat="43.65383" lon="3.85527">
        <ele>51.799987792969</ele>
        <time>2016-10-09T07:29:06Z</time>
      </trkpt>
      <trkpt lat="43.65387" lon="3.85524">
        <ele>52.200012207031</ele>
        <time>2016-10-09T07:29:07Z</time>
      </trkpt>
      <trkpt lat="43.65394" lon="3.85518">
        <ele>52.599975585938</ele>
        <time>2016-10-09T07:29:09Z</time>
      </trkpt>
      <trkpt lat="43.65413" lon="3.85502">
        <ele>52.799987792969</ele>
        <time>2016-10-09T07:29:14Z</time>
      </trkpt>
      <trkpt lat="43.65441" lon="3.85476">
        <ele>53</ele>
        <time>2016-10-09T07:29:22Z</time>
      </trkpt>
      <trkpt lat="43.65449" lon="3.85469">
        <ele>53.200012207031</ele>
        <time>2016-10-09T07:29:24Z</time>
      </trkpt>
      <trkpt lat="43.65456" lon="3.85461">
        <ele>53.400024414062</ele>
        <time>2016-10-09T07:29:26Z</time>
      </trkpt>
      <trkpt lat="43.65464" lon="3.85451">
        <ele>54.200012207031</ele>
        <time>2016-10-09T07:29:29Z</time>
      </trkpt>
      <trkpt lat="43.65465" lon="3.85451">
        <ele>54</ele>
        <time>2016-10-09T07:29:30Z</time>
      </trkpt>
      <trkpt lat="43.65468" lon="3.85447">
        <ele>53.400024414062</ele>
        <time>2016-10-09T07:29:33Z</time>
      </trkpt>
      <trkpt lat="43.65469" lon="3.85436">
        <ele>53.200012207031</ele>
        <time>2016-10-09T07:29:37Z</time>
      </trkpt>
      <trkpt lat="43.6547" lon="3.85433">
        <ele>53.200012207031</ele>
        <time>2016-10-09T07:29:38Z</time>
      </trkpt>
      <trkpt lat="43.65475" lon="3.85423">
        <ele>53</ele>
        <time>2016-10-09T07:29:43Z</time>
      </trkpt>
      <trkpt lat="43.65485" lon="3.85406">
        <ele>52.599975585938</ele>
        <time>2016-10-09T07:29:48Z</time>
      </trkpt>
      <trkpt lat="43.65491" lon="3.85382">
        <ele>52.599975585938</ele>
        <time>2016-10-09T07:29:53Z</time>
      </trkpt>
      <trkpt lat="43.65491" lon="3.85366">
        <ele>52.200012207031</ele>
        <time>2016-10-09T07:29:57Z</time>
      </trkpt>
      <trkpt lat="43.65491" lon="3.85349">
        <ele>51.599975585938</ele>
        <time>2016-10-09T07:30:01Z</time>
      </trkpt>
      <trkpt lat="43.65488" lon="3.85338">
        <ele>52</ele>
        <time>2016-10-09T07:30:05Z</time>
      </trkpt>
      <trkpt lat="43.65486" lon="3.85335">
        <ele>52.400024414062</ele>
        <time>2016-10-09T07:30:07Z</time>
      </trkpt>
      <trkpt lat="43.6548" lon="3.85335">
        <ele>52.799987792969</ele>
        <time>2016-10-09T07:30:18Z</time>
      </trkpt>
      <trkpt lat="43.65479" lon="3.85339">
        <ele>53.200012207031</ele>
        <time>2016-10-09T07:30:20Z</time>
      </trkpt>
      <trkpt lat="43.65479" lon="3.85342">
        <ele>53.400024414062</ele>
        <time>2016-10-09T07:30:21Z</time>
      </trkpt>
      <trkpt lat="43.65473" lon="3.85354">
        <ele>54.599975585938</ele>
        <time>2016-10-09T07:30:26Z</time>
      </trkpt>
      <trkpt lat="43.65471" lon="3.85356">
        <ele>54.799987792969</ele>
        <time>2016-10-09T07:30:27Z</time>
      </trkpt>
      <trkpt lat="43.65467" lon="3.85358">
        <ele>55.200012207031</ele>
        <time>2016-10-09T07:30:29Z</time>
      </trkpt>
      <trkpt lat="43.65464" lon="3.85369">
        <ele>56.400024414062</ele>
        <time>2016-10-09T07:30:38Z</time>
      </trkpt>
      <trkpt lat="43.65456" lon="3.85383">
        <ele>57</ele>
        <time>2016-10-09T07:30:43Z</time>
      </trkpt>
      <trkpt lat="43.65452" lon="3.85389">
        <ele>57.200012207031</ele>
        <time>2016-10-09T07:30:45Z</time>
      </trkpt>
      <trkpt lat="43.6545" lon="3.85391">
        <ele>57.400024414062</ele>
        <time>2016-10-09T07:30:46Z</time>
      </trkpt>
      <trkpt lat="43.6544" lon="3.85403">
        <ele>58.400024414062</ele>
        <time>2016-10-09T07:30:52Z</time>
      </trkpt>
      <trkpt lat="43.65437" lon="3.85408">
        <ele>58.599975585938</ele>
        <time>2016-10-09T07:30:54Z</time>
      </trkpt>
      <trkpt lat="43.65426" lon="3.85421">
        <ele>59.599975585938</ele>
        <time>2016-10-09T07:31:00Z</time>
      </trkpt>
      <trkpt lat="43.65423" lon="3.85424">
        <ele>59.799987792969</ele>
        <time>2016-10-09T07:31:01Z</time>
      </trkpt>
      <trkpt lat="43.65407" lon="3.85439">
        <ele>60.200012207031</ele>
        <time>2016-10-09T07:31:09Z</time>
      </trkpt>
      <trkpt lat="43.65403" lon="3.85443">
        <ele>60.599975585938</ele>
        <time>2016-10-09T07:31:11Z</time>
      </trkpt>
      <trkpt lat="43.65383" lon="3.85455">
        <ele>60.799987792969</ele>
        <time>2016-10-09T07:31:18Z</time>
      </trkpt>
      <trkpt lat="43.65363" lon="3.85469">
        <ele>60.799987792969</ele>
        <time>2016-10-09T07:31:24Z</time>
      </trkpt>
      <trkpt lat="43.65349" lon="3.8548">
        <ele>60.200012207031</ele>
        <time>2016-10-09T07:31:27Z</time>
      </trkpt>
      <trkpt lat="43.6534" lon="3.8548">
        <ele>59.799987792969</ele>
        <time>2016-10-09T07:31:29Z</time>
      </trkpt>
      <trkpt lat="43.65332" lon="3.85476">
        <ele>59.200012207031</ele>
        <time>2016-10-09T07:31:31Z</time>
      </trkpt>
      <trkpt lat="43.65328" lon="3.85473">
        <ele>59</ele>
        <time>2016-10-09T07:31:32Z</time>
      </trkpt>
      <trkpt lat="43.65324" lon="3.85469">
        <ele>58.599975585938</ele>
        <time>2016-10-09T07:31:33Z</time>
      </trkpt>
      <trkpt lat="43.65318" lon="3.85465">
        <ele>58.200012207031</ele>
        <time>2016-10-09T07:31:35Z</time>
      </trkpt>
      <trkpt lat="43.65315" lon="3.85465">
        <ele>57.799987792969</ele>
        <time>2016-10-09T07:31:36Z</time>
      </trkpt>
      <trkpt lat="43.65313" lon="3.85466">
        <ele>57.599975585938</ele>
        <time>2016-10-09T07:31:37Z</time>
      </trkpt>
      <trkpt lat="43.65305" lon="3.8547">
        <ele>57.200012207031</ele>
        <time>2016-10-09T07:31:42Z</time>
      </trkpt>
      <trkpt lat="43.65304" lon="3.85471">
        <ele>57.200012207031</ele>
        <time>2016-10-09T07:31:43Z</time>
      </trkpt>
      <trkpt lat="43.65292" lon="3.85485">
        <ele>57.799987792969</ele>
        <time>2016-10-09T07:31:50Z</time>
      </trkpt>
      <trkpt lat="43.65288" lon="3.85489">
        <ele>58.200012207031</ele>
        <time>2016-10-09T07:31:52Z</time>
      </trkpt>
      <trkpt lat="43.65279" lon="3.85502">
        <ele>59.200012207031</ele>
        <time>2016-10-09T07:31:57Z</time>
      </trkpt>
      <trkpt lat="43.65274" lon="3.85507">
        <ele>59.200012207031</ele>
        <time>2016-10-09T07:32:00Z</time>
      </trkpt>
      <trkpt lat="43.65265" lon="3.85517">
        <ele>60.599975585938</ele>
        <time>2016-10-09T07:32:05Z</time>
      </trkpt>
      <trkpt lat="43.65259" lon="3.85527">
        <ele>62</ele>
        <time>2016-10-09T07:32:08Z</time>
      </trkpt>
      <trkpt lat="43.65254" lon="3.85536">
        <ele>62.400024414062</ele>
        <time>2016-10-09T07:32:11Z</time>
      </trkpt>
      <trkpt lat="43.65248" lon="3.85543">
        <ele>63</ele>
        <time>2016-10-09T07:32:14Z</time>
      </trkpt>
      <trkpt lat="43.65245" lon="3.85554">
        <ele>63.400024414062</ele>
        <time>2016-10-09T07:32:17Z</time>
      </trkpt>
      <trkpt lat="43.65243" lon="3.85563">
        <ele>64</ele>
        <time>2016-10-09T07:32:19Z</time>
      </trkpt>
      <trkpt lat="43.65245" lon="3.8558">
        <ele>64</ele>
        <time>2016-10-09T07:32:22Z</time>
      </trkpt>
      <trkpt lat="43.6524" lon="3.85604">
        <ele>64.799987792969</ele>
        <time>2016-10-09T07:32:27Z</time>
      </trkpt>
      <trkpt lat="43.65226" lon="3.85622">
        <ele>65</ele>
        <time>2016-10-09T07:32:33Z</time>
      </trkpt>
      <trkpt lat="43.65221" lon="3.85623">
        <ele>65.200012207031</ele>
        <time>2016-10-09T07:32:36Z</time>
      </trkpt>
      <trkpt lat="43.65215" lon="3.85624">
        <ele>65</ele>
        <time>2016-10-09T07:32:42Z</time>
      </trkpt>
      <trkpt lat="43.65206" lon="3.85617">
        <ele>65.200012207031</ele>
        <time>2016-10-09T07:32:47Z</time>
      </trkpt>
      <trkpt lat="43.65193" lon="3.85608">
        <ele>65</ele>
        <time>2016-10-09T07:32:52Z</time>
      </trkpt>
      <trkpt lat="43.65187" lon="3.85603">
        <ele>64.799987792969</ele>
        <time>2016-10-09T07:32:54Z</time>
      </trkpt>
      <trkpt lat="43.65184" lon="3.85597">
        <ele>64.400024414062</ele>
        <time>2016-10-09T07:32:56Z</time>
      </trkpt>
      <trkpt lat="43.65183" lon="3.85594">
        <ele>64</ele>
        <time>2016-10-09T07:32:57Z</time>
      </trkpt>
      <trkpt lat="43.65183" lon="3.85592">
        <ele>64</ele>
        <time>2016-10-09T07:32:58Z</time>
      </trkpt>
      <trkpt lat="43.65181" lon="3.85583">
        <ele>63.799987792969</ele>
        <time>2016-10-09T07:33:01Z</time>
      </trkpt>
      <trkpt lat="43.65176" lon="3.85555">
        <ele>62.799987792969</ele>
        <time>2016-10-09T07:33:08Z</time>
      </trkpt>
      <trkpt lat="43.6517" lon="3.85537">
        <ele>62.400024414062</ele>
        <time>2016-10-09T07:33:13Z</time>
      </trkpt>
      <trkpt lat="43.65156" lon="3.85504">
        <ele>62.400024414062</ele>
        <time>2016-10-09T07:33:21Z</time>
      </trkpt>
      <trkpt lat="43.65146" lon="3.85496">
        <ele>62.200012207031</ele>
        <time>2016-10-09T07:33:25Z</time>
      </trkpt>
      <trkpt lat="43.65141" lon="3.85492">
        <ele>61.799987792969</ele>
        <time>2016-10-09T07:33:27Z</time>
      </trkpt>
      <trkpt lat="43.65127" lon="3.85484">
        <ele>61.400024414062</ele>
        <time>2016-10-09T07:33:32Z</time>
      </trkpt>
      <trkpt lat="43.6511" lon="3.85479">
        <ele>61.200012207031</ele>
        <time>2016-10-09T07:33:37Z</time>
      </trkpt>
      <trkpt lat="43.65109" lon="3.85474">
        <ele>61</ele>
        <time>2016-10-09T07:33:38Z</time>
      </trkpt>
      <trkpt lat="43.65108" lon="3.85466">
        <ele>61</ele>
        <time>2016-10-09T07:33:40Z</time>
      </trkpt>
      <trkpt lat="43.65107" lon="3.85455">
        <ele>61.200012207031</ele>
        <time>2016-10-09T07:33:43Z</time>
      </trkpt>
      <trkpt lat="43.65107" lon="3.85446">
        <ele>61.599975585938</ele>
        <time>2016-10-09T07:33:45Z</time>
      </trkpt>
      <trkpt lat="43.65106" lon="3.85414">
        <ele>61.799987792969</ele>
        <time>2016-10-09T07:33:52Z</time>
      </trkpt>
      <trkpt lat="43.65104" lon="3.85397">
        <ele>61.599975585938</ele>
        <time>2016-10-09T07:34:01Z</time>
      </trkpt>
      <trkpt lat="43.65104" lon="3.85389">
        <ele>61.599975585938</ele>
        <time>2016-10-09T07:34:06Z</time>
      </trkpt>
      <trkpt lat="43.65105" lon="3.85387">
        <ele>61.599975585938</ele>
        <time>2016-10-09T07:34:07Z</time>
      </trkpt>
      <trkpt lat="43.65108" lon="3.85368">
        <ele>61.599975585938</ele>
        <time>2016-10-09T07:34:13Z</time>
      </trkpt>
      <trkpt lat="43.65106" lon="3.85347">
        <ele>60.599975585938</ele>
        <time>2016-10-09T07:34:19Z</time>
      </trkpt>
      <trkpt lat="43.65106" lon="3.85343">
        <ele>60.599975585938</ele>
        <time>2016-10-09T07:34:20Z</time>
      </trkpt>
      <trkpt lat="43.65108" lon="3.85316">
        <ele>59.599975585938</ele>
        <time>2016-10-09T07:34:26Z</time>
      </trkpt>
      <trkpt lat="43.65113" lon="3.85295">
        <ele>59</ele>
        <time>2016-10-09T07:34:31Z</time>
      </trkpt>
      <trkpt lat="43.65126" lon="3.85282">
        <ele>58.400024414062</ele>
        <time>2016-10-09T07:34:35Z</time>
      </trkpt>
      <trkpt lat="43.65131" lon="3.85275">
        <ele>58.200012207031</ele>
        <time>2016-10-09T07:34:37Z</time>
      </trkpt>
      <trkpt lat="43.65155" lon="3.85248">
        <ele>58.400024414062</ele>
        <time>2016-10-09T07:34:46Z</time>
      </trkpt>
      <trkpt lat="43.65168" lon="3.85235">
        <ele>59.200012207031</ele>
        <time>2016-10-09T07:34:53Z</time>
      </trkpt>
      <trkpt lat="43.65173" lon="3.85231">
        <ele>59.599975585938</ele>
        <time>2016-10-09T07:35:05Z</time>
      </trkpt>
      <trkpt lat="43.65177" lon="3.85227">
        <ele>60.200012207031</ele>
        <time>2016-10-09T07:35:07Z</time>
      </trkpt>
      <trkpt lat="43.6518" lon="3.85224">
        <ele>60.599975585938</ele>
        <time>2016-10-09T07:35:09Z</time>
      </trkpt>
      <trkpt lat="43.65185" lon="3.85226">
        <ele>61.400024414062</ele>
        <time>2016-10-09T07:35:11Z</time>
      </trkpt>
      <trkpt lat="43.65188" lon="3.85227">
        <ele>61.799987792969</ele>
        <time>2016-10-09T07:35:12Z</time>
      </trkpt>
      <trkpt lat="43.65199" lon="3.85228">
        <ele>63</ele>
        <time>2016-10-09T07:35:15Z</time>
      </trkpt>
      <trkpt lat="43.65205" lon="3.85229">
        <ele>63.599975585938</ele>
        <time>2016-10-09T07:35:17Z</time>
      </trkpt>
      <trkpt lat="43.65211" lon="3.8523">
        <ele>64</ele>
        <time>2016-10-09T07:35:19Z</time>
      </trkpt>
      <trkpt lat="43.65217" lon="3.85232">
        <ele>65.200012207031</ele>
        <time>2016-10-09T07:35:22Z</time>
      </trkpt>
      <trkpt lat="43.65219" lon="3.85232">
        <ele>65.400024414062</ele>
        <time>2016-10-09T07:35:23Z</time>
      </trkpt>
      <trkpt lat="43.65228" lon="3.85227">
        <ele>65.400024414062</ele>
        <time>2016-10-09T07:35:27Z</time>
      </trkpt>
      <trkpt lat="43.65231" lon="3.85219">
        <ele>65.799987792969</ele>
        <time>2016-10-09T07:35:29Z</time>
      </trkpt>
      <trkpt lat="43.65231" lon="3.85199">
        <ele>65.400024414062</ele>
        <time>2016-10-09T07:35:33Z</time>
      </trkpt>
      <trkpt lat="43.65225" lon="3.85165">
        <ele>65.400024414062</ele>
        <time>2016-10-09T07:35:39Z</time>
      </trkpt>
      <trkpt lat="43.65208" lon="3.85123">
        <ele>65.400024414062</ele>
        <time>2016-10-09T07:35:47Z</time>
      </trkpt>
      <trkpt lat="43.65185" lon="3.85085">
        <ele>66</ele>
        <time>2016-10-09T07:35:56Z</time>
      </trkpt>
      <trkpt lat="43.6518" lon="3.85076">
        <ele>66.200012207031</ele>
        <time>2016-10-09T07:35:58Z</time>
      </trkpt>
      <trkpt lat="43.65172" lon="3.8506">
        <ele>66.799987792969</ele>
        <time>2016-10-09T07:36:01Z</time>
      </trkpt>
      <trkpt lat="43.65169" lon="3.85048">
        <ele>67</ele>
        <time>2016-10-09T07:36:03Z</time>
      </trkpt>
      <trkpt lat="43.65167" lon="3.85036">
        <ele>67.400024414062</ele>
        <time>2016-10-09T07:36:05Z</time>
      </trkpt>
      <trkpt lat="43.65166" lon="3.85016">
        <ele>68.400024414062</ele>
        <time>2016-10-09T07:36:09Z</time>
      </trkpt>
      <trkpt lat="43.65168" lon="3.85003">
        <ele>69.599975585938</ele>
        <time>2016-10-09T07:36:12Z</time>
      </trkpt>
      <trkpt lat="43.6517" lon="3.84986">
        <ele>70.599975585938</ele>
        <time>2016-10-09T07:36:16Z</time>
      </trkpt>
      <trkpt lat="43.65172" lon="3.84964">
        <ele>71.799987792969</ele>
        <time>2016-10-09T07:36:21Z</time>
      </trkpt>
      <trkpt lat="43.65173" lon="3.84946">
        <ele>72.400024414062</ele>
        <time>2016-10-09T07:36:25Z</time>
      </trkpt>
      <trkpt lat="43.65175" lon="3.84937">
        <ele>73</ele>
        <time>2016-10-09T07:36:27Z</time>
      </trkpt>
      <trkpt lat="43.65181" lon="3.84923">
        <ele>74.200012207031</ele>
        <time>2016-10-09T07:36:31Z</time>
      </trkpt>
      <trkpt lat="43.65189" lon="3.84917">
        <ele>75.799987792969</ele>
        <time>2016-10-09T07:36:34Z</time>
      </trkpt>
      <trkpt lat="43.65195" lon="3.84915">
        <ele>76.200012207031</ele>
        <time>2016-10-09T07:36:36Z</time>
      </trkpt>
      <trkpt lat="43.65203" lon="3.84913">
        <ele>76.799987792969</ele>
        <time>2016-10-09T07:36:39Z</time>
      </trkpt>
      <trkpt lat="43.6521" lon="3.84909">
        <ele>78</ele>
        <time>2016-10-09T07:36:42Z</time>
      </trkpt>
      <trkpt lat="43.65212" lon="3.84908">
        <ele>78.400024414062</ele>
        <time>2016-10-09T07:36:43Z</time>
      </trkpt>
      <trkpt lat="43.6522" lon="3.84901">
        <ele>79.200012207031</ele>
        <time>2016-10-09T07:36:46Z</time>
      </trkpt>
      <trkpt lat="43.65227" lon="3.84892">
        <ele>80</ele>
        <time>2016-10-09T07:36:49Z</time>
      </trkpt>
      <trkpt lat="43.65231" lon="3.84885">
        <ele>80.200012207031</ele>
        <time>2016-10-09T07:36:51Z</time>
      </trkpt>
      <trkpt lat="43.65235" lon="3.84866">
        <ele>81.200012207031</ele>
        <time>2016-10-09T07:36:56Z</time>
      </trkpt>
      <trkpt lat="43.6524" lon="3.84841">
        <ele>80.400024414062</ele>
        <time>2016-10-09T07:37:03Z</time>
      </trkpt>
      <trkpt lat="43.65244" lon="3.8483">
        <ele>77.599975585938</ele>
        <time>2016-10-09T07:41:59Z</time>
      </trkpt>
      <trkpt lat="43.65245" lon="3.84817">
        <ele>77.599975585938</ele>
        <time>2016-10-09T07:42:03Z</time>
      </trkpt>
      <trkpt lat="43.65245" lon="3.84787">
        <ele>77.799987792969</ele>
        <time>2016-10-09T07:42:10Z</time>
      </trkpt>
      <trkpt lat="43.65247" lon="3.84764">
        <ele>78.400024414062</ele>
        <time>2016-10-09T07:42:16Z</time>
      </trkpt>
      <trkpt lat="43.65245" lon="3.84737">
        <ele>78</ele>
        <time>2016-10-09T07:42:22Z</time>
      </trkpt>
      <trkpt lat="43.65244" lon="3.84723">
        <ele>78.400024414062</ele>
        <time>2016-10-09T07:42:25Z</time>
      </trkpt>
      <trkpt lat="43.65244" lon="3.84713">
        <ele>78.799987792969</ele>
        <time>2016-10-09T07:42:27Z</time>
      </trkpt>
      <trkpt lat="43.65245" lon="3.8469">
        <ele>79.200012207031</ele>
        <time>2016-10-09T07:42:32Z</time>
      </trkpt>
      <trkpt lat="43.65247" lon="3.84672">
        <ele>80</ele>
        <time>2016-10-09T07:42:36Z</time>
      </trkpt>
      <trkpt lat="43.65246" lon="3.8466">
        <ele>80.599975585938</ele>
        <time>2016-10-09T07:42:39Z</time>
      </trkpt>
      <trkpt lat="43.65246" lon="3.84651">
        <ele>81</ele>
        <time>2016-10-09T07:42:41Z</time>
      </trkpt>
      <trkpt lat="43.65247" lon="3.84634">
        <ele>82</ele>
        <time>2016-10-09T07:42:45Z</time>
      </trkpt>
      <trkpt lat="43.65247" lon="3.8463">
        <ele>82.400024414062</ele>
        <time>2016-10-09T07:42:46Z</time>
      </trkpt>
      <trkpt lat="43.65247" lon="3.84613">
        <ele>83.200012207031</ele>
        <time>2016-10-09T07:42:50Z</time>
      </trkpt>
      <trkpt lat="43.65248" lon="3.84599">
        <ele>84.200012207031</ele>
        <time>2016-10-09T07:42:53Z</time>
      </trkpt>
      <trkpt lat="43.65251" lon="3.84582">
        <ele>85.400024414062</ele>
        <time>2016-10-09T07:42:57Z</time>
      </trkpt>
      <trkpt lat="43.65252" lon="3.84574">
        <ele>86</ele>
        <time>2016-10-09T07:42:59Z</time>
      </trkpt>
      <trkpt lat="43.65252" lon="3.8457">
        <ele>86.400024414062</ele>
        <time>2016-10-09T07:43:00Z</time>
      </trkpt>
      <trkpt lat="43.65251" lon="3.84556">
        <ele>87</ele>
        <time>2016-10-09T07:43:04Z</time>
      </trkpt>
      <trkpt lat="43.65251" lon="3.84546">
        <ele>87.400024414062</ele>
        <time>2016-10-09T07:43:07Z</time>
      </trkpt>
      <trkpt lat="43.65252" lon="3.84531">
        <ele>88.799987792969</ele>
        <time>2016-10-09T07:43:11Z</time>
      </trkpt>
      <trkpt lat="43.65252" lon="3.84527">
        <ele>89.200012207031</ele>
        <time>2016-10-09T07:43:12Z</time>
      </trkpt>
      <trkpt lat="43.65253" lon="3.84519">
        <ele>89.799987792969</ele>
        <time>2016-10-09T07:43:14Z</time>
      </trkpt>
      <trkpt lat="43.65255" lon="3.84501">
        <ele>90.599975585938</ele>
        <time>2016-10-09T07:43:19Z</time>
      </trkpt>
      <trkpt lat="43.65255" lon="3.84497">
        <ele>91</ele>
        <time>2016-10-09T07:43:20Z</time>
      </trkpt>
      <trkpt lat="43.65253" lon="3.84484">
        <ele>92</ele>
        <time>2016-10-09T07:43:24Z</time>
      </trkpt>
      <trkpt lat="43.65251" lon="3.84471">
        <ele>93.200012207031</ele>
        <time>2016-10-09T07:43:28Z</time>
      </trkpt>
      <trkpt lat="43.65248" lon="3.84461">
        <ele>94.400024414062</ele>
        <time>2016-10-09T07:43:31Z</time>
      </trkpt>
      <trkpt lat="43.65245" lon="3.84455">
        <ele>95.599975585938</ele>
        <time>2016-10-09T07:43:33Z</time>
      </trkpt>
      <trkpt lat="43.65244" lon="3.84452">
        <ele>96.200012207031</ele>
        <time>2016-10-09T07:43:34Z</time>
      </trkpt>
      <trkpt lat="43.65242" lon="3.84446">
        <ele>96.799987792969</ele>
        <time>2016-10-09T07:43:36Z</time>
      </trkpt>
      <trkpt lat="43.65232" lon="3.84419">
        <ele>97.799987792969</ele>
        <time>2016-10-09T07:43:44Z</time>
      </trkpt>
      <trkpt lat="43.65231" lon="3.84415">
        <ele>98</ele>
        <time>2016-10-09T07:43:45Z</time>
      </trkpt>
      <trkpt lat="43.65222" lon="3.84386">
        <ele>98.799987792969</ele>
        <time>2016-10-09T07:43:54Z</time>
      </trkpt>
      <trkpt lat="43.65212" lon="3.84348">
        <ele>99.599975585938</ele>
        <time>2016-10-09T07:44:05Z</time>
      </trkpt>
      <trkpt lat="43.6521" lon="3.84343">
        <ele>100</ele>
        <time>2016-10-09T07:44:07Z</time>
      </trkpt>
      <trkpt lat="43.65209" lon="3.84332">
        <ele>100</ele>
        <time>2016-10-09T07:44:11Z</time>
      </trkpt>
      <trkpt lat="43.65209" lon="3.84331">
        <ele>100</ele>
        <time>2016-10-09T07:44:12Z</time>
      </trkpt>
      <trkpt lat="43.65212" lon="3.84332">
        <ele>100</ele>
        <time>2016-10-09T07:44:14Z</time>
      </trkpt>
      <trkpt lat="43.6522" lon="3.84336">
        <ele>99.599975585938</ele>
        <time>2016-10-09T07:44:18Z</time>
      </trkpt>
      <trkpt lat="43.65223" lon="3.84334">
        <ele>99.799987792969</ele>
        <time>2016-10-09T07:44:19Z</time>
      </trkpt>
      <trkpt lat="43.65239" lon="3.8432">
        <ele>100.59997558594</ele>
        <time>2016-10-09T07:44:25Z</time>
      </trkpt>
      <trkpt lat="43.65252" lon="3.8431">
        <ele>99.400024414062</ele>
        <time>2016-10-09T07:44:31Z</time>
      </trkpt>
      <trkpt lat="43.65257" lon="3.84308">
        <ele>98.799987792969</ele>
        <time>2016-10-09T07:44:33Z</time>
      </trkpt>
      <trkpt lat="43.65263" lon="3.84304">
        <ele>97.599975585938</ele>
        <time>2016-10-09T07:44:35Z</time>
      </trkpt>
      <trkpt lat="43.65266" lon="3.84303">
        <ele>97</ele>
        <time>2016-10-09T07:44:36Z</time>
      </trkpt>
      <trkpt lat="43.65269" lon="3.84305">
        <ele>96.400024414062</ele>
        <time>2016-10-09T07:44:37Z</time>
      </trkpt>
      <trkpt lat="43.65274" lon="3.84309">
        <ele>94.799987792969</ele>
        <time>2016-10-09T07:44:39Z</time>
      </trkpt>
      <trkpt lat="43.65279" lon="3.84312">
        <ele>93.400024414062</ele>
        <time>2016-10-09T07:44:41Z</time>
      </trkpt>
      <trkpt lat="43.65282" lon="3.84313">
        <ele>92.599975585938</ele>
        <time>2016-10-09T07:44:42Z</time>
      </trkpt>
      <trkpt lat="43.65285" lon="3.84313">
        <ele>91.799987792969</ele>
        <time>2016-10-09T07:44:43Z</time>
      </trkpt>
      <trkpt lat="43.65287" lon="3.84315">
        <ele>90.799987792969</ele>
        <time>2016-10-09T07:44:44Z</time>
      </trkpt>
      <trkpt lat="43.65289" lon="3.84318">
        <ele>90</ele>
        <time>2016-10-09T07:44:45Z</time>
      </trkpt>
      <trkpt lat="43.6529" lon="3.84322">
        <ele>88.799987792969</ele>
        <time>2016-10-09T07:44:47Z</time>
      </trkpt>
      <trkpt lat="43.65291" lon="3.84323">
        <ele>88.200012207031</ele>
        <time>2016-10-09T07:44:48Z</time>
      </trkpt>
      <trkpt lat="43.65293" lon="3.84325">
        <ele>87.599975585938</ele>
        <time>2016-10-09T07:44:49Z</time>
      </trkpt>
      <trkpt lat="43.65296" lon="3.84331">
        <ele>86.599975585938</ele>
        <time>2016-10-09T07:44:51Z</time>
      </trkpt>
      <trkpt lat="43.65297" lon="3.84333">
        <ele>86</ele>
        <time>2016-10-09T07:44:52Z</time>
      </trkpt>
      <trkpt lat="43.65299" lon="3.84336">
        <ele>85.599975585938</ele>
        <time>2016-10-09T07:44:53Z</time>
      </trkpt>
      <trkpt lat="43.65303" lon="3.84338">
        <ele>84.400024414062</ele>
        <time>2016-10-09T07:44:55Z</time>
      </trkpt>
      <trkpt lat="43.6531" lon="3.84341">
        <ele>83.200012207031</ele>
        <time>2016-10-09T07:44:57Z</time>
      </trkpt>
      <trkpt lat="43.65318" lon="3.84345">
        <ele>82.200012207031</ele>
        <time>2016-10-09T07:44:59Z</time>
      </trkpt>
      <trkpt lat="43.65322" lon="3.84348">
        <ele>81.799987792969</ele>
        <time>2016-10-09T07:45:00Z</time>
      </trkpt>
      <trkpt lat="43.65327" lon="3.8435">
        <ele>81.200012207031</ele>
        <time>2016-10-09T07:45:01Z</time>
      </trkpt>
      <trkpt lat="43.65331" lon="3.84351">
        <ele>80.799987792969</ele>
        <time>2016-10-09T07:45:02Z</time>
      </trkpt>
      <trkpt lat="43.65334" lon="3.84353">
        <ele>80.400024414062</ele>
        <time>2016-10-09T07:45:03Z</time>
      </trkpt>
      <trkpt lat="43.6534" lon="3.84359">
        <ele>79.599975585938</ele>
        <time>2016-10-09T07:45:05Z</time>
      </trkpt>
      <trkpt lat="43.65342" lon="3.84362">
        <ele>79</ele>
        <time>2016-10-09T07:45:06Z</time>
      </trkpt>
      <trkpt lat="43.65349" lon="3.84368">
        <ele>78</ele>
        <time>2016-10-09T07:45:08Z</time>
      </trkpt>
      <trkpt lat="43.65355" lon="3.84376">
        <ele>77.200012207031</ele>
        <time>2016-10-09T07:45:10Z</time>
      </trkpt>
      <trkpt lat="43.65357" lon="3.84378">
        <ele>76.799987792969</ele>
        <time>2016-10-09T07:45:11Z</time>
      </trkpt>
      <trkpt lat="43.65358" lon="3.84381">
        <ele>76.599975585938</ele>
        <time>2016-10-09T07:45:12Z</time>
      </trkpt>
      <trkpt lat="43.65358" lon="3.84383">
        <ele>76.400024414062</ele>
        <time>2016-10-09T07:45:13Z</time>
      </trkpt>
      <trkpt lat="43.65353" lon="3.84392">
        <ele>75.599975585938</ele>
        <time>2016-10-09T07:45:16Z</time>
      </trkpt>
      <trkpt lat="43.6535" lon="3.84395">
        <ele>75.400024414062</ele>
        <time>2016-10-09T07:45:17Z</time>
      </trkpt>
      <trkpt lat="43.65344" lon="3.84404">
        <ele>75</ele>
        <time>2016-10-09T07:45:19Z</time>
      </trkpt>
      <trkpt lat="43.65338" lon="3.84413">
        <ele>74.599975585938</ele>
        <time>2016-10-09T07:45:21Z</time>
      </trkpt>
      <trkpt lat="43.65335" lon="3.84418">
        <ele>74.400024414062</ele>
        <time>2016-10-09T07:45:22Z</time>
      </trkpt>
      <trkpt lat="43.65334" lon="3.84424">
        <ele>74.200012207031</ele>
        <time>2016-10-09T07:45:23Z</time>
      </trkpt>
      <trkpt lat="43.65334" lon="3.84432">
        <ele>73.799987792969</ele>
        <time>2016-10-09T07:45:25Z</time>
      </trkpt>
      <trkpt lat="43.65336" lon="3.8443">
        <ele>72.599975585938</ele>
        <time>2016-10-09T07:45:30Z</time>
      </trkpt>
      <trkpt lat="43.65337" lon="3.84428">
        <ele>72.400024414062</ele>
        <time>2016-10-09T07:45:31Z</time>
      </trkpt>
      <trkpt lat="43.65345" lon="3.84427">
        <ele>72</ele>
        <time>2016-10-09T07:45:34Z</time>
      </trkpt>
      <trkpt lat="43.65355" lon="3.8443">
        <ele>71.400024414062</ele>
        <time>2016-10-09T07:45:36Z</time>
      </trkpt>
      <trkpt lat="43.65373" lon="3.84436">
        <ele>70.599975585938</ele>
        <time>2016-10-09T07:45:39Z</time>
      </trkpt>
      <trkpt lat="43.65379" lon="3.84437">
        <ele>70.200012207031</ele>
        <time>2016-10-09T07:45:40Z</time>
      </trkpt>
      <trkpt lat="43.65384" lon="3.84438">
        <ele>70</ele>
        <time>2016-10-09T07:45:41Z</time>
      </trkpt>
      <trkpt lat="43.65391" lon="3.84434">
        <ele>69.599975585938</ele>
        <time>2016-10-09T07:45:43Z</time>
      </trkpt>
      <trkpt lat="43.65392" lon="3.84426">
        <ele>69.200012207031</ele>
        <time>2016-10-09T07:45:45Z</time>
      </trkpt>
      <trkpt lat="43.65394" lon="3.84415">
        <ele>69</ele>
        <time>2016-10-09T07:45:47Z</time>
      </trkpt>
      <trkpt lat="43.65399" lon="3.84376">
        <ele>68.599975585938</ele>
        <time>2016-10-09T07:45:55Z</time>
      </trkpt>
      <trkpt lat="43.65396" lon="3.84349">
        <ele>68.200012207031</ele>
        <time>2016-10-09T07:46:01Z</time>
      </trkpt>
      <trkpt lat="43.65394" lon="3.84344">
        <ele>68.200012207031</ele>
        <time>2016-10-09T07:46:02Z</time>
      </trkpt>
      <trkpt lat="43.65395" lon="3.84328">
        <ele>68</ele>
        <time>2016-10-09T07:46:05Z</time>
      </trkpt>
      <trkpt lat="43.65405" lon="3.84302">
        <ele>68</ele>
        <time>2016-10-09T07:46:11Z</time>
      </trkpt>
      <trkpt lat="43.65419" lon="3.84276">
        <ele>68.200012207031</ele>
        <time>2016-10-09T07:46:17Z</time>
      </trkpt>
      <trkpt lat="43.65433" lon="3.84279">
        <ele>68.599975585938</ele>
        <time>2016-10-09T07:46:21Z</time>
      </trkpt>
      <trkpt lat="43.65444" lon="3.84277">
        <ele>69.200012207031</ele>
        <time>2016-10-09T07:46:24Z</time>
      </trkpt>
      <trkpt lat="43.65448" lon="3.84278">
        <ele>69.599975585938</ele>
        <time>2016-10-09T07:46:25Z</time>
      </trkpt>
      <trkpt lat="43.6545" lon="3.84288">
        <ele>70.400024414062</ele>
        <time>2016-10-09T07:46:28Z</time>
      </trkpt>
      <trkpt lat="43.65449" lon="3.84297">
        <ele>70.599975585938</ele>
        <time>2016-10-09T07:46:30Z</time>
      </trkpt>
      <trkpt lat="43.65447" lon="3.84325">
        <ele>70.599975585938</ele>
        <time>2016-10-09T07:46:35Z</time>
      </trkpt>
      <trkpt lat="43.65447" lon="3.84344">
        <ele>70.200012207031</ele>
        <time>2016-10-09T07:46:38Z</time>
      </trkpt>
      <trkpt lat="43.65449" lon="3.84358">
        <ele>70</ele>
        <time>2016-10-09T07:46:40Z</time>
      </trkpt>
      <trkpt lat="43.65452" lon="3.84388">
        <ele>69.200012207031</ele>
        <time>2016-10-09T07:46:44Z</time>
      </trkpt>
      <trkpt lat="43.65452" lon="3.84395">
        <ele>69</ele>
        <time>2016-10-09T07:46:45Z</time>
      </trkpt>
      <trkpt lat="43.65455" lon="3.8441">
        <ele>68.400024414062</ele>
        <time>2016-10-09T07:46:47Z</time>
      </trkpt>
      <trkpt lat="43.65456" lon="3.84418">
        <ele>68.200012207031</ele>
        <time>2016-10-09T07:46:48Z</time>
      </trkpt>
      <trkpt lat="43.65461" lon="3.84456">
        <ele>67.200012207031</ele>
        <time>2016-10-09T07:46:53Z</time>
      </trkpt>
      <trkpt lat="43.65462" lon="3.84463">
        <ele>67</ele>
        <time>2016-10-09T07:46:54Z</time>
      </trkpt>
      <trkpt lat="43.65462" lon="3.84474">
        <ele>66.200012207031</ele>
        <time>2016-10-09T07:46:57Z</time>
      </trkpt>
      <trkpt lat="43.65462" lon="3.84477">
        <ele>66</ele>
        <time>2016-10-09T07:46:58Z</time>
      </trkpt>
      <trkpt lat="43.65462" lon="3.84487">
        <ele>65.400024414062</ele>
        <time>2016-10-09T07:47:02Z</time>
      </trkpt>
      <trkpt lat="43.65466" lon="3.84502">
        <ele>65</ele>
        <time>2016-10-09T07:47:05Z</time>
      </trkpt>
      <trkpt lat="43.65469" lon="3.84513">
        <ele>64.599975585938</ele>
        <time>2016-10-09T07:47:07Z</time>
      </trkpt>
      <trkpt lat="43.65473" lon="3.84527">
        <ele>63.799987792969</ele>
        <time>2016-10-09T07:47:10Z</time>
      </trkpt>
      <trkpt lat="43.65475" lon="3.84542">
        <ele>63</ele>
        <time>2016-10-09T07:47:13Z</time>
      </trkpt>
      <trkpt lat="43.65475" lon="3.84547">
        <ele>62.599975585938</ele>
        <time>2016-10-09T07:47:14Z</time>
      </trkpt>
      <trkpt lat="43.65476" lon="3.84564">
        <ele>61.400024414062</ele>
        <time>2016-10-09T07:47:17Z</time>
      </trkpt>
      <trkpt lat="43.65476" lon="3.84577">
        <ele>60.200012207031</ele>
        <time>2016-10-09T07:47:19Z</time>
      </trkpt>
      <trkpt lat="43.65477" lon="3.84583">
        <ele>59.799987792969</ele>
        <time>2016-10-09T07:47:20Z</time>
      </trkpt>
      <trkpt lat="43.65476" lon="3.84598">
        <ele>59</ele>
        <time>2016-10-09T07:47:22Z</time>
      </trkpt>
      <trkpt lat="43.65475" lon="3.84605">
        <ele>58.400024414062</ele>
        <time>2016-10-09T07:47:23Z</time>
      </trkpt>
      <trkpt lat="43.65472" lon="3.84618">
        <ele>57.599975585938</ele>
        <time>2016-10-09T07:47:25Z</time>
      </trkpt>
      <trkpt lat="43.65467" lon="3.84637">
        <ele>56.200012207031</ele>
        <time>2016-10-09T07:47:28Z</time>
      </trkpt>
      <trkpt lat="43.65465" lon="3.84643">
        <ele>55.799987792969</ele>
        <time>2016-10-09T07:47:29Z</time>
      </trkpt>
      <trkpt lat="43.65462" lon="3.84664">
        <ele>55</ele>
        <time>2016-10-09T07:47:32Z</time>
      </trkpt>
      <trkpt lat="43.65456" lon="3.8471">
        <ele>54.200012207031</ele>
        <time>2016-10-09T07:47:39Z</time>
      </trkpt>
      <trkpt lat="43.65455" lon="3.84718">
        <ele>54</ele>
        <time>2016-10-09T07:47:40Z</time>
      </trkpt>
      <trkpt lat="43.65453" lon="3.84758">
        <ele>53.200012207031</ele>
        <time>2016-10-09T07:47:46Z</time>
      </trkpt>
      <trkpt lat="43.65453" lon="3.84765">
        <ele>52.799987792969</ele>
        <time>2016-10-09T07:47:47Z</time>
      </trkpt>
      <trkpt lat="43.65454" lon="3.84801">
        <ele>52</ele>
        <time>2016-10-09T07:47:53Z</time>
      </trkpt>
      <trkpt lat="43.65463" lon="3.84814">
        <ele>52</ele>
        <time>2016-10-09T07:47:58Z</time>
      </trkpt>
      <trkpt lat="43.65472" lon="3.84836">
        <ele>52.200012207031</ele>
        <time>2016-10-09T07:48:03Z</time>
      </trkpt>
      <trkpt lat="43.65483" lon="3.84872">
        <ele>54</ele>
        <time>2016-10-09T07:48:10Z</time>
      </trkpt>
      <trkpt lat="43.65487" lon="3.8489">
        <ele>54.599975585938</ele>
        <time>2016-10-09T07:48:14Z</time>
      </trkpt>
      <trkpt lat="43.65485" lon="3.84899">
        <ele>55</ele>
        <time>2016-10-09T07:48:16Z</time>
      </trkpt>
      <trkpt lat="43.65482" lon="3.84911">
        <ele>56</ele>
        <time>2016-10-09T07:48:19Z</time>
      </trkpt>
      <trkpt lat="43.6548" lon="3.84914">
        <ele>56.200012207031</ele>
        <time>2016-10-09T07:48:20Z</time>
      </trkpt>
      <trkpt lat="43.65477" lon="3.84928">
        <ele>57.400024414062</ele>
        <time>2016-10-09T07:48:24Z</time>
      </trkpt>
      <trkpt lat="43.65476" lon="3.84935">
        <ele>58</ele>
        <time>2016-10-09T07:48:26Z</time>
      </trkpt>
      <trkpt lat="43.65474" lon="3.84946">
        <ele>58.400024414062</ele>
        <time>2016-10-09T07:48:29Z</time>
      </trkpt>
      <trkpt lat="43.65475" lon="3.84964">
        <ele>59.200012207031</ele>
        <time>2016-10-09T07:48:33Z</time>
      </trkpt>
      <trkpt lat="43.6548" lon="3.84991">
        <ele>58.200012207031</ele>
        <time>2016-10-09T07:48:38Z</time>
      </trkpt>
      <trkpt lat="43.65492" lon="3.85001">
        <ele>57.799987792969</ele>
        <time>2016-10-09T07:48:42Z</time>
      </trkpt>
      <trkpt lat="43.65505" lon="3.85019">
        <ele>59.599975585938</ele>
        <time>2016-10-09T07:48:47Z</time>
      </trkpt>
      <trkpt lat="43.65508" lon="3.8502">
        <ele>60.599975585938</ele>
        <time>2016-10-09T07:48:48Z</time>
      </trkpt>
      <trkpt lat="43.6551" lon="3.85022">
        <ele>61</ele>
        <time>2016-10-09T07:48:49Z</time>
      </trkpt>
      <trkpt lat="43.65516" lon="3.85022">
        <ele>62.400024414062</ele>
        <time>2016-10-09T07:48:52Z</time>
      </trkpt>
      <trkpt lat="43.65522" lon="3.85014">
        <ele>63.599975585938</ele>
        <time>2016-10-09T07:48:56Z</time>
      </trkpt>
      <trkpt lat="43.65523" lon="3.85012">
        <ele>63.599975585938</ele>
        <time>2016-10-09T07:48:57Z</time>
      </trkpt>
      <trkpt lat="43.65525" lon="3.8501">
        <ele>63.799987792969</ele>
        <time>2016-10-09T07:48:58Z</time>
      </trkpt>
      <trkpt lat="43.6553" lon="3.85006">
        <ele>64.799987792969</ele>
        <time>2016-10-09T07:49:01Z</time>
      </trkpt>
      <trkpt lat="43.65534" lon="3.85004">
        <ele>65.200012207031</ele>
        <time>2016-10-09T07:49:03Z</time>
      </trkpt>
      <trkpt lat="43.6554" lon="3.84995">
        <ele>65.799987792969</ele>
        <time>2016-10-09T07:49:07Z</time>
      </trkpt>
      <trkpt lat="43.65541" lon="3.84993">
        <ele>66</ele>
        <time>2016-10-09T07:49:08Z</time>
      </trkpt>
      <trkpt lat="43.65548" lon="3.84974">
        <ele>65.799987792969</ele>
        <time>2016-10-09T07:49:14Z</time>
      </trkpt>
      <trkpt lat="43.6555" lon="3.84952">
        <ele>65.200012207031</ele>
        <time>2016-10-09T07:49:19Z</time>
      </trkpt>
      <trkpt lat="43.65551" lon="3.8495">
        <ele>65</ele>
        <time>2016-10-09T07:49:20Z</time>
      </trkpt>
      <trkpt lat="43.65552" lon="3.84941">
        <ele>64.599975585938</ele>
        <time>2016-10-09T07:49:36Z</time>
      </trkpt>
      <trkpt lat="43.65555" lon="3.8492">
        <ele>64</ele>
        <time>2016-10-09T07:49:43Z</time>
      </trkpt>
      <trkpt lat="43.65557" lon="3.84908">
        <ele>64.799987792969</ele>
        <time>2016-10-09T07:49:49Z</time>
      </trkpt>
      <trkpt lat="43.65555" lon="3.84903">
        <ele>64.400024414062</ele>
        <time>2016-10-09T07:49:52Z</time>
      </trkpt>
      <trkpt lat="43.65555" lon="3.84897">
        <ele>64.200012207031</ele>
        <time>2016-10-09T07:49:54Z</time>
      </trkpt>
      <trkpt lat="43.6556" lon="3.84894">
        <ele>64.400024414062</ele>
        <time>2016-10-09T07:49:57Z</time>
      </trkpt>
      <trkpt lat="43.6557" lon="3.84885">
        <ele>65</ele>
        <time>2016-10-09T07:50:33Z</time>
      </trkpt>
      <trkpt lat="43.6557" lon="3.84882">
        <ele>65.200012207031</ele>
        <time>2016-10-09T07:50:34Z</time>
      </trkpt>
      <trkpt lat="43.65571" lon="3.84871">
        <ele>66.400024414062</ele>
        <time>2016-10-09T07:50:38Z</time>
      </trkpt>
      <trkpt lat="43.65572" lon="3.84867">
        <ele>67.400024414062</ele>
        <time>2016-10-09T07:50:40Z</time>
      </trkpt>
      <trkpt lat="43.65572" lon="3.8486">
        <ele>68.200012207031</ele>
        <time>2016-10-09T07:50:48Z</time>
      </trkpt>
      <trkpt lat="43.65574" lon="3.84855">
        <ele>68.599975585938</ele>
        <time>2016-10-09T07:50:50Z</time>
      </trkpt>
      <trkpt lat="43.65579" lon="3.84847">
        <ele>69.799987792969</ele>
        <time>2016-10-09T07:50:53Z</time>
      </trkpt>
      <trkpt lat="43.65582" lon="3.84839">
        <ele>70.799987792969</ele>
        <time>2016-10-09T07:50:56Z</time>
      </trkpt>
      <trkpt lat="43.65585" lon="3.84825">
        <ele>72.200012207031</ele>
        <time>2016-10-09T07:51:01Z</time>
      </trkpt>
      <trkpt lat="43.65586" lon="3.84823">
        <ele>72.400024414062</ele>
        <time>2016-10-09T07:51:02Z</time>
      </trkpt>
      <trkpt lat="43.65588" lon="3.84817">
        <ele>73.599975585938</ele>
        <time>2016-10-09T07:51:04Z</time>
      </trkpt>
      <trkpt lat="43.65588" lon="3.84808">
        <ele>74.799987792969</ele>
        <time>2016-10-09T07:51:07Z</time>
      </trkpt>
      <trkpt lat="43.65588" lon="3.84805">
        <ele>75.200012207031</ele>
        <time>2016-10-09T07:51:08Z</time>
      </trkpt>
      <trkpt lat="43.6559" lon="3.84798">
        <ele>75.799987792969</ele>
        <time>2016-10-09T07:51:10Z</time>
      </trkpt>
      <trkpt lat="43.65592" lon="3.84779">
        <ele>76.799987792969</ele>
        <time>2016-10-09T07:51:15Z</time>
      </trkpt>
      <trkpt lat="43.65593" lon="3.84776">
        <ele>77</ele>
        <time>2016-10-09T07:51:16Z</time>
      </trkpt>
      <trkpt lat="43.65599" lon="3.84756">
        <ele>77</ele>
        <time>2016-10-09T07:51:22Z</time>
      </trkpt>
      <trkpt lat="43.65606" lon="3.8474">
        <ele>77</ele>
        <time>2016-10-09T07:51:28Z</time>
      </trkpt>
      <trkpt lat="43.65609" lon="3.8474">
        <ele>76.799987792969</ele>
        <time>2016-10-09T07:51:30Z</time>
      </trkpt>
      <trkpt lat="43.65612" lon="3.84745">
        <ele>76.200012207031</ele>
        <time>2016-10-09T07:51:32Z</time>
      </trkpt>
      <trkpt lat="43.65614" lon="3.84748">
        <ele>75.799987792969</ele>
        <time>2016-10-09T07:51:33Z</time>
      </trkpt>
      <trkpt lat="43.65616" lon="3.84757">
        <ele>75.400024414062</ele>
        <time>2016-10-09T07:51:35Z</time>
      </trkpt>
      <trkpt lat="43.65618" lon="3.84768">
        <ele>75</ele>
        <time>2016-10-09T07:51:37Z</time>
      </trkpt>
      <trkpt lat="43.6562" lon="3.84773">
        <ele>74.799987792969</ele>
        <time>2016-10-09T07:51:38Z</time>
      </trkpt>
      <trkpt lat="43.65625" lon="3.84791">
        <ele>74.200012207031</ele>
        <time>2016-10-09T07:51:41Z</time>
      </trkpt>
      <trkpt lat="43.6563" lon="3.84802">
        <ele>73.599975585938</ele>
        <time>2016-10-09T07:51:43Z</time>
      </trkpt>
      <trkpt lat="43.6564" lon="3.84819">
        <ele>72.400024414062</ele>
        <time>2016-10-09T07:51:48Z</time>
      </trkpt>
      <trkpt lat="43.65645" lon="3.84824">
        <ele>71.200012207031</ele>
        <time>2016-10-09T07:51:53Z</time>
      </trkpt>
      <trkpt lat="43.65647" lon="3.84822">
        <ele>71</ele>
        <time>2016-10-09T07:51:54Z</time>
      </trkpt>
      <trkpt lat="43.65651" lon="3.84812">
        <ele>70.599975585938</ele>
        <time>2016-10-09T07:51:58Z</time>
      </trkpt>
      <trkpt lat="43.65653" lon="3.84804">
        <ele>70.400024414062</ele>
        <time>2016-10-09T07:52:01Z</time>
      </trkpt>
      <trkpt lat="43.65654" lon="3.84798">
        <ele>70.200012207031</ele>
        <time>2016-10-09T07:52:03Z</time>
      </trkpt>
      <trkpt lat="43.65657" lon="3.84779">
        <ele>69</ele>
        <time>2016-10-09T07:52:08Z</time>
      </trkpt>
      <trkpt lat="43.65664" lon="3.84764">
        <ele>68.400024414062</ele>
        <time>2016-10-09T07:52:13Z</time>
      </trkpt>
      <trkpt lat="43.65676" lon="3.84774">
        <ele>68</ele>
        <time>2016-10-09T07:52:16Z</time>
      </trkpt>
      <trkpt lat="43.6568" lon="3.84777">
        <ele>67.799987792969</ele>
        <time>2016-10-09T07:52:17Z</time>
      </trkpt>
      <trkpt lat="43.65703" lon="3.84791">
        <ele>67.400024414062</ele>
        <time>2016-10-09T07:52:22Z</time>
      </trkpt>
      <trkpt lat="43.65711" lon="3.84792">
        <ele>67.599975585938</ele>
        <time>2016-10-09T07:52:24Z</time>
      </trkpt>
      <trkpt lat="43.65713" lon="3.84784">
        <ele>68.200012207031</ele>
        <time>2016-10-09T07:52:27Z</time>
      </trkpt>
      <trkpt lat="43.65712" lon="3.84773">
        <ele>69</ele>
        <time>2016-10-09T07:52:30Z</time>
      </trkpt>
      <trkpt lat="43.65712" lon="3.84765">
        <ele>69.400024414062</ele>
        <time>2016-10-09T07:52:32Z</time>
      </trkpt>
      <trkpt lat="43.65712" lon="3.84749">
        <ele>70.200012207031</ele>
        <time>2016-10-09T07:52:36Z</time>
      </trkpt>
      <trkpt lat="43.65711" lon="3.84737">
        <ele>71.400024414062</ele>
        <time>2016-10-09T07:52:39Z</time>
      </trkpt>
      <trkpt lat="43.6571" lon="3.8473">
        <ele>72</ele>
        <time>2016-10-09T07:52:41Z</time>
      </trkpt>
      <trkpt lat="43.6571" lon="3.84726">
        <ele>72.400024414062</ele>
        <time>2016-10-09T07:52:42Z</time>
      </trkpt>
      <trkpt lat="43.65709" lon="3.84711">
        <ele>73.400024414062</ele>
        <time>2016-10-09T07:52:46Z</time>
      </trkpt>
      <trkpt lat="43.65708" lon="3.84704">
        <ele>74</ele>
        <time>2016-10-09T07:52:48Z</time>
      </trkpt>
      <trkpt lat="43.65708" lon="3.84696">
        <ele>74.599975585938</ele>
        <time>2016-10-09T07:52:50Z</time>
      </trkpt>
      <trkpt lat="43.65708" lon="3.84686">
        <ele>76</ele>
        <time>2016-10-09T07:52:53Z</time>
      </trkpt>
      <trkpt lat="43.65707" lon="3.84671">
        <ele>77</ele>
        <time>2016-10-09T07:52:57Z</time>
      </trkpt>
      <trkpt lat="43.65708" lon="3.84668">
        <ele>77</ele>
        <time>2016-10-09T07:52:58Z</time>
      </trkpt>
      <trkpt lat="43.65708" lon="3.8465">
        <ele>78.200012207031</ele>
        <time>2016-10-09T07:53:03Z</time>
      </trkpt>
      <trkpt lat="43.65708" lon="3.84631">
        <ele>79.200012207031</ele>
        <time>2016-10-09T07:53:08Z</time>
      </trkpt>
      <trkpt lat="43.65708" lon="3.84627">
        <ele>79.400024414062</ele>
        <time>2016-10-09T07:53:09Z</time>
      </trkpt>
      <trkpt lat="43.65707" lon="3.84612">
        <ele>80.799987792969</ele>
        <time>2016-10-09T07:53:13Z</time>
      </trkpt>
      <trkpt lat="43.65706" lon="3.84602">
        <ele>81.799987792969</ele>
        <time>2016-10-09T07:53:16Z</time>
      </trkpt>
      <trkpt lat="43.65706" lon="3.84598">
        <ele>82.200012207031</ele>
        <time>2016-10-09T07:53:17Z</time>
      </trkpt>
      <trkpt lat="43.65705" lon="3.84587">
        <ele>82.799987792969</ele>
        <time>2016-10-09T07:53:20Z</time>
      </trkpt>
      <trkpt lat="43.65706" lon="3.84573">
        <ele>83.599975585938</ele>
        <time>2016-10-09T07:53:24Z</time>
      </trkpt>
      <trkpt lat="43.65707" lon="3.84567">
        <ele>84.200012207031</ele>
        <time>2016-10-09T07:53:26Z</time>
      </trkpt>
      <trkpt lat="43.65707" lon="3.84545">
        <ele>85.200012207031</ele>
        <time>2016-10-09T07:53:32Z</time>
      </trkpt>
      <trkpt lat="43.65707" lon="3.84538">
        <ele>85.599975585938</ele>
        <time>2016-10-09T07:53:34Z</time>
      </trkpt>
      <trkpt lat="43.65706" lon="3.84524">
        <ele>86.400024414062</ele>
        <time>2016-10-09T07:53:38Z</time>
      </trkpt>
      <trkpt lat="43.65707" lon="3.84509">
        <ele>86.599975585938</ele>
        <time>2016-10-09T07:53:42Z</time>
      </trkpt>
      <trkpt lat="43.65714" lon="3.84485">
        <ele>87.200012207031</ele>
        <time>2016-10-09T07:53:49Z</time>
      </trkpt>
      <trkpt lat="43.65715" lon="3.84465">
        <ele>86.799987792969</ele>
        <time>2016-10-09T07:53:55Z</time>
      </trkpt>
      <trkpt lat="43.65715" lon="3.84447">
        <ele>87.400024414062</ele>
        <time>2016-10-09T07:54:00Z</time>
      </trkpt>
      <trkpt lat="43.65722" lon="3.84427">
        <ele>88.400024414062</ele>
        <time>2016-10-09T07:54:07Z</time>
      </trkpt>
      <trkpt lat="43.65727" lon="3.84413">
        <ele>89.599975585938</ele>
        <time>2016-10-09T07:54:12Z</time>
      </trkpt>
      <trkpt lat="43.65733" lon="3.84397">
        <ele>89.799987792969</ele>
        <time>2016-10-09T07:54:17Z</time>
      </trkpt>
      <trkpt lat="43.65741" lon="3.84376">
        <ele>90.799987792969</ele>
        <time>2016-10-09T07:54:24Z</time>
      </trkpt>
      <trkpt lat="43.65754" lon="3.84357">
        <ele>91.799987792969</ele>
        <time>2016-10-09T07:54:32Z</time>
      </trkpt>
      <trkpt lat="43.65755" lon="3.84355">
        <ele>92</ele>
        <time>2016-10-09T07:54:33Z</time>
      </trkpt>
      <trkpt lat="43.65762" lon="3.84333">
        <ele>93</ele>
        <time>2016-10-09T07:54:40Z</time>
      </trkpt>
      <trkpt lat="43.65764" lon="3.8433">
        <ele>93.400024414062</ele>
        <time>2016-10-09T07:54:41Z</time>
      </trkpt>
      <trkpt lat="43.65768" lon="3.8432">
        <ele>94.200012207031</ele>
        <time>2016-10-09T07:54:44Z</time>
      </trkpt>
      <trkpt lat="43.65773" lon="3.84306">
        <ele>95.200012207031</ele>
        <time>2016-10-09T07:54:49Z</time>
      </trkpt>
      <trkpt lat="43.65773" lon="3.84303">
        <ele>95.400024414062</ele>
        <time>2016-10-09T07:54:50Z</time>
      </trkpt>
      <trkpt lat="43.6577" lon="3.8429">
        <ele>96.599975585938</ele>
        <time>2016-10-09T07:54:55Z</time>
      </trkpt>
      <trkpt lat="43.65761" lon="3.84267">
        <ele>96.599975585938</ele>
        <time>2016-10-09T07:55:01Z</time>
      </trkpt>
      <trkpt lat="43.65749" lon="3.84232">
        <ele>96</ele>
        <time>2016-10-09T07:55:08Z</time>
      </trkpt>
      <trkpt lat="43.65743" lon="3.84216">
        <ele>95.599975585938</ele>
        <time>2016-10-09T07:55:11Z</time>
      </trkpt>
      <trkpt lat="43.6574" lon="3.84212">
        <ele>95.400024414062</ele>
        <time>2016-10-09T07:55:12Z</time>
      </trkpt>
      <trkpt lat="43.65737" lon="3.84207">
        <ele>95.400024414062</ele>
        <time>2016-10-09T07:55:13Z</time>
      </trkpt>
      <trkpt lat="43.65724" lon="3.84179">
        <ele>95</ele>
        <time>2016-10-09T07:55:19Z</time>
      </trkpt>
      <trkpt lat="43.65715" lon="3.84156">
        <ele>95</ele>
        <time>2016-10-09T07:55:25Z</time>
      </trkpt>
      <trkpt lat="43.65706" lon="3.84133">
        <ele>96.400024414062</ele>
        <time>2016-10-09T07:55:31Z</time>
      </trkpt>
      <trkpt lat="43.65704" lon="3.8413">
        <ele>96.799987792969</ele>
        <time>2016-10-09T07:55:32Z</time>
      </trkpt>
      <trkpt lat="43.657" lon="3.84121">
        <ele>98.200012207031</ele>
        <time>2016-10-09T07:55:35Z</time>
      </trkpt>
      <trkpt lat="43.65699" lon="3.84117">
        <ele>98.599975585938</ele>
        <time>2016-10-09T07:55:36Z</time>
      </trkpt>
      <trkpt lat="43.657" lon="3.84115">
        <ele>99</ele>
        <time>2016-10-09T07:55:37Z</time>
      </trkpt>
      <trkpt lat="43.65702" lon="3.84114">
        <ele>99.599975585938</ele>
        <time>2016-10-09T07:55:38Z</time>
      </trkpt>
      <trkpt lat="43.65706" lon="3.8411">
        <ele>100.59997558594</ele>
        <time>2016-10-09T07:55:40Z</time>
      </trkpt>
      <trkpt lat="43.65708" lon="3.84109">
        <ele>100.79998779297</ele>
        <time>2016-10-09T07:55:41Z</time>
      </trkpt>
      <trkpt lat="43.65711" lon="3.84106">
        <ele>101.40002441406</ele>
        <time>2016-10-09T07:55:43Z</time>
      </trkpt>
      <trkpt lat="43.65716" lon="3.84103">
        <ele>102</ele>
        <time>2016-10-09T07:55:46Z</time>
      </trkpt>
      <trkpt lat="43.65723" lon="3.84098">
        <ele>103.20001220703</ele>
        <time>2016-10-09T07:55:50Z</time>
      </trkpt>
      <trkpt lat="43.65732" lon="3.84092">
        <ele>103.79998779297</ele>
        <time>2016-10-09T07:55:55Z</time>
      </trkpt>
      <trkpt lat="43.65735" lon="3.8409">
        <ele>104.59997558594</ele>
        <time>2016-10-09T07:55:57Z</time>
      </trkpt>
      <trkpt lat="43.65741" lon="3.84085">
        <ele>105.59997558594</ele>
        <time>2016-10-09T07:56:01Z</time>
      </trkpt>
      <trkpt lat="43.65745" lon="3.84083">
        <ele>105.59997558594</ele>
        <time>2016-10-09T07:56:03Z</time>
      </trkpt>
      <trkpt lat="43.65756" lon="3.84073">
        <ele>106.40002441406</ele>
        <time>2016-10-09T07:56:10Z</time>
      </trkpt>
      <trkpt lat="43.65757" lon="3.84072">
        <ele>106.59997558594</ele>
        <time>2016-10-09T07:56:11Z</time>
      </trkpt>
      <trkpt lat="43.6577" lon="3.84062">
        <ele>106.79998779297</ele>
        <time>2016-10-09T07:56:18Z</time>
      </trkpt>
      <trkpt lat="43.65778" lon="3.84059">
        <ele>107.40002441406</ele>
        <time>2016-10-09T07:56:22Z</time>
      </trkpt>
      <trkpt lat="43.65782" lon="3.84064">
        <ele>107.40002441406</ele>
        <time>2016-10-09T07:56:24Z</time>
      </trkpt>
      <trkpt lat="43.65793" lon="3.84072">
        <ele>107</ele>
        <time>2016-10-09T07:56:28Z</time>
      </trkpt>
      <trkpt lat="43.65799" lon="3.84074">
        <ele>107</ele>
        <time>2016-10-09T07:56:30Z</time>
      </trkpt>
      <trkpt lat="43.65803" lon="3.84081">
        <ele>106.59997558594</ele>
        <time>2016-10-09T07:56:33Z</time>
      </trkpt>
      <trkpt lat="43.65803" lon="3.84082">
        <ele>106.40002441406</ele>
        <time>2016-10-09T07:56:34Z</time>
      </trkpt>
      <trkpt lat="43.65806" lon="3.84083">
        <ele>105.59997558594</ele>
        <time>2016-10-09T07:57:54Z</time>
      </trkpt>
      <trkpt lat="43.65807" lon="3.84086">
        <ele>105.40002441406</ele>
        <time>2016-10-09T07:57:55Z</time>
      </trkpt>
      <trkpt lat="43.65815" lon="3.84101">
        <ele>104.59997558594</ele>
        <time>2016-10-09T07:57:59Z</time>
      </trkpt>
      <trkpt lat="43.65817" lon="3.84105">
        <ele>104.59997558594</ele>
        <time>2016-10-09T07:58:00Z</time>
      </trkpt>
      <trkpt lat="43.65832" lon="3.84129">
        <ele>104.59997558594</ele>
        <time>2016-10-09T07:58:06Z</time>
      </trkpt>
      <trkpt lat="43.65844" lon="3.84153">
        <ele>104.59997558594</ele>
        <time>2016-10-09T07:58:11Z</time>
      </trkpt>
      <trkpt lat="43.65857" lon="3.84178">
        <ele>104.79998779297</ele>
        <time>2016-10-09T07:58:16Z</time>
      </trkpt>
      <trkpt lat="43.65859" lon="3.84183">
        <ele>104.79998779297</ele>
        <time>2016-10-09T07:58:17Z</time>
      </trkpt>
      <trkpt lat="43.65868" lon="3.84214">
        <ele>104.59997558594</ele>
        <time>2016-10-09T07:58:23Z</time>
      </trkpt>
      <trkpt lat="43.65879" lon="3.84249">
        <ele>104.40002441406</ele>
        <time>2016-10-09T07:58:29Z</time>
      </trkpt>
      <trkpt lat="43.65895" lon="3.84289">
        <ele>104.79998779297</ele>
        <time>2016-10-09T07:58:35Z</time>
      </trkpt>
      <trkpt lat="43.65913" lon="3.84343">
        <ele>105.40002441406</ele>
        <time>2016-10-09T07:58:42Z</time>
      </trkpt>
      <trkpt lat="43.65918" lon="3.8436">
        <ele>105.79998779297</ele>
        <time>2016-10-09T07:58:44Z</time>
      </trkpt>
      <trkpt lat="43.65928" lon="3.8438">
        <ele>106.20001220703</ele>
        <time>2016-10-09T07:58:47Z</time>
      </trkpt>
      <trkpt lat="43.65934" lon="3.84393">
        <ele>106.40002441406</ele>
        <time>2016-10-09T07:58:49Z</time>
      </trkpt>
      <trkpt lat="43.65942" lon="3.84413">
        <ele>106.59997558594</ele>
        <time>2016-10-09T07:58:52Z</time>
      </trkpt>
      <trkpt lat="43.65945" lon="3.84418">
        <ele>106.79998779297</ele>
        <time>2016-10-09T07:58:53Z</time>
      </trkpt>
      <trkpt lat="43.65952" lon="3.84429">
        <ele>107</ele>
        <time>2016-10-09T07:58:55Z</time>
      </trkpt>
      <trkpt lat="43.6596" lon="3.84438">
        <ele>107.20001220703</ele>
        <time>2016-10-09T07:58:57Z</time>
      </trkpt>
      <trkpt lat="43.65969" lon="3.84465">
        <ele>107</ele>
        <time>2016-10-09T07:59:01Z</time>
      </trkpt>
      <trkpt lat="43.65976" lon="3.84491">
        <ele>106.59997558594</ele>
        <time>2016-10-09T07:59:06Z</time>
      </trkpt>
      <trkpt lat="43.65976" lon="3.84501">
        <ele>105.79998779297</ele>
        <time>2016-10-09T07:59:09Z</time>
      </trkpt>
      <trkpt lat="43.65979" lon="3.84509">
        <ele>105.59997558594</ele>
        <time>2016-10-09T07:59:11Z</time>
      </trkpt>
      <trkpt lat="43.65986" lon="3.84526">
        <ele>104.79998779297</ele>
        <time>2016-10-09T07:59:15Z</time>
      </trkpt>
      <trkpt lat="43.65989" lon="3.84529">
        <ele>104.59997558594</ele>
        <time>2016-10-09T07:59:17Z</time>
      </trkpt>
      <trkpt lat="43.65991" lon="3.84529">
        <ele>104.59997558594</ele>
        <time>2016-10-09T07:59:18Z</time>
      </trkpt>
      <trkpt lat="43.65998" lon="3.84516">
        <ele>104.40002441406</ele>
        <time>2016-10-09T07:59:22Z</time>
      </trkpt>
      <trkpt lat="43.66001" lon="3.84509">
        <ele>104.40002441406</ele>
        <time>2016-10-09T07:59:23Z</time>
      </trkpt>
      <trkpt lat="43.66006" lon="3.84498">
        <ele>104.20001220703</ele>
        <time>2016-10-09T07:59:25Z</time>
      </trkpt>
      <trkpt lat="43.6601" lon="3.84491">
        <ele>104</ele>
        <time>2016-10-09T07:59:27Z</time>
      </trkpt>
      <trkpt lat="43.66015" lon="3.84483">
        <ele>103.59997558594</ele>
        <time>2016-10-09T07:59:30Z</time>
      </trkpt>
      <trkpt lat="43.66016" lon="3.84483">
        <ele>103.40002441406</ele>
        <time>2016-10-09T07:59:31Z</time>
      </trkpt>
      <trkpt lat="43.6602" lon="3.84483">
        <ele>103.20001220703</ele>
        <time>2016-10-09T07:59:34Z</time>
      </trkpt>
      <trkpt lat="43.66021" lon="3.84483">
        <ele>103</ele>
        <time>2016-10-09T07:59:35Z</time>
      </trkpt>
      <trkpt lat="43.66026" lon="3.84485">
        <ele>102.40002441406</ele>
        <time>2016-10-09T07:59:37Z</time>
      </trkpt>
      <trkpt lat="43.66031" lon="3.84488">
        <ele>101.79998779297</ele>
        <time>2016-10-09T07:59:39Z</time>
      </trkpt>
      <trkpt lat="43.66037" lon="3.84491">
        <ele>101.40002441406</ele>
        <time>2016-10-09T07:59:42Z</time>
      </trkpt>
      <trkpt lat="43.66047" lon="3.84492">
        <ele>100.20001220703</ele>
        <time>2016-10-09T07:59:46Z</time>
      </trkpt>
      <trkpt lat="43.66055" lon="3.84489">
        <ele>98.799987792969</ele>
        <time>2016-10-09T07:59:49Z</time>
      </trkpt>
      <trkpt lat="43.66063" lon="3.84488">
        <ele>97.400024414062</ele>
        <time>2016-10-09T07:59:52Z</time>
      </trkpt>
      <trkpt lat="43.66066" lon="3.8449">
        <ele>96.799987792969</ele>
        <time>2016-10-09T07:59:53Z</time>
      </trkpt>
      <trkpt lat="43.66072" lon="3.84491">
        <ele>95.799987792969</ele>
        <time>2016-10-09T07:59:55Z</time>
      </trkpt>
      <trkpt lat="43.66075" lon="3.8449">
        <ele>95.200012207031</ele>
        <time>2016-10-09T07:59:56Z</time>
      </trkpt>
      <trkpt lat="43.66082" lon="3.84486">
        <ele>94.599975585938</ele>
        <time>2016-10-09T07:59:58Z</time>
      </trkpt>
      <trkpt lat="43.66091" lon="3.84481">
        <ele>93.400024414062</ele>
        <time>2016-10-09T08:00:01Z</time>
      </trkpt>
      <trkpt lat="43.66096" lon="3.84479">
        <ele>92.200012207031</ele>
        <time>2016-10-09T08:00:04Z</time>
      </trkpt>
      <trkpt lat="43.66099" lon="3.84472">
        <ele>88</ele>
        <time>2016-10-09T08:00:29Z</time>
      </trkpt>
      <trkpt lat="43.661" lon="3.84469">
        <ele>86.400024414062</ele>
        <time>2016-10-09T08:00:30Z</time>
      </trkpt>
      <trkpt lat="43.66101" lon="3.84467">
        <ele>84.799987792969</ele>
        <time>2016-10-09T08:00:31Z</time>
      </trkpt>
      <trkpt lat="43.66102" lon="3.84465">
        <ele>83.200012207031</ele>
        <time>2016-10-09T08:00:32Z</time>
      </trkpt>
      <trkpt lat="43.66104" lon="3.84464">
        <ele>82.200012207031</ele>
        <time>2016-10-09T08:00:33Z</time>
      </trkpt>
      <trkpt lat="43.66105" lon="3.84461">
        <ele>80.400024414062</ele>
        <time>2016-10-09T08:00:38Z</time>
      </trkpt>
      <trkpt lat="43.66105" lon="3.84459">
        <ele>79.400024414062</ele>
        <time>2016-10-09T08:00:39Z</time>
      </trkpt>
      <trkpt lat="43.66105" lon="3.84454">
        <ele>77.400024414062</ele>
        <time>2016-10-09T08:00:41Z</time>
      </trkpt>
      <trkpt lat="43.66104" lon="3.84448">
        <ele>76</ele>
        <time>2016-10-09T08:00:43Z</time>
      </trkpt>
      <trkpt lat="43.661" lon="3.84437">
        <ele>74.799987792969</ele>
        <time>2016-10-09T08:00:46Z</time>
      </trkpt>
      <trkpt lat="43.66097" lon="3.84425">
        <ele>73.599975585938</ele>
        <time>2016-10-09T08:00:49Z</time>
      </trkpt>
      <trkpt lat="43.66094" lon="3.84416">
        <ele>72.400024414062</ele>
        <time>2016-10-09T08:00:51Z</time>
      </trkpt>
      <trkpt lat="43.66091" lon="3.84408">
        <ele>71</ele>
        <time>2016-10-09T08:00:53Z</time>
      </trkpt>
      <trkpt lat="43.66087" lon="3.844">
        <ele>70</ele>
        <time>2016-10-09T08:00:55Z</time>
      </trkpt>
      <trkpt lat="43.66083" lon="3.84393">
        <ele>69</ele>
        <time>2016-10-09T08:00:57Z</time>
      </trkpt>
      <trkpt lat="43.66079" lon="3.84385">
        <ele>67.799987792969</ele>
        <time>2016-10-09T08:00:59Z</time>
      </trkpt>
      <trkpt lat="43.66076" lon="3.84377">
        <ele>66.599975585938</ele>
        <time>2016-10-09T08:01:01Z</time>
      </trkpt>
      <trkpt lat="43.66073" lon="3.84366">
        <ele>65.599975585938</ele>
        <time>2016-10-09T08:01:04Z</time>
      </trkpt>
      <trkpt lat="43.66071" lon="3.84362">
        <ele>65.200012207031</ele>
        <time>2016-10-09T08:01:05Z</time>
      </trkpt>
      <trkpt lat="43.66062" lon="3.84338">
        <ele>64.599975585938</ele>
        <time>2016-10-09T08:01:11Z</time>
      </trkpt>
      <trkpt lat="43.66059" lon="3.8433">
        <ele>64.200012207031</ele>
        <time>2016-10-09T08:01:13Z</time>
      </trkpt>
      <trkpt lat="43.66055" lon="3.84318">
        <ele>63.400024414062</ele>
        <time>2016-10-09T08:01:16Z</time>
      </trkpt>
      <trkpt lat="43.6605" lon="3.84307">
        <ele>63.599975585938</ele>
        <time>2016-10-09T08:01:19Z</time>
      </trkpt>
      <trkpt lat="43.66044" lon="3.843">
        <ele>63.400024414062</ele>
        <time>2016-10-09T08:01:22Z</time>
      </trkpt>
      <trkpt lat="43.66039" lon="3.84296">
        <ele>63.599975585938</ele>
        <time>2016-10-09T08:01:24Z</time>
      </trkpt>
      <trkpt lat="43.66032" lon="3.84288">
        <ele>63.200012207031</ele>
        <time>2016-10-09T08:01:27Z</time>
      </trkpt>
      <trkpt lat="43.66029" lon="3.84282">
        <ele>63.200012207031</ele>
        <time>2016-10-09T08:01:29Z</time>
      </trkpt>
      <trkpt lat="43.66028" lon="3.84279">
        <ele>63.200012207031</ele>
        <time>2016-10-09T08:01:30Z</time>
      </trkpt>
      <trkpt lat="43.66029" lon="3.84258">
        <ele>62.799987792969</ele>
        <time>2016-10-09T08:01:34Z</time>
      </trkpt>
      <trkpt lat="43.6603" lon="3.84252">
        <ele>62.599975585938</ele>
        <time>2016-10-09T08:01:35Z</time>
      </trkpt>
      <trkpt lat="43.66025" lon="3.84237">
        <ele>62.799987792969</ele>
        <time>2016-10-09T08:01:38Z</time>
      </trkpt>
      <trkpt lat="43.66013" lon="3.84218">
        <ele>63.799987792969</ele>
        <time>2016-10-09T08:01:43Z</time>
      </trkpt>
      <trkpt lat="43.66" lon="3.84194">
        <ele>64.200012207031</ele>
        <time>2016-10-09T08:01:49Z</time>
      </trkpt>
      <trkpt lat="43.65988" lon="3.84171">
        <ele>64</ele>
        <time>2016-10-09T08:01:56Z</time>
      </trkpt>
      <trkpt lat="43.65979" lon="3.84145">
        <ele>63.599975585938</ele>
        <time>2016-10-09T08:02:03Z</time>
      </trkpt>
      <trkpt lat="43.65964" lon="3.84119">
        <ele>64.200012207031</ele>
        <time>2016-10-09T08:02:11Z</time>
      </trkpt>
      <trkpt lat="43.65962" lon="3.84116">
        <ele>64.599975585938</ele>
        <time>2016-10-09T08:02:12Z</time>
      </trkpt>
      <trkpt lat="43.65953" lon="3.84098">
        <ele>65</ele>
        <time>2016-10-09T08:02:18Z</time>
      </trkpt>
      <trkpt lat="43.65949" lon="3.84089">
        <ele>65.799987792969</ele>
        <time>2016-10-09T08:02:21Z</time>
      </trkpt>
      <trkpt lat="43.65943" lon="3.84081">
        <ele>66.200012207031</ele>
        <time>2016-10-09T08:02:24Z</time>
      </trkpt>
      <trkpt lat="43.65932" lon="3.84067">
        <ele>67</ele>
        <time>2016-10-09T08:02:30Z</time>
      </trkpt>
      <trkpt lat="43.65926" lon="3.84064">
        <ele>68.200012207031</ele>
        <time>2016-10-09T08:02:33Z</time>
      </trkpt>
      <trkpt lat="43.65922" lon="3.84062">
        <ele>69.200012207031</ele>
        <time>2016-10-09T08:02:36Z</time>
      </trkpt>
      <trkpt lat="43.6592" lon="3.84061">
        <ele>69.599975585938</ele>
        <time>2016-10-09T08:02:37Z</time>
      </trkpt>
      <trkpt lat="43.65915" lon="3.84057">
        <ele>70.400024414062</ele>
        <time>2016-10-09T08:02:40Z</time>
      </trkpt>
      <trkpt lat="43.65911" lon="3.84052">
        <ele>71.799987792969</ele>
        <time>2016-10-09T08:02:43Z</time>
      </trkpt>
      <trkpt lat="43.65909" lon="3.84047">
        <ele>72</ele>
        <time>2016-10-09T08:02:45Z</time>
      </trkpt>
      <trkpt lat="43.65907" lon="3.84035">
        <ele>71.400024414062</ele>
        <time>2016-10-09T08:02:48Z</time>
      </trkpt>
      <trkpt lat="43.65898" lon="3.8401">
        <ele>70.599975585938</ele>
        <time>2016-10-09T08:02:53Z</time>
      </trkpt>
      <trkpt lat="43.65896" lon="3.84006">
        <ele>70.599975585938</ele>
        <time>2016-10-09T08:02:54Z</time>
      </trkpt>
      <trkpt lat="43.65888" lon="3.83984">
        <ele>70.200012207031</ele>
        <time>2016-10-09T08:02:59Z</time>
      </trkpt>
      <trkpt lat="43.65892" lon="3.83978">
        <ele>70.400024414062</ele>
        <time>2016-10-09T08:03:04Z</time>
      </trkpt>
      <trkpt lat="43.65897" lon="3.83986">
        <ele>70.799987792969</ele>
        <time>2016-10-09T08:03:05Z</time>
      </trkpt>
      <trkpt lat="43.65912" lon="3.84002">
        <ele>70.799987792969</ele>
        <time>2016-10-09T08:03:09Z</time>
      </trkpt>
      <trkpt lat="43.65915" lon="3.84002">
        <ele>70.799987792969</ele>
        <time>2016-10-09T08:03:10Z</time>
      </trkpt>
      <trkpt lat="43.6592" lon="3.83993">
        <ele>70.799987792969</ele>
        <time>2016-10-09T08:03:13Z</time>
      </trkpt>
      <trkpt lat="43.65921" lon="3.83981">
        <ele>71.400024414062</ele>
        <time>2016-10-09T08:03:16Z</time>
      </trkpt>
      <trkpt lat="43.65922" lon="3.83967">
        <ele>71.400024414062</ele>
        <time>2016-10-09T08:03:19Z</time>
      </trkpt>
      <trkpt lat="43.65926" lon="3.83929">
        <ele>71.400024414062</ele>
        <time>2016-10-09T08:03:28Z</time>
      </trkpt>
      <trkpt lat="43.6593" lon="3.83902">
        <ele>70.799987792969</ele>
        <time>2016-10-09T08:03:35Z</time>
      </trkpt>
      <trkpt lat="43.65931" lon="3.83877">
        <ele>70.799987792969</ele>
        <time>2016-10-09T08:03:41Z</time>
      </trkpt>
      <trkpt lat="43.65932" lon="3.83842">
        <ele>71</ele>
        <time>2016-10-09T08:03:50Z</time>
      </trkpt>
      <trkpt lat="43.65928" lon="3.83819">
        <ele>71.200012207031</ele>
        <time>2016-10-09T08:03:56Z</time>
      </trkpt>
      <trkpt lat="43.65925" lon="3.83806">
        <ele>71.599975585938</ele>
        <time>2016-10-09T08:03:59Z</time>
      </trkpt>
      <trkpt lat="43.65919" lon="3.83792">
        <ele>72</ele>
        <time>2016-10-09T08:04:03Z</time>
      </trkpt>
      <trkpt lat="43.65916" lon="3.8377">
        <ele>72.400024414062</ele>
        <time>2016-10-09T08:04:09Z</time>
      </trkpt>
      <trkpt lat="43.65919" lon="3.83765">
        <ele>72.599975585938</ele>
        <time>2016-10-09T08:04:11Z</time>
      </trkpt>
      <trkpt lat="43.65922" lon="3.83759">
        <ele>72.799987792969</ele>
        <time>2016-10-09T08:04:13Z</time>
      </trkpt>
      <trkpt lat="43.65928" lon="3.83749">
        <ele>73</ele>
        <time>2016-10-09T08:04:18Z</time>
      </trkpt>
      <trkpt lat="43.65932" lon="3.83748">
        <ele>72.599975585938</ele>
        <time>2016-10-09T08:04:21Z</time>
      </trkpt>
      <trkpt lat="43.65934" lon="3.8375">
        <ele>72.599975585938</ele>
        <time>2016-10-09T08:04:22Z</time>
      </trkpt>
      <trkpt lat="43.65949" lon="3.83758">
        <ele>72.599975585938</ele>
        <time>2016-10-09T08:04:27Z</time>
      </trkpt>
      <trkpt lat="43.65969" lon="3.83768">
        <ele>72.400024414062</ele>
        <time>2016-10-09T08:04:33Z</time>
      </trkpt>
      <trkpt lat="43.65983" lon="3.8376">
        <ele>72.599975585938</ele>
        <time>2016-10-09T08:04:37Z</time>
      </trkpt>
      <trkpt lat="43.65988" lon="3.83756">
        <ele>72.599975585938</ele>
        <time>2016-10-09T08:04:39Z</time>
      </trkpt>
      <trkpt lat="43.66006" lon="3.83743">
        <ele>73.400024414062</ele>
        <time>2016-10-09T08:04:45Z</time>
      </trkpt>
      <trkpt lat="43.66013" lon="3.83734">
        <ele>73.599975585938</ele>
        <time>2016-10-09T08:04:48Z</time>
      </trkpt>
      <trkpt lat="43.66015" lon="3.83727">
        <ele>73.799987792969</ele>
        <time>2016-10-09T08:04:50Z</time>
      </trkpt>
      <trkpt lat="43.66017" lon="3.83708">
        <ele>74.799987792969</ele>
        <time>2016-10-09T08:04:55Z</time>
      </trkpt>
      <trkpt lat="43.66018" lon="3.83704">
        <ele>75.200012207031</ele>
        <time>2016-10-09T08:04:56Z</time>
      </trkpt>
      <trkpt lat="43.66024" lon="3.83685">
        <ele>75.799987792969</ele>
        <time>2016-10-09T08:05:02Z</time>
      </trkpt>
      <trkpt lat="43.66034" lon="3.83675">
        <ele>76.799987792969</ele>
        <time>2016-10-09T08:05:08Z</time>
      </trkpt>
      <trkpt lat="43.66041" lon="3.83672">
        <ele>77</ele>
        <time>2016-10-09T08:05:11Z</time>
      </trkpt>
      <trkpt lat="43.66048" lon="3.83668">
        <ele>77.200012207031</ele>
        <time>2016-10-09T08:05:14Z</time>
      </trkpt>
      <trkpt lat="43.66061" lon="3.83662">
        <ele>78</ele>
        <time>2016-10-09T08:05:20Z</time>
      </trkpt>
      <trkpt lat="43.66078" lon="3.8366">
        <ele>79.200012207031</ele>
        <time>2016-10-09T08:05:27Z</time>
      </trkpt>
      <trkpt lat="43.66083" lon="3.83661">
        <ele>79.400024414062</ele>
        <time>2016-10-09T08:05:29Z</time>
      </trkpt>
      <trkpt lat="43.66095" lon="3.83669">
        <ele>79.799987792969</ele>
        <time>2016-10-09T08:05:35Z</time>
      </trkpt>
      <trkpt lat="43.66111" lon="3.83684">
        <ele>79.400024414062</ele>
        <time>2016-10-09T08:05:44Z</time>
      </trkpt>
      <trkpt lat="43.66128" lon="3.83698">
        <ele>78.400024414062</ele>
        <time>2016-10-09T08:05:50Z</time>
      </trkpt>
      <trkpt lat="43.66134" lon="3.83703">
        <ele>78</ele>
        <time>2016-10-09T08:05:52Z</time>
      </trkpt>
      <trkpt lat="43.6615" lon="3.8372">
        <ele>77.400024414062</ele>
        <time>2016-10-09T08:05:58Z</time>
      </trkpt>
      <trkpt lat="43.66168" lon="3.83741">
        <ele>77.599975585938</ele>
        <time>2016-10-09T08:06:05Z</time>
      </trkpt>
      <trkpt lat="43.66192" lon="3.83757">
        <ele>77</ele>
        <time>2016-10-09T08:06:11Z</time>
      </trkpt>
      <trkpt lat="43.66213" lon="3.83767">
        <ele>75.799987792969</ele>
        <time>2016-10-09T08:06:15Z</time>
      </trkpt>
      <trkpt lat="43.66235" lon="3.83778">
        <ele>74.599975585938</ele>
        <time>2016-10-09T08:06:19Z</time>
      </trkpt>
      <trkpt lat="43.6625" lon="3.83787">
        <ele>73.799987792969</ele>
        <time>2016-10-09T08:06:22Z</time>
      </trkpt>
      <trkpt lat="43.66256" lon="3.8379">
        <ele>73.599975585938</ele>
        <time>2016-10-09T08:06:23Z</time>
      </trkpt>
      <trkpt lat="43.66279" lon="3.83802">
        <ele>72.400024414062</ele>
        <time>2016-10-09T08:06:28Z</time>
      </trkpt>
      <trkpt lat="43.66283" lon="3.83805">
        <ele>72.200012207031</ele>
        <time>2016-10-09T08:06:29Z</time>
      </trkpt>
      <trkpt lat="43.66291" lon="3.83809">
        <ele>72</ele>
        <time>2016-10-09T08:06:31Z</time>
      </trkpt>
      <trkpt lat="43.66304" lon="3.83816">
        <ele>71.599975585938</ele>
        <time>2016-10-09T08:06:34Z</time>
      </trkpt>
      <trkpt lat="43.66325" lon="3.83839">
        <ele>71.599975585938</ele>
        <time>2016-10-09T08:06:40Z</time>
      </trkpt>
      <trkpt lat="43.66335" lon="3.83857">
        <ele>71.599975585938</ele>
        <time>2016-10-09T08:06:43Z</time>
      </trkpt>
      <trkpt lat="43.66338" lon="3.83865">
        <ele>71.400024414062</ele>
        <time>2016-10-09T08:06:44Z</time>
      </trkpt>
      <trkpt lat="43.66339" lon="3.83872">
        <ele>71.200012207031</ele>
        <time>2016-10-09T08:06:45Z</time>
      </trkpt>
      <trkpt lat="43.66338" lon="3.83896">
        <ele>70.599975585938</ele>
        <time>2016-10-09T08:06:48Z</time>
      </trkpt>
      <trkpt lat="43.66339" lon="3.83903">
        <ele>70.200012207031</ele>
        <time>2016-10-09T08:06:49Z</time>
      </trkpt>
      <trkpt lat="43.6635" lon="3.83916">
        <ele>69.799987792969</ele>
        <time>2016-10-09T08:06:52Z</time>
      </trkpt>
      <trkpt lat="43.66362" lon="3.83908">
        <ele>69.799987792969</ele>
        <time>2016-10-09T08:06:55Z</time>
      </trkpt>
      <trkpt lat="43.66382" lon="3.83897">
        <ele>71.200012207031</ele>
        <time>2016-10-09T08:07:01Z</time>
      </trkpt>
      <trkpt lat="43.66385" lon="3.839">
        <ele>71.400024414062</ele>
        <time>2016-10-09T08:07:02Z</time>
      </trkpt>
      <trkpt lat="43.66395" lon="3.83899">
        <ele>71.799987792969</ele>
        <time>2016-10-09T08:07:05Z</time>
      </trkpt>
      <trkpt lat="43.66407" lon="3.83906">
        <ele>71.799987792969</ele>
        <time>2016-10-09T08:07:09Z</time>
      </trkpt>
      <trkpt lat="43.66431" lon="3.83917">
        <ele>71.799987792969</ele>
        <time>2016-10-09T08:07:17Z</time>
      </trkpt>
      <trkpt lat="43.6645" lon="3.83927">
        <ele>71.799987792969</ele>
        <time>2016-10-09T08:07:23Z</time>
      </trkpt>
      <trkpt lat="43.66471" lon="3.83938">
        <ele>72.200012207031</ele>
        <time>2016-10-09T08:07:31Z</time>
      </trkpt>
      <trkpt lat="43.66479" lon="3.83942">
        <ele>72.400024414062</ele>
        <time>2016-10-09T08:07:34Z</time>
      </trkpt>
      <trkpt lat="43.6649" lon="3.83949">
        <ele>72.599975585938</ele>
        <time>2016-10-09T08:07:38Z</time>
      </trkpt>
      <trkpt lat="43.66508" lon="3.83959">
        <ele>72</ele>
        <time>2016-10-09T08:07:43Z</time>
      </trkpt>
      <trkpt lat="43.66512" lon="3.83959">
        <ele>71.799987792969</ele>
        <time>2016-10-09T08:07:44Z</time>
      </trkpt>
      <trkpt lat="43.66523" lon="3.8396">
        <ele>71.599975585938</ele>
        <time>2016-10-09T08:07:47Z</time>
      </trkpt>
      <trkpt lat="43.66526" lon="3.83963">
        <ele>71.599975585938</ele>
        <time>2016-10-09T08:07:48Z</time>
      </trkpt>
      <trkpt lat="43.66525" lon="3.83968">
        <ele>71.599975585938</ele>
        <time>2016-10-09T08:07:49Z</time>
      </trkpt>
      <trkpt lat="43.66523" lon="3.83973">
        <ele>71.400024414062</ele>
        <time>2016-10-09T08:07:50Z</time>
      </trkpt>
      <trkpt lat="43.66522" lon="3.83984">
        <ele>71.200012207031</ele>
        <time>2016-10-09T08:07:52Z</time>
      </trkpt>
      <trkpt lat="43.6653" lon="3.83994">
        <ele>70.599975585938</ele>
        <time>2016-10-09T08:07:55Z</time>
      </trkpt>
      <trkpt lat="43.66537" lon="3.83999">
        <ele>70.599975585938</ele>
        <time>2016-10-09T08:07:57Z</time>
      </trkpt>
      <trkpt lat="43.66542" lon="3.84002">
        <ele>70.400024414062</ele>
        <time>2016-10-09T08:07:58Z</time>
      </trkpt>
      <trkpt lat="43.66551" lon="3.84009">
        <ele>70</ele>
        <time>2016-10-09T08:08:00Z</time>
      </trkpt>
      <trkpt lat="43.6657" lon="3.8402">
        <ele>69.799987792969</ele>
        <time>2016-10-09T08:08:05Z</time>
      </trkpt>
      <trkpt lat="43.6659" lon="3.84033">
        <ele>69.799987792969</ele>
        <time>2016-10-09T08:08:11Z</time>
      </trkpt>
      <trkpt lat="43.66609" lon="3.84047">
        <ele>69.599975585938</ele>
        <time>2016-10-09T08:08:18Z</time>
      </trkpt>
      <trkpt lat="43.66627" lon="3.8406">
        <ele>69.200012207031</ele>
        <time>2016-10-09T08:08:25Z</time>
      </trkpt>
      <trkpt lat="43.66636" lon="3.84076">
        <ele>68.799987792969</ele>
        <time>2016-10-09T08:08:30Z</time>
      </trkpt>
      <trkpt lat="43.66641" lon="3.841">
        <ele>68.599975585938</ele>
        <time>2016-10-09T08:08:35Z</time>
      </trkpt>
      <trkpt lat="43.66642" lon="3.84107">
        <ele>68.200012207031</ele>
        <time>2016-10-09T08:08:37Z</time>
      </trkpt>
      <trkpt lat="43.66644" lon="3.84108">
        <ele>68</ele>
        <time>2016-10-09T08:08:39Z</time>
      </trkpt>
      <trkpt lat="43.66648" lon="3.84106">
        <ele>67.799987792969</ele>
        <time>2016-10-09T08:09:10Z</time>
      </trkpt>
      <trkpt lat="43.6665" lon="3.84103">
        <ele>68</ele>
        <time>2016-10-09T08:09:12Z</time>
      </trkpt>
      <trkpt lat="43.66654" lon="3.84096">
        <ele>68.799987792969</ele>
        <time>2016-10-09T08:09:17Z</time>
      </trkpt>
      <trkpt lat="43.66654" lon="3.84094">
        <ele>68.799987792969</ele>
        <time>2016-10-09T08:09:18Z</time>
      </trkpt>
      <trkpt lat="43.66653" lon="3.84085">
        <ele>69</ele>
        <time>2016-10-09T08:09:23Z</time>
      </trkpt>
      <trkpt lat="43.66645" lon="3.8403">
        <ele>77.599975585938</ele>
        <time>2016-10-09T08:11:10Z</time>
      </trkpt>
      <trkpt lat="43.66641" lon="3.84011">
        <ele>78.599975585938</ele>
        <time>2016-10-09T08:11:16Z</time>
      </trkpt>
      <trkpt lat="43.66641" lon="3.84008">
        <ele>78.799987792969</ele>
        <time>2016-10-09T08:11:17Z</time>
      </trkpt>
      <trkpt lat="43.66646" lon="3.83996">
        <ele>80</ele>
        <time>2016-10-09T08:11:22Z</time>
      </trkpt>
      <trkpt lat="43.66648" lon="3.83989">
        <ele>81</ele>
        <time>2016-10-09T08:11:25Z</time>
      </trkpt>
      <trkpt lat="43.66653" lon="3.83981">
        <ele>82</ele>
        <time>2016-10-09T08:11:29Z</time>
      </trkpt>
      <trkpt lat="43.66654" lon="3.83981">
        <ele>82.200012207031</ele>
        <time>2016-10-09T08:11:30Z</time>
      </trkpt>
      <trkpt lat="43.66658" lon="3.83975">
        <ele>83</ele>
        <time>2016-10-09T08:11:33Z</time>
      </trkpt>
      <trkpt lat="43.66658" lon="3.83973">
        <ele>83.400024414062</ele>
        <time>2016-10-09T08:11:34Z</time>
      </trkpt>
      <trkpt lat="43.66658" lon="3.83962">
        <ele>84</ele>
        <time>2016-10-09T08:11:38Z</time>
      </trkpt>
      <trkpt lat="43.66656" lon="3.83958">
        <ele>84.400024414062</ele>
        <time>2016-10-09T08:11:40Z</time>
      </trkpt>
      <trkpt lat="43.66652" lon="3.83953">
        <ele>85.200012207031</ele>
        <time>2016-10-09T08:11:43Z</time>
      </trkpt>
      <trkpt lat="43.6665" lon="3.83949">
        <ele>85.799987792969</ele>
        <time>2016-10-09T08:11:45Z</time>
      </trkpt>
      <trkpt lat="43.66651" lon="3.83946">
        <ele>86.400024414062</ele>
        <time>2016-10-09T08:11:47Z</time>
      </trkpt>
      <trkpt lat="43.66652" lon="3.83944">
        <ele>86.599975585938</ele>
        <time>2016-10-09T08:11:48Z</time>
      </trkpt>
      <trkpt lat="43.66654" lon="3.83941">
        <ele>87</ele>
        <time>2016-10-09T08:11:50Z</time>
      </trkpt>
      <trkpt lat="43.66657" lon="3.83936">
        <ele>87.799987792969</ele>
        <time>2016-10-09T08:11:53Z</time>
      </trkpt>
      <trkpt lat="43.66658" lon="3.83935">
        <ele>88</ele>
        <time>2016-10-09T08:11:54Z</time>
      </trkpt>
      <trkpt lat="43.66659" lon="3.83929">
        <ele>89</ele>
        <time>2016-10-09T08:11:57Z</time>
      </trkpt>
      <trkpt lat="43.66659" lon="3.83921">
        <ele>89.599975585938</ele>
        <time>2016-10-09T08:12:01Z</time>
      </trkpt>
      <trkpt lat="43.66657" lon="3.83916">
        <ele>90</ele>
        <time>2016-10-09T08:12:03Z</time>
      </trkpt>
      <trkpt lat="43.66655" lon="3.83914">
        <ele>90.400024414062</ele>
        <time>2016-10-09T08:12:04Z</time>
      </trkpt>
      <trkpt lat="43.66649" lon="3.83899">
        <ele>91.200012207031</ele>
        <time>2016-10-09T08:12:10Z</time>
      </trkpt>
      <trkpt lat="43.66648" lon="3.83897">
        <ele>91.400024414062</ele>
        <time>2016-10-09T08:12:11Z</time>
      </trkpt>
      <trkpt lat="43.66647" lon="3.83896">
        <ele>91.400024414062</ele>
        <time>2016-10-09T08:12:12Z</time>
      </trkpt>
      <trkpt lat="43.66645" lon="3.83886">
        <ele>92</ele>
        <time>2016-10-09T08:12:15Z</time>
      </trkpt>
      <trkpt lat="43.66646" lon="3.83883">
        <ele>92.400024414062</ele>
        <time>2016-10-09T08:12:16Z</time>
      </trkpt>
      <trkpt lat="43.66646" lon="3.83881">
        <ele>92.599975585938</ele>
        <time>2016-10-09T08:12:17Z</time>
      </trkpt>
      <trkpt lat="43.66649" lon="3.83868">
        <ele>93</ele>
        <time>2016-10-09T08:12:22Z</time>
      </trkpt>
      <trkpt lat="43.66657" lon="3.83853">
        <ele>93.400024414062</ele>
        <time>2016-10-09T08:12:28Z</time>
      </trkpt>
      <trkpt lat="43.66658" lon="3.8385">
        <ele>93.599975585938</ele>
        <time>2016-10-09T08:12:29Z</time>
      </trkpt>
      <trkpt lat="43.6666" lon="3.83834">
        <ele>93.400024414062</ele>
        <time>2016-10-09T08:12:35Z</time>
      </trkpt>
      <trkpt lat="43.66652" lon="3.83832">
        <ele>94</ele>
        <time>2016-10-09T08:12:38Z</time>
      </trkpt>
      <trkpt lat="43.66647" lon="3.83834">
        <ele>94.599975585938</ele>
        <time>2016-10-09T08:12:40Z</time>
      </trkpt>
      <trkpt lat="43.66644" lon="3.83836">
        <ele>94.799987792969</ele>
        <time>2016-10-09T08:12:41Z</time>
      </trkpt>
      <trkpt lat="43.66635" lon="3.83838">
        <ele>94.799987792969</ele>
        <time>2016-10-09T08:12:44Z</time>
      </trkpt>
      <trkpt lat="43.6662" lon="3.83834">
        <ele>94.200012207031</ele>
        <time>2016-10-09T08:12:49Z</time>
      </trkpt>
      <trkpt lat="43.66603" lon="3.83833">
        <ele>94.400024414062</ele>
        <time>2016-10-09T08:12:53Z</time>
      </trkpt>
      <trkpt lat="43.66598" lon="3.83835">
        <ele>94.200012207031</ele>
        <time>2016-10-09T08:12:54Z</time>
      </trkpt>
      <trkpt lat="43.66583" lon="3.83847">
        <ele>93.799987792969</ele>
        <time>2016-10-09T08:12:58Z</time>
      </trkpt>
      <trkpt lat="43.66576" lon="3.83843">
        <ele>93.599975585938</ele>
        <time>2016-10-09T08:13:01Z</time>
      </trkpt>
      <trkpt lat="43.66575" lon="3.83842">
        <ele>93.400024414062</ele>
        <time>2016-10-09T08:13:02Z</time>
      </trkpt>
      <trkpt lat="43.66575" lon="3.83832">
        <ele>93.400024414062</ele>
        <time>2016-10-09T08:13:05Z</time>
      </trkpt>
      <trkpt lat="43.66577" lon="3.8382">
        <ele>93.400024414062</ele>
        <time>2016-10-09T08:13:06Z</time>
      </trkpt>
      <trkpt lat="43.66572" lon="3.83797">
        <ele>93</ele>
        <time>2016-10-09T08:13:10Z</time>
      </trkpt>
      <trkpt lat="43.6657" lon="3.83795">
        <ele>93</ele>
        <time>2016-10-09T08:13:11Z</time>
      </trkpt>
      <trkpt lat="43.66567" lon="3.83791">
        <ele>92.799987792969</ele>
        <time>2016-10-09T08:13:14Z</time>
      </trkpt>
      <trkpt lat="43.6657" lon="3.83791">
        <ele>89.599975585938</ele>
        <time>2016-10-09T08:14:09Z</time>
      </trkpt>
      <trkpt lat="43.66574" lon="3.83793">
        <ele>89</ele>
        <time>2016-10-09T08:14:11Z</time>
      </trkpt>
      <trkpt lat="43.66576" lon="3.83794">
        <ele>88.400024414062</ele>
        <time>2016-10-09T08:14:12Z</time>
      </trkpt>
      <trkpt lat="43.66577" lon="3.83796">
        <ele>88</ele>
        <time>2016-10-09T08:14:13Z</time>
      </trkpt>
      <trkpt lat="43.66577" lon="3.83802">
        <ele>87.400024414062</ele>
        <time>2016-10-09T08:14:15Z</time>
      </trkpt>
      <trkpt lat="43.66577" lon="3.83805">
        <ele>87</ele>
        <time>2016-10-09T08:14:16Z</time>
      </trkpt>
      <trkpt lat="43.66585" lon="3.83819">
        <ele>86.200012207031</ele>
        <time>2016-10-09T08:14:21Z</time>
      </trkpt>
      <trkpt lat="43.66588" lon="3.83825">
        <ele>86</ele>
        <time>2016-10-09T08:14:23Z</time>
      </trkpt>
      <trkpt lat="43.66594" lon="3.83833">
        <ele>85.599975585938</ele>
        <time>2016-10-09T08:14:27Z</time>
      </trkpt>
      <trkpt lat="43.66598" lon="3.83834">
        <ele>85.599975585938</ele>
        <time>2016-10-09T08:14:29Z</time>
      </trkpt>
      <trkpt lat="43.66607" lon="3.83832">
        <ele>85.799987792969</ele>
        <time>2016-10-09T08:14:33Z</time>
      </trkpt>
      <trkpt lat="43.66614" lon="3.83831">
        <ele>85.799987792969</ele>
        <time>2016-10-09T08:14:36Z</time>
      </trkpt>
      <trkpt lat="43.66627" lon="3.83836">
        <ele>86.599975585938</ele>
        <time>2016-10-09T08:14:42Z</time>
      </trkpt>
      <trkpt lat="43.66634" lon="3.83837">
        <ele>87.200012207031</ele>
        <time>2016-10-09T08:14:45Z</time>
      </trkpt>
      <trkpt lat="43.66641" lon="3.83835">
        <ele>88.200012207031</ele>
        <time>2016-10-09T08:14:48Z</time>
      </trkpt>
      <trkpt lat="43.66644" lon="3.83834">
        <ele>88.400024414062</ele>
        <time>2016-10-09T08:14:49Z</time>
      </trkpt>
      <trkpt lat="43.66654" lon="3.83831">
        <ele>89.599975585938</ele>
        <time>2016-10-09T08:14:53Z</time>
      </trkpt>
      <trkpt lat="43.66662" lon="3.83829">
        <ele>90</ele>
        <time>2016-10-09T08:14:56Z</time>
      </trkpt>
      <trkpt lat="43.66672" lon="3.8383">
        <ele>90.599975585938</ele>
        <time>2016-10-09T08:15:00Z</time>
      </trkpt>
      <trkpt lat="43.66676" lon="3.83832">
        <ele>91.200012207031</ele>
        <time>2016-10-09T08:15:02Z</time>
      </trkpt>
      <trkpt lat="43.6668" lon="3.83836">
        <ele>91.599975585938</ele>
        <time>2016-10-09T08:15:04Z</time>
      </trkpt>
      <trkpt lat="43.66693" lon="3.83849">
        <ele>92.799987792969</ele>
        <time>2016-10-09T08:15:10Z</time>
      </trkpt>
      <trkpt lat="43.66695" lon="3.83852">
        <ele>93</ele>
        <time>2016-10-09T08:15:11Z</time>
      </trkpt>
      <trkpt lat="43.66702" lon="3.83861">
        <ele>94</ele>
        <time>2016-10-09T08:15:15Z</time>
      </trkpt>
      <trkpt lat="43.66709" lon="3.83874">
        <ele>95</ele>
        <time>2016-10-09T08:15:19Z</time>
      </trkpt>
      <trkpt lat="43.66709" lon="3.83878">
        <ele>95.400024414062</ele>
        <time>2016-10-09T08:15:20Z</time>
      </trkpt>
      <trkpt lat="43.66707" lon="3.83896">
        <ele>96.200012207031</ele>
        <time>2016-10-09T08:15:24Z</time>
      </trkpt>
      <trkpt lat="43.66708" lon="3.8393">
        <ele>96.400024414062</ele>
        <time>2016-10-09T08:15:30Z</time>
      </trkpt>
      <trkpt lat="43.66707" lon="3.83936">
        <ele>96.400024414062</ele>
        <time>2016-10-09T08:15:31Z</time>
      </trkpt>
      <trkpt lat="43.66704" lon="3.83967">
        <ele>96.200012207031</ele>
        <time>2016-10-09T08:15:35Z</time>
      </trkpt>
      <trkpt lat="43.66708" lon="3.83983">
        <ele>95.599975585938</ele>
        <time>2016-10-09T08:15:38Z</time>
      </trkpt>
      <trkpt lat="43.66714" lon="3.83985">
        <ele>95.400024414062</ele>
        <time>2016-10-09T08:15:39Z</time>
      </trkpt>
      <trkpt lat="43.66723" lon="3.83985">
        <ele>94.599975585938</ele>
        <time>2016-10-09T08:15:41Z</time>
      </trkpt>
      <trkpt lat="43.66728" lon="3.83985">
        <ele>94.200012207031</ele>
        <time>2016-10-09T08:15:42Z</time>
      </trkpt>
      <trkpt lat="43.66736" lon="3.83983">
        <ele>93.799987792969</ele>
        <time>2016-10-09T08:15:44Z</time>
      </trkpt>
      <trkpt lat="43.66746" lon="3.83981">
        <ele>93.599975585938</ele>
        <time>2016-10-09T08:15:47Z</time>
      </trkpt>
      <trkpt lat="43.66754" lon="3.8399">
        <ele>93.200012207031</ele>
        <time>2016-10-09T08:15:50Z</time>
      </trkpt>
      <trkpt lat="43.66756" lon="3.83994">
        <ele>93.200012207031</ele>
        <time>2016-10-09T08:15:51Z</time>
      </trkpt>
      <trkpt lat="43.66768" lon="3.84013">
        <ele>92.400024414062</ele>
        <time>2016-10-09T08:15:56Z</time>
      </trkpt>
      <trkpt lat="43.6677" lon="3.84015">
        <ele>92.200012207031</ele>
        <time>2016-10-09T08:15:57Z</time>
      </trkpt>
      <trkpt lat="43.66772" lon="3.84015">
        <ele>92</ele>
        <time>2016-10-09T08:15:58Z</time>
      </trkpt>
      <trkpt lat="43.66775" lon="3.84016">
        <ele>91.599975585938</ele>
        <time>2016-10-09T08:15:59Z</time>
      </trkpt>
      <trkpt lat="43.66783" lon="3.84017">
        <ele>91</ele>
        <time>2016-10-09T08:16:01Z</time>
      </trkpt>
      <trkpt lat="43.66794" lon="3.84027">
        <ele>90.400024414062</ele>
        <time>2016-10-09T08:16:04Z</time>
      </trkpt>
      <trkpt lat="43.66802" lon="3.84034">
        <ele>89.799987792969</ele>
        <time>2016-10-09T08:16:06Z</time>
      </trkpt>
      <trkpt lat="43.66805" lon="3.84037">
        <ele>89.400024414062</ele>
        <time>2016-10-09T08:16:07Z</time>
      </trkpt>
      <trkpt lat="43.66811" lon="3.84043">
        <ele>88.799987792969</ele>
        <time>2016-10-09T08:16:09Z</time>
      </trkpt>
      <trkpt lat="43.66822" lon="3.84046">
        <ele>87.599975585938</ele>
        <time>2016-10-09T08:16:12Z</time>
      </trkpt>
      <trkpt lat="43.66826" lon="3.84048">
        <ele>87.400024414062</ele>
        <time>2016-10-09T08:16:13Z</time>
      </trkpt>
      <trkpt lat="43.66833" lon="3.84048">
        <ele>86.599975585938</ele>
        <time>2016-10-09T08:16:15Z</time>
      </trkpt>
      <trkpt lat="43.66839" lon="3.84049">
        <ele>85.799987792969</ele>
        <time>2016-10-09T08:16:17Z</time>
      </trkpt>
      <trkpt lat="43.66843" lon="3.84051">
        <ele>85.400024414062</ele>
        <time>2016-10-09T08:16:18Z</time>
      </trkpt>
      <trkpt lat="43.66854" lon="3.84054">
        <ele>84</ele>
        <time>2016-10-09T08:16:21Z</time>
      </trkpt>
      <trkpt lat="43.66861" lon="3.84056">
        <ele>83</ele>
        <time>2016-10-09T08:16:23Z</time>
      </trkpt>
      <trkpt lat="43.66864" lon="3.84056">
        <ele>82.599975585938</ele>
        <time>2016-10-09T08:16:24Z</time>
      </trkpt>
      <trkpt lat="43.66865" lon="3.84058">
        <ele>82.200012207031</ele>
        <time>2016-10-09T08:16:25Z</time>
      </trkpt>
      <trkpt lat="43.66874" lon="3.84063">
        <ele>77.799987792969</ele>
        <time>2016-10-09T08:16:36Z</time>
      </trkpt>
      <trkpt lat="43.66878" lon="3.84061">
        <ele>76.799987792969</ele>
        <time>2016-10-09T08:16:38Z</time>
      </trkpt>
      <trkpt lat="43.66881" lon="3.84061">
        <ele>76.400024414062</ele>
        <time>2016-10-09T08:16:39Z</time>
      </trkpt>
      <trkpt lat="43.66888" lon="3.84062">
        <ele>75.200012207031</ele>
        <time>2016-10-09T08:16:41Z</time>
      </trkpt>
      <trkpt lat="43.66898" lon="3.84055">
        <ele>74.200012207031</ele>
        <time>2016-10-09T08:16:43Z</time>
      </trkpt>
      <trkpt lat="43.66903" lon="3.84048">
        <ele>73</ele>
        <time>2016-10-09T08:16:45Z</time>
      </trkpt>
      <trkpt lat="43.66907" lon="3.84042">
        <ele>71.799987792969</ele>
        <time>2016-10-09T08:16:47Z</time>
      </trkpt>
      <trkpt lat="43.66909" lon="3.84038">
        <ele>71.400024414062</ele>
        <time>2016-10-09T08:16:48Z</time>
      </trkpt>
      <trkpt lat="43.66912" lon="3.84031">
        <ele>70.599975585938</ele>
        <time>2016-10-09T08:16:50Z</time>
      </trkpt>
      <trkpt lat="43.66915" lon="3.84018">
        <ele>69.200012207031</ele>
        <time>2016-10-09T08:16:53Z</time>
      </trkpt>
      <trkpt lat="43.66916" lon="3.84013">
        <ele>68.799987792969</ele>
        <time>2016-10-09T08:16:54Z</time>
      </trkpt>
      <trkpt lat="43.66914" lon="3.84">
        <ele>68</ele>
        <time>2016-10-09T08:16:57Z</time>
      </trkpt>
      <trkpt lat="43.66914" lon="3.8399">
        <ele>67.599975585938</ele>
        <time>2016-10-09T08:16:59Z</time>
      </trkpt>
      <trkpt lat="43.6691" lon="3.83977">
        <ele>66.599975585938</ele>
        <time>2016-10-09T08:17:02Z</time>
      </trkpt>
      <trkpt lat="43.66906" lon="3.83969">
        <ele>66.200012207031</ele>
        <time>2016-10-09T08:17:04Z</time>
      </trkpt>
      <trkpt lat="43.66893" lon="3.83955">
        <ele>65.799987792969</ele>
        <time>2016-10-09T08:17:09Z</time>
      </trkpt>
      <trkpt lat="43.66886" lon="3.83934">
        <ele>66</ele>
        <time>2016-10-09T08:17:14Z</time>
      </trkpt>
      <trkpt lat="43.66883" lon="3.83907">
        <ele>66.599975585938</ele>
        <time>2016-10-09T08:17:19Z</time>
      </trkpt>
      <trkpt lat="43.66881" lon="3.83889">
        <ele>67.799987792969</ele>
        <time>2016-10-09T08:17:23Z</time>
      </trkpt>
      <trkpt lat="43.66881" lon="3.83878">
        <ele>67.200012207031</ele>
        <time>2016-10-09T08:17:26Z</time>
      </trkpt>
      <trkpt lat="43.66882" lon="3.83843">
        <ele>68.599975585938</ele>
        <time>2016-10-09T08:17:35Z</time>
      </trkpt>
      <trkpt lat="43.66884" lon="3.83835">
        <ele>68.799987792969</ele>
        <time>2016-10-09T08:17:37Z</time>
      </trkpt>
      <trkpt lat="43.66883" lon="3.83818">
        <ele>69.599975585938</ele>
        <time>2016-10-09T08:17:41Z</time>
      </trkpt>
      <trkpt lat="43.66882" lon="3.83814">
        <ele>70</ele>
        <time>2016-10-09T08:17:42Z</time>
      </trkpt>
      <trkpt lat="43.66876" lon="3.83798">
        <ele>71</ele>
        <time>2016-10-09T08:17:47Z</time>
      </trkpt>
      <trkpt lat="43.6687" lon="3.83777">
        <ele>72</ele>
        <time>2016-10-09T08:17:53Z</time>
      </trkpt>
      <trkpt lat="43.66869" lon="3.83774">
        <ele>72.400024414062</ele>
        <time>2016-10-09T08:17:54Z</time>
      </trkpt>
      <trkpt lat="43.66869" lon="3.83762">
        <ele>73.200012207031</ele>
        <time>2016-10-09T08:17:58Z</time>
      </trkpt>
      <trkpt lat="43.66868" lon="3.83756">
        <ele>73.599975585938</ele>
        <time>2016-10-09T08:18:00Z</time>
      </trkpt>
      <trkpt lat="43.66866" lon="3.83743">
        <ele>74.400024414062</ele>
        <time>2016-10-09T08:18:04Z</time>
      </trkpt>
      <trkpt lat="43.66867" lon="3.83734">
        <ele>74.799987792969</ele>
        <time>2016-10-09T08:18:06Z</time>
      </trkpt>
      <trkpt lat="43.66873" lon="3.83715">
        <ele>75</ele>
        <time>2016-10-09T08:18:11Z</time>
      </trkpt>
      <trkpt lat="43.66875" lon="3.83708">
        <ele>75.400024414062</ele>
        <time>2016-10-09T08:18:13Z</time>
      </trkpt>
      <trkpt lat="43.66877" lon="3.83692">
        <ele>75.799987792969</ele>
        <time>2016-10-09T08:18:17Z</time>
      </trkpt>
      <trkpt lat="43.66878" lon="3.8368">
        <ele>75.799987792969</ele>
        <time>2016-10-09T08:18:19Z</time>
      </trkpt>
      <trkpt lat="43.66878" lon="3.83661">
        <ele>76.200012207031</ele>
        <time>2016-10-09T08:18:22Z</time>
      </trkpt>
      <trkpt lat="43.66878" lon="3.83649">
        <ele>76.599975585938</ele>
        <time>2016-10-09T08:18:25Z</time>
      </trkpt>
      <trkpt lat="43.66877" lon="3.83645">
        <ele>76.599975585938</ele>
        <time>2016-10-09T08:18:26Z</time>
      </trkpt>
      <trkpt lat="43.66876" lon="3.83625">
        <ele>77.799987792969</ele>
        <time>2016-10-09T08:18:31Z</time>
      </trkpt>
      <trkpt lat="43.6687" lon="3.83607">
        <ele>79</ele>
        <time>2016-10-09T08:18:36Z</time>
      </trkpt>
      <trkpt lat="43.66864" lon="3.83601">
        <ele>79.400024414062</ele>
        <time>2016-10-09T08:18:39Z</time>
      </trkpt>
      <trkpt lat="43.66858" lon="3.83596">
        <ele>80</ele>
        <time>2016-10-09T08:18:42Z</time>
      </trkpt>
      <trkpt lat="43.66849" lon="3.83591">
        <ele>80.799987792969</ele>
        <time>2016-10-09T08:18:46Z</time>
      </trkpt>
      <trkpt lat="43.66847" lon="3.8359">
        <ele>81.200012207031</ele>
        <time>2016-10-09T08:18:47Z</time>
      </trkpt>
      <trkpt lat="43.66846" lon="3.83588">
        <ele>81.200012207031</ele>
        <time>2016-10-09T08:18:48Z</time>
      </trkpt>
      <trkpt lat="43.66841" lon="3.83584">
        <ele>82</ele>
        <time>2016-10-09T08:18:51Z</time>
      </trkpt>
      <trkpt lat="43.66837" lon="3.83583">
        <ele>82.400024414062</ele>
        <time>2016-10-09T08:18:53Z</time>
      </trkpt>
      <trkpt lat="43.66833" lon="3.83582">
        <ele>82.599975585938</ele>
        <time>2016-10-09T08:18:55Z</time>
      </trkpt>
      <trkpt lat="43.66827" lon="3.8358">
        <ele>83.400024414062</ele>
        <time>2016-10-09T08:18:58Z</time>
      </trkpt>
      <trkpt lat="43.66823" lon="3.83577">
        <ele>83.400024414062</ele>
        <time>2016-10-09T08:19:01Z</time>
      </trkpt>
      <trkpt lat="43.66823" lon="3.83574">
        <ele>83.599975585938</ele>
        <time>2016-10-09T08:19:02Z</time>
      </trkpt>
      <trkpt lat="43.66823" lon="3.83569">
        <ele>83.599975585938</ele>
        <time>2016-10-09T08:19:03Z</time>
      </trkpt>
      <trkpt lat="43.66817" lon="3.83561">
        <ele>84.599975585938</ele>
        <time>2016-10-09T08:19:07Z</time>
      </trkpt>
      <trkpt lat="43.66811" lon="3.83562">
        <ele>85.599975585938</ele>
        <time>2016-10-09T08:19:10Z</time>
      </trkpt>
      <trkpt lat="43.66805" lon="3.83564">
        <ele>87.200012207031</ele>
        <time>2016-10-09T08:19:13Z</time>
      </trkpt>
      <trkpt lat="43.66798" lon="3.83562">
        <ele>88.200012207031</ele>
        <time>2016-10-09T08:19:17Z</time>
      </trkpt>
      <trkpt lat="43.66795" lon="3.8356">
        <ele>88.400024414062</ele>
        <time>2016-10-09T08:19:19Z</time>
      </trkpt>
      <trkpt lat="43.66793" lon="3.83559">
        <ele>89</ele>
        <time>2016-10-09T08:19:21Z</time>
      </trkpt>
      <trkpt lat="43.66788" lon="3.83559">
        <ele>89.799987792969</ele>
        <time>2016-10-09T08:19:23Z</time>
      </trkpt>
      <trkpt lat="43.66785" lon="3.8356">
        <ele>90.400024414062</ele>
        <time>2016-10-09T08:19:24Z</time>
      </trkpt>
      <trkpt lat="43.66783" lon="3.83561">
        <ele>91</ele>
        <time>2016-10-09T08:19:25Z</time>
      </trkpt>
      <trkpt lat="43.66778" lon="3.83563">
        <ele>92.200012207031</ele>
        <time>2016-10-09T08:19:27Z</time>
      </trkpt>
      <trkpt lat="43.66772" lon="3.83563">
        <ele>93</ele>
        <time>2016-10-09T08:19:30Z</time>
      </trkpt>
      <trkpt lat="43.66771" lon="3.83561">
        <ele>93.200012207031</ele>
        <time>2016-10-09T08:19:31Z</time>
      </trkpt>
      <trkpt lat="43.66769" lon="3.83552">
        <ele>93.799987792969</ele>
        <time>2016-10-09T08:19:34Z</time>
      </trkpt>
      <trkpt lat="43.66766" lon="3.83537">
        <ele>94.400024414062</ele>
        <time>2016-10-09T08:19:37Z</time>
      </trkpt>
      <trkpt lat="43.66764" lon="3.83527">
        <ele>94.799987792969</ele>
        <time>2016-10-09T08:19:39Z</time>
      </trkpt>
      <trkpt lat="43.66756" lon="3.835">
        <ele>94.799987792969</ele>
        <time>2016-10-09T08:19:45Z</time>
      </trkpt>
      <trkpt lat="43.66751" lon="3.83477">
        <ele>95.400024414062</ele>
        <time>2016-10-09T08:19:51Z</time>
      </trkpt>
      <trkpt lat="43.6675" lon="3.83473">
        <ele>95.599975585938</ele>
        <time>2016-10-09T08:19:52Z</time>
      </trkpt>
      <trkpt lat="43.66746" lon="3.8345">
        <ele>96.200012207031</ele>
        <time>2016-10-09T08:19:58Z</time>
      </trkpt>
      <trkpt lat="43.6675" lon="3.83434">
        <ele>96.400024414062</ele>
        <time>2016-10-09T08:20:02Z</time>
      </trkpt>
      <trkpt lat="43.6676" lon="3.83407">
        <ele>96.400024414062</ele>
        <time>2016-10-09T08:20:09Z</time>
      </trkpt>
      <trkpt lat="43.66774" lon="3.83387">
        <ele>96.400024414062</ele>
        <time>2016-10-09T08:20:16Z</time>
      </trkpt>
      <trkpt lat="43.66788" lon="3.8337">
        <ele>97</ele>
        <time>2016-10-09T08:20:22Z</time>
      </trkpt>
      <trkpt lat="43.66794" lon="3.83365">
        <ele>97.200012207031</ele>
        <time>2016-10-09T08:20:24Z</time>
      </trkpt>
      <trkpt lat="43.6681" lon="3.83354">
        <ele>98</ele>
        <time>2016-10-09T08:20:30Z</time>
      </trkpt>
      <trkpt lat="43.66813" lon="3.83348">
        <ele>98</ele>
        <time>2016-10-09T08:20:32Z</time>
      </trkpt>
      <trkpt lat="43.66814" lon="3.83343">
        <ele>98.200012207031</ele>
        <time>2016-10-09T08:20:33Z</time>
      </trkpt>
      <trkpt lat="43.66818" lon="3.83327">
        <ele>97.400024414062</ele>
        <time>2016-10-09T08:20:37Z</time>
      </trkpt>
      <trkpt lat="43.66819" lon="3.83324">
        <ele>97</ele>
        <time>2016-10-09T08:20:38Z</time>
      </trkpt>
      <trkpt lat="43.66819" lon="3.83311">
        <ele>97</ele>
        <time>2016-10-09T08:20:42Z</time>
      </trkpt>
      <trkpt lat="43.66819" lon="3.83308">
        <ele>97.200012207031</ele>
        <time>2016-10-09T08:20:43Z</time>
      </trkpt>
      <trkpt lat="43.66816" lon="3.83298">
        <ele>97.599975585938</ele>
        <time>2016-10-09T08:20:47Z</time>
      </trkpt>
      <trkpt lat="43.66814" lon="3.8329">
        <ele>97.599975585938</ele>
        <time>2016-10-09T08:20:50Z</time>
      </trkpt>
      <trkpt lat="43.66813" lon="3.83287">
        <ele>97.400024414062</ele>
        <time>2016-10-09T08:20:51Z</time>
      </trkpt>
      <trkpt lat="43.66813" lon="3.8328">
        <ele>97.200012207031</ele>
        <time>2016-10-09T08:20:53Z</time>
      </trkpt>
      <trkpt lat="43.66812" lon="3.83275">
        <ele>97.200012207031</ele>
        <time>2016-10-09T08:20:55Z</time>
      </trkpt>
      <trkpt lat="43.6681" lon="3.83268">
        <ele>97.400024414062</ele>
        <time>2016-10-09T08:20:58Z</time>
      </trkpt>
      <trkpt lat="43.66808" lon="3.83265">
        <ele>97.799987792969</ele>
        <time>2016-10-09T08:21:00Z</time>
      </trkpt>
      <trkpt lat="43.66804" lon="3.83263">
        <ele>98</ele>
        <time>2016-10-09T08:21:02Z</time>
      </trkpt>
      <trkpt lat="43.66801" lon="3.83262">
        <ele>98.200012207031</ele>
        <time>2016-10-09T08:21:03Z</time>
      </trkpt>
      <trkpt lat="43.66795" lon="3.8326">
        <ele>99</ele>
        <time>2016-10-09T08:21:06Z</time>
      </trkpt>
      <trkpt lat="43.66791" lon="3.83261">
        <ele>100</ele>
        <time>2016-10-09T08:21:09Z</time>
      </trkpt>
      <trkpt lat="43.66789" lon="3.8326">
        <ele>100.20001220703</ele>
        <time>2016-10-09T08:21:10Z</time>
      </trkpt>
      <trkpt lat="43.66785" lon="3.83254">
        <ele>100.20001220703</ele>
        <time>2016-10-09T08:21:14Z</time>
      </trkpt>
      <trkpt lat="43.66781" lon="3.83248">
        <ele>101.40002441406</ele>
        <time>2016-10-09T08:21:19Z</time>
      </trkpt>
      <trkpt lat="43.66779" lon="3.83246">
        <ele>102</ele>
        <time>2016-10-09T08:21:21Z</time>
      </trkpt>
      <trkpt lat="43.66777" lon="3.83244">
        <ele>102.40002441406</ele>
        <time>2016-10-09T08:21:22Z</time>
      </trkpt>
      <trkpt lat="43.66772" lon="3.83238">
        <ele>103.79998779297</ele>
        <time>2016-10-09T08:21:26Z</time>
      </trkpt>
      <trkpt lat="43.66767" lon="3.83235">
        <ele>104.59997558594</ele>
        <time>2016-10-09T08:21:29Z</time>
      </trkpt>
      <trkpt lat="43.66764" lon="3.83237">
        <ele>104.79998779297</ele>
        <time>2016-10-09T08:21:31Z</time>
      </trkpt>
      <trkpt lat="43.66756" lon="3.83234">
        <ele>102</ele>
        <time>2016-10-09T08:21:51Z</time>
      </trkpt>
      <trkpt lat="43.66748" lon="3.83217">
        <ele>100.79998779297</ele>
        <time>2016-10-09T08:21:58Z</time>
      </trkpt>
      <trkpt lat="43.66746" lon="3.83211">
        <ele>99.400024414062</ele>
        <time>2016-10-09T08:22:01Z</time>
      </trkpt>
      <trkpt lat="43.66745" lon="3.83207">
        <ele>97.799987792969</ele>
        <time>2016-10-09T08:22:03Z</time>
      </trkpt>
      <trkpt lat="43.66745" lon="3.83203">
        <ele>96.400024414062</ele>
        <time>2016-10-09T08:22:05Z</time>
      </trkpt>
      <trkpt lat="43.66744" lon="3.83201">
        <ele>95.599975585938</ele>
        <time>2016-10-09T08:22:06Z</time>
      </trkpt>
      <trkpt lat="43.66743" lon="3.832">
        <ele>95.200012207031</ele>
        <time>2016-10-09T08:22:07Z</time>
      </trkpt>
      <trkpt lat="43.66741" lon="3.83193">
        <ele>93.799987792969</ele>
        <time>2016-10-09T08:22:11Z</time>
      </trkpt>
      <trkpt lat="43.66741" lon="3.83191">
        <ele>93.799987792969</ele>
        <time>2016-10-09T08:22:12Z</time>
      </trkpt>
      <trkpt lat="43.66736" lon="3.83175">
        <ele>93.400024414062</ele>
        <time>2016-10-09T08:22:19Z</time>
      </trkpt>
      <trkpt lat="43.66737" lon="3.8316">
        <ele>93.599975585938</ele>
        <time>2016-10-09T08:22:27Z</time>
      </trkpt>
      <trkpt lat="43.66734" lon="3.83146">
        <ele>95.200012207031</ele>
        <time>2016-10-09T08:22:34Z</time>
      </trkpt>
      <trkpt lat="43.66733" lon="3.83141">
        <ele>96</ele>
        <time>2016-10-09T08:22:36Z</time>
      </trkpt>
      <trkpt lat="43.66733" lon="3.83139">
        <ele>96.599975585938</ele>
        <time>2016-10-09T08:22:37Z</time>
      </trkpt>
      <trkpt lat="43.6673" lon="3.83137">
        <ele>98.400024414062</ele>
        <time>2016-10-09T08:22:39Z</time>
      </trkpt>
      <trkpt lat="43.66729" lon="3.83136">
        <ele>99</ele>
        <time>2016-10-09T08:22:40Z</time>
      </trkpt>
      <trkpt lat="43.66727" lon="3.83136">
        <ele>99.799987792969</ele>
        <time>2016-10-09T08:22:41Z</time>
      </trkpt>
      <trkpt lat="43.66724" lon="3.83136">
        <ele>101.40002441406</ele>
        <time>2016-10-09T08:22:43Z</time>
      </trkpt>
      <trkpt lat="43.66719" lon="3.83134">
        <ele>102.79998779297</ele>
        <time>2016-10-09T08:22:46Z</time>
      </trkpt>
      <trkpt lat="43.66717" lon="3.83134">
        <ele>103.20001220703</ele>
        <time>2016-10-09T08:22:47Z</time>
      </trkpt>
      <trkpt lat="43.66715" lon="3.83134">
        <ele>104</ele>
        <time>2016-10-09T08:22:48Z</time>
      </trkpt>
      <trkpt lat="43.66712" lon="3.83133">
        <ele>105</ele>
        <time>2016-10-09T08:22:50Z</time>
      </trkpt>
      <trkpt lat="43.66709" lon="3.83133">
        <ele>106</ele>
        <time>2016-10-09T08:22:52Z</time>
      </trkpt>
      <trkpt lat="43.66703" lon="3.83135">
        <ele>107.40002441406</ele>
        <time>2016-10-09T08:22:55Z</time>
      </trkpt>
      <trkpt lat="43.66696" lon="3.83135">
        <ele>108.59997558594</ele>
        <time>2016-10-09T08:22:58Z</time>
      </trkpt>
      <trkpt lat="43.6669" lon="3.83134">
        <ele>109.59997558594</ele>
        <time>2016-10-09T08:23:01Z</time>
      </trkpt>
      <trkpt lat="43.66683" lon="3.83134">
        <ele>110.59997558594</ele>
        <time>2016-10-09T08:23:04Z</time>
      </trkpt>
      <trkpt lat="43.6668" lon="3.83135">
        <ele>111.59997558594</ele>
        <time>2016-10-09T08:23:06Z</time>
      </trkpt>
      <trkpt lat="43.66673" lon="3.83136">
        <ele>112.79998779297</ele>
        <time>2016-10-09T08:23:09Z</time>
      </trkpt>
      <trkpt lat="43.66671" lon="3.83137">
        <ele>113.20001220703</ele>
        <time>2016-10-09T08:23:10Z</time>
      </trkpt>
      <trkpt lat="43.66666" lon="3.83138">
        <ele>114</ele>
        <time>2016-10-09T08:23:12Z</time>
      </trkpt>
      <trkpt lat="43.6666" lon="3.8314">
        <ele>115.20001220703</ele>
        <time>2016-10-09T08:23:15Z</time>
      </trkpt>
      <trkpt lat="43.66655" lon="3.83142">
        <ele>116.20001220703</ele>
        <time>2016-10-09T08:23:18Z</time>
      </trkpt>
      <trkpt lat="43.66653" lon="3.83142">
        <ele>116.40002441406</ele>
        <time>2016-10-09T08:23:19Z</time>
      </trkpt>
      <trkpt lat="43.66647" lon="3.83141">
        <ele>117.59997558594</ele>
        <time>2016-10-09T08:23:22Z</time>
      </trkpt>
      <trkpt lat="43.66642" lon="3.8314">
        <ele>118.79998779297</ele>
        <time>2016-10-09T08:23:25Z</time>
      </trkpt>
      <trkpt lat="43.66639" lon="3.83139">
        <ele>120</ele>
        <time>2016-10-09T08:23:28Z</time>
      </trkpt>
      <trkpt lat="43.66636" lon="3.83134">
        <ele>121.20001220703</ele>
        <time>2016-10-09T08:23:31Z</time>
      </trkpt>
      <trkpt lat="43.66636" lon="3.83112">
        <ele>121.20001220703</ele>
        <time>2016-10-09T08:23:37Z</time>
      </trkpt>
      <trkpt lat="43.66638" lon="3.83098">
        <ele>120.20001220703</ele>
        <time>2016-10-09T08:23:41Z</time>
      </trkpt>
      <trkpt lat="43.66642" lon="3.83077">
        <ele>120</ele>
        <time>2016-10-09T08:23:46Z</time>
      </trkpt>
      <trkpt lat="43.66647" lon="3.83042">
        <ele>119.59997558594</ele>
        <time>2016-10-09T08:23:54Z</time>
      </trkpt>
      <trkpt lat="43.66643" lon="3.83018">
        <ele>119.20001220703</ele>
        <time>2016-10-09T08:24:00Z</time>
      </trkpt>
      <trkpt lat="43.66642" lon="3.83014">
        <ele>119.20001220703</ele>
        <time>2016-10-09T08:24:01Z</time>
      </trkpt>
      <trkpt lat="43.66638" lon="3.82987">
        <ele>118.79998779297</ele>
        <time>2016-10-09T08:24:09Z</time>
      </trkpt>
      <trkpt lat="43.66634" lon="3.82963">
        <ele>118.20001220703</ele>
        <time>2016-10-09T08:24:15Z</time>
      </trkpt>
      <trkpt lat="43.66622" lon="3.82931">
        <ele>117.40002441406</ele>
        <time>2016-10-09T08:24:23Z</time>
      </trkpt>
      <trkpt lat="43.6662" lon="3.82927">
        <ele>117.20001220703</ele>
        <time>2016-10-09T08:24:24Z</time>
      </trkpt>
      <trkpt lat="43.66614" lon="3.82903">
        <ele>116.59997558594</ele>
        <time>2016-10-09T08:24:29Z</time>
      </trkpt>
      <trkpt lat="43.66614" lon="3.82893">
        <ele>116.20001220703</ele>
        <time>2016-10-09T08:24:31Z</time>
      </trkpt>
      <trkpt lat="43.66614" lon="3.82865">
        <ele>115.20001220703</ele>
        <time>2016-10-09T08:24:37Z</time>
      </trkpt>
      <trkpt lat="43.66614" lon="3.82857">
        <ele>115</ele>
        <time>2016-10-09T08:24:39Z</time>
      </trkpt>
      <trkpt lat="43.66616" lon="3.82853">
        <ele>115</ele>
        <time>2016-10-09T08:24:40Z</time>
      </trkpt>
      <trkpt lat="43.66619" lon="3.82849">
        <ele>115</ele>
        <time>2016-10-09T08:24:41Z</time>
      </trkpt>
      <trkpt lat="43.6663" lon="3.82838">
        <ele>114.40002441406</ele>
        <time>2016-10-09T08:24:44Z</time>
      </trkpt>
      <trkpt lat="43.66641" lon="3.82826">
        <ele>114</ele>
        <time>2016-10-09T08:24:47Z</time>
      </trkpt>
      <trkpt lat="43.66668" lon="3.82801">
        <ele>113.40002441406</ele>
        <time>2016-10-09T08:24:54Z</time>
      </trkpt>
      <trkpt lat="43.66684" lon="3.82787">
        <ele>112.79998779297</ele>
        <time>2016-10-09T08:24:58Z</time>
      </trkpt>
      <trkpt lat="43.66694" lon="3.82777">
        <ele>112.79998779297</ele>
        <time>2016-10-09T08:25:01Z</time>
      </trkpt>
      <trkpt lat="43.66717" lon="3.82755">
        <ele>111.79998779297</ele>
        <time>2016-10-09T08:25:07Z</time>
      </trkpt>
      <trkpt lat="43.6672" lon="3.82751">
        <ele>111.59997558594</ele>
        <time>2016-10-09T08:25:08Z</time>
      </trkpt>
      <trkpt lat="43.66747" lon="3.82728">
        <ele>110.59997558594</ele>
        <time>2016-10-09T08:25:15Z</time>
      </trkpt>
      <trkpt lat="43.66765" lon="3.82713">
        <ele>109.59997558594</ele>
        <time>2016-10-09T08:25:19Z</time>
      </trkpt>
      <trkpt lat="43.66778" lon="3.82703">
        <ele>108.79998779297</ele>
        <time>2016-10-09T08:25:22Z</time>
      </trkpt>
      <trkpt lat="43.66782" lon="3.827">
        <ele>108.40002441406</ele>
        <time>2016-10-09T08:25:23Z</time>
      </trkpt>
      <trkpt lat="43.66786" lon="3.82697">
        <ele>108.20001220703</ele>
        <time>2016-10-09T08:25:24Z</time>
      </trkpt>
      <trkpt lat="43.66794" lon="3.82689">
        <ele>107.40002441406</ele>
        <time>2016-10-09T08:25:26Z</time>
      </trkpt>
      <trkpt lat="43.66799" lon="3.82685">
        <ele>107</ele>
        <time>2016-10-09T08:25:27Z</time>
      </trkpt>
      <trkpt lat="43.66811" lon="3.82675">
        <ele>106</ele>
        <time>2016-10-09T08:25:30Z</time>
      </trkpt>
      <trkpt lat="43.66817" lon="3.82669">
        <ele>105.20001220703</ele>
        <time>2016-10-09T08:25:32Z</time>
      </trkpt>
      <trkpt lat="43.6682" lon="3.82666">
        <ele>104.79998779297</ele>
        <time>2016-10-09T08:25:33Z</time>
      </trkpt>
      <trkpt lat="43.66831" lon="3.82657">
        <ele>103.79998779297</ele>
        <time>2016-10-09T08:25:36Z</time>
      </trkpt>
      <trkpt lat="43.66835" lon="3.82654">
        <ele>103.20001220703</ele>
        <time>2016-10-09T08:25:37Z</time>
      </trkpt>
      <trkpt lat="43.66846" lon="3.82647">
        <ele>102.20001220703</ele>
        <time>2016-10-09T08:25:39Z</time>
      </trkpt>
      <trkpt lat="43.6686" lon="3.82638">
        <ele>101</ele>
        <time>2016-10-09T08:25:42Z</time>
      </trkpt>
      <trkpt lat="43.66869" lon="3.82631">
        <ele>100</ele>
        <time>2016-10-09T08:25:45Z</time>
      </trkpt>
      <trkpt lat="43.66874" lon="3.82623">
        <ele>99</ele>
        <time>2016-10-09T08:25:47Z</time>
      </trkpt>
      <trkpt lat="43.66876" lon="3.8262">
        <ele>98.799987792969</ele>
        <time>2016-10-09T08:25:48Z</time>
      </trkpt>
      <trkpt lat="43.66889" lon="3.82607">
        <ele>97.599975585938</ele>
        <time>2016-10-09T08:25:53Z</time>
      </trkpt>
      <trkpt lat="43.6691" lon="3.82587">
        <ele>96.599975585938</ele>
        <time>2016-10-09T08:25:59Z</time>
      </trkpt>
      <trkpt lat="43.66915" lon="3.82585">
        <ele>96.400024414062</ele>
        <time>2016-10-09T08:26:00Z</time>
      </trkpt>
      <trkpt lat="43.66927" lon="3.82575">
        <ele>95.799987792969</ele>
        <time>2016-10-09T08:26:03Z</time>
      </trkpt>
      <trkpt lat="43.6693" lon="3.82571">
        <ele>95.799987792969</ele>
        <time>2016-10-09T08:26:04Z</time>
      </trkpt>
      <trkpt lat="43.66954" lon="3.82549">
        <ele>95.599975585938</ele>
        <time>2016-10-09T08:26:11Z</time>
      </trkpt>
      <trkpt lat="43.66961" lon="3.82542">
        <ele>95.400024414062</ele>
        <time>2016-10-09T08:26:13Z</time>
      </trkpt>
      <trkpt lat="43.66985" lon="3.82518">
        <ele>95.200012207031</ele>
        <time>2016-10-09T08:26:20Z</time>
      </trkpt>
      <trkpt lat="43.67004" lon="3.825">
        <ele>95.200012207031</ele>
        <time>2016-10-09T08:26:26Z</time>
      </trkpt>
      <trkpt lat="43.67024" lon="3.82477">
        <ele>96.200012207031</ele>
        <time>2016-10-09T08:26:33Z</time>
      </trkpt>
      <trkpt lat="43.67038" lon="3.82464">
        <ele>96.400024414062</ele>
        <time>2016-10-09T08:26:38Z</time>
      </trkpt>
      <trkpt lat="43.6704" lon="3.8246">
        <ele>96.599975585938</ele>
        <time>2016-10-09T08:26:39Z</time>
      </trkpt>
      <trkpt lat="43.67042" lon="3.82456">
        <ele>96.599975585938</ele>
        <time>2016-10-09T08:26:40Z</time>
      </trkpt>
      <trkpt lat="43.67048" lon="3.82448">
        <ele>97.799987792969</ele>
        <time>2016-10-09T08:26:42Z</time>
      </trkpt>
      <trkpt lat="43.67052" lon="3.8244">
        <ele>99.400024414062</ele>
        <time>2016-10-09T08:26:44Z</time>
      </trkpt>
      <trkpt lat="43.67055" lon="3.82436">
        <ele>100</ele>
        <time>2016-10-09T08:26:45Z</time>
      </trkpt>
      <trkpt lat="43.67057" lon="3.82433">
        <ele>100.59997558594</ele>
        <time>2016-10-09T08:26:46Z</time>
      </trkpt>
      <trkpt lat="43.67062" lon="3.82426">
        <ele>101.79998779297</ele>
        <time>2016-10-09T08:26:48Z</time>
      </trkpt>
      <trkpt lat="43.67069" lon="3.82415">
        <ele>102.79998779297</ele>
        <time>2016-10-09T08:26:51Z</time>
      </trkpt>
      <trkpt lat="43.67071" lon="3.82412">
        <ele>103</ele>
        <time>2016-10-09T08:26:52Z</time>
      </trkpt>
      <trkpt lat="43.67079" lon="3.82403">
        <ele>104</ele>
        <time>2016-10-09T08:26:55Z</time>
      </trkpt>
      <trkpt lat="43.67083" lon="3.82393">
        <ele>105</ele>
        <time>2016-10-09T08:26:58Z</time>
      </trkpt>
      <trkpt lat="43.67083" lon="3.8239">
        <ele>105.40002441406</ele>
        <time>2016-10-09T08:26:59Z</time>
      </trkpt>
      <trkpt lat="43.67085" lon="3.82385">
        <ele>106</ele>
        <time>2016-10-09T08:27:01Z</time>
      </trkpt>
      <trkpt lat="43.67087" lon="3.82383">
        <ele>106.40002441406</ele>
        <time>2016-10-09T08:27:02Z</time>
      </trkpt>
      <trkpt lat="43.67092" lon="3.82377">
        <ele>107.59997558594</ele>
        <time>2016-10-09T08:27:05Z</time>
      </trkpt>
      <trkpt lat="43.67095" lon="3.82374">
        <ele>108.79998779297</ele>
        <time>2016-10-09T08:27:08Z</time>
      </trkpt>
      <trkpt lat="43.67099" lon="3.82368">
        <ele>110</ele>
        <time>2016-10-09T08:27:12Z</time>
      </trkpt>
      <trkpt lat="43.67104" lon="3.82361">
        <ele>111.20001220703</ele>
        <time>2016-10-09T08:27:16Z</time>
      </trkpt>
      <trkpt lat="43.67108" lon="3.82355">
        <ele>112.40002441406</ele>
        <time>2016-10-09T08:27:19Z</time>
      </trkpt>
      <trkpt lat="43.67111" lon="3.82349">
        <ele>113.20001220703</ele>
        <time>2016-10-09T08:27:22Z</time>
      </trkpt>
      <trkpt lat="43.67112" lon="3.82347">
        <ele>113.59997558594</ele>
        <time>2016-10-09T08:27:23Z</time>
      </trkpt>
      <trkpt lat="43.67119" lon="3.82337">
        <ele>114.79998779297</ele>
        <time>2016-10-09T08:27:29Z</time>
      </trkpt>
      <trkpt lat="43.6712" lon="3.82335">
        <ele>115</ele>
        <time>2016-10-09T08:27:30Z</time>
      </trkpt>
      <trkpt lat="43.67124" lon="3.82327">
        <ele>115.79998779297</ele>
        <time>2016-10-09T08:27:34Z</time>
      </trkpt>
      <trkpt lat="43.6713" lon="3.82316">
        <ele>116.79998779297</ele>
        <time>2016-10-09T08:27:39Z</time>
      </trkpt>
      <trkpt lat="43.67132" lon="3.8231">
        <ele>117</ele>
        <time>2016-10-09T08:27:41Z</time>
      </trkpt>
      <trkpt lat="43.67137" lon="3.82304">
        <ele>117.20001220703</ele>
        <time>2016-10-09T08:27:44Z</time>
      </trkpt>
      <trkpt lat="43.67146" lon="3.82287">
        <ele>117.20001220703</ele>
        <time>2016-10-09T08:27:50Z</time>
      </trkpt>
      <trkpt lat="43.67159" lon="3.82266">
        <ele>117.20001220703</ele>
        <time>2016-10-09T08:27:56Z</time>
      </trkpt>
      <trkpt lat="43.67171" lon="3.8225">
        <ele>118</ele>
        <time>2016-10-09T08:28:02Z</time>
      </trkpt>
      <trkpt lat="43.67173" lon="3.82247">
        <ele>118.20001220703</ele>
        <time>2016-10-09T08:28:03Z</time>
      </trkpt>
      <trkpt lat="43.67184" lon="3.8223">
        <ele>118.40002441406</ele>
        <time>2016-10-09T08:28:10Z</time>
      </trkpt>
      <trkpt lat="43.67194" lon="3.82216">
        <ele>119.20001220703</ele>
        <time>2016-10-09T08:28:17Z</time>
      </trkpt>
      <trkpt lat="43.67196" lon="3.82214">
        <ele>119.20001220703</ele>
        <time>2016-10-09T08:28:18Z</time>
      </trkpt>
      <trkpt lat="43.67201" lon="3.82202">
        <ele>120.40002441406</ele>
        <time>2016-10-09T08:28:23Z</time>
      </trkpt>
      <trkpt lat="43.67206" lon="3.82196">
        <ele>121.59997558594</ele>
        <time>2016-10-09T08:28:26Z</time>
      </trkpt>
      <trkpt lat="43.67208" lon="3.82194">
        <ele>121.79998779297</ele>
        <time>2016-10-09T08:28:27Z</time>
      </trkpt>
      <trkpt lat="43.67211" lon="3.8219">
        <ele>122.59997558594</ele>
        <time>2016-10-09T08:28:29Z</time>
      </trkpt>
      <trkpt lat="43.67215" lon="3.8218">
        <ele>123.59997558594</ele>
        <time>2016-10-09T08:28:33Z</time>
      </trkpt>
      <trkpt lat="43.67221" lon="3.82171">
        <ele>124.59997558594</ele>
        <time>2016-10-09T08:28:38Z</time>
      </trkpt>
      <trkpt lat="43.67223" lon="3.82171">
        <ele>124.59997558594</ele>
        <time>2016-10-09T08:28:39Z</time>
      </trkpt>
      <trkpt lat="43.67233" lon="3.82171">
        <ele>125.79998779297</ele>
        <time>2016-10-09T08:28:44Z</time>
      </trkpt>
      <trkpt lat="43.67242" lon="3.82176">
        <ele>126.59997558594</ele>
        <time>2016-10-09T08:28:49Z</time>
      </trkpt>
      <trkpt lat="43.67245" lon="3.82177">
        <ele>126.79998779297</ele>
        <time>2016-10-09T08:28:50Z</time>
      </trkpt>
      <trkpt lat="43.67249" lon="3.82177">
        <ele>127</ele>
        <time>2016-10-09T08:28:52Z</time>
      </trkpt>
      <trkpt lat="43.67255" lon="3.82174">
        <ele>127.59997558594</ele>
        <time>2016-10-09T08:28:56Z</time>
      </trkpt>
      <trkpt lat="43.67256" lon="3.8217">
        <ele>127.79998779297</ele>
        <time>2016-10-09T08:28:58Z</time>
      </trkpt>
      <trkpt lat="43.67259" lon="3.82167">
        <ele>127.59997558594</ele>
        <time>2016-10-09T08:29:00Z</time>
      </trkpt>
      <trkpt lat="43.67266" lon="3.82161">
        <ele>127.79998779297</ele>
        <time>2016-10-09T08:29:04Z</time>
      </trkpt>
      <trkpt lat="43.67276" lon="3.82155">
        <ele>128.79998779297</ele>
        <time>2016-10-09T08:29:10Z</time>
      </trkpt>
      <trkpt lat="43.67278" lon="3.82155">
        <ele>129</ele>
        <time>2016-10-09T08:29:11Z</time>
      </trkpt>
      <trkpt lat="43.67285" lon="3.82154">
        <ele>130</ele>
        <time>2016-10-09T08:29:15Z</time>
      </trkpt>
      <trkpt lat="43.67292" lon="3.82152">
        <ele>131</ele>
        <time>2016-10-09T08:29:18Z</time>
      </trkpt>
      <trkpt lat="43.67298" lon="3.8215">
        <ele>131.79998779297</ele>
        <time>2016-10-09T08:29:21Z</time>
      </trkpt>
      <trkpt lat="43.67302" lon="3.8215">
        <ele>132.20001220703</ele>
        <time>2016-10-09T08:29:23Z</time>
      </trkpt>
      <trkpt lat="43.6731" lon="3.82147">
        <ele>133.20001220703</ele>
        <time>2016-10-09T08:29:28Z</time>
      </trkpt>
      <trkpt lat="43.67312" lon="3.82146">
        <ele>133.59997558594</ele>
        <time>2016-10-09T08:29:29Z</time>
      </trkpt>
      <trkpt lat="43.67318" lon="3.82144">
        <ele>134.20001220703</ele>
        <time>2016-10-09T08:29:32Z</time>
      </trkpt>
      <trkpt lat="43.67323" lon="3.82143">
        <ele>135.40002441406</ele>
        <time>2016-10-09T08:29:35Z</time>
      </trkpt>
      <trkpt lat="43.67325" lon="3.82143">
        <ele>135.79998779297</ele>
        <time>2016-10-09T08:29:36Z</time>
      </trkpt>
      <trkpt lat="43.67329" lon="3.82142">
        <ele>136.59997558594</ele>
        <time>2016-10-09T08:29:38Z</time>
      </trkpt>
      <trkpt lat="43.67335" lon="3.82139">
        <ele>137.79998779297</ele>
        <time>2016-10-09T08:29:42Z</time>
      </trkpt>
      <trkpt lat="43.67341" lon="3.82138">
        <ele>139.20001220703</ele>
        <time>2016-10-09T08:29:45Z</time>
      </trkpt>
      <trkpt lat="43.67347" lon="3.82137">
        <ele>140.40002441406</ele>
        <time>2016-10-09T08:29:48Z</time>
      </trkpt>
      <trkpt lat="43.67352" lon="3.82136">
        <ele>141.59997558594</ele>
        <time>2016-10-09T08:29:51Z</time>
      </trkpt>
      <trkpt lat="43.67354" lon="3.82136">
        <ele>142</ele>
        <time>2016-10-09T08:29:52Z</time>
      </trkpt>
      <trkpt lat="43.67358" lon="3.82136">
        <ele>142.59997558594</ele>
        <time>2016-10-09T08:29:55Z</time>
      </trkpt>
      <trkpt lat="43.67365" lon="3.82135">
        <ele>143.59997558594</ele>
        <time>2016-10-09T08:29:59Z</time>
      </trkpt>
      <trkpt lat="43.6737" lon="3.82134">
        <ele>144.59997558594</ele>
        <time>2016-10-09T08:30:02Z</time>
      </trkpt>
      <trkpt lat="43.67372" lon="3.82134">
        <ele>144.79998779297</ele>
        <time>2016-10-09T08:30:03Z</time>
      </trkpt>
      <trkpt lat="43.67386" lon="3.82134">
        <ele>145.79998779297</ele>
        <time>2016-10-09T08:30:10Z</time>
      </trkpt>
      <trkpt lat="43.67402" lon="3.82136">
        <ele>146</ele>
        <time>2016-10-09T08:30:16Z</time>
      </trkpt>
      <trkpt lat="43.67423" lon="3.82133">
        <ele>145.40002441406</ele>
        <time>2016-10-09T08:30:23Z</time>
      </trkpt>
      <trkpt lat="43.67439" lon="3.82131">
        <ele>144.59997558594</ele>
        <time>2016-10-09T08:30:27Z</time>
      </trkpt>
      <trkpt lat="43.67447" lon="3.8213">
        <ele>144</ele>
        <time>2016-10-09T08:30:29Z</time>
      </trkpt>
      <trkpt lat="43.67452" lon="3.8213">
        <ele>144</ele>
        <time>2016-10-09T08:30:30Z</time>
      </trkpt>
      <trkpt lat="43.67461" lon="3.82129">
        <ele>143.40002441406</ele>
        <time>2016-10-09T08:30:32Z</time>
      </trkpt>
      <trkpt lat="43.6747" lon="3.82128">
        <ele>142.79998779297</ele>
        <time>2016-10-09T08:30:34Z</time>
      </trkpt>
      <trkpt lat="43.67475" lon="3.82127">
        <ele>142.40002441406</ele>
        <time>2016-10-09T08:30:35Z</time>
      </trkpt>
      <trkpt lat="43.67492" lon="3.82125">
        <ele>141.59997558594</ele>
        <time>2016-10-09T08:30:38Z</time>
      </trkpt>
      <trkpt lat="43.67498" lon="3.82124">
        <ele>141.40002441406</ele>
        <time>2016-10-09T08:30:39Z</time>
      </trkpt>
      <trkpt lat="43.67523" lon="3.82121">
        <ele>140</ele>
        <time>2016-10-09T08:30:43Z</time>
      </trkpt>
      <trkpt lat="43.67537" lon="3.8212">
        <ele>139.20001220703</ele>
        <time>2016-10-09T08:30:45Z</time>
      </trkpt>
      <trkpt lat="43.67544" lon="3.8212">
        <ele>138.79998779297</ele>
        <time>2016-10-09T08:30:46Z</time>
      </trkpt>
      <trkpt lat="43.67562" lon="3.8212">
        <ele>137.20001220703</ele>
        <time>2016-10-09T08:30:49Z</time>
      </trkpt>
      <trkpt lat="43.67567" lon="3.82122">
        <ele>136.79998779297</ele>
        <time>2016-10-09T08:30:50Z</time>
      </trkpt>
      <trkpt lat="43.67569" lon="3.82129">
        <ele>136.20001220703</ele>
        <time>2016-10-09T08:30:52Z</time>
      </trkpt>
      <trkpt lat="43.67568" lon="3.82133">
        <ele>135.79998779297</ele>
        <time>2016-10-09T08:30:53Z</time>
      </trkpt>
      <trkpt lat="43.67568" lon="3.82144">
        <ele>135</ele>
        <time>2016-10-09T08:30:56Z</time>
      </trkpt>
      <trkpt lat="43.6757" lon="3.8215">
        <ele>134.59997558594</ele>
        <time>2016-10-09T08:30:58Z</time>
      </trkpt>
      <trkpt lat="43.67578" lon="3.82174">
        <ele>134.20001220703</ele>
        <time>2016-10-09T08:31:05Z</time>
      </trkpt>
      <trkpt lat="43.6758" lon="3.82176">
        <ele>134</ele>
        <time>2016-10-09T08:31:06Z</time>
      </trkpt>
      <trkpt lat="43.67582" lon="3.82177">
        <ele>134</ele>
        <time>2016-10-09T08:31:07Z</time>
      </trkpt>
      <trkpt lat="43.67587" lon="3.82175">
        <ele>134</ele>
        <time>2016-10-09T08:31:09Z</time>
      </trkpt>
      <trkpt lat="43.67593" lon="3.8217">
        <ele>133.79998779297</ele>
        <time>2016-10-09T08:31:12Z</time>
      </trkpt>
      <trkpt lat="43.67598" lon="3.82168">
        <ele>134</ele>
        <time>2016-10-09T08:31:15Z</time>
      </trkpt>
      <trkpt lat="43.67631" lon="3.82167">
        <ele>126.40002441406</ele>
        <time>2016-10-09T08:39:13Z</time>
      </trkpt>
      <trkpt lat="43.67633" lon="3.82167">
        <ele>126.40002441406</ele>
        <time>2016-10-09T08:39:14Z</time>
      </trkpt>
      <trkpt lat="43.67634" lon="3.82169">
        <ele>126.20001220703</ele>
        <time>2016-10-09T08:39:15Z</time>
      </trkpt>
      <trkpt lat="43.67634" lon="3.82176">
        <ele>126.20001220703</ele>
        <time>2016-10-09T08:39:18Z</time>
      </trkpt>
      <trkpt lat="43.6763" lon="3.82178">
        <ele>126</ele>
        <time>2016-10-09T08:39:20Z</time>
      </trkpt>
      <trkpt lat="43.67624" lon="3.82179">
        <ele>126</ele>
        <time>2016-10-09T08:39:23Z</time>
      </trkpt>
      <trkpt lat="43.67608" lon="3.82186">
        <ele>126</ele>
        <time>2016-10-09T08:39:30Z</time>
      </trkpt>
      <trkpt lat="43.67591" lon="3.82195">
        <ele>126.40002441406</ele>
        <time>2016-10-09T08:39:37Z</time>
      </trkpt>
      <trkpt lat="43.67564" lon="3.82214">
        <ele>127.20001220703</ele>
        <time>2016-10-09T08:39:47Z</time>
      </trkpt>
      <trkpt lat="43.67555" lon="3.8222">
        <ele>127.40002441406</ele>
        <time>2016-10-09T08:39:50Z</time>
      </trkpt>
      <trkpt lat="43.67542" lon="3.82227">
        <ele>127.59997558594</ele>
        <time>2016-10-09T08:39:55Z</time>
      </trkpt>
      <trkpt lat="43.67513" lon="3.82244">
        <ele>128</ele>
        <time>2016-10-09T08:40:05Z</time>
      </trkpt>
      <trkpt lat="43.67503" lon="3.82251">
        <ele>128.40002441406</ele>
        <time>2016-10-09T08:40:09Z</time>
      </trkpt>
      <trkpt lat="43.67494" lon="3.82258">
        <ele>128.59997558594</ele>
        <time>2016-10-09T08:40:12Z</time>
      </trkpt>
      <trkpt lat="43.67481" lon="3.82275">
        <ele>129.59997558594</ele>
        <time>2016-10-09T08:40:17Z</time>
      </trkpt>
      <trkpt lat="43.67479" lon="3.82279">
        <ele>129.59997558594</ele>
        <time>2016-10-09T08:40:18Z</time>
      </trkpt>
      <trkpt lat="43.67468" lon="3.82308">
        <ele>129.79998779297</ele>
        <time>2016-10-09T08:40:25Z</time>
      </trkpt>
      <trkpt lat="43.67463" lon="3.82338">
        <ele>130.40002441406</ele>
        <time>2016-10-09T08:40:32Z</time>
      </trkpt>
      <trkpt lat="43.67462" lon="3.82346">
        <ele>130.59997558594</ele>
        <time>2016-10-09T08:40:34Z</time>
      </trkpt>
      <trkpt lat="43.67459" lon="3.82361">
        <ele>131.20001220703</ele>
        <time>2016-10-09T08:40:38Z</time>
      </trkpt>
      <trkpt lat="43.67458" lon="3.82368">
        <ele>131.59997558594</ele>
        <time>2016-10-09T08:40:40Z</time>
      </trkpt>
      <trkpt lat="43.67455" lon="3.82386">
        <ele>132.79998779297</ele>
        <time>2016-10-09T08:40:45Z</time>
      </trkpt>
      <trkpt lat="43.67454" lon="3.82389">
        <ele>133</ele>
        <time>2016-10-09T08:40:46Z</time>
      </trkpt>
      <trkpt lat="43.67449" lon="3.82412">
        <ele>133.20001220703</ele>
        <time>2016-10-09T08:40:53Z</time>
      </trkpt>
      <trkpt lat="43.67446" lon="3.82428">
        <ele>133.79998779297</ele>
        <time>2016-10-09T08:40:58Z</time>
      </trkpt>
      <trkpt lat="43.67443" lon="3.82436">
        <ele>134.40002441406</ele>
        <time>2016-10-09T08:41:01Z</time>
      </trkpt>
      <trkpt lat="43.67441" lon="3.8244">
        <ele>134.79998779297</ele>
        <time>2016-10-09T08:41:03Z</time>
      </trkpt>
      <trkpt lat="43.67436" lon="3.82442">
        <ele>135</ele>
        <time>2016-10-09T08:41:06Z</time>
      </trkpt>
      <trkpt lat="43.67423" lon="3.8245">
        <ele>135.59997558594</ele>
        <time>2016-10-09T08:41:12Z</time>
      </trkpt>
      <trkpt lat="43.67419" lon="3.82453">
        <ele>135.79998779297</ele>
        <time>2016-10-09T08:41:14Z</time>
      </trkpt>
      <trkpt lat="43.67414" lon="3.82452">
        <ele>136</ele>
        <time>2016-10-09T08:41:16Z</time>
      </trkpt>
      <trkpt lat="43.67391" lon="3.82444">
        <ele>136</ele>
        <time>2016-10-09T08:41:22Z</time>
      </trkpt>
      <trkpt lat="43.67366" lon="3.82436">
        <ele>136.40002441406</ele>
        <time>2016-10-09T08:41:29Z</time>
      </trkpt>
      <trkpt lat="43.67357" lon="3.82429">
        <ele>136.79998779297</ele>
        <time>2016-10-09T08:41:32Z</time>
      </trkpt>
      <trkpt lat="43.67352" lon="3.82428">
        <ele>136.79998779297</ele>
        <time>2016-10-09T08:41:33Z</time>
      </trkpt>
      <trkpt lat="43.67337" lon="3.82428">
        <ele>136.59997558594</ele>
        <time>2016-10-09T08:41:36Z</time>
      </trkpt>
      <trkpt lat="43.67327" lon="3.82429">
        <ele>136.40002441406</ele>
        <time>2016-10-09T08:41:38Z</time>
      </trkpt>
      <trkpt lat="43.67301" lon="3.82437">
        <ele>136.20001220703</ele>
        <time>2016-10-09T08:41:44Z</time>
      </trkpt>
      <trkpt lat="43.67292" lon="3.82438">
        <ele>136.40002441406</ele>
        <time>2016-10-09T08:41:46Z</time>
      </trkpt>
      <trkpt lat="43.67283" lon="3.82438">
        <ele>136.79998779297</ele>
        <time>2016-10-09T08:41:48Z</time>
      </trkpt>
      <trkpt lat="43.67278" lon="3.82439">
        <ele>136.79998779297</ele>
        <time>2016-10-09T08:41:49Z</time>
      </trkpt>
      <trkpt lat="43.67264" lon="3.82446">
        <ele>137</ele>
        <time>2016-10-09T08:41:52Z</time>
      </trkpt>
      <trkpt lat="43.67254" lon="3.82451">
        <ele>137</ele>
        <time>2016-10-09T08:41:54Z</time>
      </trkpt>
      <trkpt lat="43.67232" lon="3.82463">
        <ele>136.59997558594</ele>
        <time>2016-10-09T08:41:58Z</time>
      </trkpt>
      <trkpt lat="43.67221" lon="3.82463">
        <ele>136.59997558594</ele>
        <time>2016-10-09T08:42:00Z</time>
      </trkpt>
      <trkpt lat="43.67216" lon="3.82464">
        <ele>136.59997558594</ele>
        <time>2016-10-09T08:42:01Z</time>
      </trkpt>
      <trkpt lat="43.672" lon="3.82475">
        <ele>135.79998779297</ele>
        <time>2016-10-09T08:42:04Z</time>
      </trkpt>
      <trkpt lat="43.67191" lon="3.82483">
        <ele>135</ele>
        <time>2016-10-09T08:42:06Z</time>
      </trkpt>
      <trkpt lat="43.67188" lon="3.82488">
        <ele>134.59997558594</ele>
        <time>2016-10-09T08:42:07Z</time>
      </trkpt>
      <trkpt lat="43.6718" lon="3.82498">
        <ele>133.79998779297</ele>
        <time>2016-10-09T08:42:09Z</time>
      </trkpt>
      <trkpt lat="43.67177" lon="3.82503">
        <ele>133.59997558594</ele>
        <time>2016-10-09T08:42:10Z</time>
      </trkpt>
      <trkpt lat="43.67162" lon="3.82533">
        <ele>132.40002441406</ele>
        <time>2016-10-09T08:42:15Z</time>
      </trkpt>
      <trkpt lat="43.67154" lon="3.82558">
        <ele>131.40002441406</ele>
        <time>2016-10-09T08:42:19Z</time>
      </trkpt>
      <trkpt lat="43.67148" lon="3.82587">
        <ele>130.20001220703</ele>
        <time>2016-10-09T08:42:23Z</time>
      </trkpt>
      <trkpt lat="43.67147" lon="3.82615">
        <ele>129</ele>
        <time>2016-10-09T08:42:27Z</time>
      </trkpt>
      <trkpt lat="43.67148" lon="3.82622">
        <ele>128.59997558594</ele>
        <time>2016-10-09T08:42:28Z</time>
      </trkpt>
      <trkpt lat="43.67152" lon="3.82642">
        <ele>127.79998779297</ele>
        <time>2016-10-09T08:42:31Z</time>
      </trkpt>
      <trkpt lat="43.67158" lon="3.82662">
        <ele>127.40002441406</ele>
        <time>2016-10-09T08:42:34Z</time>
      </trkpt>
      <trkpt lat="43.67167" lon="3.82696">
        <ele>126.59997558594</ele>
        <time>2016-10-09T08:42:38Z</time>
      </trkpt>
      <trkpt lat="43.67167" lon="3.82705">
        <ele>126.40002441406</ele>
        <time>2016-10-09T08:42:39Z</time>
      </trkpt>
      <trkpt lat="43.67163" lon="3.82724">
        <ele>125.59997558594</ele>
        <time>2016-10-09T08:42:41Z</time>
      </trkpt>
      <trkpt lat="43.67161" lon="3.82734">
        <ele>125.20001220703</ele>
        <time>2016-10-09T08:42:42Z</time>
      </trkpt>
      <trkpt lat="43.67157" lon="3.82753">
        <ele>124.40002441406</ele>
        <time>2016-10-09T08:42:44Z</time>
      </trkpt>
      <trkpt lat="43.67155" lon="3.82792">
        <ele>123.40002441406</ele>
        <time>2016-10-09T08:42:48Z</time>
      </trkpt>
      <trkpt lat="43.67156" lon="3.82823">
        <ele>122.20001220703</ele>
        <time>2016-10-09T08:42:51Z</time>
      </trkpt>
      <trkpt lat="43.67155" lon="3.82834">
        <ele>121.40002441406</ele>
        <time>2016-10-09T08:42:52Z</time>
      </trkpt>
      <trkpt lat="43.67154" lon="3.82844">
        <ele>120.40002441406</ele>
        <time>2016-10-09T08:42:53Z</time>
      </trkpt>
      <trkpt lat="43.6715" lon="3.82864">
        <ele>118.59997558594</ele>
        <time>2016-10-09T08:42:55Z</time>
      </trkpt>
      <trkpt lat="43.67147" lon="3.82874">
        <ele>117.79998779297</ele>
        <time>2016-10-09T08:42:56Z</time>
      </trkpt>
      <trkpt lat="43.67145" lon="3.82884">
        <ele>116.79998779297</ele>
        <time>2016-10-09T08:42:57Z</time>
      </trkpt>
      <trkpt lat="43.67141" lon="3.82895">
        <ele>115.59997558594</ele>
        <time>2016-10-09T08:42:58Z</time>
      </trkpt>
      <trkpt lat="43.67137" lon="3.82906">
        <ele>114.59997558594</ele>
        <time>2016-10-09T08:42:59Z</time>
      </trkpt>
      <trkpt lat="43.67133" lon="3.82916">
        <ele>113.40002441406</ele>
        <time>2016-10-09T08:43:00Z</time>
      </trkpt>
      <trkpt lat="43.67129" lon="3.82926">
        <ele>112.20001220703</ele>
        <time>2016-10-09T08:43:01Z</time>
      </trkpt>
      <trkpt lat="43.67124" lon="3.82937">
        <ele>111</ele>
        <time>2016-10-09T08:43:02Z</time>
      </trkpt>
      <trkpt lat="43.6712" lon="3.82949">
        <ele>109.79998779297</ele>
        <time>2016-10-09T08:43:03Z</time>
      </trkpt>
      <trkpt lat="43.67116" lon="3.82961">
        <ele>108.59997558594</ele>
        <time>2016-10-09T08:43:04Z</time>
      </trkpt>
      <trkpt lat="43.67112" lon="3.82975">
        <ele>107.20001220703</ele>
        <time>2016-10-09T08:43:05Z</time>
      </trkpt>
      <trkpt lat="43.67109" lon="3.8299">
        <ele>105.79998779297</ele>
        <time>2016-10-09T08:43:06Z</time>
      </trkpt>
      <trkpt lat="43.67106" lon="3.83006">
        <ele>104.40002441406</ele>
        <time>2016-10-09T08:43:07Z</time>
      </trkpt>
      <trkpt lat="43.67102" lon="3.83023">
        <ele>102.79998779297</ele>
        <time>2016-10-09T08:43:08Z</time>
      </trkpt>
      <trkpt lat="43.67099" lon="3.83039">
        <ele>101.20001220703</ele>
        <time>2016-10-09T08:43:09Z</time>
      </trkpt>
      <trkpt lat="43.67094" lon="3.83056">
        <ele>99.599975585938</ele>
        <time>2016-10-09T08:43:10Z</time>
      </trkpt>
      <trkpt lat="43.67087" lon="3.83069">
        <ele>98</ele>
        <time>2016-10-09T08:43:11Z</time>
      </trkpt>
      <trkpt lat="43.67082" lon="3.8308">
        <ele>96.599975585938</ele>
        <time>2016-10-09T08:43:12Z</time>
      </trkpt>
      <trkpt lat="43.67078" lon="3.83089">
        <ele>95.599975585938</ele>
        <time>2016-10-09T08:43:13Z</time>
      </trkpt>
      <trkpt lat="43.67076" lon="3.83097">
        <ele>94.599975585938</ele>
        <time>2016-10-09T08:43:14Z</time>
      </trkpt>
      <trkpt lat="43.67074" lon="3.83105">
        <ele>93.599975585938</ele>
        <time>2016-10-09T08:43:15Z</time>
      </trkpt>
      <trkpt lat="43.67073" lon="3.83114">
        <ele>92.599975585938</ele>
        <time>2016-10-09T08:43:16Z</time>
      </trkpt>
      <trkpt lat="43.67072" lon="3.83131">
        <ele>90.799987792969</ele>
        <time>2016-10-09T08:43:18Z</time>
      </trkpt>
      <trkpt lat="43.6707" lon="3.83146">
        <ele>89</ele>
        <time>2016-10-09T08:43:20Z</time>
      </trkpt>
      <trkpt lat="43.67068" lon="3.8316">
        <ele>87.599975585938</ele>
        <time>2016-10-09T08:43:22Z</time>
      </trkpt>
      <trkpt lat="43.67068" lon="3.83172">
        <ele>86.400024414062</ele>
        <time>2016-10-09T08:43:24Z</time>
      </trkpt>
      <trkpt lat="43.6707" lon="3.83175">
        <ele>85.799987792969</ele>
        <time>2016-10-09T08:43:25Z</time>
      </trkpt>
      <trkpt lat="43.67075" lon="3.83177">
        <ele>85.400024414062</ele>
        <time>2016-10-09T08:43:27Z</time>
      </trkpt>
      <trkpt lat="43.67078" lon="3.83174">
        <ele>85.200012207031</ele>
        <time>2016-10-09T08:43:28Z</time>
      </trkpt>
      <trkpt lat="43.67084" lon="3.83168">
        <ele>84.799987792969</ele>
        <time>2016-10-09T08:43:30Z</time>
      </trkpt>
      <trkpt lat="43.67093" lon="3.83161">
        <ele>84.200012207031</ele>
        <time>2016-10-09T08:43:33Z</time>
      </trkpt>
      <trkpt lat="43.67099" lon="3.83159">
        <ele>83.799987792969</ele>
        <time>2016-10-09T08:43:35Z</time>
      </trkpt>
      <trkpt lat="43.67111" lon="3.83156">
        <ele>83.400024414062</ele>
        <time>2016-10-09T08:43:39Z</time>
      </trkpt>
      <trkpt lat="43.67117" lon="3.8314">
        <ele>83.599975585938</ele>
        <time>2016-10-09T08:43:43Z</time>
      </trkpt>
      <trkpt lat="43.6712" lon="3.83108">
        <ele>83.799987792969</ele>
        <time>2016-10-09T08:43:49Z</time>
      </trkpt>
      <trkpt lat="43.67121" lon="3.83103">
        <ele>83.799987792969</ele>
        <time>2016-10-09T08:43:50Z</time>
      </trkpt>
      <trkpt lat="43.67126" lon="3.83097">
        <ele>84</ele>
        <time>2016-10-09T08:43:52Z</time>
      </trkpt>
      <trkpt lat="43.67138" lon="3.831">
        <ele>84.200012207031</ele>
        <time>2016-10-09T08:43:55Z</time>
      </trkpt>
      <trkpt lat="43.67145" lon="3.83101">
        <ele>84.200012207031</ele>
        <time>2016-10-09T08:43:57Z</time>
      </trkpt>
      <trkpt lat="43.67163" lon="3.83105">
        <ele>84.799987792969</ele>
        <time>2016-10-09T08:44:02Z</time>
      </trkpt>
      <trkpt lat="43.67175" lon="3.83108">
        <ele>85.200012207031</ele>
        <time>2016-10-09T08:44:06Z</time>
      </trkpt>
      <trkpt lat="43.67179" lon="3.83113">
        <ele>85.200012207031</ele>
        <time>2016-10-09T08:44:08Z</time>
      </trkpt>
      <trkpt lat="43.67179" lon="3.83117">
        <ele>85.200012207031</ele>
        <time>2016-10-09T08:44:09Z</time>
      </trkpt>
      <trkpt lat="43.67176" lon="3.83139">
        <ele>85</ele>
        <time>2016-10-09T08:44:14Z</time>
      </trkpt>
      <trkpt lat="43.67172" lon="3.83182">
        <ele>85.599975585938</ele>
        <time>2016-10-09T08:44:23Z</time>
      </trkpt>
      <trkpt lat="43.6717" lon="3.83202">
        <ele>86.200012207031</ele>
        <time>2016-10-09T08:44:27Z</time>
      </trkpt>
      <trkpt lat="43.67168" lon="3.83216">
        <ele>87</ele>
        <time>2016-10-09T08:44:30Z</time>
      </trkpt>
      <trkpt lat="43.67168" lon="3.8322">
        <ele>87.799987792969</ele>
        <time>2016-10-09T08:44:31Z</time>
      </trkpt>
      <trkpt lat="43.67167" lon="3.83228">
        <ele>89.200012207031</ele>
        <time>2016-10-09T08:44:33Z</time>
      </trkpt>
      <trkpt lat="43.67166" lon="3.83236">
        <ele>90.200012207031</ele>
        <time>2016-10-09T08:44:35Z</time>
      </trkpt>
      <trkpt lat="43.67166" lon="3.83242">
        <ele>91.200012207031</ele>
        <time>2016-10-09T08:44:37Z</time>
      </trkpt>
      <trkpt lat="43.67165" lon="3.83245">
        <ele>91.599975585938</ele>
        <time>2016-10-09T08:44:38Z</time>
      </trkpt>
      <trkpt lat="43.67164" lon="3.83259">
        <ele>92.799987792969</ele>
        <time>2016-10-09T08:44:43Z</time>
      </trkpt>
      <trkpt lat="43.67164" lon="3.83261">
        <ele>92.799987792969</ele>
        <time>2016-10-09T08:44:44Z</time>
      </trkpt>
      <trkpt lat="43.67162" lon="3.83273">
        <ele>92.400024414062</ele>
        <time>2016-10-09T08:46:04Z</time>
      </trkpt>
      <trkpt lat="43.6716" lon="3.83281">
        <ele>91.799987792969</ele>
        <time>2016-10-09T08:46:06Z</time>
      </trkpt>
      <trkpt lat="43.6716" lon="3.83292">
        <ele>91.200012207031</ele>
        <time>2016-10-09T08:46:08Z</time>
      </trkpt>
      <trkpt lat="43.6716" lon="3.83299">
        <ele>90.599975585938</ele>
        <time>2016-10-09T08:46:09Z</time>
      </trkpt>
      <trkpt lat="43.6716" lon="3.83315">
        <ele>89</ele>
        <time>2016-10-09T08:46:11Z</time>
      </trkpt>
      <trkpt lat="43.67161" lon="3.83324">
        <ele>88</ele>
        <time>2016-10-09T08:46:12Z</time>
      </trkpt>
      <trkpt lat="43.67161" lon="3.83334">
        <ele>87</ele>
        <time>2016-10-09T08:46:13Z</time>
      </trkpt>
      <trkpt lat="43.67162" lon="3.83344">
        <ele>86</ele>
        <time>2016-10-09T08:46:14Z</time>
      </trkpt>
      <trkpt lat="43.67163" lon="3.83353">
        <ele>85</ele>
        <time>2016-10-09T08:46:15Z</time>
      </trkpt>
      <trkpt lat="43.67162" lon="3.8336">
        <ele>83.799987792969</ele>
        <time>2016-10-09T08:46:16Z</time>
      </trkpt>
      <trkpt lat="43.6716" lon="3.83365">
        <ele>82.599975585938</ele>
        <time>2016-10-09T08:46:17Z</time>
      </trkpt>
      <trkpt lat="43.67156" lon="3.83367">
        <ele>81.599975585938</ele>
        <time>2016-10-09T08:46:18Z</time>
      </trkpt>
      <trkpt lat="43.67153" lon="3.83369">
        <ele>80.599975585938</ele>
        <time>2016-10-09T08:46:19Z</time>
      </trkpt>
      <trkpt lat="43.67148" lon="3.83372">
        <ele>79.599975585938</ele>
        <time>2016-10-09T08:46:20Z</time>
      </trkpt>
      <trkpt lat="43.67142" lon="3.83371">
        <ele>78.400024414062</ele>
        <time>2016-10-09T08:46:21Z</time>
      </trkpt>
      <trkpt lat="43.67135" lon="3.8337">
        <ele>77.400024414062</ele>
        <time>2016-10-09T08:46:22Z</time>
      </trkpt>
      <trkpt lat="43.67128" lon="3.83368">
        <ele>76.200012207031</ele>
        <time>2016-10-09T08:46:23Z</time>
      </trkpt>
      <trkpt lat="43.6712" lon="3.83367">
        <ele>75.200012207031</ele>
        <time>2016-10-09T08:46:24Z</time>
      </trkpt>
      <trkpt lat="43.67112" lon="3.83366">
        <ele>74</ele>
        <time>2016-10-09T08:46:25Z</time>
      </trkpt>
      <trkpt lat="43.67104" lon="3.83365">
        <ele>73</ele>
        <time>2016-10-09T08:46:26Z</time>
      </trkpt>
      <trkpt lat="43.67087" lon="3.83362">
        <ele>71</ele>
        <time>2016-10-09T08:46:28Z</time>
      </trkpt>
      <trkpt lat="43.67074" lon="3.83359">
        <ele>69.599975585938</ele>
        <time>2016-10-09T08:46:30Z</time>
      </trkpt>
      <trkpt lat="43.6707" lon="3.83361">
        <ele>68.599975585938</ele>
        <time>2016-10-09T08:46:31Z</time>
      </trkpt>
      <trkpt lat="43.67069" lon="3.83366">
        <ele>67.799987792969</ele>
        <time>2016-10-09T08:46:32Z</time>
      </trkpt>
      <trkpt lat="43.67069" lon="3.83371">
        <ele>67.200012207031</ele>
        <time>2016-10-09T08:46:33Z</time>
      </trkpt>
      <trkpt lat="43.6707" lon="3.83377">
        <ele>66.599975585938</ele>
        <time>2016-10-09T08:46:34Z</time>
      </trkpt>
      <trkpt lat="43.6707" lon="3.83384">
        <ele>66.200012207031</ele>
        <time>2016-10-09T08:46:35Z</time>
      </trkpt>
      <trkpt lat="43.67071" lon="3.83397">
        <ele>65.599975585938</ele>
        <time>2016-10-09T08:46:37Z</time>
      </trkpt>
      <trkpt lat="43.67071" lon="3.83405">
        <ele>65.200012207031</ele>
        <time>2016-10-09T08:46:38Z</time>
      </trkpt>
      <trkpt lat="43.67072" lon="3.83415">
        <ele>65.200012207031</ele>
        <time>2016-10-09T08:46:39Z</time>
      </trkpt>
      <trkpt lat="43.67073" lon="3.83433">
        <ele>65.200012207031</ele>
        <time>2016-10-09T08:46:41Z</time>
      </trkpt>
      <trkpt lat="43.67073" lon="3.83442">
        <ele>65.200012207031</ele>
        <time>2016-10-09T08:46:42Z</time>
      </trkpt>
      <trkpt lat="43.6707" lon="3.83474">
        <ele>65.400024414062</ele>
        <time>2016-10-09T08:46:46Z</time>
      </trkpt>
      <trkpt lat="43.67069" lon="3.83502">
        <ele>66.799987792969</ele>
        <time>2016-10-09T08:46:50Z</time>
      </trkpt>
      <trkpt lat="43.6707" lon="3.83522">
        <ele>67.200012207031</ele>
        <time>2016-10-09T08:46:53Z</time>
      </trkpt>
      <trkpt lat="43.67072" lon="3.83544">
        <ele>67.799987792969</ele>
        <time>2016-10-09T08:46:57Z</time>
      </trkpt>
      <trkpt lat="43.67073" lon="3.8356">
        <ele>68</ele>
        <time>2016-10-09T08:47:00Z</time>
      </trkpt>
      <trkpt lat="43.67075" lon="3.83583">
        <ele>67.599975585938</ele>
        <time>2016-10-09T08:47:06Z</time>
      </trkpt>
      <trkpt lat="43.67076" lon="3.83589">
        <ele>66.799987792969</ele>
        <time>2016-10-09T08:47:14Z</time>
      </trkpt>
      <trkpt lat="43.67077" lon="3.83594">
        <ele>66.799987792969</ele>
        <time>2016-10-09T08:47:16Z</time>
      </trkpt>
      <trkpt lat="43.67083" lon="3.83613">
        <ele>67.200012207031</ele>
        <time>2016-10-09T08:47:23Z</time>
      </trkpt>
      <trkpt lat="43.67085" lon="3.83616">
        <ele>67.400024414062</ele>
        <time>2016-10-09T08:47:25Z</time>
      </trkpt>
      <trkpt lat="43.67089" lon="3.83623">
        <ele>67.200012207031</ele>
        <time>2016-10-09T08:47:28Z</time>
      </trkpt>
      <trkpt lat="43.67095" lon="3.83636">
        <ele>67.400024414062</ele>
        <time>2016-10-09T08:47:31Z</time>
      </trkpt>
      <trkpt lat="43.67098" lon="3.83641">
        <ele>67.200012207031</ele>
        <time>2016-10-09T08:47:32Z</time>
      </trkpt>
      <trkpt lat="43.671" lon="3.83646">
        <ele>67.200012207031</ele>
        <time>2016-10-09T08:47:33Z</time>
      </trkpt>
      <trkpt lat="43.67104" lon="3.83652">
        <ele>67.200012207031</ele>
        <time>2016-10-09T08:47:34Z</time>
      </trkpt>
      <trkpt lat="43.67117" lon="3.83662">
        <ele>66.799987792969</ele>
        <time>2016-10-09T08:47:36Z</time>
      </trkpt>
      <trkpt lat="43.67142" lon="3.83673">
        <ele>66.400024414062</ele>
        <time>2016-10-09T08:47:40Z</time>
      </trkpt>
      <trkpt lat="43.67148" lon="3.83676">
        <ele>66.400024414062</ele>
        <time>2016-10-09T08:47:41Z</time>
      </trkpt>
      <trkpt lat="43.67152" lon="3.83679">
        <ele>66.400024414062</ele>
        <time>2016-10-09T08:47:42Z</time>
      </trkpt>
      <trkpt lat="43.67167" lon="3.83689">
        <ele>66.599975585938</ele>
        <time>2016-10-09T08:47:45Z</time>
      </trkpt>
      <trkpt lat="43.67193" lon="3.83716">
        <ele>66.599975585938</ele>
        <time>2016-10-09T08:47:51Z</time>
      </trkpt>
      <trkpt lat="43.67198" lon="3.83719">
        <ele>66.799987792969</ele>
        <time>2016-10-09T08:47:52Z</time>
      </trkpt>
      <trkpt lat="43.67212" lon="3.83728">
        <ele>67</ele>
        <time>2016-10-09T08:47:55Z</time>
      </trkpt>
      <trkpt lat="43.67216" lon="3.8373">
        <ele>66.799987792969</ele>
        <time>2016-10-09T08:47:56Z</time>
      </trkpt>
      <trkpt lat="43.67234" lon="3.8374">
        <ele>67.400024414062</ele>
        <time>2016-10-09T08:48:01Z</time>
      </trkpt>
      <trkpt lat="43.67249" lon="3.83745">
        <ele>68</ele>
        <time>2016-10-09T08:48:05Z</time>
      </trkpt>
      <trkpt lat="43.67262" lon="3.83739">
        <ele>68.799987792969</ele>
        <time>2016-10-09T08:48:09Z</time>
      </trkpt>
      <trkpt lat="43.67265" lon="3.83737">
        <ele>69.200012207031</ele>
        <time>2016-10-09T08:48:10Z</time>
      </trkpt>
      <trkpt lat="43.67275" lon="3.83731">
        <ele>70.400024414062</ele>
        <time>2016-10-09T08:48:13Z</time>
      </trkpt>
      <trkpt lat="43.67288" lon="3.83723">
        <ele>71.599975585938</ele>
        <time>2016-10-09T08:48:17Z</time>
      </trkpt>
      <trkpt lat="43.67297" lon="3.83717">
        <ele>72.799987792969</ele>
        <time>2016-10-09T08:48:20Z</time>
      </trkpt>
      <trkpt lat="43.67306" lon="3.83711">
        <ele>74.200012207031</ele>
        <time>2016-10-09T08:48:23Z</time>
      </trkpt>
      <trkpt lat="43.67309" lon="3.83709">
        <ele>74.599975585938</ele>
        <time>2016-10-09T08:48:24Z</time>
      </trkpt>
      <trkpt lat="43.67315" lon="3.83707">
        <ele>75.400024414062</ele>
        <time>2016-10-09T08:48:26Z</time>
      </trkpt>
      <trkpt lat="43.67323" lon="3.83704">
        <ele>76.599975585938</ele>
        <time>2016-10-09T08:48:29Z</time>
      </trkpt>
      <trkpt lat="43.67325" lon="3.83703">
        <ele>77</ele>
        <time>2016-10-09T08:48:30Z</time>
      </trkpt>
      <trkpt lat="43.67329" lon="3.83702">
        <ele>77.799987792969</ele>
        <time>2016-10-09T08:48:32Z</time>
      </trkpt>
      <trkpt lat="43.67336" lon="3.83699">
        <ele>79.200012207031</ele>
        <time>2016-10-09T08:48:35Z</time>
      </trkpt>
      <trkpt lat="43.6734" lon="3.83697">
        <ele>80.200012207031</ele>
        <time>2016-10-09T08:48:37Z</time>
      </trkpt>
      <trkpt lat="43.67343" lon="3.83695">
        <ele>80.400024414062</ele>
        <time>2016-10-09T08:48:38Z</time>
      </trkpt>
      <trkpt lat="43.6735" lon="3.83688">
        <ele>81.400024414062</ele>
        <time>2016-10-09T08:48:41Z</time>
      </trkpt>
      <trkpt lat="43.67354" lon="3.83682">
        <ele>82.200012207031</ele>
        <time>2016-10-09T08:48:43Z</time>
      </trkpt>
      <trkpt lat="43.67356" lon="3.83679">
        <ele>82.599975585938</ele>
        <time>2016-10-09T08:48:44Z</time>
      </trkpt>
      <trkpt lat="43.67358" lon="3.83677">
        <ele>83</ele>
        <time>2016-10-09T08:48:46Z</time>
      </trkpt>
      <trkpt lat="43.67359" lon="3.8368">
        <ele>83.200012207031</ele>
        <time>2016-10-09T08:48:47Z</time>
      </trkpt>
      <trkpt lat="43.67361" lon="3.83688">
        <ele>83.400024414062</ele>
        <time>2016-10-09T08:48:50Z</time>
      </trkpt>
      <trkpt lat="43.67362" lon="3.83691">
        <ele>83.599975585938</ele>
        <time>2016-10-09T08:48:51Z</time>
      </trkpt>
      <trkpt lat="43.67366" lon="3.83699">
        <ele>84.599975585938</ele>
        <time>2016-10-09T08:48:54Z</time>
      </trkpt>
      <trkpt lat="43.6737" lon="3.83708">
        <ele>85.599975585938</ele>
        <time>2016-10-09T08:48:57Z</time>
      </trkpt>
      <trkpt lat="43.67371" lon="3.83712">
        <ele>86</ele>
        <time>2016-10-09T08:48:58Z</time>
      </trkpt>
      <trkpt lat="43.67378" lon="3.83724">
        <ele>87</ele>
        <time>2016-10-09T08:49:03Z</time>
      </trkpt>
      <trkpt lat="43.67383" lon="3.83726">
        <ele>88</ele>
        <time>2016-10-09T08:49:05Z</time>
      </trkpt>
      <trkpt lat="43.6739" lon="3.83729">
        <ele>89.200012207031</ele>
        <time>2016-10-09T08:49:08Z</time>
      </trkpt>
      <trkpt lat="43.67398" lon="3.8373">
        <ele>90.400024414062</ele>
        <time>2016-10-09T08:49:11Z</time>
      </trkpt>
      <trkpt lat="43.67407" lon="3.83732">
        <ele>91.599975585938</ele>
        <time>2016-10-09T08:49:14Z</time>
      </trkpt>
      <trkpt lat="43.6741" lon="3.83732">
        <ele>91.599975585938</ele>
        <time>2016-10-09T08:49:15Z</time>
      </trkpt>
      <trkpt lat="43.67421" lon="3.83735">
        <ele>92.599975585938</ele>
        <time>2016-10-09T08:49:18Z</time>
      </trkpt>
      <trkpt lat="43.67433" lon="3.83738">
        <ele>93.200012207031</ele>
        <time>2016-10-09T08:49:21Z</time>
      </trkpt>
      <trkpt lat="43.6746" lon="3.83745">
        <ele>93.400024414062</ele>
        <time>2016-10-09T08:49:27Z</time>
      </trkpt>
      <trkpt lat="43.67478" lon="3.83749">
        <ele>93.400024414062</ele>
        <time>2016-10-09T08:49:30Z</time>
      </trkpt>
      <trkpt lat="43.67485" lon="3.83758">
        <ele>93.200012207031</ele>
        <time>2016-10-09T08:49:32Z</time>
      </trkpt>
      <trkpt lat="43.67492" lon="3.83775">
        <ele>92.799987792969</ele>
        <time>2016-10-09T08:49:35Z</time>
      </trkpt>
      <trkpt lat="43.67498" lon="3.83793">
        <ele>92.599975585938</ele>
        <time>2016-10-09T08:49:38Z</time>
      </trkpt>
      <trkpt lat="43.67511" lon="3.83822">
        <ele>91.799987792969</ele>
        <time>2016-10-09T08:49:43Z</time>
      </trkpt>
      <trkpt lat="43.67514" lon="3.83827">
        <ele>91.599975585938</ele>
        <time>2016-10-09T08:49:44Z</time>
      </trkpt>
      <trkpt lat="43.67519" lon="3.83831">
        <ele>91.599975585938</ele>
        <time>2016-10-09T08:49:45Z</time>
      </trkpt>
      <trkpt lat="43.67533" lon="3.83837">
        <ele>91.200012207031</ele>
        <time>2016-10-09T08:49:48Z</time>
      </trkpt>
      <trkpt lat="43.67549" lon="3.83837">
        <ele>91.799987792969</ele>
        <time>2016-10-09T08:49:51Z</time>
      </trkpt>
      <trkpt lat="43.67564" lon="3.83835">
        <ele>92.400024414062</ele>
        <time>2016-10-09T08:49:54Z</time>
      </trkpt>
      <trkpt lat="43.67573" lon="3.83834">
        <ele>92.599975585938</ele>
        <time>2016-10-09T08:49:56Z</time>
      </trkpt>
      <trkpt lat="43.67584" lon="3.83833">
        <ele>93.200012207031</ele>
        <time>2016-10-09T08:49:59Z</time>
      </trkpt>
      <trkpt lat="43.67591" lon="3.83834">
        <ele>93.599975585938</ele>
        <time>2016-10-09T08:50:01Z</time>
      </trkpt>
      <trkpt lat="43.6761" lon="3.83832">
        <ele>93.799987792969</ele>
        <time>2016-10-09T08:50:06Z</time>
      </trkpt>
      <trkpt lat="43.67637" lon="3.83833">
        <ele>93.200012207031</ele>
        <time>2016-10-09T08:50:13Z</time>
      </trkpt>
      <trkpt lat="43.6765" lon="3.83832">
        <ele>93.200012207031</ele>
        <time>2016-10-09T08:50:16Z</time>
      </trkpt>
      <trkpt lat="43.67661" lon="3.83832">
        <ele>93</ele>
        <time>2016-10-09T08:50:19Z</time>
      </trkpt>
      <trkpt lat="43.67669" lon="3.83832">
        <ele>92.400024414062</ele>
        <time>2016-10-09T08:50:21Z</time>
      </trkpt>
      <trkpt lat="43.67688" lon="3.83832">
        <ele>92.200012207031</ele>
        <time>2016-10-09T08:50:27Z</time>
      </trkpt>
      <trkpt lat="43.67693" lon="3.83828">
        <ele>92.200012207031</ele>
        <time>2016-10-09T08:50:29Z</time>
      </trkpt>
      <trkpt lat="43.67697" lon="3.83822">
        <ele>92.599975585938</ele>
        <time>2016-10-09T08:50:31Z</time>
      </trkpt>
      <trkpt lat="43.67707" lon="3.83804">
        <ele>93.200012207031</ele>
        <time>2016-10-09T08:50:37Z</time>
      </trkpt>
      <trkpt lat="43.67712" lon="3.83791">
        <ele>93.599975585938</ele>
        <time>2016-10-09T08:50:41Z</time>
      </trkpt>
      <trkpt lat="43.67715" lon="3.83784">
        <ele>93.799987792969</ele>
        <time>2016-10-09T08:50:43Z</time>
      </trkpt>
      <trkpt lat="43.67725" lon="3.83759">
        <ele>94.400024414062</ele>
        <time>2016-10-09T08:50:50Z</time>
      </trkpt>
      <trkpt lat="43.67727" lon="3.83759">
        <ele>94.799987792969</ele>
        <time>2016-10-09T08:50:51Z</time>
      </trkpt>
      <trkpt lat="43.67729" lon="3.83765">
        <ele>95</ele>
        <time>2016-10-09T08:50:54Z</time>
      </trkpt>
      <trkpt lat="43.6773" lon="3.83771">
        <ele>95.400024414062</ele>
        <time>2016-10-09T08:50:56Z</time>
      </trkpt>
      <trkpt lat="43.67731" lon="3.83784">
        <ele>94.799987792969</ele>
        <time>2016-10-09T08:51:00Z</time>
      </trkpt>
      <trkpt lat="43.67737" lon="3.83799">
        <ele>95.799987792969</ele>
        <time>2016-10-09T08:51:05Z</time>
      </trkpt>
      <trkpt lat="43.6774" lon="3.83802">
        <ele>95.799987792969</ele>
        <time>2016-10-09T08:51:06Z</time>
      </trkpt>
      <trkpt lat="43.67751" lon="3.83811">
        <ele>96</ele>
        <time>2016-10-09T08:51:09Z</time>
      </trkpt>
      <trkpt lat="43.67774" lon="3.83817">
        <ele>95.200012207031</ele>
        <time>2016-10-09T08:51:15Z</time>
      </trkpt>
      <trkpt lat="43.67792" lon="3.83815">
        <ele>95.200012207031</ele>
        <time>2016-10-09T08:51:19Z</time>
      </trkpt>
      <trkpt lat="43.67798" lon="3.83816">
        <ele>95.200012207031</ele>
        <time>2016-10-09T08:51:20Z</time>
      </trkpt>
      <trkpt lat="43.67819" lon="3.83818">
        <ele>94.799987792969</ele>
        <time>2016-10-09T08:51:24Z</time>
      </trkpt>
      <trkpt lat="43.67826" lon="3.83813">
        <ele>94.799987792969</ele>
        <time>2016-10-09T08:51:26Z</time>
      </trkpt>
      <trkpt lat="43.67839" lon="3.838">
        <ele>94.599975585938</ele>
        <time>2016-10-09T08:51:31Z</time>
      </trkpt>
      <trkpt lat="43.67862" lon="3.83784">
        <ele>94.200012207031</ele>
        <time>2016-10-09T08:51:38Z</time>
      </trkpt>
      <trkpt lat="43.67893" lon="3.83764">
        <ele>95</ele>
        <time>2016-10-09T08:51:46Z</time>
      </trkpt>
      <trkpt lat="43.67909" lon="3.83753">
        <ele>95.799987792969</ele>
        <time>2016-10-09T08:51:51Z</time>
      </trkpt>
      <trkpt lat="43.67917" lon="3.83748">
        <ele>96</ele>
        <time>2016-10-09T08:51:53Z</time>
      </trkpt>
      <trkpt lat="43.67944" lon="3.83722">
        <ele>96</ele>
        <time>2016-10-09T08:52:01Z</time>
      </trkpt>
      <trkpt lat="43.67961" lon="3.83705">
        <ele>96.400024414062</ele>
        <time>2016-10-09T08:52:06Z</time>
      </trkpt>
      <trkpt lat="43.67965" lon="3.83703">
        <ele>96.599975585938</ele>
        <time>2016-10-09T08:52:07Z</time>
      </trkpt>
      <trkpt lat="43.67969" lon="3.837">
        <ele>96.599975585938</ele>
        <time>2016-10-09T08:52:08Z</time>
      </trkpt>
      <trkpt lat="43.67977" lon="3.83687">
        <ele>96.599975585938</ele>
        <time>2016-10-09T08:52:11Z</time>
      </trkpt>
      <trkpt lat="43.67979" lon="3.83682">
        <ele>96.400024414062</ele>
        <time>2016-10-09T08:52:12Z</time>
      </trkpt>
      <trkpt lat="43.67994" lon="3.83661">
        <ele>96.799987792969</ele>
        <time>2016-10-09T08:52:17Z</time>
      </trkpt>
      <trkpt lat="43.68021" lon="3.8363">
        <ele>94.599975585938</ele>
        <time>2016-10-09T08:52:24Z</time>
      </trkpt>
      <trkpt lat="43.68031" lon="3.83616">
        <ele>93.400024414062</ele>
        <time>2016-10-09T08:52:27Z</time>
      </trkpt>
      <trkpt lat="43.68038" lon="3.83608">
        <ele>92.400024414062</ele>
        <time>2016-10-09T08:52:29Z</time>
      </trkpt>
      <trkpt lat="43.68045" lon="3.836">
        <ele>91.200012207031</ele>
        <time>2016-10-09T08:52:31Z</time>
      </trkpt>
      <trkpt lat="43.68052" lon="3.83592">
        <ele>90.599975585938</ele>
        <time>2016-10-09T08:52:33Z</time>
      </trkpt>
      <trkpt lat="43.68055" lon="3.83588">
        <ele>90.200012207031</ele>
        <time>2016-10-09T08:52:34Z</time>
      </trkpt>
      <trkpt lat="43.68077" lon="3.83566">
        <ele>90.200012207031</ele>
        <time>2016-10-09T08:52:40Z</time>
      </trkpt>
      <trkpt lat="43.68107" lon="3.83535">
        <ele>89.400024414062</ele>
        <time>2016-10-09T08:52:48Z</time>
      </trkpt>
      <trkpt lat="43.6811" lon="3.8353">
        <ele>89</ele>
        <time>2016-10-09T08:52:49Z</time>
      </trkpt>
      <trkpt lat="43.68122" lon="3.83505">
        <ele>88.599975585938</ele>
        <time>2016-10-09T08:52:54Z</time>
      </trkpt>
      <trkpt lat="43.68138" lon="3.83478">
        <ele>89.400024414062</ele>
        <time>2016-10-09T08:53:01Z</time>
      </trkpt>
      <trkpt lat="43.68158" lon="3.83455">
        <ele>90</ele>
        <time>2016-10-09T08:53:08Z</time>
      </trkpt>
      <trkpt lat="43.68161" lon="3.83451">
        <ele>90.400024414062</ele>
        <time>2016-10-09T08:53:09Z</time>
      </trkpt>
      <trkpt lat="43.68175" lon="3.83428">
        <ele>91.200012207031</ele>
        <time>2016-10-09T08:53:15Z</time>
      </trkpt>
      <trkpt lat="43.6818" lon="3.8342">
        <ele>91.400024414062</ele>
        <time>2016-10-09T08:53:17Z</time>
      </trkpt>
      <trkpt lat="43.68194" lon="3.83396">
        <ele>91.799987792969</ele>
        <time>2016-10-09T08:53:23Z</time>
      </trkpt>
      <trkpt lat="43.6821" lon="3.8337">
        <ele>90.799987792969</ele>
        <time>2016-10-09T08:53:30Z</time>
      </trkpt>
      <trkpt lat="43.68229" lon="3.83351">
        <ele>90.400024414062</ele>
        <time>2016-10-09T08:53:36Z</time>
      </trkpt>
      <trkpt lat="43.68233" lon="3.83348">
        <ele>90.400024414062</ele>
        <time>2016-10-09T08:53:37Z</time>
      </trkpt>
      <trkpt lat="43.68258" lon="3.8332">
        <ele>91.200012207031</ele>
        <time>2016-10-09T08:53:45Z</time>
      </trkpt>
      <trkpt lat="43.68261" lon="3.83313">
        <ele>91.400024414062</ele>
        <time>2016-10-09T08:53:47Z</time>
      </trkpt>
      <trkpt lat="43.68266" lon="3.83307">
        <ele>91.400024414062</ele>
        <time>2016-10-09T08:53:50Z</time>
      </trkpt>
      <trkpt lat="43.68267" lon="3.83308">
        <ele>91.400024414062</ele>
        <time>2016-10-09T08:53:51Z</time>
      </trkpt>
      <trkpt lat="43.68273" lon="3.83321">
        <ele>91.400024414062</ele>
        <time>2016-10-09T08:53:53Z</time>
      </trkpt>
      <trkpt lat="43.68283" lon="3.83338">
        <ele>92</ele>
        <time>2016-10-09T08:53:57Z</time>
      </trkpt>
      <trkpt lat="43.68294" lon="3.83344">
        <ele>92</ele>
        <time>2016-10-09T08:54:01Z</time>
      </trkpt>
      <trkpt lat="43.68295" lon="3.83347">
        <ele>92</ele>
        <time>2016-10-09T08:54:02Z</time>
      </trkpt>
      <trkpt lat="43.68302" lon="3.83351">
        <ele>92.200012207031</ele>
        <time>2016-10-09T08:54:05Z</time>
      </trkpt>
      <trkpt lat="43.6831" lon="3.83351">
        <ele>92.200012207031</ele>
        <time>2016-10-09T08:54:08Z</time>
      </trkpt>
      <trkpt lat="43.68313" lon="3.83354">
        <ele>92</ele>
        <time>2016-10-09T08:54:10Z</time>
      </trkpt>
      <trkpt lat="43.68332" lon="3.83349">
        <ele>91</ele>
        <time>2016-10-09T08:54:44Z</time>
      </trkpt>
      <trkpt lat="43.68335" lon="3.83344">
        <ele>91.599975585938</ele>
        <time>2016-10-09T08:54:46Z</time>
      </trkpt>
      <trkpt lat="43.68338" lon="3.83337">
        <ele>92.400024414062</ele>
        <time>2016-10-09T08:54:49Z</time>
      </trkpt>
      <trkpt lat="43.6834" lon="3.8333">
        <ele>92.799987792969</ele>
        <time>2016-10-09T08:54:52Z</time>
      </trkpt>
      <trkpt lat="43.68349" lon="3.83316">
        <ele>94.799987792969</ele>
        <time>2016-10-09T08:55:00Z</time>
      </trkpt>
      <trkpt lat="43.68351" lon="3.83309">
        <ele>95.599975585938</ele>
        <time>2016-10-09T08:55:04Z</time>
      </trkpt>
      <trkpt lat="43.68358" lon="3.83298">
        <ele>94.400024414062</ele>
        <time>2016-10-09T08:55:09Z</time>
      </trkpt>
      <trkpt lat="43.6836" lon="3.83294">
        <ele>94.200012207031</ele>
        <time>2016-10-09T08:55:10Z</time>
      </trkpt>
      <trkpt lat="43.68367" lon="3.83278">
        <ele>93.799987792969</ele>
        <time>2016-10-09T08:55:14Z</time>
      </trkpt>
      <trkpt lat="43.6837" lon="3.8327">
        <ele>93.799987792969</ele>
        <time>2016-10-09T08:55:16Z</time>
      </trkpt>
      <trkpt lat="43.68371" lon="3.83266">
        <ele>93.599975585938</ele>
        <time>2016-10-09T08:55:17Z</time>
      </trkpt>
      <trkpt lat="43.68373" lon="3.83245">
        <ele>94</ele>
        <time>2016-10-09T08:55:22Z</time>
      </trkpt>
      <trkpt lat="43.68378" lon="3.83235">
        <ele>94.599975585938</ele>
        <time>2016-10-09T08:55:27Z</time>
      </trkpt>
      <trkpt lat="43.68381" lon="3.83234">
        <ele>94.799987792969</ele>
        <time>2016-10-09T08:55:28Z</time>
      </trkpt>
      <trkpt lat="43.68395" lon="3.8323">
        <ele>95.200012207031</ele>
        <time>2016-10-09T08:55:33Z</time>
      </trkpt>
      <trkpt lat="43.68402" lon="3.83226">
        <ele>95.400024414062</ele>
        <time>2016-10-09T08:55:36Z</time>
      </trkpt>
      <trkpt lat="43.68405" lon="3.83219">
        <ele>95.400024414062</ele>
        <time>2016-10-09T08:55:38Z</time>
      </trkpt>
      <trkpt lat="43.68407" lon="3.8321">
        <ele>95.400024414062</ele>
        <time>2016-10-09T08:55:41Z</time>
      </trkpt>
      <trkpt lat="43.68409" lon="3.83204">
        <ele>95.799987792969</ele>
        <time>2016-10-09T08:55:43Z</time>
      </trkpt>
      <trkpt lat="43.68411" lon="3.83197">
        <ele>96.400024414062</ele>
        <time>2016-10-09T08:55:45Z</time>
      </trkpt>
      <trkpt lat="43.6841" lon="3.83182">
        <ele>97.200012207031</ele>
        <time>2016-10-09T08:55:49Z</time>
      </trkpt>
      <trkpt lat="43.6841" lon="3.83177">
        <ele>97.400024414062</ele>
        <time>2016-10-09T08:55:50Z</time>
      </trkpt>
      <trkpt lat="43.68411" lon="3.83174">
        <ele>97.599975585938</ele>
        <time>2016-10-09T08:55:51Z</time>
      </trkpt>
      <trkpt lat="43.68413" lon="3.83168">
        <ele>98.599975585938</ele>
        <time>2016-10-09T08:55:53Z</time>
      </trkpt>
      <trkpt lat="43.68415" lon="3.83166">
        <ele>99</ele>
        <time>2016-10-09T08:55:54Z</time>
      </trkpt>
      <trkpt lat="43.68416" lon="3.83164">
        <ele>99.599975585938</ele>
        <time>2016-10-09T08:55:55Z</time>
      </trkpt>
      <trkpt lat="43.68418" lon="3.83161">
        <ele>100</ele>
        <time>2016-10-09T08:55:56Z</time>
      </trkpt>
      <trkpt lat="43.68421" lon="3.83155">
        <ele>100.59997558594</ele>
        <time>2016-10-09T08:55:58Z</time>
      </trkpt>
      <trkpt lat="43.68425" lon="3.83149">
        <ele>100.59997558594</ele>
        <time>2016-10-09T08:56:01Z</time>
      </trkpt>
      <trkpt lat="43.68424" lon="3.83143">
        <ele>100.40002441406</ele>
        <time>2016-10-09T08:56:04Z</time>
      </trkpt>
      <trkpt lat="43.68424" lon="3.83138">
        <ele>101</ele>
        <time>2016-10-09T08:56:06Z</time>
      </trkpt>
      <trkpt lat="43.68425" lon="3.83126">
        <ele>101.59997558594</ele>
        <time>2016-10-09T08:56:10Z</time>
      </trkpt>
      <trkpt lat="43.68425" lon="3.8312">
        <ele>102.20001220703</ele>
        <time>2016-10-09T08:56:12Z</time>
      </trkpt>
      <trkpt lat="43.68425" lon="3.83117">
        <ele>102.59997558594</ele>
        <time>2016-10-09T08:56:13Z</time>
      </trkpt>
      <trkpt lat="43.68424" lon="3.83114">
        <ele>102.59997558594</ele>
        <time>2016-10-09T08:56:14Z</time>
      </trkpt>
      <trkpt lat="43.68423" lon="3.83098">
        <ele>103.40002441406</ele>
        <time>2016-10-09T08:56:18Z</time>
      </trkpt>
      <trkpt lat="43.68424" lon="3.83091">
        <ele>103.79998779297</ele>
        <time>2016-10-09T08:56:20Z</time>
      </trkpt>
      <trkpt lat="43.68421" lon="3.83069">
        <ele>104.40002441406</ele>
        <time>2016-10-09T08:56:25Z</time>
      </trkpt>
      <trkpt lat="43.68419" lon="3.83058">
        <ele>104.79998779297</ele>
        <time>2016-10-09T08:56:27Z</time>
      </trkpt>
      <trkpt lat="43.68416" lon="3.83049">
        <ele>105.20001220703</ele>
        <time>2016-10-09T08:56:29Z</time>
      </trkpt>
      <trkpt lat="43.68413" lon="3.83038">
        <ele>105</ele>
        <time>2016-10-09T08:56:32Z</time>
      </trkpt>
      <trkpt lat="43.68412" lon="3.83028">
        <ele>104.40002441406</ele>
        <time>2016-10-09T08:56:34Z</time>
      </trkpt>
      <trkpt lat="43.68409" lon="3.83009">
        <ele>103.59997558594</ele>
        <time>2016-10-09T08:56:39Z</time>
      </trkpt>
      <trkpt lat="43.68416" lon="3.82993">
        <ele>102.59997558594</ele>
        <time>2016-10-09T08:56:43Z</time>
      </trkpt>
      <trkpt lat="43.6842" lon="3.82987">
        <ele>102.59997558594</ele>
        <time>2016-10-09T08:56:45Z</time>
      </trkpt>
      <trkpt lat="43.68422" lon="3.82985">
        <ele>102.79998779297</ele>
        <time>2016-10-09T08:56:46Z</time>
      </trkpt>
      <trkpt lat="43.68432" lon="3.82968">
        <ele>101.40002441406</ele>
        <time>2016-10-09T08:56:52Z</time>
      </trkpt>
      <trkpt lat="43.68433" lon="3.82965">
        <ele>101</ele>
        <time>2016-10-09T08:56:53Z</time>
      </trkpt>
      <trkpt lat="43.68437" lon="3.8296">
        <ele>100.40002441406</ele>
        <time>2016-10-09T08:56:55Z</time>
      </trkpt>
      <trkpt lat="43.68445" lon="3.82947">
        <ele>100.40002441406</ele>
        <time>2016-10-09T08:56:59Z</time>
      </trkpt>
      <trkpt lat="43.6846" lon="3.82938">
        <ele>100.59997558594</ele>
        <time>2016-10-09T08:57:05Z</time>
      </trkpt>
      <trkpt lat="43.6847" lon="3.82933">
        <ele>101</ele>
        <time>2016-10-09T08:57:09Z</time>
      </trkpt>
      <trkpt lat="43.68473" lon="3.82933">
        <ele>101</ele>
        <time>2016-10-09T08:57:10Z</time>
      </trkpt>
      <trkpt lat="43.68483" lon="3.82929">
        <ele>100.79998779297</ele>
        <time>2016-10-09T08:57:14Z</time>
      </trkpt>
      <trkpt lat="43.68494" lon="3.82923">
        <ele>101.20001220703</ele>
        <time>2016-10-09T08:57:20Z</time>
      </trkpt>
      <trkpt lat="43.68509" lon="3.82917">
        <ele>101.40002441406</ele>
        <time>2016-10-09T08:57:26Z</time>
      </trkpt>
      <trkpt lat="43.68511" lon="3.82917">
        <ele>101.40002441406</ele>
        <time>2016-10-09T08:57:27Z</time>
      </trkpt>
      <trkpt lat="43.68518" lon="3.82913">
        <ele>101.79998779297</ele>
        <time>2016-10-09T08:57:31Z</time>
      </trkpt>
      <trkpt lat="43.68533" lon="3.82903">
        <ele>102.40002441406</ele>
        <time>2016-10-09T08:57:38Z</time>
      </trkpt>
      <trkpt lat="43.68549" lon="3.82889">
        <ele>102.20001220703</ele>
        <time>2016-10-09T08:57:45Z</time>
      </trkpt>
      <trkpt lat="43.68561" lon="3.82876">
        <ele>102</ele>
        <time>2016-10-09T08:57:54Z</time>
      </trkpt>
      <trkpt lat="43.68562" lon="3.82872">
        <ele>102.20001220703</ele>
        <time>2016-10-09T08:57:55Z</time>
      </trkpt>
      <trkpt lat="43.6857" lon="3.82856">
        <ele>101.79998779297</ele>
        <time>2016-10-09T08:57:59Z</time>
      </trkpt>
      <trkpt lat="43.68574" lon="3.82855">
        <ele>101.59997558594</ele>
        <time>2016-10-09T08:58:00Z</time>
      </trkpt>
      <trkpt lat="43.68577" lon="3.82854">
        <ele>101.40002441406</ele>
        <time>2016-10-09T08:58:01Z</time>
      </trkpt>
      <trkpt lat="43.68585" lon="3.82846">
        <ele>101</ele>
        <time>2016-10-09T08:58:05Z</time>
      </trkpt>
      <trkpt lat="43.68584" lon="3.82842">
        <ele>101</ele>
        <time>2016-10-09T08:58:06Z</time>
      </trkpt>
      <trkpt lat="43.68587" lon="3.82822">
        <ele>101.40002441406</ele>
        <time>2016-10-09T08:58:11Z</time>
      </trkpt>
      <trkpt lat="43.68592" lon="3.82791">
        <ele>102.20001220703</ele>
        <time>2016-10-09T08:58:17Z</time>
      </trkpt>
      <trkpt lat="43.68593" lon="3.82759">
        <ele>101</ele>
        <time>2016-10-09T08:58:23Z</time>
      </trkpt>
      <trkpt lat="43.68589" lon="3.82748">
        <ele>100.79998779297</ele>
        <time>2016-10-09T08:58:26Z</time>
      </trkpt>
      <trkpt lat="43.68587" lon="3.82746">
        <ele>100.79998779297</ele>
        <time>2016-10-09T08:58:27Z</time>
      </trkpt>
      <trkpt lat="43.68579" lon="3.82737">
        <ele>100.40002441406</ele>
        <time>2016-10-09T08:58:31Z</time>
      </trkpt>
      <trkpt lat="43.68576" lon="3.8273">
        <ele>100</ele>
        <time>2016-10-09T08:58:33Z</time>
      </trkpt>
      <trkpt lat="43.68574" lon="3.82722">
        <ele>99.599975585938</ele>
        <time>2016-10-09T08:58:35Z</time>
      </trkpt>
      <trkpt lat="43.68574" lon="3.82711">
        <ele>99.599975585938</ele>
        <time>2016-10-09T08:58:39Z</time>
      </trkpt>
      <trkpt lat="43.68573" lon="3.82709">
        <ele>99.799987792969</ele>
        <time>2016-10-09T08:58:40Z</time>
      </trkpt>
      <trkpt lat="43.6857" lon="3.82703">
        <ele>99.799987792969</ele>
        <time>2016-10-09T08:58:43Z</time>
      </trkpt>
      <trkpt lat="43.6857" lon="3.82692">
        <ele>99.799987792969</ele>
        <time>2016-10-09T08:58:46Z</time>
      </trkpt>
      <trkpt lat="43.6858" lon="3.8268">
        <ele>99.599975585938</ele>
        <time>2016-10-09T08:58:50Z</time>
      </trkpt>
      <trkpt lat="43.68582" lon="3.82677">
        <ele>99.599975585938</ele>
        <time>2016-10-09T08:58:51Z</time>
      </trkpt>
      <trkpt lat="43.686" lon="3.82668">
        <ele>99.599975585938</ele>
        <time>2016-10-09T08:58:56Z</time>
      </trkpt>
      <trkpt lat="43.68621" lon="3.82646">
        <ele>100.20001220703</ele>
        <time>2016-10-09T08:59:03Z</time>
      </trkpt>
      <trkpt lat="43.68641" lon="3.82634">
        <ele>101.59997558594</ele>
        <time>2016-10-09T08:59:09Z</time>
      </trkpt>
      <trkpt lat="43.68644" lon="3.82633">
        <ele>101.79998779297</ele>
        <time>2016-10-09T08:59:10Z</time>
      </trkpt>
      <trkpt lat="43.68656" lon="3.82631">
        <ele>103</ele>
        <time>2016-10-09T08:59:14Z</time>
      </trkpt>
      <trkpt lat="43.68658" lon="3.82628">
        <ele>103.40002441406</ele>
        <time>2016-10-09T08:59:15Z</time>
      </trkpt>
      <trkpt lat="43.68662" lon="3.8262">
        <ele>104.20001220703</ele>
        <time>2016-10-09T08:59:17Z</time>
      </trkpt>
      <trkpt lat="43.6867" lon="3.82611">
        <ele>105</ele>
        <time>2016-10-09T08:59:20Z</time>
      </trkpt>
      <trkpt lat="43.68672" lon="3.82608">
        <ele>105.20001220703</ele>
        <time>2016-10-09T08:59:21Z</time>
      </trkpt>
      <trkpt lat="43.68683" lon="3.82597">
        <ele>105.79998779297</ele>
        <time>2016-10-09T08:59:27Z</time>
      </trkpt>
      <trkpt lat="43.68693" lon="3.82586">
        <ele>105.59997558594</ele>
        <time>2016-10-09T08:59:41Z</time>
      </trkpt>
      <trkpt lat="43.68695" lon="3.82584">
        <ele>105.59997558594</ele>
        <time>2016-10-09T08:59:42Z</time>
      </trkpt>
      <trkpt lat="43.68703" lon="3.82576">
        <ele>105</ele>
        <time>2016-10-09T08:59:47Z</time>
      </trkpt>
      <trkpt lat="43.68712" lon="3.82561">
        <ele>104.40002441406</ele>
        <time>2016-10-09T08:59:53Z</time>
      </trkpt>
      <trkpt lat="43.68718" lon="3.82553">
        <ele>104.20001220703</ele>
        <time>2016-10-09T08:59:56Z</time>
      </trkpt>
      <trkpt lat="43.68729" lon="3.8254">
        <ele>104.59997558594</ele>
        <time>2016-10-09T09:00:01Z</time>
      </trkpt>
      <trkpt lat="43.68745" lon="3.82526">
        <ele>104.20001220703</ele>
        <time>2016-10-09T09:00:08Z</time>
      </trkpt>
      <trkpt lat="43.68758" lon="3.8251">
        <ele>105</ele>
        <time>2016-10-09T09:00:15Z</time>
      </trkpt>
      <trkpt lat="43.68763" lon="3.82503">
        <ele>105.20001220703</ele>
        <time>2016-10-09T09:00:18Z</time>
      </trkpt>
      <trkpt lat="43.68769" lon="3.82491">
        <ele>105.40002441406</ele>
        <time>2016-10-09T09:00:21Z</time>
      </trkpt>
      <trkpt lat="43.68774" lon="3.8247">
        <ele>104.40002441406</ele>
        <time>2016-10-09T09:00:26Z</time>
      </trkpt>
      <trkpt lat="43.68776" lon="3.82466">
        <ele>104</ele>
        <time>2016-10-09T09:00:27Z</time>
      </trkpt>
      <trkpt lat="43.68786" lon="3.82457">
        <ele>103.20001220703</ele>
        <time>2016-10-09T09:00:30Z</time>
      </trkpt>
      <trkpt lat="43.68791" lon="3.82459">
        <ele>103.20001220703</ele>
        <time>2016-10-09T09:00:32Z</time>
      </trkpt>
      <trkpt lat="43.68793" lon="3.82461">
        <ele>103.59997558594</ele>
        <time>2016-10-09T09:00:33Z</time>
      </trkpt>
      <trkpt lat="43.68801" lon="3.82468">
        <ele>103.59997558594</ele>
        <time>2016-10-09T09:00:42Z</time>
      </trkpt>
      <trkpt lat="43.68803" lon="3.82467">
        <ele>103.79998779297</ele>
        <time>2016-10-09T09:00:43Z</time>
      </trkpt>
      <trkpt lat="43.68812" lon="3.82456">
        <ele>104</ele>
        <time>2016-10-09T09:00:47Z</time>
      </trkpt>
      <trkpt lat="43.68832" lon="3.82449">
        <ele>103.40002441406</ele>
        <time>2016-10-09T09:00:53Z</time>
      </trkpt>
      <trkpt lat="43.6885" lon="3.82441">
        <ele>103.59997558594</ele>
        <time>2016-10-09T09:00:58Z</time>
      </trkpt>
      <trkpt lat="43.68854" lon="3.8244">
        <ele>103.40002441406</ele>
        <time>2016-10-09T09:00:59Z</time>
      </trkpt>
      <trkpt lat="43.68874" lon="3.82442">
        <ele>103.59997558594</ele>
        <time>2016-10-09T09:01:04Z</time>
      </trkpt>
      <trkpt lat="43.68896" lon="3.82444">
        <ele>104.20001220703</ele>
        <time>2016-10-09T09:01:10Z</time>
      </trkpt>
      <trkpt lat="43.68912" lon="3.82454">
        <ele>104.20001220703</ele>
        <time>2016-10-09T09:01:16Z</time>
      </trkpt>
      <trkpt lat="43.68919" lon="3.82458">
        <ele>104</ele>
        <time>2016-10-09T09:01:21Z</time>
      </trkpt>
      <trkpt lat="43.68921" lon="3.82458">
        <ele>104.20001220703</ele>
        <time>2016-10-09T09:01:23Z</time>
      </trkpt>
      <trkpt lat="43.68927" lon="3.82459">
        <ele>104.20001220703</ele>
        <time>2016-10-09T09:01:28Z</time>
      </trkpt>
      <trkpt lat="43.68939" lon="3.8246">
        <ele>104.20001220703</ele>
        <time>2016-10-09T09:01:35Z</time>
      </trkpt>
      <trkpt lat="43.6895" lon="3.82462">
        <ele>105</ele>
        <time>2016-10-09T09:01:42Z</time>
      </trkpt>
      <trkpt lat="43.68955" lon="3.82463">
        <ele>106</ele>
        <time>2016-10-09T09:01:46Z</time>
      </trkpt>
      <trkpt lat="43.68958" lon="3.82464">
        <ele>106.40002441406</ele>
        <time>2016-10-09T09:01:48Z</time>
      </trkpt>
      <trkpt lat="43.68962" lon="3.82466">
        <ele>107.20001220703</ele>
        <time>2016-10-09T09:01:51Z</time>
      </trkpt>
      <trkpt lat="43.68967" lon="3.82467">
        <ele>108.20001220703</ele>
        <time>2016-10-09T09:01:55Z</time>
      </trkpt>
      <trkpt lat="43.68971" lon="3.8247">
        <ele>109.40002441406</ele>
        <time>2016-10-09T09:01:59Z</time>
      </trkpt>
      <trkpt lat="43.68975" lon="3.82471">
        <ele>110.59997558594</ele>
        <time>2016-10-09T09:02:02Z</time>
      </trkpt>
      <trkpt lat="43.68977" lon="3.82472">
        <ele>110.59997558594</ele>
        <time>2016-10-09T09:02:03Z</time>
      </trkpt>
      <trkpt lat="43.68983" lon="3.82475">
        <ele>112.40002441406</ele>
        <time>2016-10-09T09:02:08Z</time>
      </trkpt>
      <trkpt lat="43.68986" lon="3.82477">
        <ele>113</ele>
        <time>2016-10-09T09:02:11Z</time>
      </trkpt>
      <trkpt lat="43.68988" lon="3.82477">
        <ele>113.40002441406</ele>
        <time>2016-10-09T09:02:12Z</time>
      </trkpt>
      <trkpt lat="43.68992" lon="3.82479">
        <ele>114.79998779297</ele>
        <time>2016-10-09T09:02:15Z</time>
      </trkpt>
      <trkpt lat="43.68997" lon="3.82482">
        <ele>115.79998779297</ele>
        <time>2016-10-09T09:02:19Z</time>
      </trkpt>
      <trkpt lat="43.69002" lon="3.82487">
        <ele>116.79998779297</ele>
        <time>2016-10-09T09:02:23Z</time>
      </trkpt>
      <trkpt lat="43.69006" lon="3.8249">
        <ele>117</ele>
        <time>2016-10-09T09:02:25Z</time>
      </trkpt>
      <trkpt lat="43.69016" lon="3.82496">
        <ele>117.40002441406</ele>
        <time>2016-10-09T09:02:32Z</time>
      </trkpt>
      <trkpt lat="43.69027" lon="3.82502">
        <ele>117.59997558594</ele>
        <time>2016-10-09T09:02:38Z</time>
      </trkpt>
      <trkpt lat="43.6904" lon="3.82509">
        <ele>117.59997558594</ele>
        <time>2016-10-09T09:02:43Z</time>
      </trkpt>
      <trkpt lat="43.69044" lon="3.82512">
        <ele>117.40002441406</ele>
        <time>2016-10-09T09:02:44Z</time>
      </trkpt>
      <trkpt lat="43.69055" lon="3.82517">
        <ele>117</ele>
        <time>2016-10-09T09:02:47Z</time>
      </trkpt>
      <trkpt lat="43.69059" lon="3.82518">
        <ele>116.59997558594</ele>
        <time>2016-10-09T09:02:57Z</time>
      </trkpt>
      <trkpt lat="43.6906" lon="3.82519">
        <ele>116.59997558594</ele>
        <time>2016-10-09T09:02:58Z</time>
      </trkpt>
      <trkpt lat="43.69069" lon="3.82527">
        <ele>116.20001220703</ele>
        <time>2016-10-09T09:03:01Z</time>
      </trkpt>
      <trkpt lat="43.69077" lon="3.82532">
        <ele>115.79998779297</ele>
        <time>2016-10-09T09:03:03Z</time>
      </trkpt>
      <trkpt lat="43.69087" lon="3.82541">
        <ele>115.20001220703</ele>
        <time>2016-10-09T09:03:06Z</time>
      </trkpt>
      <trkpt lat="43.69104" lon="3.8255">
        <ele>114.59997558594</ele>
        <time>2016-10-09T09:03:09Z</time>
      </trkpt>
      <trkpt lat="43.69115" lon="3.82555">
        <ele>114</ele>
        <time>2016-10-09T09:03:11Z</time>
      </trkpt>
      <trkpt lat="43.69129" lon="3.82563">
        <ele>113.59997558594</ele>
        <time>2016-10-09T09:03:15Z</time>
      </trkpt>
      <trkpt lat="43.69143" lon="3.82574">
        <ele>113.40002441406</ele>
        <time>2016-10-09T09:03:21Z</time>
      </trkpt>
      <trkpt lat="43.6916" lon="3.82581">
        <ele>113.59997558594</ele>
        <time>2016-10-09T09:03:27Z</time>
      </trkpt>
      <trkpt lat="43.69173" lon="3.82582">
        <ele>114.59997558594</ele>
        <time>2016-10-09T09:03:33Z</time>
      </trkpt>
      <trkpt lat="43.69175" lon="3.82582">
        <ele>114.59997558594</ele>
        <time>2016-10-09T09:03:34Z</time>
      </trkpt>
      <trkpt lat="43.69186" lon="3.8259">
        <ele>114.59997558594</ele>
        <time>2016-10-09T09:03:38Z</time>
      </trkpt>
      <trkpt lat="43.69198" lon="3.826">
        <ele>114.20001220703</ele>
        <time>2016-10-09T09:03:41Z</time>
      </trkpt>
      <trkpt lat="43.69207" lon="3.82605">
        <ele>114</ele>
        <time>2016-10-09T09:03:43Z</time>
      </trkpt>
      <trkpt lat="43.6922" lon="3.82614">
        <ele>113.40002441406</ele>
        <time>2016-10-09T09:03:46Z</time>
      </trkpt>
      <trkpt lat="43.69233" lon="3.82624">
        <ele>112.40002441406</ele>
        <time>2016-10-09T09:03:49Z</time>
      </trkpt>
      <trkpt lat="43.69248" lon="3.82632">
        <ele>111</ele>
        <time>2016-10-09T09:03:53Z</time>
      </trkpt>
      <trkpt lat="43.69268" lon="3.82634">
        <ele>109.59997558594</ele>
        <time>2016-10-09T09:03:56Z</time>
      </trkpt>
      <trkpt lat="43.69275" lon="3.82634">
        <ele>109.20001220703</ele>
        <time>2016-10-09T09:03:57Z</time>
      </trkpt>
      <trkpt lat="43.69281" lon="3.82635">
        <ele>109</ele>
        <time>2016-10-09T09:03:58Z</time>
      </trkpt>
      <trkpt lat="43.69287" lon="3.82638">
        <ele>108.59997558594</ele>
        <time>2016-10-09T09:03:59Z</time>
      </trkpt>
      <trkpt lat="43.69292" lon="3.82642">
        <ele>108.20001220703</ele>
        <time>2016-10-09T09:04:00Z</time>
      </trkpt>
      <trkpt lat="43.69294" lon="3.82652">
        <ele>107.20001220703</ele>
        <time>2016-10-09T09:04:02Z</time>
      </trkpt>
      <trkpt lat="43.69301" lon="3.82657">
        <ele>106.79998779297</ele>
        <time>2016-10-09T09:04:05Z</time>
      </trkpt>
      <trkpt lat="43.69305" lon="3.8266">
        <ele>107.20001220703</ele>
        <time>2016-10-09T09:04:09Z</time>
      </trkpt>
      <trkpt lat="43.69314" lon="3.82662">
        <ele>107.20001220703</ele>
        <time>2016-10-09T09:04:13Z</time>
      </trkpt>
      <trkpt lat="43.69318" lon="3.82662">
        <ele>107.20001220703</ele>
        <time>2016-10-09T09:04:14Z</time>
      </trkpt>
      <trkpt lat="43.69339" lon="3.82662">
        <ele>107</ele>
        <time>2016-10-09T09:04:20Z</time>
      </trkpt>
      <trkpt lat="43.69343" lon="3.82664">
        <ele>107</ele>
        <time>2016-10-09T09:04:21Z</time>
      </trkpt>
      <trkpt lat="43.6938" lon="3.82675">
        <ele>106.40002441406</ele>
        <time>2016-10-09T09:04:29Z</time>
      </trkpt>
      <trkpt lat="43.69411" lon="3.82686">
        <ele>106.20001220703</ele>
        <time>2016-10-09T09:04:36Z</time>
      </trkpt>
      <trkpt lat="43.69424" lon="3.8269">
        <ele>105.79998779297</ele>
        <time>2016-10-09T09:04:39Z</time>
      </trkpt>
      <trkpt lat="43.69433" lon="3.82693">
        <ele>105.59997558594</ele>
        <time>2016-10-09T09:04:41Z</time>
      </trkpt>
      <trkpt lat="43.69445" lon="3.82694">
        <ele>105.59997558594</ele>
        <time>2016-10-09T09:04:44Z</time>
      </trkpt>
      <trkpt lat="43.69453" lon="3.82695">
        <ele>105.79998779297</ele>
        <time>2016-10-09T09:04:46Z</time>
      </trkpt>
      <trkpt lat="43.69461" lon="3.82698">
        <ele>106</ele>
        <time>2016-10-09T09:04:49Z</time>
      </trkpt>
      <trkpt lat="43.69461" lon="3.827">
        <ele>106.20001220703</ele>
        <time>2016-10-09T09:04:50Z</time>
      </trkpt>
      <trkpt lat="43.69454" lon="3.82705">
        <ele>106.20001220703</ele>
        <time>2016-10-09T09:04:54Z</time>
      </trkpt>
      <trkpt lat="43.69451" lon="3.82706">
        <ele>106.20001220703</ele>
        <time>2016-10-09T09:04:55Z</time>
      </trkpt>
      <trkpt lat="43.69434" lon="3.8271">
        <ele>105.40002441406</ele>
        <time>2016-10-09T09:05:00Z</time>
      </trkpt>
      <trkpt lat="43.69426" lon="3.82714">
        <ele>105</ele>
        <time>2016-10-09T09:05:02Z</time>
      </trkpt>
      <trkpt lat="43.69411" lon="3.82726">
        <ele>104.20001220703</ele>
        <time>2016-10-09T09:05:06Z</time>
      </trkpt>
      <trkpt lat="43.69407" lon="3.82729">
        <ele>103.79998779297</ele>
        <time>2016-10-09T09:05:07Z</time>
      </trkpt>
      <trkpt lat="43.69403" lon="3.82732">
        <ele>103.59997558594</ele>
        <time>2016-10-09T09:05:08Z</time>
      </trkpt>
      <trkpt lat="43.69394" lon="3.82737">
        <ele>103.40002441406</ele>
        <time>2016-10-09T09:05:10Z</time>
      </trkpt>
      <trkpt lat="43.69381" lon="3.82743">
        <ele>103</ele>
        <time>2016-10-09T09:05:13Z</time>
      </trkpt>
      <trkpt lat="43.69366" lon="3.82747">
        <ele>102.79998779297</ele>
        <time>2016-10-09T09:05:16Z</time>
      </trkpt>
      <trkpt lat="43.69347" lon="3.82753">
        <ele>102.40002441406</ele>
        <time>2016-10-09T09:05:20Z</time>
      </trkpt>
      <trkpt lat="43.69321" lon="3.8276">
        <ele>101.79998779297</ele>
        <time>2016-10-09T09:05:25Z</time>
      </trkpt>
      <trkpt lat="43.69315" lon="3.82761">
        <ele>101.40002441406</ele>
        <time>2016-10-09T09:05:26Z</time>
      </trkpt>
      <trkpt lat="43.69292" lon="3.82766">
        <ele>100.40002441406</ele>
        <time>2016-10-09T09:05:30Z</time>
      </trkpt>
      <trkpt lat="43.6929" lon="3.82767">
        <ele>100.20001220703</ele>
        <time>2016-10-09T09:05:31Z</time>
      </trkpt>
      <trkpt lat="43.69286" lon="3.82767">
        <ele>99.799987792969</ele>
        <time>2016-10-09T09:05:34Z</time>
      </trkpt>
      <trkpt lat="43.69285" lon="3.82769">
        <ele>99.599975585938</ele>
        <time>2016-10-09T09:05:35Z</time>
      </trkpt>
      <trkpt lat="43.69286" lon="3.82773">
        <ele>99.400024414062</ele>
        <time>2016-10-09T09:05:37Z</time>
      </trkpt>
      <trkpt lat="43.69287" lon="3.82776">
        <ele>99.400024414062</ele>
        <time>2016-10-09T09:05:38Z</time>
      </trkpt>
      <trkpt lat="43.69288" lon="3.82782">
        <ele>99.400024414062</ele>
        <time>2016-10-09T09:05:40Z</time>
      </trkpt>
      <trkpt lat="43.69317" lon="3.82816">
        <ele>103.20001220703</ele>
        <time>2016-10-09T09:06:34Z</time>
      </trkpt>
      <trkpt lat="43.69321" lon="3.82815">
        <ele>103.40002441406</ele>
        <time>2016-10-09T09:06:36Z</time>
      </trkpt>
      <trkpt lat="43.69331" lon="3.82813">
        <ele>103.79998779297</ele>
        <time>2016-10-09T09:06:40Z</time>
      </trkpt>
      <trkpt lat="43.69334" lon="3.82814">
        <ele>103.79998779297</ele>
        <time>2016-10-09T09:06:41Z</time>
      </trkpt>
      <trkpt lat="43.69336" lon="3.82815">
        <ele>104</ele>
        <time>2016-10-09T09:06:42Z</time>
      </trkpt>
      <trkpt lat="43.69342" lon="3.82818">
        <ele>104.20001220703</ele>
        <time>2016-10-09T09:06:45Z</time>
      </trkpt>
      <trkpt lat="43.69346" lon="3.82817">
        <ele>104.40002441406</ele>
        <time>2016-10-09T09:06:47Z</time>
      </trkpt>
      <trkpt lat="43.6935" lon="3.82815">
        <ele>104.20001220703</ele>
        <time>2016-10-09T09:06:49Z</time>
      </trkpt>
      <trkpt lat="43.69358" lon="3.82819">
        <ele>103.79998779297</ele>
        <time>2016-10-09T09:06:53Z</time>
      </trkpt>
      <trkpt lat="43.6936" lon="3.82819">
        <ele>103.59997558594</ele>
        <time>2016-10-09T09:06:54Z</time>
      </trkpt>
      <trkpt lat="43.69367" lon="3.82819">
        <ele>103</ele>
        <time>2016-10-09T09:06:56Z</time>
      </trkpt>
      <trkpt lat="43.69375" lon="3.82817">
        <ele>103.40002441406</ele>
        <time>2016-10-09T09:06:58Z</time>
      </trkpt>
      <trkpt lat="43.69387" lon="3.8281">
        <ele>103.40002441406</ele>
        <time>2016-10-09T09:07:01Z</time>
      </trkpt>
      <trkpt lat="43.69398" lon="3.82799">
        <ele>103.40002441406</ele>
        <time>2016-10-09T09:07:04Z</time>
      </trkpt>
      <trkpt lat="43.69413" lon="3.82781">
        <ele>103.40002441406</ele>
        <time>2016-10-09T09:07:08Z</time>
      </trkpt>
      <trkpt lat="43.69416" lon="3.82775">
        <ele>103.20001220703</ele>
        <time>2016-10-09T09:07:09Z</time>
      </trkpt>
      <trkpt lat="43.69425" lon="3.82764">
        <ele>102.79998779297</ele>
        <time>2016-10-09T09:07:12Z</time>
      </trkpt>
      <trkpt lat="43.69438" lon="3.82758">
        <ele>102.40002441406</ele>
        <time>2016-10-09T09:07:16Z</time>
      </trkpt>
      <trkpt lat="43.69441" lon="3.82756">
        <ele>102.40002441406</ele>
        <time>2016-10-09T09:07:17Z</time>
      </trkpt>
      <trkpt lat="43.69445" lon="3.82754">
        <ele>102.40002441406</ele>
        <time>2016-10-09T09:07:18Z</time>
      </trkpt>
      <trkpt lat="43.69458" lon="3.82749">
        <ele>102.59997558594</ele>
        <time>2016-10-09T09:07:22Z</time>
      </trkpt>
      <trkpt lat="43.69463" lon="3.82746">
        <ele>102.79998779297</ele>
        <time>2016-10-09T09:07:25Z</time>
      </trkpt>
      <trkpt lat="43.69467" lon="3.82748">
        <ele>103</ele>
        <time>2016-10-09T09:07:27Z</time>
      </trkpt>
      <trkpt lat="43.69471" lon="3.82748">
        <ele>103.59997558594</ele>
        <time>2016-10-09T09:07:30Z</time>
      </trkpt>
      <trkpt lat="43.69472" lon="3.82746">
        <ele>104.20001220703</ele>
        <time>2016-10-09T09:07:32Z</time>
      </trkpt>
      <trkpt lat="43.69477" lon="3.8274">
        <ele>105.79998779297</ele>
        <time>2016-10-09T09:08:03Z</time>
      </trkpt>
      <trkpt lat="43.69485" lon="3.82734">
        <ele>106.20001220703</ele>
        <time>2016-10-09T09:08:07Z</time>
      </trkpt>
      <trkpt lat="43.69499" lon="3.82725">
        <ele>106</ele>
        <time>2016-10-09T09:08:14Z</time>
      </trkpt>
      <trkpt lat="43.69518" lon="3.82715">
        <ele>105.59997558594</ele>
        <time>2016-10-09T09:08:22Z</time>
      </trkpt>
      <trkpt lat="43.69527" lon="3.82711">
        <ele>105.59997558594</ele>
        <time>2016-10-09T09:08:28Z</time>
      </trkpt>
      <trkpt lat="43.69542" lon="3.82709">
        <ele>106.59997558594</ele>
        <time>2016-10-09T09:08:36Z</time>
      </trkpt>
      <trkpt lat="43.69545" lon="3.82707">
        <ele>106.79998779297</ele>
        <time>2016-10-09T09:08:38Z</time>
      </trkpt>
      <trkpt lat="43.69555" lon="3.82704">
        <ele>107.79998779297</ele>
        <time>2016-10-09T09:08:42Z</time>
      </trkpt>
      <trkpt lat="43.69556" lon="3.82703">
        <ele>108</ele>
        <time>2016-10-09T09:08:43Z</time>
      </trkpt>
      <trkpt lat="43.69564" lon="3.82703">
        <ele>108.59997558594</ele>
        <time>2016-10-09T09:08:48Z</time>
      </trkpt>
      <trkpt lat="43.69565" lon="3.82704">
        <ele>108.79998779297</ele>
        <time>2016-10-09T09:08:49Z</time>
      </trkpt>
      <trkpt lat="43.69566" lon="3.82704">
        <ele>109</ele>
        <time>2016-10-09T09:08:50Z</time>
      </trkpt>
      <trkpt lat="43.69568" lon="3.82701">
        <ele>110</ele>
        <time>2016-10-09T09:10:22Z</time>
      </trkpt>
      <trkpt lat="43.6957" lon="3.82698">
        <ele>110.20001220703</ele>
        <time>2016-10-09T09:10:23Z</time>
      </trkpt>
      <trkpt lat="43.69584" lon="3.82693">
        <ele>109.40002441406</ele>
        <time>2016-10-09T09:10:27Z</time>
      </trkpt>
      <trkpt lat="43.69588" lon="3.82693">
        <ele>109</ele>
        <time>2016-10-09T09:10:28Z</time>
      </trkpt>
      <trkpt lat="43.69594" lon="3.82699">
        <ele>108</ele>
        <time>2016-10-09T09:10:30Z</time>
      </trkpt>
      <trkpt lat="43.69595" lon="3.82702">
        <ele>107.79998779297</ele>
        <time>2016-10-09T09:10:31Z</time>
      </trkpt>
      <trkpt lat="43.69599" lon="3.82708">
        <ele>107.20001220703</ele>
        <time>2016-10-09T09:10:33Z</time>
      </trkpt>
      <trkpt lat="43.69601" lon="3.82713">
        <ele>107</ele>
        <time>2016-10-09T09:10:34Z</time>
      </trkpt>
      <trkpt lat="43.69601" lon="3.82719">
        <ele>106.59997558594</ele>
        <time>2016-10-09T09:10:35Z</time>
      </trkpt>
      <trkpt lat="43.69604" lon="3.8273">
        <ele>106.20001220703</ele>
        <time>2016-10-09T09:10:37Z</time>
      </trkpt>
      <trkpt lat="43.6961" lon="3.82742">
        <ele>105.40002441406</ele>
        <time>2016-10-09T09:10:40Z</time>
      </trkpt>
      <trkpt lat="43.69615" lon="3.82746">
        <ele>105</ele>
        <time>2016-10-09T09:10:43Z</time>
      </trkpt>
      <trkpt lat="43.69625" lon="3.82746">
        <ele>104.59997558594</ele>
        <time>2016-10-09T09:10:47Z</time>
      </trkpt>
      <trkpt lat="43.69633" lon="3.82755">
        <ele>104.40002441406</ele>
        <time>2016-10-09T09:10:52Z</time>
      </trkpt>
      <trkpt lat="43.69634" lon="3.82756">
        <ele>104.20001220703</ele>
        <time>2016-10-09T09:11:00Z</time>
      </trkpt>
      <trkpt lat="43.69636" lon="3.82759">
        <ele>104.20001220703</ele>
        <time>2016-10-09T09:11:01Z</time>
      </trkpt>
      <trkpt lat="43.69644" lon="3.82775">
        <ele>104</ele>
        <time>2016-10-09T09:11:05Z</time>
      </trkpt>
      <trkpt lat="43.6965" lon="3.82785">
        <ele>104.79998779297</ele>
        <time>2016-10-09T09:11:09Z</time>
      </trkpt>
      <trkpt lat="43.69656" lon="3.82791">
        <ele>106.59997558594</ele>
        <time>2016-10-09T09:11:26Z</time>
      </trkpt>
      <trkpt lat="43.6966" lon="3.82794">
        <ele>107</ele>
        <time>2016-10-09T09:11:28Z</time>
      </trkpt>
      <trkpt lat="43.69665" lon="3.82797">
        <ele>107</ele>
        <time>2016-10-09T09:11:30Z</time>
      </trkpt>
      <trkpt lat="43.69674" lon="3.82798">
        <ele>106.20001220703</ele>
        <time>2016-10-09T09:11:33Z</time>
      </trkpt>
      <trkpt lat="43.6968" lon="3.82799">
        <ele>105.40002441406</ele>
        <time>2016-10-09T09:11:35Z</time>
      </trkpt>
      <trkpt lat="43.69688" lon="3.82802">
        <ele>104.20001220703</ele>
        <time>2016-10-09T09:11:38Z</time>
      </trkpt>
      <trkpt lat="43.69695" lon="3.82807">
        <ele>103.20001220703</ele>
        <time>2016-10-09T09:11:40Z</time>
      </trkpt>
      <trkpt lat="43.69698" lon="3.8281">
        <ele>103</ele>
        <time>2016-10-09T09:11:41Z</time>
      </trkpt>
      <trkpt lat="43.69709" lon="3.82823">
        <ele>101.59997558594</ele>
        <time>2016-10-09T09:11:45Z</time>
      </trkpt>
      <trkpt lat="43.69714" lon="3.82832">
        <ele>100.59997558594</ele>
        <time>2016-10-09T09:11:47Z</time>
      </trkpt>
      <trkpt lat="43.69718" lon="3.82845">
        <ele>99.400024414062</ele>
        <time>2016-10-09T09:11:50Z</time>
      </trkpt>
      <trkpt lat="43.69719" lon="3.82853">
        <ele>98.599975585938</ele>
        <time>2016-10-09T09:11:52Z</time>
      </trkpt>
      <trkpt lat="43.6972" lon="3.8286">
        <ele>98.200012207031</ele>
        <time>2016-10-09T09:11:54Z</time>
      </trkpt>
      <trkpt lat="43.69721" lon="3.82871">
        <ele>97.400024414062</ele>
        <time>2016-10-09T09:11:57Z</time>
      </trkpt>
      <trkpt lat="43.69725" lon="3.82876">
        <ele>97.599975585938</ele>
        <time>2016-10-09T09:11:59Z</time>
      </trkpt>
      <trkpt lat="43.69732" lon="3.82879">
        <ele>97.799987792969</ele>
        <time>2016-10-09T09:12:01Z</time>
      </trkpt>
      <trkpt lat="43.6974" lon="3.82881">
        <ele>98</ele>
        <time>2016-10-09T09:12:04Z</time>
      </trkpt>
      <trkpt lat="43.69746" lon="3.82885">
        <ele>98.400024414062</ele>
        <time>2016-10-09T09:12:06Z</time>
      </trkpt>
      <trkpt lat="43.69761" lon="3.82901">
        <ele>99.400024414062</ele>
        <time>2016-10-09T09:12:11Z</time>
      </trkpt>
      <trkpt lat="43.69761" lon="3.82905">
        <ele>99.599975585938</ele>
        <time>2016-10-09T09:12:12Z</time>
      </trkpt>
      <trkpt lat="43.69762" lon="3.82914">
        <ele>100.20001220703</ele>
        <time>2016-10-09T09:12:15Z</time>
      </trkpt>
      <trkpt lat="43.69764" lon="3.82919">
        <ele>100.79998779297</ele>
        <time>2016-10-09T09:12:17Z</time>
      </trkpt>
      <trkpt lat="43.69765" lon="3.82926">
        <ele>101</ele>
        <time>2016-10-09T09:12:19Z</time>
      </trkpt>
      <trkpt lat="43.69766" lon="3.82929">
        <ele>101.40002441406</ele>
        <time>2016-10-09T09:12:20Z</time>
      </trkpt>
      <trkpt lat="43.69766" lon="3.82933">
        <ele>101.79998779297</ele>
        <time>2016-10-09T09:12:21Z</time>
      </trkpt>
      <trkpt lat="43.69769" lon="3.82941">
        <ele>103.20001220703</ele>
        <time>2016-10-09T09:12:24Z</time>
      </trkpt>
      <trkpt lat="43.69771" lon="3.82948">
        <ele>104.59997558594</ele>
        <time>2016-10-09T09:12:26Z</time>
      </trkpt>
      <trkpt lat="43.69774" lon="3.82957">
        <ele>105.79998779297</ele>
        <time>2016-10-09T09:12:29Z</time>
      </trkpt>
      <trkpt lat="43.6978" lon="3.82968">
        <ele>106.59997558594</ele>
        <time>2016-10-09T09:12:32Z</time>
      </trkpt>
      <trkpt lat="43.69781" lon="3.82971">
        <ele>107.20001220703</ele>
        <time>2016-10-09T09:12:33Z</time>
      </trkpt>
      <trkpt lat="43.69786" lon="3.82975">
        <ele>108.59997558594</ele>
        <time>2016-10-09T09:12:36Z</time>
      </trkpt>
      <trkpt lat="43.69788" lon="3.82975">
        <ele>109.40002441406</ele>
        <time>2016-10-09T09:12:38Z</time>
      </trkpt>
      <trkpt lat="43.6979" lon="3.82975">
        <ele>109.79998779297</ele>
        <time>2016-10-09T09:12:39Z</time>
      </trkpt>
      <trkpt lat="43.69794" lon="3.82972">
        <ele>110.59997558594</ele>
        <time>2016-10-09T09:12:41Z</time>
      </trkpt>
      <trkpt lat="43.69796" lon="3.8297">
        <ele>110.79998779297</ele>
        <time>2016-10-09T09:12:42Z</time>
      </trkpt>
      <trkpt lat="43.69805" lon="3.82961">
        <ele>112</ele>
        <time>2016-10-09T09:12:45Z</time>
      </trkpt>
      <trkpt lat="43.69808" lon="3.82958">
        <ele>112.40002441406</ele>
        <time>2016-10-09T09:12:46Z</time>
      </trkpt>
      <trkpt lat="43.6981" lon="3.82954">
        <ele>112.79998779297</ele>
        <time>2016-10-09T09:12:47Z</time>
      </trkpt>
      <trkpt lat="43.69813" lon="3.82951">
        <ele>113.20001220703</ele>
        <time>2016-10-09T09:12:48Z</time>
      </trkpt>
      <trkpt lat="43.69827" lon="3.82941">
        <ele>114</ele>
        <time>2016-10-09T09:12:52Z</time>
      </trkpt>
      <trkpt lat="43.69833" lon="3.82935">
        <ele>114.40002441406</ele>
        <time>2016-10-09T09:12:54Z</time>
      </trkpt>
      <trkpt lat="43.69844" lon="3.82923">
        <ele>115</ele>
        <time>2016-10-09T09:12:58Z</time>
      </trkpt>
      <trkpt lat="43.69851" lon="3.82919">
        <ele>115.40002441406</ele>
        <time>2016-10-09T09:13:00Z</time>
      </trkpt>
      <trkpt lat="43.69854" lon="3.8292">
        <ele>115.59997558594</ele>
        <time>2016-10-09T09:13:01Z</time>
      </trkpt>
      <trkpt lat="43.69858" lon="3.82923">
        <ele>115.79998779297</ele>
        <time>2016-10-09T09:13:02Z</time>
      </trkpt>
      <trkpt lat="43.69872" lon="3.82928">
        <ele>116.40002441406</ele>
        <time>2016-10-09T09:13:06Z</time>
      </trkpt>
      <trkpt lat="43.69875" lon="3.82931">
        <ele>116.59997558594</ele>
        <time>2016-10-09T09:13:07Z</time>
      </trkpt>
      <trkpt lat="43.69885" lon="3.82937">
        <ele>117</ele>
        <time>2016-10-09T09:13:10Z</time>
      </trkpt>
      <trkpt lat="43.69892" lon="3.82941">
        <ele>117.40002441406</ele>
        <time>2016-10-09T09:13:12Z</time>
      </trkpt>
      <trkpt lat="43.69895" lon="3.82943">
        <ele>117.40002441406</ele>
        <time>2016-10-09T09:13:13Z</time>
      </trkpt>
      <trkpt lat="43.69909" lon="3.82941">
        <ele>118.20001220703</ele>
        <time>2016-10-09T09:13:17Z</time>
      </trkpt>
      <trkpt lat="43.69912" lon="3.82939">
        <ele>118.40002441406</ele>
        <time>2016-10-09T09:13:18Z</time>
      </trkpt>
      <trkpt lat="43.6992" lon="3.82933">
        <ele>119.59997558594</ele>
        <time>2016-10-09T09:13:21Z</time>
      </trkpt>
      <trkpt lat="43.6994" lon="3.82931">
        <ele>120.79998779297</ele>
        <time>2016-10-09T09:13:27Z</time>
      </trkpt>
      <trkpt lat="43.69948" lon="3.82935">
        <ele>121.79998779297</ele>
        <time>2016-10-09T09:13:31Z</time>
      </trkpt>
      <trkpt lat="43.6995" lon="3.82937">
        <ele>122</ele>
        <time>2016-10-09T09:13:32Z</time>
      </trkpt>
      <trkpt lat="43.69957" lon="3.82942">
        <ele>123</ele>
        <time>2016-10-09T09:13:36Z</time>
      </trkpt>
      <trkpt lat="43.69964" lon="3.82946">
        <ele>123.59997558594</ele>
        <time>2016-10-09T09:13:39Z</time>
      </trkpt>
      <trkpt lat="43.69967" lon="3.82946">
        <ele>124</ele>
        <time>2016-10-09T09:13:40Z</time>
      </trkpt>
      <trkpt lat="43.69983" lon="3.82949">
        <ele>125</ele>
        <time>2016-10-09T09:13:45Z</time>
      </trkpt>
      <trkpt lat="43.69994" lon="3.82955">
        <ele>125.40002441406</ele>
        <time>2016-10-09T09:13:48Z</time>
      </trkpt>
      <trkpt lat="43.69995" lon="3.82959">
        <ele>125.40002441406</ele>
        <time>2016-10-09T09:13:49Z</time>
      </trkpt>
      <trkpt lat="43.69992" lon="3.82973">
        <ele>125.20001220703</ele>
        <time>2016-10-09T09:13:52Z</time>
      </trkpt>
      <trkpt lat="43.69979" lon="3.82992">
        <ele>124.79998779297</ele>
        <time>2016-10-09T09:13:57Z</time>
      </trkpt>
      <trkpt lat="43.69962" lon="3.83002">
        <ele>124</ele>
        <time>2016-10-09T09:14:02Z</time>
      </trkpt>
      <trkpt lat="43.69954" lon="3.83003">
        <ele>123.79998779297</ele>
        <time>2016-10-09T09:14:04Z</time>
      </trkpt>
      <trkpt lat="43.69945" lon="3.83003">
        <ele>123.40002441406</ele>
        <time>2016-10-09T09:14:06Z</time>
      </trkpt>
      <trkpt lat="43.69936" lon="3.83003">
        <ele>122.79998779297</ele>
        <time>2016-10-09T09:14:08Z</time>
      </trkpt>
      <trkpt lat="43.69931" lon="3.83003">
        <ele>122.20001220703</ele>
        <time>2016-10-09T09:14:09Z</time>
      </trkpt>
      <trkpt lat="43.69921" lon="3.83002">
        <ele>121.59997558594</ele>
        <time>2016-10-09T09:14:11Z</time>
      </trkpt>
      <trkpt lat="43.69911" lon="3.83006">
        <ele>121.20001220703</ele>
        <time>2016-10-09T09:14:13Z</time>
      </trkpt>
      <trkpt lat="43.69897" lon="3.83017">
        <ele>120.40002441406</ele>
        <time>2016-10-09T09:14:16Z</time>
      </trkpt>
      <trkpt lat="43.69892" lon="3.8302">
        <ele>120.20001220703</ele>
        <time>2016-10-09T09:14:17Z</time>
      </trkpt>
      <trkpt lat="43.69885" lon="3.83028">
        <ele>119.40002441406</ele>
        <time>2016-10-09T09:14:19Z</time>
      </trkpt>
      <trkpt lat="43.6988" lon="3.83035">
        <ele>118.59997558594</ele>
        <time>2016-10-09T09:14:21Z</time>
      </trkpt>
      <trkpt lat="43.69875" lon="3.83043">
        <ele>118.20001220703</ele>
        <time>2016-10-09T09:14:23Z</time>
      </trkpt>
      <trkpt lat="43.69872" lon="3.83049">
        <ele>117.79998779297</ele>
        <time>2016-10-09T09:14:24Z</time>
      </trkpt>
      <trkpt lat="43.69869" lon="3.83056">
        <ele>117.59997558594</ele>
        <time>2016-10-09T09:14:25Z</time>
      </trkpt>
      <trkpt lat="43.69868" lon="3.83065">
        <ele>117.20001220703</ele>
        <time>2016-10-09T09:14:27Z</time>
      </trkpt>
      <trkpt lat="43.69872" lon="3.83066">
        <ele>117.40002441406</ele>
        <time>2016-10-09T09:14:30Z</time>
      </trkpt>
      <trkpt lat="43.69874" lon="3.83064">
        <ele>117.40002441406</ele>
        <time>2016-10-09T09:14:31Z</time>
      </trkpt>
      <trkpt lat="43.69886" lon="3.83061">
        <ele>117.20001220703</ele>
        <time>2016-10-09T09:14:35Z</time>
      </trkpt>
      <trkpt lat="43.69889" lon="3.8306">
        <ele>117.20001220703</ele>
        <time>2016-10-09T09:14:36Z</time>
      </trkpt>
      <trkpt lat="43.6991" lon="3.83055">
        <ele>116.79998779297</ele>
        <time>2016-10-09T09:14:43Z</time>
      </trkpt>
      <trkpt lat="43.69931" lon="3.8305">
        <ele>117</ele>
        <time>2016-10-09T09:14:51Z</time>
      </trkpt>
      <trkpt lat="43.6994" lon="3.83057">
        <ele>117.59997558594</ele>
        <time>2016-10-09T09:14:56Z</time>
      </trkpt>
      <trkpt lat="43.69944" lon="3.83076">
        <ele>117.40002441406</ele>
        <time>2016-10-09T09:15:00Z</time>
      </trkpt>
      <trkpt lat="43.69952" lon="3.83093">
        <ele>117.59997558594</ele>
        <time>2016-10-09T09:15:05Z</time>
      </trkpt>
      <trkpt lat="43.69968" lon="3.83098">
        <ele>118</ele>
        <time>2016-10-09T09:15:11Z</time>
      </trkpt>
      <trkpt lat="43.6997" lon="3.83099">
        <ele>118.20001220703</ele>
        <time>2016-10-09T09:15:12Z</time>
      </trkpt>
      <trkpt lat="43.69976" lon="3.83108">
        <ele>118.79998779297</ele>
        <time>2016-10-09T09:15:17Z</time>
      </trkpt>
      <trkpt lat="43.69976" lon="3.8312">
        <ele>119.20001220703</ele>
        <time>2016-10-09T09:15:22Z</time>
      </trkpt>
      <trkpt lat="43.69976" lon="3.83123">
        <ele>119.40002441406</ele>
        <time>2016-10-09T09:15:23Z</time>
      </trkpt>
      <trkpt lat="43.69979" lon="3.8314">
        <ele>119.79998779297</ele>
        <time>2016-10-09T09:15:29Z</time>
      </trkpt>
      <trkpt lat="43.69979" lon="3.83162">
        <ele>120.40002441406</ele>
        <time>2016-10-09T09:15:36Z</time>
      </trkpt>
      <trkpt lat="43.69979" lon="3.83171">
        <ele>120.40002441406</ele>
        <time>2016-10-09T09:15:39Z</time>
      </trkpt>
      <trkpt lat="43.69978" lon="3.83194">
        <ele>121</ele>
        <time>2016-10-09T09:15:48Z</time>
      </trkpt>
      <trkpt lat="43.69978" lon="3.83216">
        <ele>121.20001220703</ele>
        <time>2016-10-09T09:15:56Z</time>
      </trkpt>
      <trkpt lat="43.69978" lon="3.83221">
        <ele>121.40002441406</ele>
        <time>2016-10-09T09:15:58Z</time>
      </trkpt>
      <trkpt lat="43.69978" lon="3.83238">
        <ele>121.79998779297</ele>
        <time>2016-10-09T09:16:04Z</time>
      </trkpt>
      <trkpt lat="43.69979" lon="3.83263">
        <ele>121.40002441406</ele>
        <time>2016-10-09T09:16:11Z</time>
      </trkpt>
      <trkpt lat="43.69978" lon="3.83288">
        <ele>120.59997558594</ele>
        <time>2016-10-09T09:16:16Z</time>
      </trkpt>
      <trkpt lat="43.69977" lon="3.83305">
        <ele>120.40002441406</ele>
        <time>2016-10-09T09:16:20Z</time>
      </trkpt>
      <trkpt lat="43.69977" lon="3.83309">
        <ele>120.40002441406</ele>
        <time>2016-10-09T09:16:21Z</time>
      </trkpt>
      <trkpt lat="43.6998" lon="3.83325">
        <ele>119.79998779297</ele>
        <time>2016-10-09T09:16:40Z</time>
      </trkpt>
      <trkpt lat="43.6998" lon="3.83335">
        <ele>119.59997558594</ele>
        <time>2016-10-09T09:16:43Z</time>
      </trkpt>
      <trkpt lat="43.6998" lon="3.83343">
        <ele>119.20001220703</ele>
        <time>2016-10-09T09:16:45Z</time>
      </trkpt>
      <trkpt lat="43.69977" lon="3.83351">
        <ele>119.59997558594</ele>
        <time>2016-10-09T09:18:19Z</time>
      </trkpt>
      <trkpt lat="43.69977" lon="3.83358">
        <ele>119.40002441406</ele>
        <time>2016-10-09T09:18:21Z</time>
      </trkpt>
      <trkpt lat="43.69986" lon="3.83372">
        <ele>119.59997558594</ele>
        <time>2016-10-09T09:18:25Z</time>
      </trkpt>
      <trkpt lat="43.69991" lon="3.83386">
        <ele>120.20001220703</ele>
        <time>2016-10-09T09:18:29Z</time>
      </trkpt>
      <trkpt lat="43.69992" lon="3.8339">
        <ele>120.20001220703</ele>
        <time>2016-10-09T09:18:30Z</time>
      </trkpt>
      <trkpt lat="43.69991" lon="3.83393">
        <ele>120</ele>
        <time>2016-10-09T09:18:31Z</time>
      </trkpt>
      <trkpt lat="43.69992" lon="3.83402">
        <ele>120</ele>
        <time>2016-10-09T09:18:34Z</time>
      </trkpt>
      <trkpt lat="43.69993" lon="3.83407">
        <ele>120.40002441406</ele>
        <time>2016-10-09T09:18:36Z</time>
      </trkpt>
      <trkpt lat="43.69994" lon="3.8341">
        <ele>120.59997558594</ele>
        <time>2016-10-09T09:18:37Z</time>
      </trkpt>
      <trkpt lat="43.69997" lon="3.83414">
        <ele>120.79998779297</ele>
        <time>2016-10-09T09:18:39Z</time>
      </trkpt>
      <trkpt lat="43.70007" lon="3.83422">
        <ele>120.79998779297</ele>
        <time>2016-10-09T09:18:44Z</time>
      </trkpt>
      <trkpt lat="43.70014" lon="3.83428">
        <ele>120.79998779297</ele>
        <time>2016-10-09T09:18:48Z</time>
      </trkpt>
      <trkpt lat="43.70016" lon="3.83429">
        <ele>120.79998779297</ele>
        <time>2016-10-09T09:18:49Z</time>
      </trkpt>
      <trkpt lat="43.7002" lon="3.83431">
        <ele>120.79998779297</ele>
        <time>2016-10-09T09:18:51Z</time>
      </trkpt>
      <trkpt lat="43.70027" lon="3.83433">
        <ele>120.59997558594</ele>
        <time>2016-10-09T09:18:54Z</time>
      </trkpt>
      <trkpt lat="43.70042" lon="3.83435">
        <ele>120.59997558594</ele>
        <time>2016-10-09T09:19:00Z</time>
      </trkpt>
      <trkpt lat="43.70049" lon="3.83447">
        <ele>121.20001220703</ele>
        <time>2016-10-09T09:19:05Z</time>
      </trkpt>
      <trkpt lat="43.70049" lon="3.83454">
        <ele>121.40002441406</ele>
        <time>2016-10-09T09:19:07Z</time>
      </trkpt>
      <trkpt lat="43.70048" lon="3.83471">
        <ele>121.59997558594</ele>
        <time>2016-10-09T09:19:13Z</time>
      </trkpt>
      <trkpt lat="43.70047" lon="3.83488">
        <ele>121.40002441406</ele>
        <time>2016-10-09T09:19:19Z</time>
      </trkpt>
      <trkpt lat="43.70045" lon="3.83505">
        <ele>122.59997558594</ele>
        <time>2016-10-09T09:19:25Z</time>
      </trkpt>
      <trkpt lat="43.70044" lon="3.83511">
        <ele>122.79998779297</ele>
        <time>2016-10-09T09:19:27Z</time>
      </trkpt>
      <trkpt lat="43.70043" lon="3.83525">
        <ele>123.59997558594</ele>
        <time>2016-10-09T09:19:32Z</time>
      </trkpt>
      <trkpt lat="43.70043" lon="3.83533">
        <ele>124.20001220703</ele>
        <time>2016-10-09T09:19:35Z</time>
      </trkpt>
      <trkpt lat="43.7004" lon="3.83551">
        <ele>124.20001220703</ele>
        <time>2016-10-09T09:19:41Z</time>
      </trkpt>
      <trkpt lat="43.70043" lon="3.83578">
        <ele>124.20001220703</ele>
        <time>2016-10-09T09:19:50Z</time>
      </trkpt>
      <trkpt lat="43.70045" lon="3.83596">
        <ele>124.59997558594</ele>
        <time>2016-10-09T09:19:55Z</time>
      </trkpt>
      <trkpt lat="43.70046" lon="3.83602">
        <ele>124.79998779297</ele>
        <time>2016-10-09T09:19:57Z</time>
      </trkpt>
      <trkpt lat="43.70047" lon="3.8362">
        <ele>125.40002441406</ele>
        <time>2016-10-09T09:20:03Z</time>
      </trkpt>
      <trkpt lat="43.70048" lon="3.83626">
        <ele>125.59997558594</ele>
        <time>2016-10-09T09:20:05Z</time>
      </trkpt>
      <trkpt lat="43.70053" lon="3.83639">
        <ele>125.79998779297</ele>
        <time>2016-10-09T09:20:10Z</time>
      </trkpt>
      <trkpt lat="43.70052" lon="3.83645">
        <ele>126.59997558594</ele>
        <time>2016-10-09T09:20:12Z</time>
      </trkpt>
      <trkpt lat="43.70047" lon="3.83652">
        <ele>126.79998779297</ele>
        <time>2016-10-09T09:20:15Z</time>
      </trkpt>
      <trkpt lat="43.70046" lon="3.83653">
        <ele>126.79998779297</ele>
        <time>2016-10-09T09:20:16Z</time>
      </trkpt>
      <trkpt lat="43.70034" lon="3.83655">
        <ele>126.20001220703</ele>
        <time>2016-10-09T09:20:21Z</time>
      </trkpt>
      <trkpt lat="43.70026" lon="3.83654">
        <ele>126.20001220703</ele>
        <time>2016-10-09T09:20:26Z</time>
      </trkpt>
      <trkpt lat="43.70029" lon="3.83657">
        <ele>126.20001220703</ele>
        <time>2016-10-09T09:20:30Z</time>
      </trkpt>
      <trkpt lat="43.70031" lon="3.83656">
        <ele>126.20001220703</ele>
        <time>2016-10-09T09:20:31Z</time>
      </trkpt>
      <trkpt lat="43.70042" lon="3.83654">
        <ele>125.59997558594</ele>
        <time>2016-10-09T09:20:35Z</time>
      </trkpt>
      <trkpt lat="43.70045" lon="3.83653">
        <ele>125.59997558594</ele>
        <time>2016-10-09T09:20:36Z</time>
      </trkpt>
      <trkpt lat="43.70052" lon="3.83644">
        <ele>125.59997558594</ele>
        <time>2016-10-09T09:20:40Z</time>
      </trkpt>
      <trkpt lat="43.70052" lon="3.83637">
        <ele>125.40002441406</ele>
        <time>2016-10-09T09:20:45Z</time>
      </trkpt>
      <trkpt lat="43.70055" lon="3.83637">
        <ele>125.40002441406</ele>
        <time>2016-10-09T09:20:54Z</time>
      </trkpt>
      <trkpt lat="43.70059" lon="3.83633">
        <ele>125.20001220703</ele>
        <time>2016-10-09T09:20:56Z</time>
      </trkpt>
      <trkpt lat="43.70065" lon="3.83618">
        <ele>125</ele>
        <time>2016-10-09T09:20:59Z</time>
      </trkpt>
      <trkpt lat="43.70066" lon="3.83611">
        <ele>124.79998779297</ele>
        <time>2016-10-09T09:21:00Z</time>
      </trkpt>
      <trkpt lat="43.70066" lon="3.83597">
        <ele>124.59997558594</ele>
        <time>2016-10-09T09:21:02Z</time>
      </trkpt>
      <trkpt lat="43.70069" lon="3.83575">
        <ele>124</ele>
        <time>2016-10-09T09:21:05Z</time>
      </trkpt>
      <trkpt lat="43.70075" lon="3.83562">
        <ele>123.20001220703</ele>
        <time>2016-10-09T09:21:07Z</time>
      </trkpt>
      <trkpt lat="43.7008" lon="3.83556">
        <ele>123</ele>
        <time>2016-10-09T09:21:08Z</time>
      </trkpt>
      <trkpt lat="43.7009" lon="3.83539">
        <ele>122.40002441406</ele>
        <time>2016-10-09T09:21:11Z</time>
      </trkpt>
      <trkpt lat="43.70093" lon="3.83533">
        <ele>122.40002441406</ele>
        <time>2016-10-09T09:21:12Z</time>
      </trkpt>
      <trkpt lat="43.70096" lon="3.83527">
        <ele>122.20001220703</ele>
        <time>2016-10-09T09:21:13Z</time>
      </trkpt>
      <trkpt lat="43.70108" lon="3.83516">
        <ele>122.20001220703</ele>
        <time>2016-10-09T09:21:16Z</time>
      </trkpt>
      <trkpt lat="43.70112" lon="3.83512">
        <ele>122.20001220703</ele>
        <time>2016-10-09T09:21:17Z</time>
      </trkpt>
      <trkpt lat="43.70127" lon="3.83498">
        <ele>122</ele>
        <time>2016-10-09T09:21:21Z</time>
      </trkpt>
      <trkpt lat="43.70134" lon="3.8349">
        <ele>122</ele>
        <time>2016-10-09T09:21:23Z</time>
      </trkpt>
      <trkpt lat="43.70144" lon="3.83472">
        <ele>122</ele>
        <time>2016-10-09T09:21:27Z</time>
      </trkpt>
      <trkpt lat="43.70148" lon="3.83461">
        <ele>121.79998779297</ele>
        <time>2016-10-09T09:21:29Z</time>
      </trkpt>
      <trkpt lat="43.70155" lon="3.83453">
        <ele>121.79998779297</ele>
        <time>2016-10-09T09:21:31Z</time>
      </trkpt>
      <trkpt lat="43.7017" lon="3.83444">
        <ele>122.20001220703</ele>
        <time>2016-10-09T09:21:35Z</time>
      </trkpt>
      <trkpt lat="43.70173" lon="3.83442">
        <ele>122.20001220703</ele>
        <time>2016-10-09T09:21:36Z</time>
      </trkpt>
      <trkpt lat="43.702" lon="3.83423">
        <ele>122.79998779297</ele>
        <time>2016-10-09T09:21:45Z</time>
      </trkpt>
      <trkpt lat="43.70216" lon="3.83403">
        <ele>123.20001220703</ele>
        <time>2016-10-09T09:21:51Z</time>
      </trkpt>
      <trkpt lat="43.7022" lon="3.83397">
        <ele>123.40002441406</ele>
        <time>2016-10-09T09:21:53Z</time>
      </trkpt>
      <trkpt lat="43.70223" lon="3.83397">
        <ele>123.40002441406</ele>
        <time>2016-10-09T09:21:54Z</time>
      </trkpt>
      <trkpt lat="43.70225" lon="3.83398">
        <ele>123.59997558594</ele>
        <time>2016-10-09T09:21:55Z</time>
      </trkpt>
      <trkpt lat="43.70233" lon="3.83413">
        <ele>124.40002441406</ele>
        <time>2016-10-09T09:21:59Z</time>
      </trkpt>
      <trkpt lat="43.70235" lon="3.83419">
        <ele>124.40002441406</ele>
        <time>2016-10-09T09:22:00Z</time>
      </trkpt>
      <trkpt lat="43.70236" lon="3.83425">
        <ele>124.40002441406</ele>
        <time>2016-10-09T09:22:01Z</time>
      </trkpt>
      <trkpt lat="43.70241" lon="3.83436">
        <ele>124.59997558594</ele>
        <time>2016-10-09T09:22:03Z</time>
      </trkpt>
      <trkpt lat="43.70248" lon="3.83453">
        <ele>124.40002441406</ele>
        <time>2016-10-09T09:22:07Z</time>
      </trkpt>
      <trkpt lat="43.70253" lon="3.83479">
        <ele>123.40002441406</ele>
        <time>2016-10-09T09:22:12Z</time>
      </trkpt>
      <trkpt lat="43.70253" lon="3.83485">
        <ele>123.20001220703</ele>
        <time>2016-10-09T09:22:13Z</time>
      </trkpt>
      <trkpt lat="43.70253" lon="3.83511">
        <ele>121.79998779297</ele>
        <time>2016-10-09T09:22:17Z</time>
      </trkpt>
      <trkpt lat="43.70254" lon="3.83518">
        <ele>121.59997558594</ele>
        <time>2016-10-09T09:22:18Z</time>
      </trkpt>
      <trkpt lat="43.70254" lon="3.83539">
        <ele>120.79998779297</ele>
        <time>2016-10-09T09:22:21Z</time>
      </trkpt>
      <trkpt lat="43.70256" lon="3.8357">
        <ele>119.59997558594</ele>
        <time>2016-10-09T09:22:25Z</time>
      </trkpt>
      <trkpt lat="43.70257" lon="3.83577">
        <ele>119.20001220703</ele>
        <time>2016-10-09T09:22:26Z</time>
      </trkpt>
      <trkpt lat="43.70258" lon="3.83592">
        <ele>118.59997558594</ele>
        <time>2016-10-09T09:22:28Z</time>
      </trkpt>
      <trkpt lat="43.7026" lon="3.8363">
        <ele>117.59997558594</ele>
        <time>2016-10-09T09:22:33Z</time>
      </trkpt>
      <trkpt lat="43.70262" lon="3.8366">
        <ele>116.59997558594</ele>
        <time>2016-10-09T09:22:37Z</time>
      </trkpt>
      <trkpt lat="43.70263" lon="3.83679">
        <ele>115.79998779297</ele>
        <time>2016-10-09T09:22:40Z</time>
      </trkpt>
      <trkpt lat="43.70263" lon="3.83683">
        <ele>115.59997558594</ele>
        <time>2016-10-09T09:22:41Z</time>
      </trkpt>
      <trkpt lat="43.70265" lon="3.83695">
        <ele>115.59997558594</ele>
        <time>2016-10-09T09:22:44Z</time>
      </trkpt>
      <trkpt lat="43.70267" lon="3.83697">
        <ele>115.59997558594</ele>
        <time>2016-10-09T09:22:45Z</time>
      </trkpt>
      <trkpt lat="43.70287" lon="3.8371">
        <ele>115.59997558594</ele>
        <time>2016-10-09T09:22:50Z</time>
      </trkpt>
      <trkpt lat="43.70321" lon="3.83731">
        <ele>115.40002441406</ele>
        <time>2016-10-09T09:22:58Z</time>
      </trkpt>
      <trkpt lat="43.70339" lon="3.83741">
        <ele>114.40002441406</ele>
        <time>2016-10-09T09:23:02Z</time>
      </trkpt>
      <trkpt lat="43.70359" lon="3.83753">
        <ele>113.79998779297</ele>
        <time>2016-10-09T09:23:07Z</time>
      </trkpt>
      <trkpt lat="43.7039" lon="3.83774">
        <ele>113.59997558594</ele>
        <time>2016-10-09T09:23:16Z</time>
      </trkpt>
      <trkpt lat="43.70394" lon="3.83771">
        <ele>113.40002441406</ele>
        <time>2016-10-09T09:23:18Z</time>
      </trkpt>
      <trkpt lat="43.70397" lon="3.83767">
        <ele>113.59997558594</ele>
        <time>2016-10-09T09:23:19Z</time>
      </trkpt>
      <trkpt lat="43.70406" lon="3.83752">
        <ele>113</ele>
        <time>2016-10-09T09:23:23Z</time>
      </trkpt>
      <trkpt lat="43.7041" lon="3.83747">
        <ele>112.20001220703</ele>
        <time>2016-10-09T09:23:25Z</time>
      </trkpt>
      <trkpt lat="43.70418" lon="3.83734">
        <ele>111.79998779297</ele>
        <time>2016-10-09T09:23:28Z</time>
      </trkpt>
      <trkpt lat="43.7042" lon="3.8373">
        <ele>111.20001220703</ele>
        <time>2016-10-09T09:23:29Z</time>
      </trkpt>
      <trkpt lat="43.70421" lon="3.83729">
        <ele>111</ele>
        <time>2016-10-09T09:23:30Z</time>
      </trkpt>
      <trkpt lat="43.70422" lon="3.83731">
        <ele>110.79998779297</ele>
        <time>2016-10-09T09:23:31Z</time>
      </trkpt>
      <trkpt lat="43.70422" lon="3.83733">
        <ele>110.20001220703</ele>
        <time>2016-10-09T09:23:33Z</time>
      </trkpt>
      <trkpt lat="43.70422" lon="3.83735">
        <ele>109.79998779297</ele>
        <time>2016-10-09T09:24:26Z</time>
      </trkpt>
      <trkpt lat="43.70422" lon="3.8374">
        <ele>109</ele>
        <time>2016-10-09T09:24:28Z</time>
      </trkpt>
      <trkpt lat="43.7042" lon="3.83746">
        <ele>107.20001220703</ele>
        <time>2016-10-09T09:24:30Z</time>
      </trkpt>
      <trkpt lat="43.70419" lon="3.83753">
        <ele>105.79998779297</ele>
        <time>2016-10-09T09:24:32Z</time>
      </trkpt>
      <trkpt lat="43.70418" lon="3.83757">
        <ele>104.59997558594</ele>
        <time>2016-10-09T09:24:33Z</time>
      </trkpt>
      <trkpt lat="43.70417" lon="3.83767">
        <ele>103</ele>
        <time>2016-10-09T09:24:35Z</time>
      </trkpt>
      <trkpt lat="43.70417" lon="3.83779">
        <ele>101.20001220703</ele>
        <time>2016-10-09T09:24:37Z</time>
      </trkpt>
      <trkpt lat="43.70418" lon="3.83785">
        <ele>100</ele>
        <time>2016-10-09T09:24:38Z</time>
      </trkpt>
      <trkpt lat="43.70418" lon="3.83791">
        <ele>99</ele>
        <time>2016-10-09T09:24:39Z</time>
      </trkpt>
      <trkpt lat="43.70419" lon="3.83798">
        <ele>97.799987792969</ele>
        <time>2016-10-09T09:24:40Z</time>
      </trkpt>
      <trkpt lat="43.70421" lon="3.83805">
        <ele>96.599975585938</ele>
        <time>2016-10-09T09:24:41Z</time>
      </trkpt>
      <trkpt lat="43.70424" lon="3.83819">
        <ele>94.599975585938</ele>
        <time>2016-10-09T09:24:43Z</time>
      </trkpt>
      <trkpt lat="43.70428" lon="3.83833">
        <ele>93</ele>
        <time>2016-10-09T09:24:45Z</time>
      </trkpt>
      <trkpt lat="43.70432" lon="3.83848">
        <ele>92</ele>
        <time>2016-10-09T09:24:47Z</time>
      </trkpt>
      <trkpt lat="43.70437" lon="3.83873">
        <ele>90.799987792969</ele>
        <time>2016-10-09T09:24:50Z</time>
      </trkpt>
      <trkpt lat="43.7044" lon="3.83898">
        <ele>89.599975585938</ele>
        <time>2016-10-09T09:24:53Z</time>
      </trkpt>
      <trkpt lat="43.70441" lon="3.83925">
        <ele>89.200012207031</ele>
        <time>2016-10-09T09:24:56Z</time>
      </trkpt>
      <trkpt lat="43.7044" lon="3.8398">
        <ele>88.799987792969</ele>
        <time>2016-10-09T09:25:02Z</time>
      </trkpt>
      <trkpt lat="43.70442" lon="3.83998">
        <ele>88.599975585938</ele>
        <time>2016-10-09T09:25:04Z</time>
      </trkpt>
      <trkpt lat="43.70449" lon="3.84041">
        <ele>88.400024414062</ele>
        <time>2016-10-09T09:25:09Z</time>
      </trkpt>
      <trkpt lat="43.70456" lon="3.84075">
        <ele>88.599975585938</ele>
        <time>2016-10-09T09:25:13Z</time>
      </trkpt>
      <trkpt lat="43.70462" lon="3.84093">
        <ele>88.599975585938</ele>
        <time>2016-10-09T09:25:15Z</time>
      </trkpt>
      <trkpt lat="43.70488" lon="3.84166">
        <ele>89.400024414062</ele>
        <time>2016-10-09T09:25:23Z</time>
      </trkpt>
      <trkpt lat="43.70491" lon="3.84186">
        <ele>89.200012207031</ele>
        <time>2016-10-09T09:25:25Z</time>
      </trkpt>
      <trkpt lat="43.70494" lon="3.84215">
        <ele>89</ele>
        <time>2016-10-09T09:25:28Z</time>
      </trkpt>
      <trkpt lat="43.70489" lon="3.84259">
        <ele>88.599975585938</ele>
        <time>2016-10-09T09:25:33Z</time>
      </trkpt>
      <trkpt lat="43.70485" lon="3.84271">
        <ele>88.400024414062</ele>
        <time>2016-10-09T09:25:36Z</time>
      </trkpt>
      <trkpt lat="43.70477" lon="3.84287">
        <ele>88.400024414062</ele>
        <time>2016-10-09T09:25:42Z</time>
      </trkpt>
      <trkpt lat="43.70477" lon="3.84287">
        <ele>88.400024414062</ele>
        <time>2016-10-09T09:25:43Z</time>
      </trkpt>
      <trkpt lat="43.70472" lon="3.84283">
        <ele>88.599975585938</ele>
        <time>2016-10-09T09:25:46Z</time>
      </trkpt>
      <trkpt lat="43.70461" lon="3.84274">
        <ele>89.599975585938</ele>
        <time>2016-10-09T09:25:54Z</time>
      </trkpt>
      <trkpt lat="43.7046" lon="3.84274">
        <ele>89.799987792969</ele>
        <time>2016-10-09T09:25:55Z</time>
      </trkpt>
      <trkpt lat="43.70453" lon="3.8427">
        <ele>90.799987792969</ele>
        <time>2016-10-09T09:26:02Z</time>
      </trkpt>
      <trkpt lat="43.7045" lon="3.8427">
        <ele>91.400024414062</ele>
        <time>2016-10-09T09:26:04Z</time>
      </trkpt>
      <trkpt lat="43.70446" lon="3.84268">
        <ele>92</ele>
        <time>2016-10-09T09:26:06Z</time>
      </trkpt>
      <trkpt lat="43.7044" lon="3.84264">
        <ele>93.200012207031</ele>
        <time>2016-10-09T09:26:10Z</time>
      </trkpt>
      <trkpt lat="43.70438" lon="3.84264">
        <ele>93.400024414062</ele>
        <time>2016-10-09T09:26:11Z</time>
      </trkpt>
      <trkpt lat="43.7043" lon="3.84257">
        <ele>94.200012207031</ele>
        <time>2016-10-09T09:26:17Z</time>
      </trkpt>
      <trkpt lat="43.70429" lon="3.84256">
        <ele>94.400024414062</ele>
        <time>2016-10-09T09:26:18Z</time>
      </trkpt>
      <trkpt lat="43.70422" lon="3.8425">
        <ele>95.400024414062</ele>
        <time>2016-10-09T09:26:24Z</time>
      </trkpt>
      <trkpt lat="43.70421" lon="3.84249">
        <ele>95.599975585938</ele>
        <time>2016-10-09T09:26:25Z</time>
      </trkpt>
      <trkpt lat="43.70416" lon="3.84246">
        <ele>96.599975585938</ele>
        <time>2016-10-09T09:26:29Z</time>
      </trkpt>
      <trkpt lat="43.70411" lon="3.84244">
        <ele>97.400024414062</ele>
        <time>2016-10-09T09:26:33Z</time>
      </trkpt>
      <trkpt lat="43.70409" lon="3.84243">
        <ele>97.799987792969</ele>
        <time>2016-10-09T09:26:35Z</time>
      </trkpt>
      <trkpt lat="43.70404" lon="3.84241">
        <ele>99</ele>
        <time>2016-10-09T09:26:39Z</time>
      </trkpt>
      <trkpt lat="43.70401" lon="3.84239">
        <ele>100</ele>
        <time>2016-10-09T09:26:42Z</time>
      </trkpt>
      <trkpt lat="43.704" lon="3.84238">
        <ele>100.20001220703</ele>
        <time>2016-10-09T09:26:43Z</time>
      </trkpt>
      <trkpt lat="43.70391" lon="3.84232">
        <ele>101.20001220703</ele>
        <time>2016-10-09T09:26:51Z</time>
      </trkpt>
      <trkpt lat="43.70389" lon="3.8423">
        <ele>101.40002441406</ele>
        <time>2016-10-09T09:26:53Z</time>
      </trkpt>
      <trkpt lat="43.70383" lon="3.84227">
        <ele>102.40002441406</ele>
        <time>2016-10-09T09:26:58Z</time>
      </trkpt>
      <trkpt lat="43.70377" lon="3.84223">
        <ele>103.40002441406</ele>
        <time>2016-10-09T09:27:03Z</time>
      </trkpt>
      <trkpt lat="43.70377" lon="3.84223">
        <ele>103.59997558594</ele>
        <time>2016-10-09T09:27:04Z</time>
      </trkpt>
      <trkpt lat="43.70365" lon="3.84213">
        <ele>104.59997558594</ele>
        <time>2016-10-09T09:27:13Z</time>
      </trkpt>
      <trkpt lat="43.7036" lon="3.8421">
        <ele>105.40002441406</ele>
        <time>2016-10-09T09:27:17Z</time>
      </trkpt>
      <trkpt lat="43.7035" lon="3.84205">
        <ele>105.40002441406</ele>
        <time>2016-10-09T09:27:26Z</time>
      </trkpt>
      <trkpt lat="43.70338" lon="3.842">
        <ele>105.20001220703</ele>
        <time>2016-10-09T09:27:35Z</time>
      </trkpt>
      <trkpt lat="43.70334" lon="3.84198">
        <ele>105.79998779297</ele>
        <time>2016-10-09T09:27:38Z</time>
      </trkpt>
      <trkpt lat="43.70327" lon="3.84193">
        <ele>106.59997558594</ele>
        <time>2016-10-09T09:27:44Z</time>
      </trkpt>
      <trkpt lat="43.70325" lon="3.84192">
        <ele>107</ele>
        <time>2016-10-09T09:27:45Z</time>
      </trkpt>
      <trkpt lat="43.70318" lon="3.84189">
        <ele>108</ele>
        <time>2016-10-09T09:27:50Z</time>
      </trkpt>
      <trkpt lat="43.70314" lon="3.84186">
        <ele>109.20001220703</ele>
        <time>2016-10-09T09:27:53Z</time>
      </trkpt>
      <trkpt lat="43.70307" lon="3.84182">
        <ele>110.20001220703</ele>
        <time>2016-10-09T09:27:58Z</time>
      </trkpt>
      <trkpt lat="43.70302" lon="3.84181">
        <ele>111</ele>
        <time>2016-10-09T09:28:02Z</time>
      </trkpt>
      <trkpt lat="43.70299" lon="3.8418">
        <ele>111.40002441406</ele>
        <time>2016-10-09T09:28:04Z</time>
      </trkpt>
      <trkpt lat="43.70291" lon="3.84176">
        <ele>112.40002441406</ele>
        <time>2016-10-09T09:28:10Z</time>
      </trkpt>
      <trkpt lat="43.7029" lon="3.84175">
        <ele>112.59997558594</ele>
        <time>2016-10-09T09:28:11Z</time>
      </trkpt>
      <trkpt lat="43.70285" lon="3.84172">
        <ele>113.59997558594</ele>
        <time>2016-10-09T09:28:15Z</time>
      </trkpt>
      <trkpt lat="43.70278" lon="3.84166">
        <ele>114.79998779297</ele>
        <time>2016-10-09T09:28:21Z</time>
      </trkpt>
      <trkpt lat="43.70271" lon="3.84155">
        <ele>115.79998779297</ele>
        <time>2016-10-09T09:28:28Z</time>
      </trkpt>
      <trkpt lat="43.70266" lon="3.84147">
        <ele>117.20001220703</ele>
        <time>2016-10-09T09:28:34Z</time>
      </trkpt>
      <trkpt lat="43.70266" lon="3.84146">
        <ele>117.79998779297</ele>
        <time>2016-10-09T09:28:35Z</time>
      </trkpt>
      <trkpt lat="43.70266" lon="3.84143">
        <ele>118.20001220703</ele>
        <time>2016-10-09T09:28:36Z</time>
      </trkpt>
      <trkpt lat="43.70262" lon="3.84142">
        <ele>119.79998779297</ele>
        <time>2016-10-09T09:28:39Z</time>
      </trkpt>
      <trkpt lat="43.70261" lon="3.84143">
        <ele>120</ele>
        <time>2016-10-09T09:28:40Z</time>
      </trkpt>
      <trkpt lat="43.7026" lon="3.84145">
        <ele>121.20001220703</ele>
        <time>2016-10-09T09:28:42Z</time>
      </trkpt>
      <trkpt lat="43.70259" lon="3.84149">
        <ele>122.59997558594</ele>
        <time>2016-10-09T09:28:44Z</time>
      </trkpt>
      <trkpt lat="43.7026" lon="3.84155">
        <ele>123.59997558594</ele>
        <time>2016-10-09T09:28:46Z</time>
      </trkpt>
      <trkpt lat="43.7026" lon="3.84157">
        <ele>123.79998779297</ele>
        <time>2016-10-09T09:28:47Z</time>
      </trkpt>
      <trkpt lat="43.70262" lon="3.84166">
        <ele>125.20001220703</ele>
        <time>2016-10-09T09:28:51Z</time>
      </trkpt>
      <trkpt lat="43.70263" lon="3.84171">
        <ele>126.40002441406</ele>
        <time>2016-10-09T09:28:53Z</time>
      </trkpt>
      <trkpt lat="43.70263" lon="3.84175">
        <ele>127.20001220703</ele>
        <time>2016-10-09T09:28:55Z</time>
      </trkpt>
      <trkpt lat="43.70263" lon="3.84177">
        <ele>127.40002441406</ele>
        <time>2016-10-09T09:28:56Z</time>
      </trkpt>
      <trkpt lat="43.70263" lon="3.84184">
        <ele>128.59997558594</ele>
        <time>2016-10-09T09:29:00Z</time>
      </trkpt>
      <trkpt lat="43.70263" lon="3.84191">
        <ele>129.59997558594</ele>
        <time>2016-10-09T09:29:04Z</time>
      </trkpt>
      <trkpt lat="43.70263" lon="3.84198">
        <ele>131</ele>
        <time>2016-10-09T09:29:08Z</time>
      </trkpt>
      <trkpt lat="43.70262" lon="3.84205">
        <ele>131.59997558594</ele>
        <time>2016-10-09T09:29:12Z</time>
      </trkpt>
      <trkpt lat="43.70262" lon="3.84207">
        <ele>132</ele>
        <time>2016-10-09T09:29:13Z</time>
      </trkpt>
      <trkpt lat="43.70261" lon="3.84214">
        <ele>133.20001220703</ele>
        <time>2016-10-09T09:29:17Z</time>
      </trkpt>
      <trkpt lat="43.70261" lon="3.84218">
        <ele>133.79998779297</ele>
        <time>2016-10-09T09:29:19Z</time>
      </trkpt>
      <trkpt lat="43.70258" lon="3.84238">
        <ele>134</ele>
        <time>2016-10-09T09:29:28Z</time>
      </trkpt>
      <trkpt lat="43.70257" lon="3.8424">
        <ele>134.20001220703</ele>
        <time>2016-10-09T09:29:29Z</time>
      </trkpt>
      <trkpt lat="43.70255" lon="3.84252">
        <ele>134.79998779297</ele>
        <time>2016-10-09T09:29:35Z</time>
      </trkpt>
      <trkpt lat="43.7025" lon="3.84259">
        <ele>135.20001220703</ele>
        <time>2016-10-09T09:29:40Z</time>
      </trkpt>
      <trkpt lat="43.70245" lon="3.84261">
        <ele>136.79998779297</ele>
        <time>2016-10-09T09:29:44Z</time>
      </trkpt>
      <trkpt lat="43.70242" lon="3.84264">
        <ele>137.20001220703</ele>
        <time>2016-10-09T09:29:46Z</time>
      </trkpt>
      <trkpt lat="43.70239" lon="3.84267">
        <ele>137.79998779297</ele>
        <time>2016-10-09T09:29:49Z</time>
      </trkpt>
      <trkpt lat="43.70235" lon="3.84271">
        <ele>138.20001220703</ele>
        <time>2016-10-09T09:29:53Z</time>
      </trkpt>
      <trkpt lat="43.70228" lon="3.84279">
        <ele>138.79998779297</ele>
        <time>2016-10-09T09:30:00Z</time>
      </trkpt>
      <trkpt lat="43.70227" lon="3.84282">
        <ele>138.59997558594</ele>
        <time>2016-10-09T09:30:01Z</time>
      </trkpt>
      <trkpt lat="43.70222" lon="3.84302">
        <ele>138.20001220703</ele>
        <time>2016-10-09T09:30:06Z</time>
      </trkpt>
      <trkpt lat="43.70218" lon="3.84332">
        <ele>138</ele>
        <time>2016-10-09T09:30:10Z</time>
      </trkpt>
      <trkpt lat="43.70218" lon="3.84354">
        <ele>138.40002441406</ele>
        <time>2016-10-09T09:30:14Z</time>
      </trkpt>
      <trkpt lat="43.70213" lon="3.84369">
        <ele>138.79998779297</ele>
        <time>2016-10-09T09:30:20Z</time>
      </trkpt>
      <trkpt lat="43.70213" lon="3.84375">
        <ele>139</ele>
        <time>2016-10-09T09:30:22Z</time>
      </trkpt>
      <trkpt lat="43.70212" lon="3.84386">
        <ele>139.79998779297</ele>
        <time>2016-10-09T09:30:26Z</time>
      </trkpt>
      <trkpt lat="43.70212" lon="3.84396">
        <ele>140</ele>
        <time>2016-10-09T09:30:30Z</time>
      </trkpt>
      <trkpt lat="43.7021" lon="3.84412">
        <ele>140.79998779297</ele>
        <time>2016-10-09T09:30:36Z</time>
      </trkpt>
      <trkpt lat="43.70212" lon="3.84428">
        <ele>141</ele>
        <time>2016-10-09T09:30:42Z</time>
      </trkpt>
      <trkpt lat="43.70214" lon="3.84429">
        <ele>141</ele>
        <time>2016-10-09T09:30:43Z</time>
      </trkpt>
      <trkpt lat="43.70216" lon="3.8443">
        <ele>141.20001220703</ele>
        <time>2016-10-09T09:30:44Z</time>
      </trkpt>
      <trkpt lat="43.70221" lon="3.84432">
        <ele>141.40002441406</ele>
        <time>2016-10-09T09:30:47Z</time>
      </trkpt>
      <trkpt lat="43.70226" lon="3.84434">
        <ele>141.59997558594</ele>
        <time>2016-10-09T09:30:50Z</time>
      </trkpt>
      <trkpt lat="43.70235" lon="3.84437">
        <ele>142</ele>
        <time>2016-10-09T09:30:56Z</time>
      </trkpt>
      <trkpt lat="43.70237" lon="3.84437">
        <ele>142.20001220703</ele>
        <time>2016-10-09T09:30:57Z</time>
      </trkpt>
      <trkpt lat="43.70245" lon="3.84438">
        <ele>143</ele>
        <time>2016-10-09T09:31:02Z</time>
      </trkpt>
      <trkpt lat="43.70249" lon="3.8444">
        <ele>143.20001220703</ele>
        <time>2016-10-09T09:31:05Z</time>
      </trkpt>
      <trkpt lat="43.70255" lon="3.84444">
        <ele>143.79998779297</ele>
        <time>2016-10-09T09:31:09Z</time>
      </trkpt>
      <trkpt lat="43.70261" lon="3.84448">
        <ele>144.40002441406</ele>
        <time>2016-10-09T09:31:13Z</time>
      </trkpt>
      <trkpt lat="43.70266" lon="3.84452">
        <ele>144.79998779297</ele>
        <time>2016-10-09T09:31:17Z</time>
      </trkpt>
      <trkpt lat="43.70277" lon="3.84464">
        <ele>145</ele>
        <time>2016-10-09T09:31:25Z</time>
      </trkpt>
      <trkpt lat="43.70278" lon="3.84464">
        <ele>145</ele>
        <time>2016-10-09T09:31:26Z</time>
      </trkpt>
      <trkpt lat="43.70283" lon="3.84467">
        <ele>145.20001220703</ele>
        <time>2016-10-09T09:31:30Z</time>
      </trkpt>
      <trkpt lat="43.70283" lon="3.8447">
        <ele>144.59997558594</ele>
        <time>2016-10-09T09:32:32Z</time>
      </trkpt>
      <trkpt lat="43.70284" lon="3.84476">
        <ele>144.40002441406</ele>
        <time>2016-10-09T09:32:34Z</time>
      </trkpt>
      <trkpt lat="43.70286" lon="3.84499">
        <ele>143.20001220703</ele>
        <time>2016-10-09T09:32:39Z</time>
      </trkpt>
      <trkpt lat="43.70284" lon="3.84532">
        <ele>142.20001220703</ele>
        <time>2016-10-09T09:32:44Z</time>
      </trkpt>
      <trkpt lat="43.70283" lon="3.84545">
        <ele>141.79998779297</ele>
        <time>2016-10-09T09:32:46Z</time>
      </trkpt>
      <trkpt lat="43.70282" lon="3.84564">
        <ele>141.79998779297</ele>
        <time>2016-10-09T09:32:49Z</time>
      </trkpt>
      <trkpt lat="43.70276" lon="3.84589">
        <ele>141.20001220703</ele>
        <time>2016-10-09T09:32:53Z</time>
      </trkpt>
      <trkpt lat="43.70274" lon="3.84595">
        <ele>141</ele>
        <time>2016-10-09T09:32:54Z</time>
      </trkpt>
      <trkpt lat="43.70268" lon="3.84609">
        <ele>140.59997558594</ele>
        <time>2016-10-09T09:32:56Z</time>
      </trkpt>
      <trkpt lat="43.7026" lon="3.84619">
        <ele>140.20001220703</ele>
        <time>2016-10-09T09:32:58Z</time>
      </trkpt>
      <trkpt lat="43.7025" lon="3.84629">
        <ele>140</ele>
        <time>2016-10-09T09:33:00Z</time>
      </trkpt>
      <trkpt lat="43.70246" lon="3.84635">
        <ele>139.79998779297</ele>
        <time>2016-10-09T09:33:01Z</time>
      </trkpt>
      <trkpt lat="43.70239" lon="3.84648">
        <ele>139.40002441406</ele>
        <time>2016-10-09T09:33:03Z</time>
      </trkpt>
      <trkpt lat="43.70237" lon="3.84655">
        <ele>139.40002441406</ele>
        <time>2016-10-09T09:33:04Z</time>
      </trkpt>
      <trkpt lat="43.70228" lon="3.84673">
        <ele>138.79998779297</ele>
        <time>2016-10-09T09:33:07Z</time>
      </trkpt>
      <trkpt lat="43.70224" lon="3.84678">
        <ele>138.79998779297</ele>
        <time>2016-10-09T09:33:08Z</time>
      </trkpt>
      <trkpt lat="43.70219" lon="3.84683">
        <ele>138.59997558594</ele>
        <time>2016-10-09T09:33:09Z</time>
      </trkpt>
      <trkpt lat="43.70191" lon="3.84712">
        <ele>138.20001220703</ele>
        <time>2016-10-09T09:33:16Z</time>
      </trkpt>
      <trkpt lat="43.70173" lon="3.8473">
        <ele>137.79998779297</ele>
        <time>2016-10-09T09:33:21Z</time>
      </trkpt>
      <trkpt lat="43.70169" lon="3.84734">
        <ele>137.59997558594</ele>
        <time>2016-10-09T09:33:22Z</time>
      </trkpt>
      <trkpt lat="43.70166" lon="3.84739">
        <ele>137.59997558594</ele>
        <time>2016-10-09T09:33:23Z</time>
      </trkpt>
      <trkpt lat="43.70152" lon="3.84765">
        <ele>136.40002441406</ele>
        <time>2016-10-09T09:33:27Z</time>
      </trkpt>
      <trkpt lat="43.70149" lon="3.84773">
        <ele>136.20001220703</ele>
        <time>2016-10-09T09:33:28Z</time>
      </trkpt>
      <trkpt lat="43.70143" lon="3.84797">
        <ele>135.40002441406</ele>
        <time>2016-10-09T09:33:31Z</time>
      </trkpt>
      <trkpt lat="43.70142" lon="3.84805">
        <ele>135</ele>
        <time>2016-10-09T09:33:32Z</time>
      </trkpt>
      <trkpt lat="43.70138" lon="3.84828">
        <ele>134.20001220703</ele>
        <time>2016-10-09T09:33:35Z</time>
      </trkpt>
      <trkpt lat="43.70135" lon="3.84851">
        <ele>133</ele>
        <time>2016-10-09T09:33:38Z</time>
      </trkpt>
      <trkpt lat="43.70135" lon="3.84859">
        <ele>132.59997558594</ele>
        <time>2016-10-09T09:33:39Z</time>
      </trkpt>
      <trkpt lat="43.70138" lon="3.84875">
        <ele>131.79998779297</ele>
        <time>2016-10-09T09:33:41Z</time>
      </trkpt>
      <trkpt lat="43.70141" lon="3.84883">
        <ele>131.40002441406</ele>
        <time>2016-10-09T09:33:42Z</time>
      </trkpt>
      <trkpt lat="43.7015" lon="3.84899">
        <ele>130.40002441406</ele>
        <time>2016-10-09T09:33:44Z</time>
      </trkpt>
      <trkpt lat="43.70155" lon="3.84907">
        <ele>129.79998779297</ele>
        <time>2016-10-09T09:33:45Z</time>
      </trkpt>
      <trkpt lat="43.70159" lon="3.84915">
        <ele>129.20001220703</ele>
        <time>2016-10-09T09:33:46Z</time>
      </trkpt>
      <trkpt lat="43.70165" lon="3.84921">
        <ele>128.59997558594</ele>
        <time>2016-10-09T09:33:47Z</time>
      </trkpt>
      <trkpt lat="43.70171" lon="3.84928">
        <ele>127.79998779297</ele>
        <time>2016-10-09T09:33:48Z</time>
      </trkpt>
      <trkpt lat="43.70175" lon="3.84935">
        <ele>127.20001220703</ele>
        <time>2016-10-09T09:33:49Z</time>
      </trkpt>
      <trkpt lat="43.70178" lon="3.84943">
        <ele>126.40002441406</ele>
        <time>2016-10-09T09:33:50Z</time>
      </trkpt>
      <trkpt lat="43.7018" lon="3.84952">
        <ele>125.79998779297</ele>
        <time>2016-10-09T09:33:51Z</time>
      </trkpt>
      <trkpt lat="43.70181" lon="3.84963">
        <ele>125.20001220703</ele>
        <time>2016-10-09T09:33:52Z</time>
      </trkpt>
      <trkpt lat="43.70181" lon="3.84973">
        <ele>124.40002441406</ele>
        <time>2016-10-09T09:33:53Z</time>
      </trkpt>
      <trkpt lat="43.70184" lon="3.84983">
        <ele>123.79998779297</ele>
        <time>2016-10-09T09:33:54Z</time>
      </trkpt>
      <trkpt lat="43.70186" lon="3.84994">
        <ele>123</ele>
        <time>2016-10-09T09:33:55Z</time>
      </trkpt>
      <trkpt lat="43.70188" lon="3.85003">
        <ele>122.40002441406</ele>
        <time>2016-10-09T09:33:56Z</time>
      </trkpt>
      <trkpt lat="43.70188" lon="3.85011">
        <ele>121.59997558594</ele>
        <time>2016-10-09T09:33:57Z</time>
      </trkpt>
      <trkpt lat="43.70188" lon="3.85016">
        <ele>121</ele>
        <time>2016-10-09T09:33:58Z</time>
      </trkpt>
      <trkpt lat="43.70181" lon="3.85024">
        <ele>119.59997558594</ele>
        <time>2016-10-09T09:34:00Z</time>
      </trkpt>
      <trkpt lat="43.70177" lon="3.85027">
        <ele>118.79998779297</ele>
        <time>2016-10-09T09:34:01Z</time>
      </trkpt>
      <trkpt lat="43.70172" lon="3.85031">
        <ele>118</ele>
        <time>2016-10-09T09:34:02Z</time>
      </trkpt>
      <trkpt lat="43.70162" lon="3.85039">
        <ele>116.59997558594</ele>
        <time>2016-10-09T09:34:04Z</time>
      </trkpt>
      <trkpt lat="43.70152" lon="3.85051">
        <ele>115.40002441406</ele>
        <time>2016-10-09T09:34:06Z</time>
      </trkpt>
      <trkpt lat="43.70148" lon="3.85059">
        <ele>114.79998779297</ele>
        <time>2016-10-09T09:34:07Z</time>
      </trkpt>
      <trkpt lat="43.70144" lon="3.85067">
        <ele>114.20001220703</ele>
        <time>2016-10-09T09:34:08Z</time>
      </trkpt>
      <trkpt lat="43.70139" lon="3.85084">
        <ele>113</ele>
        <time>2016-10-09T09:34:10Z</time>
      </trkpt>
      <trkpt lat="43.70135" lon="3.85104">
        <ele>111.79998779297</ele>
        <time>2016-10-09T09:34:12Z</time>
      </trkpt>
      <trkpt lat="43.70132" lon="3.85113">
        <ele>111</ele>
        <time>2016-10-09T09:34:13Z</time>
      </trkpt>
      <trkpt lat="43.70127" lon="3.85122">
        <ele>110.40002441406</ele>
        <time>2016-10-09T09:34:14Z</time>
      </trkpt>
      <trkpt lat="43.70116" lon="3.85138">
        <ele>109</ele>
        <time>2016-10-09T09:34:16Z</time>
      </trkpt>
      <trkpt lat="43.70111" lon="3.85147">
        <ele>108.20001220703</ele>
        <time>2016-10-09T09:34:17Z</time>
      </trkpt>
      <trkpt lat="43.70106" lon="3.85155">
        <ele>107.40002441406</ele>
        <time>2016-10-09T09:34:18Z</time>
      </trkpt>
      <trkpt lat="43.70094" lon="3.85172">
        <ele>106</ele>
        <time>2016-10-09T09:34:20Z</time>
      </trkpt>
      <trkpt lat="43.70087" lon="3.85179">
        <ele>105.40002441406</ele>
        <time>2016-10-09T09:34:21Z</time>
      </trkpt>
      <trkpt lat="43.7008" lon="3.85185">
        <ele>104.79998779297</ele>
        <time>2016-10-09T09:34:22Z</time>
      </trkpt>
      <trkpt lat="43.70072" lon="3.85191">
        <ele>104.20001220703</ele>
        <time>2016-10-09T09:34:23Z</time>
      </trkpt>
      <trkpt lat="43.70065" lon="3.85198">
        <ele>103.59997558594</ele>
        <time>2016-10-09T09:34:24Z</time>
      </trkpt>
      <trkpt lat="43.70057" lon="3.85203">
        <ele>103</ele>
        <time>2016-10-09T09:34:25Z</time>
      </trkpt>
      <trkpt lat="43.70049" lon="3.85208">
        <ele>102.40002441406</ele>
        <time>2016-10-09T09:34:26Z</time>
      </trkpt>
      <trkpt lat="43.70031" lon="3.85216">
        <ele>101.20001220703</ele>
        <time>2016-10-09T09:34:28Z</time>
      </trkpt>
      <trkpt lat="43.70013" lon="3.85227">
        <ele>99.799987792969</ele>
        <time>2016-10-09T09:34:30Z</time>
      </trkpt>
      <trkpt lat="43.69997" lon="3.8524">
        <ele>98.799987792969</ele>
        <time>2016-10-09T09:34:32Z</time>
      </trkpt>
      <trkpt lat="43.69989" lon="3.85244">
        <ele>98.400024414062</ele>
        <time>2016-10-09T09:34:33Z</time>
      </trkpt>
      <trkpt lat="43.69974" lon="3.8525">
        <ele>97.599975585938</ele>
        <time>2016-10-09T09:34:35Z</time>
      </trkpt>
      <trkpt lat="43.69967" lon="3.85252">
        <ele>97.200012207031</ele>
        <time>2016-10-09T09:34:36Z</time>
      </trkpt>
      <trkpt lat="43.6996" lon="3.85254">
        <ele>96.799987792969</ele>
        <time>2016-10-09T09:34:37Z</time>
      </trkpt>
      <trkpt lat="43.69952" lon="3.85255">
        <ele>96.400024414062</ele>
        <time>2016-10-09T09:34:38Z</time>
      </trkpt>
      <trkpt lat="43.69932" lon="3.85262">
        <ele>95.400024414062</ele>
        <time>2016-10-09T09:34:41Z</time>
      </trkpt>
      <trkpt lat="43.69927" lon="3.85268">
        <ele>95</ele>
        <time>2016-10-09T09:34:42Z</time>
      </trkpt>
      <trkpt lat="43.69918" lon="3.8528">
        <ele>94.400024414062</ele>
        <time>2016-10-09T09:34:44Z</time>
      </trkpt>
      <trkpt lat="43.6991" lon="3.85287">
        <ele>93.799987792969</ele>
        <time>2016-10-09T09:34:46Z</time>
      </trkpt>
      <trkpt lat="43.69885" lon="3.85287">
        <ele>93.200012207031</ele>
        <time>2016-10-09T09:34:50Z</time>
      </trkpt>
      <trkpt lat="43.69875" lon="3.85289">
        <ele>92.799987792969</ele>
        <time>2016-10-09T09:34:53Z</time>
      </trkpt>
      <trkpt lat="43.69876" lon="3.85289">
        <ele>92.599975585938</ele>
        <time>2016-10-09T09:34:57Z</time>
      </trkpt>
      <trkpt lat="43.69877" lon="3.85292">
        <ele>92.400024414062</ele>
        <time>2016-10-09T09:34:58Z</time>
      </trkpt>
      <trkpt lat="43.6988" lon="3.85294">
        <ele>92.200012207031</ele>
        <time>2016-10-09T09:34:59Z</time>
      </trkpt>
      <trkpt lat="43.69889" lon="3.85303">
        <ele>91.799987792969</ele>
        <time>2016-10-09T09:35:02Z</time>
      </trkpt>
      <trkpt lat="43.69916" lon="3.85324">
        <ele>91.200012207031</ele>
        <time>2016-10-09T09:35:07Z</time>
      </trkpt>
      <trkpt lat="43.69922" lon="3.85328">
        <ele>90.799987792969</ele>
        <time>2016-10-09T09:35:08Z</time>
      </trkpt>
      <trkpt lat="43.69943" lon="3.85341">
        <ele>90</ele>
        <time>2016-10-09T09:35:11Z</time>
      </trkpt>
      <trkpt lat="43.69951" lon="3.85343">
        <ele>89.799987792969</ele>
        <time>2016-10-09T09:35:12Z</time>
      </trkpt>
      <trkpt lat="43.69959" lon="3.85344">
        <ele>89.400024414062</ele>
        <time>2016-10-09T09:35:13Z</time>
      </trkpt>
      <trkpt lat="43.69974" lon="3.85344">
        <ele>88.400024414062</ele>
        <time>2016-10-09T09:35:15Z</time>
      </trkpt>
      <trkpt lat="43.69981" lon="3.85343">
        <ele>87.799987792969</ele>
        <time>2016-10-09T09:35:16Z</time>
      </trkpt>
      <trkpt lat="43.69987" lon="3.85343">
        <ele>87.200012207031</ele>
        <time>2016-10-09T09:35:17Z</time>
      </trkpt>
      <trkpt lat="43.70001" lon="3.85343">
        <ele>85.799987792969</ele>
        <time>2016-10-09T09:35:19Z</time>
      </trkpt>
      <trkpt lat="43.70014" lon="3.8534">
        <ele>84.599975585938</ele>
        <time>2016-10-09T09:35:21Z</time>
      </trkpt>
      <trkpt lat="43.7002" lon="3.85337">
        <ele>84</ele>
        <time>2016-10-09T09:35:22Z</time>
      </trkpt>
      <trkpt lat="43.70032" lon="3.85334">
        <ele>83.400024414062</ele>
        <time>2016-10-09T09:35:24Z</time>
      </trkpt>
      <trkpt lat="43.70038" lon="3.85333">
        <ele>83</ele>
        <time>2016-10-09T09:35:25Z</time>
      </trkpt>
      <trkpt lat="43.70057" lon="3.85336">
        <ele>82</ele>
        <time>2016-10-09T09:35:28Z</time>
      </trkpt>
      <trkpt lat="43.70064" lon="3.85337">
        <ele>81.599975585938</ele>
        <time>2016-10-09T09:35:29Z</time>
      </trkpt>
      <trkpt lat="43.70077" lon="3.8534">
        <ele>80.400024414062</ele>
        <time>2016-10-09T09:35:31Z</time>
      </trkpt>
      <trkpt lat="43.7009" lon="3.85343">
        <ele>79.400024414062</ele>
        <time>2016-10-09T09:35:33Z</time>
      </trkpt>
      <trkpt lat="43.70096" lon="3.85347">
        <ele>79</ele>
        <time>2016-10-09T09:35:34Z</time>
      </trkpt>
      <trkpt lat="43.70105" lon="3.85351">
        <ele>78.200012207031</ele>
        <time>2016-10-09T09:35:36Z</time>
      </trkpt>
      <trkpt lat="43.70113" lon="3.85352">
        <ele>77.599975585938</ele>
        <time>2016-10-09T09:35:38Z</time>
      </trkpt>
      <trkpt lat="43.70119" lon="3.85352">
        <ele>77</ele>
        <time>2016-10-09T09:35:40Z</time>
      </trkpt>
      <trkpt lat="43.70126" lon="3.85353">
        <ele>76.200012207031</ele>
        <time>2016-10-09T09:35:43Z</time>
      </trkpt>
      <trkpt lat="43.7013" lon="3.85355">
        <ele>75.799987792969</ele>
        <time>2016-10-09T09:35:45Z</time>
      </trkpt>
      <trkpt lat="43.70137" lon="3.85356">
        <ele>75.599975585938</ele>
        <time>2016-10-09T09:35:49Z</time>
      </trkpt>
      <trkpt lat="43.70149" lon="3.85359">
        <ele>75</ele>
        <time>2016-10-09T09:35:55Z</time>
      </trkpt>
      <trkpt lat="43.70162" lon="3.85368">
        <ele>76</ele>
        <time>2016-10-09T09:36:01Z</time>
      </trkpt>
      <trkpt lat="43.70164" lon="3.85382">
        <ele>76.200012207031</ele>
        <time>2016-10-09T09:36:05Z</time>
      </trkpt>
      <trkpt lat="43.70173" lon="3.85404">
        <ele>75.400024414062</ele>
        <time>2016-10-09T09:36:09Z</time>
      </trkpt>
      <trkpt lat="43.70176" lon="3.85409">
        <ele>75</ele>
        <time>2016-10-09T09:36:10Z</time>
      </trkpt>
      <trkpt lat="43.70183" lon="3.8542">
        <ele>74.599975585938</ele>
        <time>2016-10-09T09:36:12Z</time>
      </trkpt>
      <trkpt lat="43.70188" lon="3.85433">
        <ele>73.799987792969</ele>
        <time>2016-10-09T09:36:14Z</time>
      </trkpt>
      <trkpt lat="43.70189" lon="3.85441">
        <ele>73.400024414062</ele>
        <time>2016-10-09T09:36:15Z</time>
      </trkpt>
      <trkpt lat="43.70187" lon="3.85464">
        <ele>72.200012207031</ele>
        <time>2016-10-09T09:36:18Z</time>
      </trkpt>
      <trkpt lat="43.70183" lon="3.85478">
        <ele>71.599975585938</ele>
        <time>2016-10-09T09:36:20Z</time>
      </trkpt>
      <trkpt lat="43.70181" lon="3.85493">
        <ele>71</ele>
        <time>2016-10-09T09:36:22Z</time>
      </trkpt>
      <trkpt lat="43.70178" lon="3.85508">
        <ele>70.599975585938</ele>
        <time>2016-10-09T09:36:24Z</time>
      </trkpt>
      <trkpt lat="43.70175" lon="3.85522">
        <ele>69.799987792969</ele>
        <time>2016-10-09T09:36:26Z</time>
      </trkpt>
      <trkpt lat="43.70172" lon="3.85539">
        <ele>68.599975585938</ele>
        <time>2016-10-09T09:36:29Z</time>
      </trkpt>
      <trkpt lat="43.70171" lon="3.85544">
        <ele>68.400024414062</ele>
        <time>2016-10-09T09:36:30Z</time>
      </trkpt>
      <trkpt lat="43.70165" lon="3.85571">
        <ele>67.599975585938</ele>
        <time>2016-10-09T09:36:36Z</time>
      </trkpt>
      <trkpt lat="43.70164" lon="3.85575">
        <ele>67.599975585938</ele>
        <time>2016-10-09T09:36:37Z</time>
      </trkpt>
      <trkpt lat="43.70163" lon="3.85586">
        <ele>67.200012207031</ele>
        <time>2016-10-09T09:36:42Z</time>
      </trkpt>
      <trkpt lat="43.70163" lon="3.85607">
        <ele>66.799987792969</ele>
        <time>2016-10-09T09:36:50Z</time>
      </trkpt>
      <trkpt lat="43.70162" lon="3.85621">
        <ele>66.599975585938</ele>
        <time>2016-10-09T09:36:54Z</time>
      </trkpt>
      <trkpt lat="43.70159" lon="3.85626">
        <ele>66.400024414062</ele>
        <time>2016-10-09T09:36:56Z</time>
      </trkpt>
      <trkpt lat="43.70158" lon="3.85632">
        <ele>65.400024414062</ele>
        <time>2016-10-09T09:36:59Z</time>
      </trkpt>
      <trkpt lat="43.70155" lon="3.85643">
        <ele>65</ele>
        <time>2016-10-09T09:37:03Z</time>
      </trkpt>
      <trkpt lat="43.70152" lon="3.85658">
        <ele>65.200012207031</ele>
        <time>2016-10-09T09:37:09Z</time>
      </trkpt>
      <trkpt lat="43.70155" lon="3.85676">
        <ele>65.799987792969</ele>
        <time>2016-10-09T09:37:15Z</time>
      </trkpt>
      <trkpt lat="43.70153" lon="3.85693">
        <ele>66.599975585938</ele>
        <time>2016-10-09T09:37:20Z</time>
      </trkpt>
      <trkpt lat="43.70152" lon="3.85696">
        <ele>66.799987792969</ele>
        <time>2016-10-09T09:37:21Z</time>
      </trkpt>
      <trkpt lat="43.70149" lon="3.85717">
        <ele>67.200012207031</ele>
        <time>2016-10-09T09:37:30Z</time>
      </trkpt>
      <trkpt lat="43.70146" lon="3.85737">
        <ele>67.400024414062</ele>
        <time>2016-10-09T09:37:35Z</time>
      </trkpt>
      <trkpt lat="43.70138" lon="3.85761">
        <ele>66.799987792969</ele>
        <time>2016-10-09T09:37:40Z</time>
      </trkpt>
      <trkpt lat="43.7013" lon="3.85802">
        <ele>66.200012207031</ele>
        <time>2016-10-09T09:37:48Z</time>
      </trkpt>
      <trkpt lat="43.70125" lon="3.85833">
        <ele>65.400024414062</ele>
        <time>2016-10-09T09:37:54Z</time>
      </trkpt>
      <trkpt lat="43.70121" lon="3.85848">
        <ele>64.400024414062</ele>
        <time>2016-10-09T09:37:57Z</time>
      </trkpt>
      <trkpt lat="43.70115" lon="3.85845">
        <ele>64.200012207031</ele>
        <time>2016-10-09T09:38:00Z</time>
      </trkpt>
      <trkpt lat="43.70104" lon="3.85828">
        <ele>64</ele>
        <time>2016-10-09T09:38:05Z</time>
      </trkpt>
      <trkpt lat="43.70098" lon="3.85824">
        <ele>64</ele>
        <time>2016-10-09T09:38:07Z</time>
      </trkpt>
      <trkpt lat="43.70086" lon="3.8582">
        <ele>63.400024414062</ele>
        <time>2016-10-09T09:38:10Z</time>
      </trkpt>
      <trkpt lat="43.70083" lon="3.85818">
        <ele>63.200012207031</ele>
        <time>2016-10-09T09:38:11Z</time>
      </trkpt>
      <trkpt lat="43.7006" lon="3.85813">
        <ele>62.400024414062</ele>
        <time>2016-10-09T09:38:18Z</time>
      </trkpt>
      <trkpt lat="43.7005" lon="3.8581">
        <ele>62</ele>
        <time>2016-10-09T09:38:24Z</time>
      </trkpt>
      <trkpt lat="43.70037" lon="3.858">
        <ele>62.400024414062</ele>
        <time>2016-10-09T09:38:32Z</time>
      </trkpt>
      <trkpt lat="43.70027" lon="3.85779">
        <ele>62.599975585938</ele>
        <time>2016-10-09T09:38:39Z</time>
      </trkpt>
      <trkpt lat="43.70017" lon="3.85764">
        <ele>61.599975585938</ele>
        <time>2016-10-09T09:38:45Z</time>
      </trkpt>
      <trkpt lat="43.70005" lon="3.85749">
        <ele>61.400024414062</ele>
        <time>2016-10-09T09:38:51Z</time>
      </trkpt>
      <trkpt lat="43.70003" lon="3.85746">
        <ele>61.200012207031</ele>
        <time>2016-10-09T09:38:52Z</time>
      </trkpt>
      <trkpt lat="43.69995" lon="3.85732">
        <ele>60.400024414062</ele>
        <time>2016-10-09T09:38:58Z</time>
      </trkpt>
      <trkpt lat="43.69991" lon="3.85724">
        <ele>60.200012207031</ele>
        <time>2016-10-09T09:39:01Z</time>
      </trkpt>
      <trkpt lat="43.69987" lon="3.85718">
        <ele>59.599975585938</ele>
        <time>2016-10-09T09:39:05Z</time>
      </trkpt>
      <trkpt lat="43.69985" lon="3.85723">
        <ele>59.799987792969</ele>
        <time>2016-10-09T09:40:33Z</time>
      </trkpt>
      <trkpt lat="43.69982" lon="3.85728">
        <ele>60</ele>
        <time>2016-10-09T09:40:35Z</time>
      </trkpt>
      <trkpt lat="43.69977" lon="3.85752">
        <ele>60.400024414062</ele>
        <time>2016-10-09T09:40:42Z</time>
      </trkpt>
      <trkpt lat="43.69972" lon="3.85788">
        <ele>60.599975585938</ele>
        <time>2016-10-09T09:40:50Z</time>
      </trkpt>
      <trkpt lat="43.69965" lon="3.85834">
        <ele>61</ele>
        <time>2016-10-09T09:41:00Z</time>
      </trkpt>
      <trkpt lat="43.69963" lon="3.85843">
        <ele>61.200012207031</ele>
        <time>2016-10-09T09:41:02Z</time>
      </trkpt>
      <trkpt lat="43.6996" lon="3.85871">
        <ele>62</ele>
        <time>2016-10-09T09:41:08Z</time>
      </trkpt>
      <trkpt lat="43.69956" lon="3.85902">
        <ele>62</ele>
        <time>2016-10-09T09:41:15Z</time>
      </trkpt>
      <trkpt lat="43.69954" lon="3.85925">
        <ele>62</ele>
        <time>2016-10-09T09:41:21Z</time>
      </trkpt>
      <trkpt lat="43.69953" lon="3.85931">
        <ele>62.200012207031</ele>
        <time>2016-10-09T09:41:24Z</time>
      </trkpt>
      <trkpt lat="43.69949" lon="3.85932">
        <ele>62.400024414062</ele>
        <time>2016-10-09T09:41:26Z</time>
      </trkpt>
      <trkpt lat="43.69945" lon="3.85932">
        <ele>62.400024414062</ele>
        <time>2016-10-09T09:41:28Z</time>
      </trkpt>
      <trkpt lat="43.69936" lon="3.8593">
        <ele>62.599975585938</ele>
        <time>2016-10-09T09:41:32Z</time>
      </trkpt>
      <trkpt lat="43.69925" lon="3.85928">
        <ele>63.400024414062</ele>
        <time>2016-10-09T09:41:39Z</time>
      </trkpt>
      <trkpt lat="43.69917" lon="3.85927">
        <ele>63</ele>
        <time>2016-10-09T09:41:46Z</time>
      </trkpt>
      <trkpt lat="43.69912" lon="3.85927">
        <ele>62.799987792969</ele>
        <time>2016-10-09T09:41:50Z</time>
      </trkpt>
      <trkpt lat="43.69909" lon="3.85922">
        <ele>63</ele>
        <time>2016-10-09T09:41:53Z</time>
      </trkpt>
      <trkpt lat="43.69907" lon="3.85907">
        <ele>63.799987792969</ele>
        <time>2016-10-09T09:47:58Z</time>
      </trkpt>
      <trkpt lat="43.69907" lon="3.85905">
        <ele>63.799987792969</ele>
        <time>2016-10-09T09:47:59Z</time>
      </trkpt>
      <trkpt lat="43.69908" lon="3.8589">
        <ele>63.200012207031</ele>
        <time>2016-10-09T09:48:04Z</time>
      </trkpt>
      <trkpt lat="43.69909" lon="3.85865">
        <ele>62.799987792969</ele>
        <time>2016-10-09T09:48:10Z</time>
      </trkpt>
      <trkpt lat="43.69912" lon="3.85824">
        <ele>62.400024414062</ele>
        <time>2016-10-09T09:48:19Z</time>
      </trkpt>
      <trkpt lat="43.69912" lon="3.85816">
        <ele>62.200012207031</ele>
        <time>2016-10-09T09:48:21Z</time>
      </trkpt>
      <trkpt lat="43.69914" lon="3.85793">
        <ele>62.799987792969</ele>
        <time>2016-10-09T09:48:26Z</time>
      </trkpt>
      <trkpt lat="43.69921" lon="3.85757">
        <ele>62.400024414062</ele>
        <time>2016-10-09T09:48:34Z</time>
      </trkpt>
      <trkpt lat="43.69928" lon="3.85731">
        <ele>61.799987792969</ele>
        <time>2016-10-09T09:48:40Z</time>
      </trkpt>
      <trkpt lat="43.69933" lon="3.85719">
        <ele>61.200012207031</ele>
        <time>2016-10-09T09:48:44Z</time>
      </trkpt>
      <trkpt lat="43.69934" lon="3.85712">
        <ele>61</ele>
        <time>2016-10-09T09:48:46Z</time>
      </trkpt>
      <trkpt lat="43.69935" lon="3.85689">
        <ele>60.400024414062</ele>
        <time>2016-10-09T09:48:52Z</time>
      </trkpt>
      <trkpt lat="43.69937" lon="3.85664">
        <ele>60.400024414062</ele>
        <time>2016-10-09T09:48:57Z</time>
      </trkpt>
      <trkpt lat="43.69941" lon="3.85643">
        <ele>60.200012207031</ele>
        <time>2016-10-09T09:49:01Z</time>
      </trkpt>
      <trkpt lat="43.69941" lon="3.85629">
        <ele>59.799987792969</ele>
        <time>2016-10-09T09:49:04Z</time>
      </trkpt>
      <trkpt lat="43.69939" lon="3.85626">
        <ele>59.799987792969</ele>
        <time>2016-10-09T09:49:05Z</time>
      </trkpt>
      <trkpt lat="43.69926" lon="3.85623">
        <ele>59.400024414062</ele>
        <time>2016-10-09T09:49:09Z</time>
      </trkpt>
      <trkpt lat="43.69922" lon="3.85623">
        <ele>59.200012207031</ele>
        <time>2016-10-09T09:49:10Z</time>
      </trkpt>
      <trkpt lat="43.69918" lon="3.85623">
        <ele>59</ele>
        <time>2016-10-09T09:49:11Z</time>
      </trkpt>
      <trkpt lat="43.69905" lon="3.8562">
        <ele>58.200012207031</ele>
        <time>2016-10-09T09:49:14Z</time>
      </trkpt>
      <trkpt lat="43.69901" lon="3.85618">
        <ele>58</ele>
        <time>2016-10-09T09:49:15Z</time>
      </trkpt>
      <trkpt lat="43.69893" lon="3.85617">
        <ele>57.799987792969</ele>
        <time>2016-10-09T09:49:17Z</time>
      </trkpt>
      <trkpt lat="43.69881" lon="3.85621">
        <ele>57.799987792969</ele>
        <time>2016-10-09T09:49:20Z</time>
      </trkpt>
      <trkpt lat="43.69861" lon="3.85621">
        <ele>57.200012207031</ele>
        <time>2016-10-09T09:49:25Z</time>
      </trkpt>
      <trkpt lat="43.69857" lon="3.8562">
        <ele>57.200012207031</ele>
        <time>2016-10-09T09:49:26Z</time>
      </trkpt>
      <trkpt lat="43.69845" lon="3.85623">
        <ele>57.200012207031</ele>
        <time>2016-10-09T09:49:29Z</time>
      </trkpt>
      <trkpt lat="43.69834" lon="3.85621">
        <ele>57.400024414062</ele>
        <time>2016-10-09T09:49:32Z</time>
      </trkpt>
      <trkpt lat="43.69827" lon="3.85618">
        <ele>57.599975585938</ele>
        <time>2016-10-09T09:49:34Z</time>
      </trkpt>
      <trkpt lat="43.69808" lon="3.85611">
        <ele>57.400024414062</ele>
        <time>2016-10-09T09:49:39Z</time>
      </trkpt>
      <trkpt lat="43.698" lon="3.85608">
        <ele>57.799987792969</ele>
        <time>2016-10-09T09:49:41Z</time>
      </trkpt>
      <trkpt lat="43.69769" lon="3.85592">
        <ele>57.799987792969</ele>
        <time>2016-10-09T09:49:49Z</time>
      </trkpt>
      <trkpt lat="43.69751" lon="3.85581">
        <ele>58.200012207031</ele>
        <time>2016-10-09T09:49:54Z</time>
      </trkpt>
      <trkpt lat="43.69723" lon="3.85567">
        <ele>58.799987792969</ele>
        <time>2016-10-09T09:50:02Z</time>
      </trkpt>
      <trkpt lat="43.69715" lon="3.85563">
        <ele>59.200012207031</ele>
        <time>2016-10-09T09:50:04Z</time>
      </trkpt>
      <trkpt lat="43.69698" lon="3.85553">
        <ele>59.599975585938</ele>
        <time>2016-10-09T09:50:09Z</time>
      </trkpt>
      <trkpt lat="43.69688" lon="3.85536">
        <ele>59.200012207031</ele>
        <time>2016-10-09T09:50:13Z</time>
      </trkpt>
      <trkpt lat="43.69685" lon="3.85531">
        <ele>59</ele>
        <time>2016-10-09T09:50:14Z</time>
      </trkpt>
      <trkpt lat="43.6968" lon="3.85522">
        <ele>58.799987792969</ele>
        <time>2016-10-09T09:50:16Z</time>
      </trkpt>
      <trkpt lat="43.69672" lon="3.85501">
        <ele>58.200012207031</ele>
        <time>2016-10-09T09:50:20Z</time>
      </trkpt>
      <trkpt lat="43.69668" lon="3.8549">
        <ele>57.599975585938</ele>
        <time>2016-10-09T09:50:22Z</time>
      </trkpt>
      <trkpt lat="43.69663" lon="3.85481">
        <ele>57.200012207031</ele>
        <time>2016-10-09T09:50:24Z</time>
      </trkpt>
      <trkpt lat="43.6966" lon="3.85478">
        <ele>57</ele>
        <time>2016-10-09T09:50:25Z</time>
      </trkpt>
      <trkpt lat="43.69658" lon="3.85479">
        <ele>56.799987792969</ele>
        <time>2016-10-09T09:50:26Z</time>
      </trkpt>
      <trkpt lat="43.69657" lon="3.85482">
        <ele>56.799987792969</ele>
        <time>2016-10-09T09:50:27Z</time>
      </trkpt>
      <trkpt lat="43.69655" lon="3.85497">
        <ele>56.599975585938</ele>
        <time>2016-10-09T09:50:30Z</time>
      </trkpt>
      <trkpt lat="43.69653" lon="3.85503">
        <ele>56.400024414062</ele>
        <time>2016-10-09T09:50:31Z</time>
      </trkpt>
      <trkpt lat="43.69651" lon="3.8551">
        <ele>56.200012207031</ele>
        <time>2016-10-09T09:50:32Z</time>
      </trkpt>
      <trkpt lat="43.6965" lon="3.85516">
        <ele>56.200012207031</ele>
        <time>2016-10-09T09:50:33Z</time>
      </trkpt>
      <trkpt lat="43.69647" lon="3.85536">
        <ele>56.400024414062</ele>
        <time>2016-10-09T09:50:36Z</time>
      </trkpt>
      <trkpt lat="43.69646" lon="3.85549">
        <ele>56.799987792969</ele>
        <time>2016-10-09T09:50:38Z</time>
      </trkpt>
      <trkpt lat="43.69643" lon="3.85588">
        <ele>57.400024414062</ele>
        <time>2016-10-09T09:50:45Z</time>
      </trkpt>
      <trkpt lat="43.69643" lon="3.85609">
        <ele>58.400024414062</ele>
        <time>2016-10-09T09:50:50Z</time>
      </trkpt>
      <trkpt lat="43.69642" lon="3.85613">
        <ele>58.599975585938</ele>
        <time>2016-10-09T09:50:51Z</time>
      </trkpt>
      <trkpt lat="43.69636" lon="3.85617">
        <ele>58.400024414062</ele>
        <time>2016-10-09T09:50:53Z</time>
      </trkpt>
      <trkpt lat="43.69624" lon="3.85617">
        <ele>58.599975585938</ele>
        <time>2016-10-09T09:50:57Z</time>
      </trkpt>
      <trkpt lat="43.69601" lon="3.85617">
        <ele>59.200012207031</ele>
        <time>2016-10-09T09:51:03Z</time>
      </trkpt>
      <trkpt lat="43.69585" lon="3.85618">
        <ele>59.400024414062</ele>
        <time>2016-10-09T09:51:07Z</time>
      </trkpt>
      <trkpt lat="43.69573" lon="3.85619">
        <ele>59.799987792969</ele>
        <time>2016-10-09T09:51:10Z</time>
      </trkpt>
      <trkpt lat="43.69542" lon="3.85626">
        <ele>59.799987792969</ele>
        <time>2016-10-09T09:51:18Z</time>
      </trkpt>
      <trkpt lat="43.69538" lon="3.85627">
        <ele>59.799987792969</ele>
        <time>2016-10-09T09:51:19Z</time>
      </trkpt>
      <trkpt lat="43.69522" lon="3.85631">
        <ele>60.200012207031</ele>
        <time>2016-10-09T09:51:23Z</time>
      </trkpt>
      <trkpt lat="43.6949" lon="3.85638">
        <ele>59.799987792969</ele>
        <time>2016-10-09T09:51:31Z</time>
      </trkpt>
      <trkpt lat="43.69478" lon="3.8564">
        <ele>59.799987792969</ele>
        <time>2016-10-09T09:51:34Z</time>
      </trkpt>
      <trkpt lat="43.69466" lon="3.85642">
        <ele>59.799987792969</ele>
        <time>2016-10-09T09:51:37Z</time>
      </trkpt>
      <trkpt lat="43.69438" lon="3.85649">
        <ele>59.200012207031</ele>
        <time>2016-10-09T09:51:44Z</time>
      </trkpt>
      <trkpt lat="43.69405" lon="3.85658">
        <ele>58.400024414062</ele>
        <time>2016-10-09T09:51:52Z</time>
      </trkpt>
      <trkpt lat="43.69375" lon="3.85675">
        <ele>58.599975585938</ele>
        <time>2016-10-09T09:52:00Z</time>
      </trkpt>
      <trkpt lat="43.6936" lon="3.85682">
        <ele>58.599975585938</ele>
        <time>2016-10-09T09:52:05Z</time>
      </trkpt>
      <trkpt lat="43.69349" lon="3.85687">
        <ele>58.799987792969</ele>
        <time>2016-10-09T09:52:10Z</time>
      </trkpt>
      <trkpt lat="43.69349" lon="3.85689">
        <ele>59</ele>
        <time>2016-10-09T09:52:11Z</time>
      </trkpt>
      <trkpt lat="43.69349" lon="3.85699">
        <ele>59.599975585938</ele>
        <time>2016-10-09T09:52:14Z</time>
      </trkpt>
      <trkpt lat="43.6935" lon="3.85707">
        <ele>60</ele>
        <time>2016-10-09T09:52:16Z</time>
      </trkpt>
      <trkpt lat="43.6935" lon="3.85713">
        <ele>60.599975585938</ele>
        <time>2016-10-09T09:52:18Z</time>
      </trkpt>
      <trkpt lat="43.69351" lon="3.85717">
        <ele>61</ele>
        <time>2016-10-09T09:52:21Z</time>
      </trkpt>
      <trkpt lat="43.69355" lon="3.85731">
        <ele>60.599975585938</ele>
        <time>2016-10-09T09:52:26Z</time>
      </trkpt>
      <trkpt lat="43.6936" lon="3.85752">
        <ele>61</ele>
        <time>2016-10-09T09:52:31Z</time>
      </trkpt>
      <trkpt lat="43.69352" lon="3.85761">
        <ele>60.400024414062</ele>
        <time>2016-10-09T09:52:34Z</time>
      </trkpt>
      <trkpt lat="43.69347" lon="3.85763">
        <ele>60.400024414062</ele>
        <time>2016-10-09T09:52:35Z</time>
      </trkpt>
      <trkpt lat="43.6933" lon="3.85781">
        <ele>59.799987792969</ele>
        <time>2016-10-09T09:52:40Z</time>
      </trkpt>
      <trkpt lat="43.69323" lon="3.85802">
        <ele>59.599975585938</ele>
        <time>2016-10-09T09:52:44Z</time>
      </trkpt>
      <trkpt lat="43.69322" lon="3.85807">
        <ele>59.599975585938</ele>
        <time>2016-10-09T09:52:45Z</time>
      </trkpt>
      <trkpt lat="43.69317" lon="3.85836">
        <ele>60.200012207031</ele>
        <time>2016-10-09T09:52:51Z</time>
      </trkpt>
      <trkpt lat="43.69312" lon="3.85869">
        <ele>60</ele>
        <time>2016-10-09T09:52:57Z</time>
      </trkpt>
      <trkpt lat="43.69302" lon="3.85873">
        <ele>59.599975585938</ele>
        <time>2016-10-09T09:53:00Z</time>
      </trkpt>
      <trkpt lat="43.69299" lon="3.85874">
        <ele>59.599975585938</ele>
        <time>2016-10-09T09:53:01Z</time>
      </trkpt>
      <trkpt lat="43.69271" lon="3.85877">
        <ele>59.400024414062</ele>
        <time>2016-10-09T09:53:08Z</time>
      </trkpt>
      <trkpt lat="43.69245" lon="3.85879">
        <ele>59.400024414062</ele>
        <time>2016-10-09T09:53:15Z</time>
      </trkpt>
      <trkpt lat="43.69217" lon="3.85885">
        <ele>59.400024414062</ele>
        <time>2016-10-09T09:53:22Z</time>
      </trkpt>
      <trkpt lat="43.69205" lon="3.85889">
        <ele>59.599975585938</ele>
        <time>2016-10-09T09:53:25Z</time>
      </trkpt>
      <trkpt lat="43.69193" lon="3.85896">
        <ele>59.599975585938</ele>
        <time>2016-10-09T09:53:28Z</time>
      </trkpt>
      <trkpt lat="43.69175" lon="3.85918">
        <ele>59.400024414062</ele>
        <time>2016-10-09T09:53:33Z</time>
      </trkpt>
      <trkpt lat="43.69172" lon="3.85923">
        <ele>59.200012207031</ele>
        <time>2016-10-09T09:53:34Z</time>
      </trkpt>
      <trkpt lat="43.69169" lon="3.85927">
        <ele>59.200012207031</ele>
        <time>2016-10-09T09:53:35Z</time>
      </trkpt>
      <trkpt lat="43.69153" lon="3.85944">
        <ele>59</ele>
        <time>2016-10-09T09:53:40Z</time>
      </trkpt>
      <trkpt lat="43.6915" lon="3.85954">
        <ele>59.200012207031</ele>
        <time>2016-10-09T09:53:42Z</time>
      </trkpt>
      <trkpt lat="43.69147" lon="3.85965">
        <ele>59.400024414062</ele>
        <time>2016-10-09T09:53:44Z</time>
      </trkpt>
      <trkpt lat="43.69144" lon="3.85976">
        <ele>59.400024414062</ele>
        <time>2016-10-09T09:53:46Z</time>
      </trkpt>
      <trkpt lat="43.69135" lon="3.85992">
        <ele>59.799987792969</ele>
        <time>2016-10-09T09:53:50Z</time>
      </trkpt>
      <trkpt lat="43.69125" lon="3.86008">
        <ele>59.799987792969</ele>
        <time>2016-10-09T09:53:54Z</time>
      </trkpt>
      <trkpt lat="43.69118" lon="3.86015">
        <ele>59.599975585938</ele>
        <time>2016-10-09T09:53:56Z</time>
      </trkpt>
      <trkpt lat="43.69102" lon="3.8604">
        <ele>59.799987792969</ele>
        <time>2016-10-09T09:54:02Z</time>
      </trkpt>
      <trkpt lat="43.69081" lon="3.86069">
        <ele>60.200012207031</ele>
        <time>2016-10-09T09:54:09Z</time>
      </trkpt>
      <trkpt lat="43.69076" lon="3.86079">
        <ele>60.599975585938</ele>
        <time>2016-10-09T09:54:11Z</time>
      </trkpt>
      <trkpt lat="43.69074" lon="3.8609">
        <ele>60.799987792969</ele>
        <time>2016-10-09T09:54:13Z</time>
      </trkpt>
      <trkpt lat="43.69073" lon="3.86096">
        <ele>60.799987792969</ele>
        <time>2016-10-09T09:54:14Z</time>
      </trkpt>
      <trkpt lat="43.69072" lon="3.86137">
        <ele>61.400024414062</ele>
        <time>2016-10-09T09:54:21Z</time>
      </trkpt>
      <trkpt lat="43.69069" lon="3.86157">
        <ele>61.599975585938</ele>
        <time>2016-10-09T09:54:25Z</time>
      </trkpt>
      <trkpt lat="43.69067" lon="3.86172">
        <ele>62</ele>
        <time>2016-10-09T09:54:28Z</time>
      </trkpt>
      <trkpt lat="43.69065" lon="3.86191">
        <ele>62.599975585938</ele>
        <time>2016-10-09T09:54:32Z</time>
      </trkpt>
      <trkpt lat="43.69065" lon="3.86211">
        <ele>62.599975585938</ele>
        <time>2016-10-09T09:54:36Z</time>
      </trkpt>
      <trkpt lat="43.69066" lon="3.86216">
        <ele>62.599975585938</ele>
        <time>2016-10-09T09:54:37Z</time>
      </trkpt>
      <trkpt lat="43.69073" lon="3.8622">
        <ele>63</ele>
        <time>2016-10-09T09:54:39Z</time>
      </trkpt>
      <trkpt lat="43.69081" lon="3.86222">
        <ele>63.799987792969</ele>
        <time>2016-10-09T09:54:41Z</time>
      </trkpt>
      <trkpt lat="43.69089" lon="3.86233">
        <ele>64.799987792969</ele>
        <time>2016-10-09T09:54:44Z</time>
      </trkpt>
      <trkpt lat="43.69091" lon="3.86246">
        <ele>64.799987792969</ele>
        <time>2016-10-09T09:54:47Z</time>
      </trkpt>
      <trkpt lat="43.69092" lon="3.86253">
        <ele>65.400024414062</ele>
        <time>2016-10-09T09:54:49Z</time>
      </trkpt>
      <trkpt lat="43.69092" lon="3.86259">
        <ele>66</ele>
        <time>2016-10-09T09:54:51Z</time>
      </trkpt>
      <trkpt lat="43.69089" lon="3.86262">
        <ele>66.200012207031</ele>
        <time>2016-10-09T09:54:53Z</time>
      </trkpt>
      <trkpt lat="43.69072" lon="3.86263">
        <ele>67</ele>
        <time>2016-10-09T09:54:58Z</time>
      </trkpt>
      <trkpt lat="43.69047" lon="3.86264">
        <ele>68</ele>
        <time>2016-10-09T09:55:05Z</time>
      </trkpt>
      <trkpt lat="43.69044" lon="3.86264">
        <ele>68</ele>
        <time>2016-10-09T09:55:06Z</time>
      </trkpt>
      <trkpt lat="43.69021" lon="3.86262">
        <ele>68.200012207031</ele>
        <time>2016-10-09T09:55:12Z</time>
      </trkpt>
      <trkpt lat="43.68992" lon="3.8626">
        <ele>68.400024414062</ele>
        <time>2016-10-09T09:55:19Z</time>
      </trkpt>
      <trkpt lat="43.68961" lon="3.86263">
        <ele>68</ele>
        <time>2016-10-09T09:55:27Z</time>
      </trkpt>
      <trkpt lat="43.68941" lon="3.86266">
        <ele>67</ele>
        <time>2016-10-09T09:55:32Z</time>
      </trkpt>
      <trkpt lat="43.68924" lon="3.8627">
        <ele>67.200012207031</ele>
        <time>2016-10-09T09:55:36Z</time>
      </trkpt>
      <trkpt lat="43.68889" lon="3.86278">
        <ele>66.200012207031</ele>
        <time>2016-10-09T09:55:44Z</time>
      </trkpt>
      <trkpt lat="43.68866" lon="3.86286">
        <ele>66</ele>
        <time>2016-10-09T09:55:49Z</time>
      </trkpt>
      <trkpt lat="43.68853" lon="3.86291">
        <ele>65.599975585938</ele>
        <time>2016-10-09T09:55:52Z</time>
      </trkpt>
      <trkpt lat="43.68831" lon="3.86298">
        <ele>65</ele>
        <time>2016-10-09T09:55:57Z</time>
      </trkpt>
      <trkpt lat="43.68817" lon="3.86304">
        <ele>64.599975585938</ele>
        <time>2016-10-09T09:56:00Z</time>
      </trkpt>
      <trkpt lat="43.68803" lon="3.8631">
        <ele>64</ele>
        <time>2016-10-09T09:56:03Z</time>
      </trkpt>
      <trkpt lat="43.68778" lon="3.86318">
        <ele>62.799987792969</ele>
        <time>2016-10-09T09:56:08Z</time>
      </trkpt>
      <trkpt lat="43.68773" lon="3.8632">
        <ele>62.599975585938</ele>
        <time>2016-10-09T09:56:09Z</time>
      </trkpt>
      <trkpt lat="43.68738" lon="3.86334">
        <ele>61.799987792969</ele>
        <time>2016-10-09T09:56:16Z</time>
      </trkpt>
      <trkpt lat="43.68733" lon="3.86335">
        <ele>61.599975585938</ele>
        <time>2016-10-09T09:56:17Z</time>
      </trkpt>
      <trkpt lat="43.68687" lon="3.86354">
        <ele>61.599975585938</ele>
        <time>2016-10-09T09:56:26Z</time>
      </trkpt>
      <trkpt lat="43.68646" lon="3.86369">
        <ele>61.200012207031</ele>
        <time>2016-10-09T09:56:34Z</time>
      </trkpt>
      <trkpt lat="43.68605" lon="3.86377">
        <ele>61</ele>
        <time>2016-10-09T09:56:42Z</time>
      </trkpt>
      <trkpt lat="43.68595" lon="3.86378">
        <ele>60.799987792969</ele>
        <time>2016-10-09T09:56:44Z</time>
      </trkpt>
      <trkpt lat="43.6857" lon="3.8638">
        <ele>60</ele>
        <time>2016-10-09T09:56:49Z</time>
      </trkpt>
      <trkpt lat="43.6856" lon="3.86379">
        <ele>59.799987792969</ele>
        <time>2016-10-09T09:56:51Z</time>
      </trkpt>
      <trkpt lat="43.68535" lon="3.86376">
        <ele>60</ele>
        <time>2016-10-09T09:56:56Z</time>
      </trkpt>
      <trkpt lat="43.68501" lon="3.86365">
        <ele>60.799987792969</ele>
        <time>2016-10-09T09:57:03Z</time>
      </trkpt>
      <trkpt lat="43.68496" lon="3.86364">
        <ele>61</ele>
        <time>2016-10-09T09:57:04Z</time>
      </trkpt>
      <trkpt lat="43.68472" lon="3.86357">
        <ele>61.799987792969</ele>
        <time>2016-10-09T09:57:09Z</time>
      </trkpt>
      <trkpt lat="43.68458" lon="3.86352">
        <ele>62</ele>
        <time>2016-10-09T09:57:12Z</time>
      </trkpt>
      <trkpt lat="43.6842" lon="3.8634">
        <ele>62.599975585938</ele>
        <time>2016-10-09T09:57:21Z</time>
      </trkpt>
      <trkpt lat="43.68407" lon="3.86334">
        <ele>62.400024414062</ele>
        <time>2016-10-09T09:57:24Z</time>
      </trkpt>
      <trkpt lat="43.68401" lon="3.86324">
        <ele>62.400024414062</ele>
        <time>2016-10-09T09:57:26Z</time>
      </trkpt>
      <trkpt lat="43.68391" lon="3.86306">
        <ele>62.400024414062</ele>
        <time>2016-10-09T09:57:29Z</time>
      </trkpt>
      <trkpt lat="43.68382" lon="3.86299">
        <ele>62.400024414062</ele>
        <time>2016-10-09T09:57:31Z</time>
      </trkpt>
      <trkpt lat="43.68367" lon="3.86306">
        <ele>62.599975585938</ele>
        <time>2016-10-09T09:57:34Z</time>
      </trkpt>
      <trkpt lat="43.68361" lon="3.86318">
        <ele>63</ele>
        <time>2016-10-09T09:57:36Z</time>
      </trkpt>
      <trkpt lat="43.6836" lon="3.86325">
        <ele>63.200012207031</ele>
        <time>2016-10-09T09:57:37Z</time>
      </trkpt>
      <trkpt lat="43.68361" lon="3.86344">
        <ele>63.400024414062</ele>
        <time>2016-10-09T09:57:40Z</time>
      </trkpt>
      <trkpt lat="43.68362" lon="3.86351">
        <ele>63.400024414062</ele>
        <time>2016-10-09T09:57:41Z</time>
      </trkpt>
      <trkpt lat="43.68356" lon="3.8637">
        <ele>63.400024414062</ele>
        <time>2016-10-09T09:57:44Z</time>
      </trkpt>
      <trkpt lat="43.68344" lon="3.86385">
        <ele>63.200012207031</ele>
        <time>2016-10-09T09:57:47Z</time>
      </trkpt>
      <trkpt lat="43.68337" lon="3.86395">
        <ele>63.200012207031</ele>
        <time>2016-10-09T09:57:49Z</time>
      </trkpt>
      <trkpt lat="43.68312" lon="3.86425">
        <ele>62.400024414062</ele>
        <time>2016-10-09T09:57:56Z</time>
      </trkpt>
      <trkpt lat="43.68306" lon="3.86433">
        <ele>62</ele>
        <time>2016-10-09T09:57:58Z</time>
      </trkpt>
      <trkpt lat="43.68292" lon="3.86446">
        <ele>61.599975585938</ele>
        <time>2016-10-09T09:58:02Z</time>
      </trkpt>
      <trkpt lat="43.68266" lon="3.86469">
        <ele>60.799987792969</ele>
        <time>2016-10-09T09:58:09Z</time>
      </trkpt>
      <trkpt lat="43.68263" lon="3.86472">
        <ele>60.799987792969</ele>
        <time>2016-10-09T09:58:10Z</time>
      </trkpt>
      <trkpt lat="43.68236" lon="3.86494">
        <ele>60.400024414062</ele>
        <time>2016-10-09T09:58:17Z</time>
      </trkpt>
      <trkpt lat="43.6821" lon="3.86515">
        <ele>60</ele>
        <time>2016-10-09T09:58:24Z</time>
      </trkpt>
      <trkpt lat="43.68178" lon="3.8653">
        <ele>60.200012207031</ele>
        <time>2016-10-09T09:58:32Z</time>
      </trkpt>
      <trkpt lat="43.68135" lon="3.8654">
        <ele>60.400024414062</ele>
        <time>2016-10-09T09:58:41Z</time>
      </trkpt>
      <trkpt lat="43.68099" lon="3.86553">
        <ele>61.400024414062</ele>
        <time>2016-10-09T09:58:48Z</time>
      </trkpt>
      <trkpt lat="43.68069" lon="3.86569">
        <ele>60</ele>
        <time>2016-10-09T09:58:54Z</time>
      </trkpt>
      <trkpt lat="43.6806" lon="3.86574">
        <ele>59.599975585938</ele>
        <time>2016-10-09T09:58:56Z</time>
      </trkpt>
      <trkpt lat="43.68044" lon="3.86584">
        <ele>58.599975585938</ele>
        <time>2016-10-09T09:59:00Z</time>
      </trkpt>
      <trkpt lat="43.68037" lon="3.86586">
        <ele>58.400024414062</ele>
        <time>2016-10-09T09:59:02Z</time>
      </trkpt>
      <trkpt lat="43.68032" lon="3.86591">
        <ele>58.400024414062</ele>
        <time>2016-10-09T09:59:04Z</time>
      </trkpt>
      <trkpt lat="43.6803" lon="3.86599">
        <ele>58.400024414062</ele>
        <time>2016-10-09T09:59:06Z</time>
      </trkpt>
      <trkpt lat="43.68036" lon="3.86618">
        <ele>58.400024414062</ele>
        <time>2016-10-09T09:59:10Z</time>
      </trkpt>
      <trkpt lat="43.68038" lon="3.86622">
        <ele>58.400024414062</ele>
        <time>2016-10-09T09:59:11Z</time>
      </trkpt>
      <trkpt lat="43.68043" lon="3.86649">
        <ele>58.400024414062</ele>
        <time>2016-10-09T09:59:17Z</time>
      </trkpt>
      <trkpt lat="43.68036" lon="3.86669">
        <ele>58.599975585938</ele>
        <time>2016-10-09T09:59:22Z</time>
      </trkpt>
      <trkpt lat="43.6802" lon="3.86687">
        <ele>59.599975585938</ele>
        <time>2016-10-09T09:59:29Z</time>
      </trkpt>
      <trkpt lat="43.68017" lon="3.8669">
        <ele>59.599975585938</ele>
        <time>2016-10-09T09:59:30Z</time>
      </trkpt>
      <trkpt lat="43.68013" lon="3.86705">
        <ele>60.200012207031</ele>
        <time>2016-10-09T09:59:34Z</time>
      </trkpt>
      <trkpt lat="43.6802" lon="3.86712">
        <ele>60.799987792969</ele>
        <time>2016-10-09T09:59:37Z</time>
      </trkpt>
      <trkpt lat="43.68022" lon="3.86714">
        <ele>61</ele>
        <time>2016-10-09T09:59:38Z</time>
      </trkpt>
      <trkpt lat="43.68031" lon="3.86724">
        <ele>61.799987792969</ele>
        <time>2016-10-09T09:59:42Z</time>
      </trkpt>
      <trkpt lat="43.68036" lon="3.86729">
        <ele>62.200012207031</ele>
        <time>2016-10-09T09:59:45Z</time>
      </trkpt>
      <trkpt lat="43.68041" lon="3.86739">
        <ele>63.200012207031</ele>
        <time>2016-10-09T09:59:49Z</time>
      </trkpt>
      <trkpt lat="43.68042" lon="3.86741">
        <ele>63.400024414062</ele>
        <time>2016-10-09T09:59:50Z</time>
      </trkpt>
      <trkpt lat="43.68042" lon="3.86753">
        <ele>64</ele>
        <time>2016-10-09T09:59:54Z</time>
      </trkpt>
      <trkpt lat="43.68041" lon="3.86755">
        <ele>64.200012207031</ele>
        <time>2016-10-09T09:59:55Z</time>
      </trkpt>
      <trkpt lat="43.68035" lon="3.86764">
        <ele>64.799987792969</ele>
        <time>2016-10-09T10:00:00Z</time>
      </trkpt>
      <trkpt lat="43.68033" lon="3.86768">
        <ele>65.400024414062</ele>
        <time>2016-10-09T10:00:02Z</time>
      </trkpt>
      <trkpt lat="43.6803" lon="3.86778">
        <ele>66.400024414062</ele>
        <time>2016-10-09T10:00:07Z</time>
      </trkpt>
      <trkpt lat="43.68029" lon="3.8678">
        <ele>66.799987792969</ele>
        <time>2016-10-09T10:00:08Z</time>
      </trkpt>
      <trkpt lat="43.68026" lon="3.86786">
        <ele>67.799987792969</ele>
        <time>2016-10-09T10:00:11Z</time>
      </trkpt>
      <trkpt lat="43.68024" lon="3.86792">
        <ele>69</ele>
        <time>2016-10-09T10:00:14Z</time>
      </trkpt>
      <trkpt lat="43.6802" lon="3.86797">
        <ele>70.200012207031</ele>
        <time>2016-10-09T10:00:18Z</time>
      </trkpt>
      <trkpt lat="43.68018" lon="3.86802">
        <ele>70.599975585938</ele>
        <time>2016-10-09T10:00:20Z</time>
      </trkpt>
      <trkpt lat="43.68017" lon="3.86805">
        <ele>71.200012207031</ele>
        <time>2016-10-09T10:00:22Z</time>
      </trkpt>
      <trkpt lat="43.68014" lon="3.86814">
        <ele>72.400024414062</ele>
        <time>2016-10-09T10:00:26Z</time>
      </trkpt>
      <trkpt lat="43.6801" lon="3.86824">
        <ele>73.400024414062</ele>
        <time>2016-10-09T10:00:31Z</time>
      </trkpt>
      <trkpt lat="43.68007" lon="3.86827">
        <ele>74.200012207031</ele>
        <time>2016-10-09T10:00:33Z</time>
      </trkpt>
      <trkpt lat="43.68006" lon="3.86828">
        <ele>74.599975585938</ele>
        <time>2016-10-09T10:00:34Z</time>
      </trkpt>
      <trkpt lat="43.67995" lon="3.86835">
        <ele>75.200012207031</ele>
        <time>2016-10-09T10:00:39Z</time>
      </trkpt>
      <trkpt lat="43.67982" lon="3.86846">
        <ele>74.799987792969</ele>
        <time>2016-10-09T10:00:43Z</time>
      </trkpt>
      <trkpt lat="43.67967" lon="3.86864">
        <ele>74.799987792969</ele>
        <time>2016-10-09T10:00:49Z</time>
      </trkpt>
      <trkpt lat="43.67955" lon="3.8688">
        <ele>73.400024414062</ele>
        <time>2016-10-09T10:00:54Z</time>
      </trkpt>
      <trkpt lat="43.67948" lon="3.8689">
        <ele>73.200012207031</ele>
        <time>2016-10-09T10:00:57Z</time>
      </trkpt>
      <trkpt lat="43.67936" lon="3.86897">
        <ele>72.400024414062</ele>
        <time>2016-10-09T10:01:01Z</time>
      </trkpt>
      <trkpt lat="43.67916" lon="3.86911">
        <ele>72.599975585938</ele>
        <time>2016-10-09T10:01:09Z</time>
      </trkpt>
      <trkpt lat="43.67907" lon="3.86922">
        <ele>73.400024414062</ele>
        <time>2016-10-09T10:01:14Z</time>
      </trkpt>
      <trkpt lat="43.67904" lon="3.86929">
        <ele>74.599975585938</ele>
        <time>2016-10-09T10:01:18Z</time>
      </trkpt>
      <trkpt lat="43.67898" lon="3.86934">
        <ele>75.400024414062</ele>
        <time>2016-10-09T10:05:07Z</time>
      </trkpt>
      <trkpt lat="43.67892" lon="3.86938">
        <ele>75.599975585938</ele>
        <time>2016-10-09T10:05:10Z</time>
      </trkpt>
      <trkpt lat="43.67888" lon="3.86942">
        <ele>76</ele>
        <time>2016-10-09T10:05:12Z</time>
      </trkpt>
      <trkpt lat="43.67882" lon="3.86946">
        <ele>76.799987792969</ele>
        <time>2016-10-09T10:05:15Z</time>
      </trkpt>
      <trkpt lat="43.6788" lon="3.86946">
        <ele>77</ele>
        <time>2016-10-09T10:05:16Z</time>
      </trkpt>
      <trkpt lat="43.67873" lon="3.86943">
        <ele>77.799987792969</ele>
        <time>2016-10-09T10:05:20Z</time>
      </trkpt>
      <trkpt lat="43.6787" lon="3.86945">
        <ele>78.200012207031</ele>
        <time>2016-10-09T10:05:22Z</time>
      </trkpt>
      <trkpt lat="43.6787" lon="3.86947">
        <ele>78.400024414062</ele>
        <time>2016-10-09T10:05:23Z</time>
      </trkpt>
      <trkpt lat="43.67873" lon="3.86954">
        <ele>78.599975585938</ele>
        <time>2016-10-09T10:05:26Z</time>
      </trkpt>
      <trkpt lat="43.67875" lon="3.86956">
        <ele>78.799987792969</ele>
        <time>2016-10-09T10:05:27Z</time>
      </trkpt>
      <trkpt lat="43.6788" lon="3.86965">
        <ele>79.799987792969</ele>
        <time>2016-10-09T10:05:31Z</time>
      </trkpt>
      <trkpt lat="43.67883" lon="3.86973">
        <ele>80.400024414062</ele>
        <time>2016-10-09T10:05:34Z</time>
      </trkpt>
      <trkpt lat="43.67881" lon="3.86983">
        <ele>81</ele>
        <time>2016-10-09T10:05:38Z</time>
      </trkpt>
      <trkpt lat="43.6788" lon="3.86987">
        <ele>81.400024414062</ele>
        <time>2016-10-09T10:05:40Z</time>
      </trkpt>
      <trkpt lat="43.6788" lon="3.8699">
        <ele>82.200012207031</ele>
        <time>2016-10-09T10:05:42Z</time>
      </trkpt>
      <trkpt lat="43.67879" lon="3.86994">
        <ele>83</ele>
        <time>2016-10-09T10:05:45Z</time>
      </trkpt>
      <trkpt lat="43.67875" lon="3.87001">
        <ele>83.200012207031</ele>
        <time>2016-10-09T10:05:50Z</time>
      </trkpt>
      <trkpt lat="43.67874" lon="3.87002">
        <ele>83.400024414062</ele>
        <time>2016-10-09T10:05:51Z</time>
      </trkpt>
      <trkpt lat="43.67874" lon="3.87003">
        <ele>83.599975585938</ele>
        <time>2016-10-09T10:05:53Z</time>
      </trkpt>
      <trkpt lat="43.67869" lon="3.87007">
        <ele>83.200012207031</ele>
        <time>2016-10-09T10:07:30Z</time>
      </trkpt>
      <trkpt lat="43.67868" lon="3.87009">
        <ele>83.200012207031</ele>
        <time>2016-10-09T10:07:31Z</time>
      </trkpt>
      <trkpt lat="43.67855" lon="3.87022">
        <ele>82.599975585938</ele>
        <time>2016-10-09T10:07:36Z</time>
      </trkpt>
      <trkpt lat="43.67843" lon="3.87031">
        <ele>82</ele>
        <time>2016-10-09T10:07:39Z</time>
      </trkpt>
      <trkpt lat="43.67827" lon="3.87042">
        <ele>81.400024414062</ele>
        <time>2016-10-09T10:07:43Z</time>
      </trkpt>
      <trkpt lat="43.67819" lon="3.87049">
        <ele>81</ele>
        <time>2016-10-09T10:07:45Z</time>
      </trkpt>
      <trkpt lat="43.67806" lon="3.87064">
        <ele>80.200012207031</ele>
        <time>2016-10-09T10:07:48Z</time>
      </trkpt>
      <trkpt lat="43.67801" lon="3.8707">
        <ele>79.799987792969</ele>
        <time>2016-10-09T10:07:49Z</time>
      </trkpt>
      <trkpt lat="43.67787" lon="3.87092">
        <ele>78.799987792969</ele>
        <time>2016-10-09T10:07:52Z</time>
      </trkpt>
      <trkpt lat="43.67781" lon="3.87098">
        <ele>78.400024414062</ele>
        <time>2016-10-09T10:07:53Z</time>
      </trkpt>
      <trkpt lat="43.67772" lon="3.87111">
        <ele>77.599975585938</ele>
        <time>2016-10-09T10:07:55Z</time>
      </trkpt>
      <trkpt lat="43.67766" lon="3.87124">
        <ele>76.799987792969</ele>
        <time>2016-10-09T10:07:57Z</time>
      </trkpt>
      <trkpt lat="43.67764" lon="3.8713">
        <ele>76.200012207031</ele>
        <time>2016-10-09T10:07:58Z</time>
      </trkpt>
      <trkpt lat="43.67762" lon="3.87134">
        <ele>75</ele>
        <time>2016-10-09T10:08:00Z</time>
      </trkpt>
      <trkpt lat="43.67763" lon="3.87137">
        <ele>74</ele>
        <time>2016-10-09T10:08:07Z</time>
      </trkpt>
      <trkpt lat="43.67764" lon="3.87142">
        <ele>73.799987792969</ele>
        <time>2016-10-09T10:08:08Z</time>
      </trkpt>
      <trkpt lat="43.67769" lon="3.87165">
        <ele>72.799987792969</ele>
        <time>2016-10-09T10:08:11Z</time>
      </trkpt>
      <trkpt lat="43.6777" lon="3.87184">
        <ele>72</ele>
        <time>2016-10-09T10:08:13Z</time>
      </trkpt>
      <trkpt lat="43.6777" lon="3.87194">
        <ele>71.599975585938</ele>
        <time>2016-10-09T10:08:14Z</time>
      </trkpt>
      <trkpt lat="43.67768" lon="3.87203">
        <ele>71.200012207031</ele>
        <time>2016-10-09T10:08:15Z</time>
      </trkpt>
      <trkpt lat="43.67765" lon="3.87218">
        <ele>70.400024414062</ele>
        <time>2016-10-09T10:08:17Z</time>
      </trkpt>
      <trkpt lat="43.67763" lon="3.87223">
        <ele>69.799987792969</ele>
        <time>2016-10-09T10:08:18Z</time>
      </trkpt>
      <trkpt lat="43.67761" lon="3.87228">
        <ele>69.200012207031</ele>
        <time>2016-10-09T10:08:19Z</time>
      </trkpt>
      <trkpt lat="43.67754" lon="3.87231">
        <ele>68</ele>
        <time>2016-10-09T10:08:21Z</time>
      </trkpt>
      <trkpt lat="43.67752" lon="3.87231">
        <ele>67.400024414062</ele>
        <time>2016-10-09T10:08:22Z</time>
      </trkpt>
      <trkpt lat="43.6775" lon="3.87232">
        <ele>67</ele>
        <time>2016-10-09T10:08:23Z</time>
      </trkpt>
      <trkpt lat="43.67744" lon="3.87234">
        <ele>64</ele>
        <time>2016-10-09T10:08:57Z</time>
      </trkpt>
      <trkpt lat="43.67741" lon="3.87244">
        <ele>63</ele>
        <time>2016-10-09T10:09:01Z</time>
      </trkpt>
      <trkpt lat="43.6774" lon="3.87248">
        <ele>62.799987792969</ele>
        <time>2016-10-09T10:09:02Z</time>
      </trkpt>
      <trkpt lat="43.67738" lon="3.87269">
        <ele>62.400024414062</ele>
        <time>2016-10-09T10:09:06Z</time>
      </trkpt>
      <trkpt lat="43.67735" lon="3.87282">
        <ele>61.799987792969</ele>
        <time>2016-10-09T10:09:09Z</time>
      </trkpt>
      <trkpt lat="43.67734" lon="3.87293">
        <ele>61.400024414062</ele>
        <time>2016-10-09T10:09:11Z</time>
      </trkpt>
      <trkpt lat="43.67734" lon="3.87302">
        <ele>60.799987792969</ele>
        <time>2016-10-09T10:09:13Z</time>
      </trkpt>
      <trkpt lat="43.67735" lon="3.87321">
        <ele>59.599975585938</ele>
        <time>2016-10-09T10:09:17Z</time>
      </trkpt>
      <trkpt lat="43.67734" lon="3.87326">
        <ele>59.599975585938</ele>
        <time>2016-10-09T10:09:18Z</time>
      </trkpt>
      <trkpt lat="43.6773" lon="3.87346">
        <ele>59</ele>
        <time>2016-10-09T10:09:23Z</time>
      </trkpt>
      <trkpt lat="43.67718" lon="3.8737">
        <ele>59.200012207031</ele>
        <time>2016-10-09T10:09:30Z</time>
      </trkpt>
      <trkpt lat="43.6771" lon="3.8739">
        <ele>61</ele>
        <time>2016-10-09T10:09:36Z</time>
      </trkpt>
      <trkpt lat="43.67707" lon="3.87396">
        <ele>61.799987792969</ele>
        <time>2016-10-09T10:09:38Z</time>
      </trkpt>
      <trkpt lat="43.67706" lon="3.87398">
        <ele>62</ele>
        <time>2016-10-09T10:09:39Z</time>
      </trkpt>
      <trkpt lat="43.67703" lon="3.87405">
        <ele>63.400024414062</ele>
        <time>2016-10-09T10:09:43Z</time>
      </trkpt>
      <trkpt lat="43.67698" lon="3.87414">
        <ele>64.400024414062</ele>
        <time>2016-10-09T10:09:46Z</time>
      </trkpt>
      <trkpt lat="43.67693" lon="3.87421">
        <ele>65.400024414062</ele>
        <time>2016-10-09T10:09:49Z</time>
      </trkpt>
      <trkpt lat="43.6769" lon="3.87429">
        <ele>67</ele>
        <time>2016-10-09T10:09:52Z</time>
      </trkpt>
      <trkpt lat="43.67688" lon="3.87435">
        <ele>68.400024414062</ele>
        <time>2016-10-09T10:09:54Z</time>
      </trkpt>
      <trkpt lat="43.67687" lon="3.87445">
        <ele>69.599975585938</ele>
        <time>2016-10-09T10:09:57Z</time>
      </trkpt>
      <trkpt lat="43.67686" lon="3.87453">
        <ele>70.599975585938</ele>
        <time>2016-10-09T10:10:00Z</time>
      </trkpt>
      <trkpt lat="43.67685" lon="3.87459">
        <ele>71.599975585938</ele>
        <time>2016-10-09T10:10:02Z</time>
      </trkpt>
      <trkpt lat="43.67685" lon="3.87462">
        <ele>72</ele>
        <time>2016-10-09T10:10:03Z</time>
      </trkpt>
      <trkpt lat="43.67684" lon="3.87469">
        <ele>73</ele>
        <time>2016-10-09T10:10:05Z</time>
      </trkpt>
      <trkpt lat="43.67683" lon="3.87474">
        <ele>74.200012207031</ele>
        <time>2016-10-09T10:10:07Z</time>
      </trkpt>
      <trkpt lat="43.67683" lon="3.87477">
        <ele>74.400024414062</ele>
        <time>2016-10-09T10:10:08Z</time>
      </trkpt>
      <trkpt lat="43.6768" lon="3.87483">
        <ele>75.400024414062</ele>
        <time>2016-10-09T10:10:11Z</time>
      </trkpt>
      <trkpt lat="43.67678" lon="3.87486">
        <ele>76.400024414062</ele>
        <time>2016-10-09T10:10:13Z</time>
      </trkpt>
      <trkpt lat="43.67676" lon="3.87489">
        <ele>77.200012207031</ele>
        <time>2016-10-09T10:10:15Z</time>
      </trkpt>
      <trkpt lat="43.67675" lon="3.8749">
        <ele>77.599975585938</ele>
        <time>2016-10-09T10:10:16Z</time>
      </trkpt>
      <trkpt lat="43.67672" lon="3.87495">
        <ele>78.599975585938</ele>
        <time>2016-10-09T10:10:19Z</time>
      </trkpt>
      <trkpt lat="43.67669" lon="3.875">
        <ele>79.200012207031</ele>
        <time>2016-10-09T10:10:22Z</time>
      </trkpt>
      <trkpt lat="43.67666" lon="3.87505">
        <ele>79.799987792969</ele>
        <time>2016-10-09T10:10:25Z</time>
      </trkpt>
      <trkpt lat="43.67661" lon="3.87513">
        <ele>80.799987792969</ele>
        <time>2016-10-09T10:10:30Z</time>
      </trkpt>
      <trkpt lat="43.6766" lon="3.87515">
        <ele>81</ele>
        <time>2016-10-09T10:10:31Z</time>
      </trkpt>
      <trkpt lat="43.67657" lon="3.87521">
        <ele>82.200012207031</ele>
        <time>2016-10-09T10:10:34Z</time>
      </trkpt>
      <trkpt lat="43.67654" lon="3.87528">
        <ele>83.200012207031</ele>
        <time>2016-10-09T10:10:38Z</time>
      </trkpt>
      <trkpt lat="43.67653" lon="3.8753">
        <ele>83.599975585938</ele>
        <time>2016-10-09T10:10:39Z</time>
      </trkpt>
      <trkpt lat="43.6765" lon="3.87539">
        <ele>84.599975585938</ele>
        <time>2016-10-09T10:10:44Z</time>
      </trkpt>
      <trkpt lat="43.67649" lon="3.87541">
        <ele>84.599975585938</ele>
        <time>2016-10-09T10:10:45Z</time>
      </trkpt>
      <trkpt lat="43.67644" lon="3.87555">
        <ele>85.799987792969</ele>
        <time>2016-10-09T10:10:52Z</time>
      </trkpt>
      <trkpt lat="43.67637" lon="3.8757">
        <ele>86.599975585938</ele>
        <time>2016-10-09T10:11:01Z</time>
      </trkpt>
      <trkpt lat="43.67635" lon="3.87573">
        <ele>87</ele>
        <time>2016-10-09T10:11:03Z</time>
      </trkpt>
      <trkpt lat="43.67626" lon="3.87583">
        <ele>87.200012207031</ele>
        <time>2016-10-09T10:11:10Z</time>
      </trkpt>
      <trkpt lat="43.67616" lon="3.87595">
        <ele>88</ele>
        <time>2016-10-09T10:11:20Z</time>
      </trkpt>
      <trkpt lat="43.67615" lon="3.87596">
        <ele>88</ele>
        <time>2016-10-09T10:11:21Z</time>
      </trkpt>
      <trkpt lat="43.6761" lon="3.876">
        <ele>88</ele>
        <time>2016-10-09T10:11:25Z</time>
      </trkpt>
      <trkpt lat="43.67603" lon="3.87603">
        <ele>87.400024414062</ele>
        <time>2016-10-09T10:11:29Z</time>
      </trkpt>
      <trkpt lat="43.67598" lon="3.87612">
        <ele>87.200012207031</ele>
        <time>2016-10-09T10:11:33Z</time>
      </trkpt>
      <trkpt lat="43.67594" lon="3.87616">
        <ele>87</ele>
        <time>2016-10-09T10:11:35Z</time>
      </trkpt>
      <trkpt lat="43.67587" lon="3.87624">
        <ele>87</ele>
        <time>2016-10-09T10:11:38Z</time>
      </trkpt>
      <trkpt lat="43.67584" lon="3.87628">
        <ele>86.799987792969</ele>
        <time>2016-10-09T10:11:40Z</time>
      </trkpt>
      <trkpt lat="43.67575" lon="3.87636">
        <ele>88</ele>
        <time>2016-10-09T10:11:46Z</time>
      </trkpt>
      <trkpt lat="43.67572" lon="3.8764">
        <ele>88.599975585938</ele>
        <time>2016-10-09T10:11:48Z</time>
      </trkpt>
      <trkpt lat="43.67568" lon="3.87643">
        <ele>89.400024414062</ele>
        <time>2016-10-09T10:11:50Z</time>
      </trkpt>
      <trkpt lat="43.67561" lon="3.87652">
        <ele>90.599975585938</ele>
        <time>2016-10-09T10:11:55Z</time>
      </trkpt>
      <trkpt lat="43.67556" lon="3.87656">
        <ele>91.799987792969</ele>
        <time>2016-10-09T10:11:58Z</time>
      </trkpt>
      <trkpt lat="43.67552" lon="3.87654">
        <ele>93</ele>
        <time>2016-10-09T10:12:02Z</time>
      </trkpt>
      <trkpt lat="43.67549" lon="3.87648">
        <ele>93.799987792969</ele>
        <time>2016-10-09T10:12:07Z</time>
      </trkpt>
      <trkpt lat="43.67548" lon="3.87647">
        <ele>94.200012207031</ele>
        <time>2016-10-09T10:12:08Z</time>
      </trkpt>
      <trkpt lat="43.67539" lon="3.87646">
        <ele>95.200012207031</ele>
        <time>2016-10-09T10:12:15Z</time>
      </trkpt>
      <trkpt lat="43.67537" lon="3.87646">
        <ele>95.200012207031</ele>
        <time>2016-10-09T10:12:16Z</time>
      </trkpt>
      <trkpt lat="43.67532" lon="3.87647">
        <ele>95.200012207031</ele>
        <time>2016-10-09T10:12:21Z</time>
      </trkpt>
      <trkpt lat="43.67529" lon="3.87651">
        <ele>94.599975585938</ele>
        <time>2016-10-09T10:12:24Z</time>
      </trkpt>
      <trkpt lat="43.67527" lon="3.87658">
        <ele>94.599975585938</ele>
        <time>2016-10-09T10:12:28Z</time>
      </trkpt>
      <trkpt lat="43.67525" lon="3.87661">
        <ele>94.799987792969</ele>
        <time>2016-10-09T10:12:30Z</time>
      </trkpt>
      <trkpt lat="43.67521" lon="3.87668">
        <ele>95.200012207031</ele>
        <time>2016-10-09T10:12:34Z</time>
      </trkpt>
      <trkpt lat="43.67511" lon="3.8768">
        <ele>96.400024414062</ele>
        <time>2016-10-09T10:12:42Z</time>
      </trkpt>
      <trkpt lat="43.67508" lon="3.87684">
        <ele>96.799987792969</ele>
        <time>2016-10-09T10:12:44Z</time>
      </trkpt>
      <trkpt lat="43.67505" lon="3.87693">
        <ele>97.400024414062</ele>
        <time>2016-10-09T10:12:48Z</time>
      </trkpt>
      <trkpt lat="43.67505" lon="3.87696">
        <ele>97.400024414062</ele>
        <time>2016-10-09T10:12:49Z</time>
      </trkpt>
      <trkpt lat="43.67499" lon="3.87708">
        <ele>98.400024414062</ele>
        <time>2016-10-09T10:12:55Z</time>
      </trkpt>
      <trkpt lat="43.67497" lon="3.87712">
        <ele>98.400024414062</ele>
        <time>2016-10-09T10:12:57Z</time>
      </trkpt>
      <trkpt lat="43.67495" lon="3.87723">
        <ele>98.799987792969</ele>
        <time>2016-10-09T10:13:02Z</time>
      </trkpt>
      <trkpt lat="43.67493" lon="3.87724">
        <ele>99</ele>
        <time>2016-10-09T10:13:03Z</time>
      </trkpt>
      <trkpt lat="43.67487" lon="3.87725">
        <ele>98.599975585938</ele>
        <time>2016-10-09T10:13:07Z</time>
      </trkpt>
      <trkpt lat="43.67485" lon="3.87726">
        <ele>98.799987792969</ele>
        <time>2016-10-09T10:13:08Z</time>
      </trkpt>
      <trkpt lat="43.67481" lon="3.87736">
        <ele>99</ele>
        <time>2016-10-09T10:13:11Z</time>
      </trkpt>
      <trkpt lat="43.67481" lon="3.87743">
        <ele>99</ele>
        <time>2016-10-09T10:13:13Z</time>
      </trkpt>
      <trkpt lat="43.67478" lon="3.87762">
        <ele>98.799987792969</ele>
        <time>2016-10-09T10:13:19Z</time>
      </trkpt>
      <trkpt lat="43.6747" lon="3.87788">
        <ele>99</ele>
        <time>2016-10-09T10:13:25Z</time>
      </trkpt>
      <trkpt lat="43.67457" lon="3.87797">
        <ele>98.200012207031</ele>
        <time>2016-10-09T10:13:29Z</time>
      </trkpt>
      <trkpt lat="43.67452" lon="3.87801">
        <ele>97.400024414062</ele>
        <time>2016-10-09T10:13:31Z</time>
      </trkpt>
      <trkpt lat="43.67451" lon="3.87805">
        <ele>97.200012207031</ele>
        <time>2016-10-09T10:13:32Z</time>
      </trkpt>
      <trkpt lat="43.67452" lon="3.87815">
        <ele>96.599975585938</ele>
        <time>2016-10-09T10:13:35Z</time>
      </trkpt>
      <trkpt lat="43.67454" lon="3.87823">
        <ele>96.400024414062</ele>
        <time>2016-10-09T10:13:37Z</time>
      </trkpt>
      <trkpt lat="43.67456" lon="3.87836">
        <ele>95.200012207031</ele>
        <time>2016-10-09T10:13:41Z</time>
      </trkpt>
      <trkpt lat="43.67457" lon="3.87842">
        <ele>94.799987792969</ele>
        <time>2016-10-09T10:13:43Z</time>
      </trkpt>
      <trkpt lat="43.67456" lon="3.87846">
        <ele>94.200012207031</ele>
        <time>2016-10-09T10:13:45Z</time>
      </trkpt>
      <trkpt lat="43.67455" lon="3.87848">
        <ele>94.200012207031</ele>
        <time>2016-10-09T10:13:46Z</time>
      </trkpt>
      <trkpt lat="43.67454" lon="3.87871">
        <ele>94.400024414062</ele>
        <time>2016-10-09T10:13:54Z</time>
      </trkpt>
      <trkpt lat="43.67452" lon="3.87873">
        <ele>94.599975585938</ele>
        <time>2016-10-09T10:13:55Z</time>
      </trkpt>
      <trkpt lat="43.67444" lon="3.87875">
        <ele>95</ele>
        <time>2016-10-09T10:13:58Z</time>
      </trkpt>
      <trkpt lat="43.67434" lon="3.87869">
        <ele>94.200012207031</ele>
        <time>2016-10-09T10:14:02Z</time>
      </trkpt>
      <trkpt lat="43.67433" lon="3.87868">
        <ele>94.400024414062</ele>
        <time>2016-10-09T10:14:03Z</time>
      </trkpt>
      <trkpt lat="43.67431" lon="3.87866">
        <ele>95.400024414062</ele>
        <time>2016-10-09T10:14:05Z</time>
      </trkpt>
      <trkpt lat="43.67431" lon="3.87864">
        <ele>95.599975585938</ele>
        <time>2016-10-09T10:14:06Z</time>
      </trkpt>
      <trkpt lat="43.6743" lon="3.87862">
        <ele>95.799987792969</ele>
        <time>2016-10-09T10:14:07Z</time>
      </trkpt>
      <trkpt lat="43.67424" lon="3.8785">
        <ele>94.400024414062</ele>
        <time>2016-10-09T10:14:13Z</time>
      </trkpt>
      <trkpt lat="43.67422" lon="3.87849">
        <ele>94</ele>
        <time>2016-10-09T10:14:14Z</time>
      </trkpt>
      <trkpt lat="43.67417" lon="3.87847">
        <ele>92.799987792969</ele>
        <time>2016-10-09T10:14:17Z</time>
      </trkpt>
      <trkpt lat="43.67415" lon="3.87847">
        <ele>92.400024414062</ele>
        <time>2016-10-09T10:14:19Z</time>
      </trkpt>
      <trkpt lat="43.67412" lon="3.87848">
        <ele>91.799987792969</ele>
        <time>2016-10-09T10:14:21Z</time>
      </trkpt>
      <trkpt lat="43.67394" lon="3.87868">
        <ele>93.400024414062</ele>
        <time>2016-10-09T10:15:10Z</time>
      </trkpt>
      <trkpt lat="43.67376" lon="3.8789">
        <ele>95.799987792969</ele>
        <time>2016-10-09T10:15:56Z</time>
      </trkpt>
      <trkpt lat="43.67373" lon="3.87892">
        <ele>96.200012207031</ele>
        <time>2016-10-09T10:15:58Z</time>
      </trkpt>
      <trkpt lat="43.67366" lon="3.87901">
        <ele>95</ele>
        <time>2016-10-09T10:16:03Z</time>
      </trkpt>
      <trkpt lat="43.67365" lon="3.87902">
        <ele>94.599975585938</ele>
        <time>2016-10-09T10:16:04Z</time>
      </trkpt>
      <trkpt lat="43.67361" lon="3.87906">
        <ele>93</ele>
        <time>2016-10-09T10:16:06Z</time>
      </trkpt>
      <trkpt lat="43.67357" lon="3.87911">
        <ele>91.599975585938</ele>
        <time>2016-10-09T10:16:08Z</time>
      </trkpt>
      <trkpt lat="43.67355" lon="3.87916">
        <ele>90.400024414062</ele>
        <time>2016-10-09T10:16:10Z</time>
      </trkpt>
      <trkpt lat="43.67351" lon="3.87924">
        <ele>86.400024414062</ele>
        <time>2016-10-09T10:16:16Z</time>
      </trkpt>
      <trkpt lat="43.67352" lon="3.8793">
        <ele>85.200012207031</ele>
        <time>2016-10-09T10:16:19Z</time>
      </trkpt>
      <trkpt lat="43.67353" lon="3.87937">
        <ele>84.200012207031</ele>
        <time>2016-10-09T10:16:23Z</time>
      </trkpt>
      <trkpt lat="43.67323" lon="3.87965">
        <ele>98.799987792969</ele>
        <time>2016-10-09T10:17:32Z</time>
      </trkpt>
      <trkpt lat="43.67324" lon="3.87968">
        <ele>99.599975585938</ele>
        <time>2016-10-09T10:17:33Z</time>
      </trkpt>
      <trkpt lat="43.67325" lon="3.87971">
        <ele>100.40002441406</ele>
        <time>2016-10-09T10:17:34Z</time>
      </trkpt>
      <trkpt lat="43.67328" lon="3.87974">
        <ele>102</ele>
        <time>2016-10-09T10:17:36Z</time>
      </trkpt>
      <trkpt lat="43.67328" lon="3.87976">
        <ele>102.59997558594</ele>
        <time>2016-10-09T10:17:37Z</time>
      </trkpt>
      <trkpt lat="43.67329" lon="3.87977">
        <ele>103.20001220703</ele>
        <time>2016-10-09T10:17:38Z</time>
      </trkpt>
      <trkpt lat="43.67327" lon="3.87978">
        <ele>103.79998779297</ele>
        <time>2016-10-09T10:17:39Z</time>
      </trkpt>
      <trkpt lat="43.67325" lon="3.87979">
        <ele>104.59997558594</ele>
        <time>2016-10-09T10:17:40Z</time>
      </trkpt>
      <trkpt lat="43.67321" lon="3.87983">
        <ele>105.79998779297</ele>
        <time>2016-10-09T10:17:42Z</time>
      </trkpt>
      <trkpt lat="43.67318" lon="3.87984">
        <ele>106.79998779297</ele>
        <time>2016-10-09T10:17:44Z</time>
      </trkpt>
      <trkpt lat="43.67315" lon="3.87982">
        <ele>108</ele>
        <time>2016-10-09T10:17:46Z</time>
      </trkpt>
      <trkpt lat="43.67313" lon="3.8798">
        <ele>108.40002441406</ele>
        <time>2016-10-09T10:17:47Z</time>
      </trkpt>
      <trkpt lat="43.67308" lon="3.87978">
        <ele>109.40002441406</ele>
        <time>2016-10-09T10:17:49Z</time>
      </trkpt>
      <trkpt lat="43.673" lon="3.87972">
        <ele>110.59997558594</ele>
        <time>2016-10-09T10:17:53Z</time>
      </trkpt>
      <trkpt lat="43.67293" lon="3.87966">
        <ele>111.59997558594</ele>
        <time>2016-10-09T10:17:56Z</time>
      </trkpt>
      <trkpt lat="43.67286" lon="3.87958">
        <ele>113</ele>
        <time>2016-10-09T10:18:00Z</time>
      </trkpt>
      <trkpt lat="43.67285" lon="3.87953">
        <ele>114</ele>
        <time>2016-10-09T10:18:02Z</time>
      </trkpt>
      <trkpt lat="43.67283" lon="3.87951">
        <ele>114.59997558594</ele>
        <time>2016-10-09T10:18:04Z</time>
      </trkpt>
      <trkpt lat="43.67279" lon="3.87949">
        <ele>115.40002441406</ele>
        <time>2016-10-09T10:18:06Z</time>
      </trkpt>
      <trkpt lat="43.67277" lon="3.87948">
        <ele>115.79998779297</ele>
        <time>2016-10-09T10:18:08Z</time>
      </trkpt>
      <trkpt lat="43.67273" lon="3.8795">
        <ele>116.40002441406</ele>
        <time>2016-10-09T10:18:10Z</time>
      </trkpt>
      <trkpt lat="43.67272" lon="3.8795">
        <ele>116.59997558594</ele>
        <time>2016-10-09T10:18:11Z</time>
      </trkpt>
      <trkpt lat="43.67271" lon="3.87952">
        <ele>116.59997558594</ele>
        <time>2016-10-09T10:18:12Z</time>
      </trkpt>
      <trkpt lat="43.67246" lon="3.87976">
        <ele>122</ele>
        <time>2016-10-09T10:18:45Z</time>
      </trkpt>
      <trkpt lat="43.67246" lon="3.8798">
        <ele>122.20001220703</ele>
        <time>2016-10-09T10:18:47Z</time>
      </trkpt>
      <trkpt lat="43.67245" lon="3.87988">
        <ele>122.59997558594</ele>
        <time>2016-10-09T10:18:50Z</time>
      </trkpt>
      <trkpt lat="43.67243" lon="3.87992">
        <ele>123</ele>
        <time>2016-10-09T10:18:52Z</time>
      </trkpt>
      <trkpt lat="43.67236" lon="3.88012">
        <ele>123.59997558594</ele>
        <time>2016-10-09T10:19:00Z</time>
      </trkpt>
      <trkpt lat="43.67228" lon="3.88013">
        <ele>123.59997558594</ele>
        <time>2016-10-09T10:19:05Z</time>
      </trkpt>
      <trkpt lat="43.67224" lon="3.88015">
        <ele>123.79998779297</ele>
        <time>2016-10-09T10:19:08Z</time>
      </trkpt>
      <trkpt lat="43.67218" lon="3.88017">
        <ele>124</ele>
        <time>2016-10-09T10:19:12Z</time>
      </trkpt>
      <trkpt lat="43.67216" lon="3.88019">
        <ele>124.20001220703</ele>
        <time>2016-10-09T10:19:13Z</time>
      </trkpt>
      <trkpt lat="43.67212" lon="3.88012">
        <ele>123.79998779297</ele>
        <time>2016-10-09T10:20:26Z</time>
      </trkpt>
      <trkpt lat="43.67202" lon="3.87996">
        <ele>123</ele>
        <time>2016-10-09T10:20:30Z</time>
      </trkpt>
      <trkpt lat="43.67194" lon="3.87988">
        <ele>122.59997558594</ele>
        <time>2016-10-09T10:20:32Z</time>
      </trkpt>
      <trkpt lat="43.67182" lon="3.87979">
        <ele>122</ele>
        <time>2016-10-09T10:20:34Z</time>
      </trkpt>
      <trkpt lat="43.67176" lon="3.87974">
        <ele>121.79998779297</ele>
        <time>2016-10-09T10:20:35Z</time>
      </trkpt>
      <trkpt lat="43.67161" lon="3.87955">
        <ele>121.59997558594</ele>
        <time>2016-10-09T10:20:38Z</time>
      </trkpt>
      <trkpt lat="43.67157" lon="3.87947">
        <ele>121.20001220703</ele>
        <time>2016-10-09T10:20:39Z</time>
      </trkpt>
      <trkpt lat="43.6715" lon="3.87931">
        <ele>120.79998779297</ele>
        <time>2016-10-09T10:20:41Z</time>
      </trkpt>
      <trkpt lat="43.67147" lon="3.87924">
        <ele>120.59997558594</ele>
        <time>2016-10-09T10:20:42Z</time>
      </trkpt>
      <trkpt lat="43.67142" lon="3.8791">
        <ele>120.20001220703</ele>
        <time>2016-10-09T10:20:44Z</time>
      </trkpt>
      <trkpt lat="43.67132" lon="3.87885">
        <ele>119.79998779297</ele>
        <time>2016-10-09T10:20:49Z</time>
      </trkpt>
      <trkpt lat="43.67127" lon="3.87855">
        <ele>119</ele>
        <time>2016-10-09T10:20:55Z</time>
      </trkpt>
      <trkpt lat="43.67124" lon="3.87846">
        <ele>118.79998779297</ele>
        <time>2016-10-09T10:20:57Z</time>
      </trkpt>
      <trkpt lat="43.67121" lon="3.87814">
        <ele>117.59997558594</ele>
        <time>2016-10-09T10:21:02Z</time>
      </trkpt>
      <trkpt lat="43.67121" lon="3.87808">
        <ele>117.40002441406</ele>
        <time>2016-10-09T10:21:03Z</time>
      </trkpt>
      <trkpt lat="43.6712" lon="3.87783">
        <ele>117</ele>
        <time>2016-10-09T10:21:07Z</time>
      </trkpt>
      <trkpt lat="43.67119" lon="3.87776">
        <ele>117</ele>
        <time>2016-10-09T10:21:08Z</time>
      </trkpt>
      <trkpt lat="43.6711" lon="3.87725">
        <ele>116.59997558594</ele>
        <time>2016-10-09T10:21:16Z</time>
      </trkpt>
      <trkpt lat="43.67109" lon="3.87718">
        <ele>116.59997558594</ele>
        <time>2016-10-09T10:21:17Z</time>
      </trkpt>
      <trkpt lat="43.67105" lon="3.8769">
        <ele>116</ele>
        <time>2016-10-09T10:21:21Z</time>
      </trkpt>
      <trkpt lat="43.67104" lon="3.87677">
        <ele>115.59997558594</ele>
        <time>2016-10-09T10:21:23Z</time>
      </trkpt>
      <trkpt lat="43.67103" lon="3.8767">
        <ele>115.40002441406</ele>
        <time>2016-10-09T10:21:24Z</time>
      </trkpt>
      <trkpt lat="43.67094" lon="3.87629">
        <ele>115</ele>
        <time>2016-10-09T10:21:31Z</time>
      </trkpt>
      <trkpt lat="43.67086" lon="3.87583">
        <ele>115</ele>
        <time>2016-10-09T10:21:39Z</time>
      </trkpt>
      <trkpt lat="43.67083" lon="3.87563">
        <ele>114.40002441406</ele>
        <time>2016-10-09T10:21:43Z</time>
      </trkpt>
      <trkpt lat="43.67082" lon="3.87553">
        <ele>114.40002441406</ele>
        <time>2016-10-09T10:21:45Z</time>
      </trkpt>
      <trkpt lat="43.67082" lon="3.87522">
        <ele>113.79998779297</ele>
        <time>2016-10-09T10:21:51Z</time>
      </trkpt>
      <trkpt lat="43.67083" lon="3.87507">
        <ele>113.40002441406</ele>
        <time>2016-10-09T10:21:54Z</time>
      </trkpt>
      <trkpt lat="43.67084" lon="3.87483">
        <ele>113</ele>
        <time>2016-10-09T10:21:59Z</time>
      </trkpt>
      <trkpt lat="43.67087" lon="3.87446">
        <ele>113</ele>
        <time>2016-10-09T10:22:07Z</time>
      </trkpt>
      <trkpt lat="43.67087" lon="3.8742">
        <ele>113.79998779297</ele>
        <time>2016-10-09T10:22:14Z</time>
      </trkpt>
      <trkpt lat="43.67086" lon="3.87394">
        <ele>114</ele>
        <time>2016-10-09T10:22:20Z</time>
      </trkpt>
      <trkpt lat="43.67083" lon="3.87362">
        <ele>113.79998779297</ele>
        <time>2016-10-09T10:22:27Z</time>
      </trkpt>
      <trkpt lat="43.67078" lon="3.87349">
        <ele>114.79998779297</ele>
        <time>2016-10-09T10:22:30Z</time>
      </trkpt>
      <trkpt lat="43.67075" lon="3.87336">
        <ele>115.59997558594</ele>
        <time>2016-10-09T10:22:33Z</time>
      </trkpt>
      <trkpt lat="43.67074" lon="3.87332">
        <ele>115.79998779297</ele>
        <time>2016-10-09T10:22:34Z</time>
      </trkpt>
      <trkpt lat="43.67073" lon="3.87312">
        <ele>116</ele>
        <time>2016-10-09T10:22:39Z</time>
      </trkpt>
      <trkpt lat="43.67076" lon="3.87299">
        <ele>116.20001220703</ele>
        <time>2016-10-09T10:22:43Z</time>
      </trkpt>
      <trkpt lat="43.67078" lon="3.87278">
        <ele>116</ele>
        <time>2016-10-09T10:22:49Z</time>
      </trkpt>
      <trkpt lat="43.67081" lon="3.87249">
        <ele>115.40002441406</ele>
        <time>2016-10-09T10:22:56Z</time>
      </trkpt>
      <trkpt lat="43.67077" lon="3.87232">
        <ele>115</ele>
        <time>2016-10-09T10:22:59Z</time>
      </trkpt>
      <trkpt lat="43.67073" lon="3.87225">
        <ele>114.79998779297</ele>
        <time>2016-10-09T10:23:00Z</time>
      </trkpt>
      <trkpt lat="43.67061" lon="3.872">
        <ele>113.59997558594</ele>
        <time>2016-10-09T10:23:03Z</time>
      </trkpt>
      <trkpt lat="43.67058" lon="3.87192">
        <ele>113.20001220703</ele>
        <time>2016-10-09T10:23:04Z</time>
      </trkpt>
      <trkpt lat="43.67047" lon="3.87172">
        <ele>112.40002441406</ele>
        <time>2016-10-09T10:23:07Z</time>
      </trkpt>
      <trkpt lat="43.67039" lon="3.87161">
        <ele>112</ele>
        <time>2016-10-09T10:23:09Z</time>
      </trkpt>
      <trkpt lat="43.67025" lon="3.87144">
        <ele>111.40002441406</ele>
        <time>2016-10-09T10:23:13Z</time>
      </trkpt>
      <trkpt lat="43.67018" lon="3.87136">
        <ele>111.59997558594</ele>
        <time>2016-10-09T10:23:15Z</time>
      </trkpt>
      <trkpt lat="43.67011" lon="3.87129">
        <ele>111.20001220703</ele>
        <time>2016-10-09T10:23:17Z</time>
      </trkpt>
      <trkpt lat="43.66996" lon="3.87123">
        <ele>111</ele>
        <time>2016-10-09T10:23:20Z</time>
      </trkpt>
      <trkpt lat="43.66973" lon="3.87118">
        <ele>110.20001220703</ele>
        <time>2016-10-09T10:23:24Z</time>
      </trkpt>
      <trkpt lat="43.66968" lon="3.87116">
        <ele>110</ele>
        <time>2016-10-09T10:23:25Z</time>
      </trkpt>
      <trkpt lat="43.66963" lon="3.87118">
        <ele>109.79998779297</ele>
        <time>2016-10-09T10:23:26Z</time>
      </trkpt>
      <trkpt lat="43.66955" lon="3.87121">
        <ele>109.40002441406</ele>
        <time>2016-10-09T10:23:28Z</time>
      </trkpt>
      <trkpt lat="43.66951" lon="3.8712">
        <ele>109.20001220703</ele>
        <time>2016-10-09T10:23:29Z</time>
      </trkpt>
      <trkpt lat="43.66942" lon="3.87119">
        <ele>109</ele>
        <time>2016-10-09T10:23:32Z</time>
      </trkpt>
      <trkpt lat="43.66935" lon="3.87115">
        <ele>109</ele>
        <time>2016-10-09T10:23:35Z</time>
      </trkpt>
      <trkpt lat="43.66929" lon="3.87114">
        <ele>109.20001220703</ele>
        <time>2016-10-09T10:23:37Z</time>
      </trkpt>
      <trkpt lat="43.66912" lon="3.87104">
        <ele>109.79998779297</ele>
        <time>2016-10-09T10:23:43Z</time>
      </trkpt>
      <trkpt lat="43.66902" lon="3.87094">
        <ele>109.59997558594</ele>
        <time>2016-10-09T10:23:47Z</time>
      </trkpt>
      <trkpt lat="43.66892" lon="3.87083">
        <ele>108.40002441406</ele>
        <time>2016-10-09T10:23:51Z</time>
      </trkpt>
      <trkpt lat="43.66889" lon="3.87081">
        <ele>108.20001220703</ele>
        <time>2016-10-09T10:23:52Z</time>
      </trkpt>
      <trkpt lat="43.66886" lon="3.8708">
        <ele>108</ele>
        <time>2016-10-09T10:23:53Z</time>
      </trkpt>
      <trkpt lat="43.66876" lon="3.87072">
        <ele>107.20001220703</ele>
        <time>2016-10-09T10:23:56Z</time>
      </trkpt>
      <trkpt lat="43.66872" lon="3.87071">
        <ele>106.79998779297</ele>
        <time>2016-10-09T10:23:57Z</time>
      </trkpt>
      <trkpt lat="43.66862" lon="3.87067">
        <ele>105.79998779297</ele>
        <time>2016-10-09T10:24:00Z</time>
      </trkpt>
      <trkpt lat="43.66859" lon="3.87065">
        <ele>105.40002441406</ele>
        <time>2016-10-09T10:24:01Z</time>
      </trkpt>
      <trkpt lat="43.66851" lon="3.87062">
        <ele>104.59997558594</ele>
        <time>2016-10-09T10:24:03Z</time>
      </trkpt>
      <trkpt lat="43.66844" lon="3.87055">
        <ele>104</ele>
        <time>2016-10-09T10:24:05Z</time>
      </trkpt>
      <trkpt lat="43.66841" lon="3.87051">
        <ele>103.59997558594</ele>
        <time>2016-10-09T10:24:06Z</time>
      </trkpt>
      <trkpt lat="43.66828" lon="3.8705">
        <ele>102.20001220703</ele>
        <time>2016-10-09T10:24:09Z</time>
      </trkpt>
      <trkpt lat="43.66816" lon="3.87044">
        <ele>100.79998779297</ele>
        <time>2016-10-09T10:24:12Z</time>
      </trkpt>
      <trkpt lat="43.66812" lon="3.87042">
        <ele>100.59997558594</ele>
        <time>2016-10-09T10:24:13Z</time>
      </trkpt>
      <trkpt lat="43.668" lon="3.87037">
        <ele>99.599975585938</ele>
        <time>2016-10-09T10:24:16Z</time>
      </trkpt>
      <trkpt lat="43.66793" lon="3.87034">
        <ele>98.799987792969</ele>
        <time>2016-10-09T10:24:18Z</time>
      </trkpt>
      <trkpt lat="43.66791" lon="3.87032">
        <ele>98.400024414062</ele>
        <time>2016-10-09T10:24:19Z</time>
      </trkpt>
      <trkpt lat="43.6679" lon="3.87029">
        <ele>97.799987792969</ele>
        <time>2016-10-09T10:24:20Z</time>
      </trkpt>
      <trkpt lat="43.6679" lon="3.87024">
        <ele>97.200012207031</ele>
        <time>2016-10-09T10:24:22Z</time>
      </trkpt>
      <trkpt lat="43.66785" lon="3.8702">
        <ele>96.599975585938</ele>
        <time>2016-10-09T10:24:24Z</time>
      </trkpt>
      <trkpt lat="43.66778" lon="3.87016">
        <ele>95.799987792969</ele>
        <time>2016-10-09T10:24:26Z</time>
      </trkpt>
      <trkpt lat="43.66765" lon="3.87005">
        <ele>94.400024414062</ele>
        <time>2016-10-09T10:24:29Z</time>
      </trkpt>
      <trkpt lat="43.66761" lon="3.87005">
        <ele>93.799987792969</ele>
        <time>2016-10-09T10:24:30Z</time>
      </trkpt>
      <trkpt lat="43.66757" lon="3.87005">
        <ele>93.200012207031</ele>
        <time>2016-10-09T10:24:31Z</time>
      </trkpt>
      <trkpt lat="43.66752" lon="3.87001">
        <ele>92.400024414062</ele>
        <time>2016-10-09T10:24:33Z</time>
      </trkpt>
      <trkpt lat="43.6675" lon="3.86998">
        <ele>91.799987792969</ele>
        <time>2016-10-09T10:24:34Z</time>
      </trkpt>
      <trkpt lat="43.66736" lon="3.86981">
        <ele>91.400024414062</ele>
        <time>2016-10-09T10:24:38Z</time>
      </trkpt>
      <trkpt lat="43.66732" lon="3.86975">
        <ele>90.799987792969</ele>
        <time>2016-10-09T10:24:39Z</time>
      </trkpt>
      <trkpt lat="43.66729" lon="3.8697">
        <ele>90.599975585938</ele>
        <time>2016-10-09T10:24:40Z</time>
      </trkpt>
      <trkpt lat="43.66725" lon="3.86961">
        <ele>89.799987792969</ele>
        <time>2016-10-09T10:24:43Z</time>
      </trkpt>
      <trkpt lat="43.66723" lon="3.86962">
        <ele>89.799987792969</ele>
        <time>2016-10-09T10:24:44Z</time>
      </trkpt>
      <trkpt lat="43.66719" lon="3.86963">
        <ele>89.400024414062</ele>
        <time>2016-10-09T10:24:46Z</time>
      </trkpt>
      <trkpt lat="43.66716" lon="3.86961">
        <ele>89.200012207031</ele>
        <time>2016-10-09T10:24:47Z</time>
      </trkpt>
      <trkpt lat="43.6671" lon="3.86956">
        <ele>89</ele>
        <time>2016-10-09T10:24:49Z</time>
      </trkpt>
      <trkpt lat="43.667" lon="3.86946">
        <ele>88.799987792969</ele>
        <time>2016-10-09T10:24:52Z</time>
      </trkpt>
      <trkpt lat="43.66692" lon="3.86941">
        <ele>88.799987792969</ele>
        <time>2016-10-09T10:24:54Z</time>
      </trkpt>
      <trkpt lat="43.66688" lon="3.86939">
        <ele>88.599975585938</ele>
        <time>2016-10-09T10:24:55Z</time>
      </trkpt>
      <trkpt lat="43.6668" lon="3.86935">
        <ele>87.799987792969</ele>
        <time>2016-10-09T10:24:58Z</time>
      </trkpt>
      <trkpt lat="43.66677" lon="3.86933">
        <ele>87.400024414062</ele>
        <time>2016-10-09T10:24:59Z</time>
      </trkpt>
      <trkpt lat="43.66666" lon="3.86926">
        <ele>86.799987792969</ele>
        <time>2016-10-09T10:25:02Z</time>
      </trkpt>
      <trkpt lat="43.66656" lon="3.86919">
        <ele>86.400024414062</ele>
        <time>2016-10-09T10:25:05Z</time>
      </trkpt>
      <trkpt lat="43.66644" lon="3.86904">
        <ele>86</ele>
        <time>2016-10-09T10:25:09Z</time>
      </trkpt>
      <trkpt lat="43.66637" lon="3.86881">
        <ele>85.200012207031</ele>
        <time>2016-10-09T10:25:14Z</time>
      </trkpt>
      <trkpt lat="43.6664" lon="3.86873">
        <ele>84.799987792969</ele>
        <time>2016-10-09T10:25:17Z</time>
      </trkpt>
      <trkpt lat="43.66642" lon="3.86868">
        <ele>84.400024414062</ele>
        <time>2016-10-09T10:25:19Z</time>
      </trkpt>
      <trkpt lat="43.66645" lon="3.86866">
        <ele>84.200012207031</ele>
        <time>2016-10-09T10:25:21Z</time>
      </trkpt>
      <trkpt lat="43.66646" lon="3.86864">
        <ele>83.799987792969</ele>
        <time>2016-10-09T10:25:23Z</time>
      </trkpt>
      <trkpt lat="43.66646" lon="3.86862">
        <ele>83.599975585938</ele>
        <time>2016-10-09T10:25:24Z</time>
      </trkpt>
      <trkpt lat="43.6664" lon="3.86857">
        <ele>83.200012207031</ele>
        <time>2016-10-09T10:25:27Z</time>
      </trkpt>
      <trkpt lat="43.66638" lon="3.86855">
        <ele>82.799987792969</ele>
        <time>2016-10-09T10:25:28Z</time>
      </trkpt>
      <trkpt lat="43.66636" lon="3.86852">
        <ele>82.200012207031</ele>
        <time>2016-10-09T10:25:29Z</time>
      </trkpt>
      <trkpt lat="43.66633" lon="3.86849">
        <ele>82</ele>
        <time>2016-10-09T10:25:30Z</time>
      </trkpt>
      <trkpt lat="43.66629" lon="3.86846">
        <ele>81.799987792969</ele>
        <time>2016-10-09T10:25:31Z</time>
      </trkpt>
      <trkpt lat="43.66626" lon="3.86842">
        <ele>81.599975585938</ele>
        <time>2016-10-09T10:25:32Z</time>
      </trkpt>
      <trkpt lat="43.66617" lon="3.86839">
        <ele>81</ele>
        <time>2016-10-09T10:25:35Z</time>
      </trkpt>
      <trkpt lat="43.66614" lon="3.86839">
        <ele>81</ele>
        <time>2016-10-09T10:25:36Z</time>
      </trkpt>
      <trkpt lat="43.6661" lon="3.86839">
        <ele>81</ele>
        <time>2016-10-09T10:25:37Z</time>
      </trkpt>
      <trkpt lat="43.66608" lon="3.86835">
        <ele>80.599975585938</ele>
        <time>2016-10-09T10:25:39Z</time>
      </trkpt>
      <trkpt lat="43.66607" lon="3.86834">
        <ele>80.400024414062</ele>
        <time>2016-10-09T10:25:40Z</time>
      </trkpt>
      <trkpt lat="43.66605" lon="3.86834">
        <ele>80</ele>
        <time>2016-10-09T10:25:41Z</time>
      </trkpt>
      <trkpt lat="43.66604" lon="3.86833">
        <ele>79.599975585938</ele>
        <time>2016-10-09T10:25:42Z</time>
      </trkpt>
      <trkpt lat="43.66601" lon="3.86832">
        <ele>78.400024414062</ele>
        <time>2016-10-09T10:25:44Z</time>
      </trkpt>
      <trkpt lat="43.66598" lon="3.86831">
        <ele>77.599975585938</ele>
        <time>2016-10-09T10:25:46Z</time>
      </trkpt>
      <trkpt lat="43.66597" lon="3.86829">
        <ele>77.200012207031</ele>
        <time>2016-10-09T10:25:47Z</time>
      </trkpt>
      <trkpt lat="43.66595" lon="3.86824">
        <ele>76.200012207031</ele>
        <time>2016-10-09T10:25:49Z</time>
      </trkpt>
      <trkpt lat="43.66594" lon="3.86821">
        <ele>76</ele>
        <time>2016-10-09T10:25:50Z</time>
      </trkpt>
      <trkpt lat="43.66592" lon="3.8682">
        <ele>75.400024414062</ele>
        <time>2016-10-09T10:25:51Z</time>
      </trkpt>
      <trkpt lat="43.6659" lon="3.86819">
        <ele>75</ele>
        <time>2016-10-09T10:25:53Z</time>
      </trkpt>
      <trkpt lat="43.66588" lon="3.86818">
        <ele>74.599975585938</ele>
        <time>2016-10-09T10:25:54Z</time>
      </trkpt>
      <trkpt lat="43.66582" lon="3.86812">
        <ele>74</ele>
        <time>2016-10-09T10:25:58Z</time>
      </trkpt>
      <trkpt lat="43.66573" lon="3.86808">
        <ele>73.599975585938</ele>
        <time>2016-10-09T10:26:04Z</time>
      </trkpt>
      <trkpt lat="43.66571" lon="3.86806">
        <ele>73.400024414062</ele>
        <time>2016-10-09T10:26:05Z</time>
      </trkpt>
      <trkpt lat="43.66565" lon="3.86811">
        <ele>71.200012207031</ele>
        <time>2016-10-09T10:26:16Z</time>
      </trkpt>
      <trkpt lat="43.66569" lon="3.86824">
        <ele>70.200012207031</ele>
        <time>2016-10-09T10:26:21Z</time>
      </trkpt>
      <trkpt lat="43.66571" lon="3.8683">
        <ele>69.799987792969</ele>
        <time>2016-10-09T10:26:23Z</time>
      </trkpt>
      <trkpt lat="43.6657" lon="3.86839">
        <ele>69.200012207031</ele>
        <time>2016-10-09T10:26:26Z</time>
      </trkpt>
      <trkpt lat="43.6657" lon="3.86847">
        <ele>69.200012207031</ele>
        <time>2016-10-09T10:26:29Z</time>
      </trkpt>
      <trkpt lat="43.66573" lon="3.86864">
        <ele>69.200012207031</ele>
        <time>2016-10-09T10:26:37Z</time>
      </trkpt>
      <trkpt lat="43.66576" lon="3.86874">
        <ele>70.400024414062</ele>
        <time>2016-10-09T10:26:42Z</time>
      </trkpt>
      <trkpt lat="43.66578" lon="3.86879">
        <ele>71.400024414062</ele>
        <time>2016-10-09T10:26:45Z</time>
      </trkpt>
      <trkpt lat="43.66578" lon="3.86881">
        <ele>71.400024414062</ele>
        <time>2016-10-09T10:26:46Z</time>
      </trkpt>
      <trkpt lat="43.66584" lon="3.86893">
        <ele>72.200012207031</ele>
        <time>2016-10-09T10:26:52Z</time>
      </trkpt>
      <trkpt lat="43.66585" lon="3.86898">
        <ele>72.599975585938</ele>
        <time>2016-10-09T10:26:54Z</time>
      </trkpt>
      <trkpt lat="43.66588" lon="3.86908">
        <ele>73.400024414062</ele>
        <time>2016-10-09T10:26:59Z</time>
      </trkpt>
      <trkpt lat="43.66588" lon="3.86911">
        <ele>73.799987792969</ele>
        <time>2016-10-09T10:27:01Z</time>
      </trkpt>
      <trkpt lat="43.66587" lon="3.86912">
        <ele>73.799987792969</ele>
        <time>2016-10-09T10:27:03Z</time>
      </trkpt>
      <trkpt lat="43.66583" lon="3.86908">
        <ele>74.400024414062</ele>
        <time>2016-10-09T10:27:07Z</time>
      </trkpt>
      <trkpt lat="43.66581" lon="3.86905">
        <ele>74.400024414062</ele>
        <time>2016-10-09T10:27:09Z</time>
      </trkpt>
      <trkpt lat="43.6658" lon="3.86903">
        <ele>74.799987792969</ele>
        <time>2016-10-09T10:27:10Z</time>
      </trkpt>
      <trkpt lat="43.66573" lon="3.86892">
        <ele>75.200012207031</ele>
        <time>2016-10-09T10:27:15Z</time>
      </trkpt>
      <trkpt lat="43.66554" lon="3.8687">
        <ele>74.799987792969</ele>
        <time>2016-10-09T10:27:24Z</time>
      </trkpt>
      <trkpt lat="43.66537" lon="3.86853">
        <ele>74.799987792969</ele>
        <time>2016-10-09T10:27:31Z</time>
      </trkpt>
      <trkpt lat="43.6652" lon="3.86844">
        <ele>76</ele>
        <time>2016-10-09T10:27:38Z</time>
      </trkpt>
      <trkpt lat="43.66508" lon="3.86841">
        <ele>77.200012207031</ele>
        <time>2016-10-09T10:27:42Z</time>
      </trkpt>
      <trkpt lat="43.66506" lon="3.86841">
        <ele>77.400024414062</ele>
        <time>2016-10-09T10:27:43Z</time>
      </trkpt>
      <trkpt lat="43.66497" lon="3.8684">
        <ele>78.400024414062</ele>
        <time>2016-10-09T10:27:47Z</time>
      </trkpt>
      <trkpt lat="43.66494" lon="3.86841">
        <ele>79</ele>
        <time>2016-10-09T10:27:49Z</time>
      </trkpt>
      <trkpt lat="43.66493" lon="3.86845">
        <ele>79.799987792969</ele>
        <time>2016-10-09T10:27:51Z</time>
      </trkpt>
      <trkpt lat="43.66493" lon="3.86848">
        <ele>80.200012207031</ele>
        <time>2016-10-09T10:27:53Z</time>
      </trkpt>
      <trkpt lat="43.66492" lon="3.8685">
        <ele>80.400024414062</ele>
        <time>2016-10-09T10:27:54Z</time>
      </trkpt>
      <trkpt lat="43.66491" lon="3.86852">
        <ele>80.599975585938</ele>
        <time>2016-10-09T10:27:55Z</time>
      </trkpt>
      <trkpt lat="43.6649" lon="3.86854">
        <ele>80.799987792969</ele>
        <time>2016-10-09T10:27:56Z</time>
      </trkpt>
      <trkpt lat="43.66486" lon="3.86862">
        <ele>82.200012207031</ele>
        <time>2016-10-09T10:28:01Z</time>
      </trkpt>
      <trkpt lat="43.66482" lon="3.8695">
        <ele>104</ele>
        <time>2016-10-09T10:29:46Z</time>
      </trkpt>
      <trkpt lat="43.66481" lon="3.86956">
        <ele>105.20001220703</ele>
        <time>2016-10-09T10:29:49Z</time>
      </trkpt>
      <trkpt lat="43.66481" lon="3.86959">
        <ele>105.79998779297</ele>
        <time>2016-10-09T10:29:50Z</time>
      </trkpt>
      <trkpt lat="43.66481" lon="3.86961">
        <ele>106.20001220703</ele>
        <time>2016-10-09T10:29:51Z</time>
      </trkpt>
      <trkpt lat="43.66482" lon="3.86967">
        <ele>107.59997558594</ele>
        <time>2016-10-09T10:29:54Z</time>
      </trkpt>
      <trkpt lat="43.66482" lon="3.86971">
        <ele>108.59997558594</ele>
        <time>2016-10-09T10:29:56Z</time>
      </trkpt>
      <trkpt lat="43.66482" lon="3.86975">
        <ele>109.40002441406</ele>
        <time>2016-10-09T10:29:58Z</time>
      </trkpt>
      <trkpt lat="43.66487" lon="3.86995">
        <ele>113.40002441406</ele>
        <time>2016-10-09T10:30:08Z</time>
      </trkpt>
      <trkpt lat="43.66483" lon="3.87048">
        <ele>110.59997558594</ele>
        <time>2016-10-09T10:30:39Z</time>
      </trkpt>
      <trkpt lat="43.6648" lon="3.87057">
        <ele>111.40002441406</ele>
        <time>2016-10-09T10:30:44Z</time>
      </trkpt>
      <trkpt lat="43.66478" lon="3.87058">
        <ele>111.59997558594</ele>
        <time>2016-10-09T10:30:45Z</time>
      </trkpt>
      <trkpt lat="43.66477" lon="3.8706">
        <ele>111.59997558594</ele>
        <time>2016-10-09T10:30:46Z</time>
      </trkpt>
      <trkpt lat="43.66464" lon="3.87068">
        <ele>111.40002441406</ele>
        <time>2016-10-09T10:30:52Z</time>
      </trkpt>
      <trkpt lat="43.66458" lon="3.87071">
        <ele>110.40002441406</ele>
        <time>2016-10-09T10:30:54Z</time>
      </trkpt>
      <trkpt lat="43.66453" lon="3.87078">
        <ele>109.20001220703</ele>
        <time>2016-10-09T10:30:56Z</time>
      </trkpt>
      <trkpt lat="43.6645" lon="3.87082">
        <ele>108.59997558594</ele>
        <time>2016-10-09T10:30:57Z</time>
      </trkpt>
      <trkpt lat="43.66447" lon="3.87085">
        <ele>108</ele>
        <time>2016-10-09T10:30:58Z</time>
      </trkpt>
      <trkpt lat="43.6644" lon="3.87087">
        <ele>107.40002441406</ele>
        <time>2016-10-09T10:31:00Z</time>
      </trkpt>
      <trkpt lat="43.66436" lon="3.87088">
        <ele>107.20001220703</ele>
        <time>2016-10-09T10:31:01Z</time>
      </trkpt>
      <trkpt lat="43.66433" lon="3.8709">
        <ele>107</ele>
        <time>2016-10-09T10:31:02Z</time>
      </trkpt>
      <trkpt lat="43.66428" lon="3.871">
        <ele>104</ele>
        <time>2016-10-09T10:31:59Z</time>
      </trkpt>
      <trkpt lat="43.66421" lon="3.87101">
        <ele>103</ele>
        <time>2016-10-09T10:32:02Z</time>
      </trkpt>
      <trkpt lat="43.66418" lon="3.87101">
        <ele>102.40002441406</ele>
        <time>2016-10-09T10:32:03Z</time>
      </trkpt>
      <trkpt lat="43.66411" lon="3.87103">
        <ele>101</ele>
        <time>2016-10-09T10:32:05Z</time>
      </trkpt>
      <trkpt lat="43.66409" lon="3.87106">
        <ele>100</ele>
        <time>2016-10-09T10:32:06Z</time>
      </trkpt>
      <trkpt lat="43.66407" lon="3.87109">
        <ele>98.400024414062</ele>
        <time>2016-10-09T10:32:07Z</time>
      </trkpt>
      <trkpt lat="43.66406" lon="3.87112">
        <ele>96.599975585938</ele>
        <time>2016-10-09T10:32:08Z</time>
      </trkpt>
      <trkpt lat="43.66404" lon="3.87114">
        <ele>95</ele>
        <time>2016-10-09T10:32:09Z</time>
      </trkpt>
      <trkpt lat="43.66402" lon="3.87116">
        <ele>93</ele>
        <time>2016-10-09T10:32:10Z</time>
      </trkpt>
      <trkpt lat="43.66399" lon="3.87119">
        <ele>91</ele>
        <time>2016-10-09T10:32:11Z</time>
      </trkpt>
      <trkpt lat="43.66397" lon="3.87121">
        <ele>89</ele>
        <time>2016-10-09T10:32:12Z</time>
      </trkpt>
      <trkpt lat="43.66395" lon="3.87123">
        <ele>87.200012207031</ele>
        <time>2016-10-09T10:32:13Z</time>
      </trkpt>
      <trkpt lat="43.66393" lon="3.87125">
        <ele>85.599975585938</ele>
        <time>2016-10-09T10:32:14Z</time>
      </trkpt>
      <trkpt lat="43.6639" lon="3.87127">
        <ele>84</ele>
        <time>2016-10-09T10:32:15Z</time>
      </trkpt>
      <trkpt lat="43.66389" lon="3.87129">
        <ele>82.400024414062</ele>
        <time>2016-10-09T10:32:16Z</time>
      </trkpt>
      <trkpt lat="43.66387" lon="3.87132">
        <ele>80.799987792969</ele>
        <time>2016-10-09T10:32:17Z</time>
      </trkpt>
      <trkpt lat="43.66385" lon="3.87133">
        <ele>79</ele>
        <time>2016-10-09T10:32:18Z</time>
      </trkpt>
      <trkpt lat="43.66384" lon="3.87135">
        <ele>77.400024414062</ele>
        <time>2016-10-09T10:32:19Z</time>
      </trkpt>
      <trkpt lat="43.66383" lon="3.87136">
        <ele>75.799987792969</ele>
        <time>2016-10-09T10:32:20Z</time>
      </trkpt>
      <trkpt lat="43.66382" lon="3.87137">
        <ele>74.400024414062</ele>
        <time>2016-10-09T10:32:21Z</time>
      </trkpt>
      <trkpt lat="43.6638" lon="3.87138">
        <ele>73</ele>
        <time>2016-10-09T10:32:22Z</time>
      </trkpt>
      <trkpt lat="43.66378" lon="3.87139">
        <ele>71.599975585938</ele>
        <time>2016-10-09T10:32:23Z</time>
      </trkpt>
      <trkpt lat="43.66378" lon="3.87139">
        <ele>70.400024414062</ele>
        <time>2016-10-09T10:32:24Z</time>
      </trkpt>
      <trkpt lat="43.66376" lon="3.87138">
        <ele>69.400024414062</ele>
        <time>2016-10-09T10:32:25Z</time>
      </trkpt>
      <trkpt lat="43.66374" lon="3.87138">
        <ele>68.400024414062</ele>
        <time>2016-10-09T10:32:26Z</time>
      </trkpt>
      <trkpt lat="43.6637" lon="3.87136">
        <ele>67</ele>
        <time>2016-10-09T10:32:28Z</time>
      </trkpt>
      <trkpt lat="43.66368" lon="3.87133">
        <ele>65.599975585938</ele>
        <time>2016-10-09T10:32:30Z</time>
      </trkpt>
      <trkpt lat="43.66363" lon="3.87129">
        <ele>64.200012207031</ele>
        <time>2016-10-09T10:32:33Z</time>
      </trkpt>
      <trkpt lat="43.66361" lon="3.8713">
        <ele>63.799987792969</ele>
        <time>2016-10-09T10:32:34Z</time>
      </trkpt>
      <trkpt lat="43.66359" lon="3.87143">
        <ele>63.200012207031</ele>
        <time>2016-10-09T10:32:37Z</time>
      </trkpt>
      <trkpt lat="43.66359" lon="3.87147">
        <ele>62.799987792969</ele>
        <time>2016-10-09T10:32:38Z</time>
      </trkpt>
      <trkpt lat="43.66359" lon="3.87154">
        <ele>62.400024414062</ele>
        <time>2016-10-09T10:32:41Z</time>
      </trkpt>
      <trkpt lat="43.66358" lon="3.87155">
        <ele>62.400024414062</ele>
        <time>2016-10-09T10:32:42Z</time>
      </trkpt>
      <trkpt lat="43.66352" lon="3.87165">
        <ele>61.799987792969</ele>
        <time>2016-10-09T10:32:47Z</time>
      </trkpt>
      <trkpt lat="43.66348" lon="3.8717">
        <ele>60.799987792969</ele>
        <time>2016-10-09T10:32:50Z</time>
      </trkpt>
      <trkpt lat="43.66341" lon="3.87168">
        <ele>60.200012207031</ele>
        <time>2016-10-09T10:33:03Z</time>
      </trkpt>
      <trkpt lat="43.66338" lon="3.87167">
        <ele>59.799987792969</ele>
        <time>2016-10-09T10:33:04Z</time>
      </trkpt>
      <trkpt lat="43.66334" lon="3.87166">
        <ele>58.599975585938</ele>
        <time>2016-10-09T10:33:06Z</time>
      </trkpt>
      <trkpt lat="43.66324" lon="3.87156">
        <ele>58.200012207031</ele>
        <time>2016-10-09T10:33:10Z</time>
      </trkpt>
      <trkpt lat="43.6632" lon="3.87153">
        <ele>57.200012207031</ele>
        <time>2016-10-09T10:33:13Z</time>
      </trkpt>
      <trkpt lat="43.66301" lon="3.87153">
        <ele>57.400024414062</ele>
        <time>2016-10-09T10:33:40Z</time>
      </trkpt>
      <trkpt lat="43.66298" lon="3.87153">
        <ele>58.200012207031</ele>
        <time>2016-10-09T10:33:41Z</time>
      </trkpt>
      <trkpt lat="43.66296" lon="3.87153">
        <ele>59</ele>
        <time>2016-10-09T10:33:42Z</time>
      </trkpt>
      <trkpt lat="43.6629" lon="3.87154">
        <ele>60.200012207031</ele>
        <time>2016-10-09T10:33:44Z</time>
      </trkpt>
      <trkpt lat="43.66284" lon="3.87154">
        <ele>61.599975585938</ele>
        <time>2016-10-09T10:33:46Z</time>
      </trkpt>
      <trkpt lat="43.6628" lon="3.87155">
        <ele>62.400024414062</ele>
        <time>2016-10-09T10:33:47Z</time>
      </trkpt>
      <trkpt lat="43.66277" lon="3.87154">
        <ele>62.799987792969</ele>
        <time>2016-10-09T10:33:48Z</time>
      </trkpt>
      <trkpt lat="43.66272" lon="3.87154">
        <ele>64</ele>
        <time>2016-10-09T10:33:50Z</time>
      </trkpt>
      <trkpt lat="43.66266" lon="3.87154">
        <ele>65.200012207031</ele>
        <time>2016-10-09T10:33:52Z</time>
      </trkpt>
      <trkpt lat="43.6625" lon="3.87156">
        <ele>66.200012207031</ele>
        <time>2016-10-09T10:33:58Z</time>
      </trkpt>
      <trkpt lat="43.66247" lon="3.87156">
        <ele>66.200012207031</ele>
        <time>2016-10-09T10:33:59Z</time>
      </trkpt>
      <trkpt lat="43.66231" lon="3.87153">
        <ele>67.200012207031</ele>
        <time>2016-10-09T10:34:04Z</time>
      </trkpt>
      <trkpt lat="43.66221" lon="3.87152">
        <ele>68.400024414062</ele>
        <time>2016-10-09T10:34:07Z</time>
      </trkpt>
      <trkpt lat="43.66212" lon="3.87147">
        <ele>68.799987792969</ele>
        <time>2016-10-09T10:34:10Z</time>
      </trkpt>
      <trkpt lat="43.66207" lon="3.87142">
        <ele>69.400024414062</ele>
        <time>2016-10-09T10:34:12Z</time>
      </trkpt>
      <trkpt lat="43.662" lon="3.87136">
        <ele>70.400024414062</ele>
        <time>2016-10-09T10:34:15Z</time>
      </trkpt>
      <trkpt lat="43.66197" lon="3.87134">
        <ele>70.599975585938</ele>
        <time>2016-10-09T10:34:16Z</time>
      </trkpt>
      <trkpt lat="43.66188" lon="3.87132">
        <ele>71.200012207031</ele>
        <time>2016-10-09T10:34:19Z</time>
      </trkpt>
      <trkpt lat="43.66184" lon="3.87134">
        <ele>71.799987792969</ele>
        <time>2016-10-09T10:34:21Z</time>
      </trkpt>
      <trkpt lat="43.66179" lon="3.87135">
        <ele>72</ele>
        <time>2016-10-09T10:34:24Z</time>
      </trkpt>
      <trkpt lat="43.66178" lon="3.87133">
        <ele>72</ele>
        <time>2016-10-09T10:34:25Z</time>
      </trkpt>
      <trkpt lat="43.66171" lon="3.87118">
        <ele>71.400024414062</ele>
        <time>2016-10-09T10:34:31Z</time>
      </trkpt>
      <trkpt lat="43.66163" lon="3.87105">
        <ele>70.799987792969</ele>
        <time>2016-10-09T10:34:36Z</time>
      </trkpt>
      <trkpt lat="43.66154" lon="3.87089">
        <ele>69.799987792969</ele>
        <time>2016-10-09T10:34:41Z</time>
      </trkpt>
      <trkpt lat="43.66151" lon="3.87084">
        <ele>69.599975585938</ele>
        <time>2016-10-09T10:34:42Z</time>
      </trkpt>
      <trkpt lat="43.66144" lon="3.87069">
        <ele>68.799987792969</ele>
        <time>2016-10-09T10:34:45Z</time>
      </trkpt>
      <trkpt lat="43.66143" lon="3.87064">
        <ele>68.400024414062</ele>
        <time>2016-10-09T10:34:46Z</time>
      </trkpt>
      <trkpt lat="43.66137" lon="3.87048">
        <ele>67</ele>
        <time>2016-10-09T10:34:50Z</time>
      </trkpt>
      <trkpt lat="43.66132" lon="3.87036">
        <ele>66</ele>
        <time>2016-10-09T10:34:53Z</time>
      </trkpt>
      <trkpt lat="43.6613" lon="3.87033">
        <ele>65.599975585938</ele>
        <time>2016-10-09T10:34:54Z</time>
      </trkpt>
      <trkpt lat="43.66125" lon="3.87025">
        <ele>65</ele>
        <time>2016-10-09T10:34:56Z</time>
      </trkpt>
      <trkpt lat="43.66121" lon="3.87022">
        <ele>65</ele>
        <time>2016-10-09T10:34:57Z</time>
      </trkpt>
      <trkpt lat="43.66119" lon="3.8702">
        <ele>64.799987792969</ele>
        <time>2016-10-09T10:34:58Z</time>
      </trkpt>
      <trkpt lat="43.66119" lon="3.8701">
        <ele>64.400024414062</ele>
        <time>2016-10-09T10:35:01Z</time>
      </trkpt>
      <trkpt lat="43.66125" lon="3.87001">
        <ele>64.400024414062</ele>
        <time>2016-10-09T10:35:04Z</time>
      </trkpt>
      <trkpt lat="43.66129" lon="3.86994">
        <ele>64.599975585938</ele>
        <time>2016-10-09T10:35:06Z</time>
      </trkpt>
      <trkpt lat="43.66138" lon="3.86974">
        <ele>65.200012207031</ele>
        <time>2016-10-09T10:35:11Z</time>
      </trkpt>
      <trkpt lat="43.6615" lon="3.86965">
        <ele>65</ele>
        <time>2016-10-09T10:35:15Z</time>
      </trkpt>
      <trkpt lat="43.66165" lon="3.86947">
        <ele>64.200012207031</ele>
        <time>2016-10-09T10:35:21Z</time>
      </trkpt>
      <trkpt lat="43.66169" lon="3.86943">
        <ele>64.200012207031</ele>
        <time>2016-10-09T10:35:22Z</time>
      </trkpt>
      <trkpt lat="43.66176" lon="3.86937">
        <ele>63.799987792969</ele>
        <time>2016-10-09T10:35:24Z</time>
      </trkpt>
      <trkpt lat="43.66181" lon="3.86931">
        <ele>64</ele>
        <time>2016-10-09T10:35:26Z</time>
      </trkpt>
      <trkpt lat="43.6619" lon="3.86914">
        <ele>64.200012207031</ele>
        <time>2016-10-09T10:35:31Z</time>
      </trkpt>
      <trkpt lat="43.66201" lon="3.8691">
        <ele>65</ele>
        <time>2016-10-09T10:35:35Z</time>
      </trkpt>
      <trkpt lat="43.66215" lon="3.86905">
        <ele>65.599975585938</ele>
        <time>2016-10-09T10:35:40Z</time>
      </trkpt>
      <trkpt lat="43.6623" lon="3.86896">
        <ele>65.400024414062</ele>
        <time>2016-10-09T10:35:44Z</time>
      </trkpt>
      <trkpt lat="43.66245" lon="3.86891">
        <ele>65.400024414062</ele>
        <time>2016-10-09T10:35:48Z</time>
      </trkpt>
      <trkpt lat="43.66257" lon="3.86882">
        <ele>65.599975585938</ele>
        <time>2016-10-09T10:35:53Z</time>
      </trkpt>
      <trkpt lat="43.66274" lon="3.86876">
        <ele>65.599975585938</ele>
        <time>2016-10-09T10:35:58Z</time>
      </trkpt>
      <trkpt lat="43.66277" lon="3.86871">
        <ele>66</ele>
        <time>2016-10-09T10:36:00Z</time>
      </trkpt>
      <trkpt lat="43.66277" lon="3.86867">
        <ele>66.200012207031</ele>
        <time>2016-10-09T10:36:01Z</time>
      </trkpt>
      <trkpt lat="43.6627" lon="3.86835">
        <ele>66.200012207031</ele>
        <time>2016-10-09T10:36:07Z</time>
      </trkpt>
      <trkpt lat="43.66264" lon="3.86819">
        <ele>65.400024414062</ele>
        <time>2016-10-09T10:36:10Z</time>
      </trkpt>
      <trkpt lat="43.66257" lon="3.86809">
        <ele>65</ele>
        <time>2016-10-09T10:36:12Z</time>
      </trkpt>
      <trkpt lat="43.66244" lon="3.86794">
        <ele>64</ele>
        <time>2016-10-09T10:36:15Z</time>
      </trkpt>
      <trkpt lat="43.66235" lon="3.86783">
        <ele>63</ele>
        <time>2016-10-09T10:36:17Z</time>
      </trkpt>
      <trkpt lat="43.66231" lon="3.86776">
        <ele>62.599975585938</ele>
        <time>2016-10-09T10:36:18Z</time>
      </trkpt>
      <trkpt lat="43.66225" lon="3.86763">
        <ele>61.799987792969</ele>
        <time>2016-10-09T10:36:20Z</time>
      </trkpt>
      <trkpt lat="43.66222" lon="3.86752">
        <ele>61.400024414062</ele>
        <time>2016-10-09T10:36:22Z</time>
      </trkpt>
      <trkpt lat="43.66225" lon="3.86738">
        <ele>61.400024414062</ele>
        <time>2016-10-09T10:36:25Z</time>
      </trkpt>
      <trkpt lat="43.66228" lon="3.86736">
        <ele>61.400024414062</ele>
        <time>2016-10-09T10:36:26Z</time>
      </trkpt>
      <trkpt lat="43.66242" lon="3.86731">
        <ele>61.400024414062</ele>
        <time>2016-10-09T10:36:30Z</time>
      </trkpt>
      <trkpt lat="43.66267" lon="3.86731">
        <ele>61.400024414062</ele>
        <time>2016-10-09T10:36:37Z</time>
      </trkpt>
      <trkpt lat="43.66293" lon="3.86726">
        <ele>61.400024414062</ele>
        <time>2016-10-09T10:36:43Z</time>
      </trkpt>
      <trkpt lat="43.66306" lon="3.86725">
        <ele>61.200012207031</ele>
        <time>2016-10-09T10:36:47Z</time>
      </trkpt>
      <trkpt lat="43.66323" lon="3.86735">
        <ele>60.599975585938</ele>
        <time>2016-10-09T10:36:52Z</time>
      </trkpt>
      <trkpt lat="43.66332" lon="3.86744">
        <ele>60.400024414062</ele>
        <time>2016-10-09T10:36:55Z</time>
      </trkpt>
      <trkpt lat="43.66338" lon="3.86749">
        <ele>60.400024414062</ele>
        <time>2016-10-09T10:36:57Z</time>
      </trkpt>
      <trkpt lat="43.66342" lon="3.86749">
        <ele>60.599975585938</ele>
        <time>2016-10-09T10:36:58Z</time>
      </trkpt>
      <trkpt lat="43.66347" lon="3.86746">
        <ele>60.599975585938</ele>
        <time>2016-10-09T10:37:00Z</time>
      </trkpt>
      <trkpt lat="43.66359" lon="3.86728">
        <ele>60.400024414062</ele>
        <time>2016-10-09T10:37:05Z</time>
      </trkpt>
      <trkpt lat="43.66366" lon="3.86708">
        <ele>59.599975585938</ele>
        <time>2016-10-09T10:37:09Z</time>
      </trkpt>
      <trkpt lat="43.66371" lon="3.86697">
        <ele>59.200012207031</ele>
        <time>2016-10-09T10:37:11Z</time>
      </trkpt>
      <trkpt lat="43.66377" lon="3.8669">
        <ele>59</ele>
        <time>2016-10-09T10:37:13Z</time>
      </trkpt>
      <trkpt lat="43.66389" lon="3.86676">
        <ele>58.200012207031</ele>
        <time>2016-10-09T10:37:18Z</time>
      </trkpt>
      <trkpt lat="43.66392" lon="3.86674">
        <ele>58.200012207031</ele>
        <time>2016-10-09T10:37:19Z</time>
      </trkpt>
      <trkpt lat="43.66413" lon="3.86661">
        <ele>57</ele>
        <time>2016-10-09T10:37:25Z</time>
      </trkpt>
      <trkpt lat="43.66421" lon="3.8666">
        <ele>57.599975585938</ele>
        <time>2016-10-09T10:37:42Z</time>
      </trkpt>
      <trkpt lat="43.66425" lon="3.86663">
        <ele>57.200012207031</ele>
        <time>2016-10-09T10:37:44Z</time>
      </trkpt>
      <trkpt lat="43.66429" lon="3.86669">
        <ele>57.400024414062</ele>
        <time>2016-10-09T10:37:47Z</time>
      </trkpt>
      <trkpt lat="43.66442" lon="3.8667">
        <ele>57</ele>
        <time>2016-10-09T10:37:52Z</time>
      </trkpt>
      <trkpt lat="43.66453" lon="3.86665">
        <ele>56.200012207031</ele>
        <time>2016-10-09T10:37:55Z</time>
      </trkpt>
      <trkpt lat="43.66459" lon="3.86667">
        <ele>56.200012207031</ele>
        <time>2016-10-09T10:37:57Z</time>
      </trkpt>
      <trkpt lat="43.66475" lon="3.86669">
        <ele>56.799987792969</ele>
        <time>2016-10-09T10:38:02Z</time>
      </trkpt>
      <trkpt lat="43.66481" lon="3.86668">
        <ele>57</ele>
        <time>2016-10-09T10:38:04Z</time>
      </trkpt>
      <trkpt lat="43.66499" lon="3.86662">
        <ele>58</ele>
        <time>2016-10-09T10:38:10Z</time>
      </trkpt>
      <trkpt lat="43.66505" lon="3.8666">
        <ele>58.400024414062</ele>
        <time>2016-10-09T10:38:12Z</time>
      </trkpt>
      <trkpt lat="43.66519" lon="3.86651">
        <ele>59</ele>
        <time>2016-10-09T10:38:17Z</time>
      </trkpt>
      <trkpt lat="43.66527" lon="3.86649">
        <ele>59</ele>
        <time>2016-10-09T10:38:19Z</time>
      </trkpt>
      <trkpt lat="43.66538" lon="3.86649">
        <ele>58.799987792969</ele>
        <time>2016-10-09T10:38:21Z</time>
      </trkpt>
      <trkpt lat="43.66549" lon="3.86647">
        <ele>59</ele>
        <time>2016-10-09T10:38:23Z</time>
      </trkpt>
      <trkpt lat="43.66558" lon="3.86646">
        <ele>59</ele>
        <time>2016-10-09T10:38:25Z</time>
      </trkpt>
      <trkpt lat="43.66562" lon="3.86645">
        <ele>59</ele>
        <time>2016-10-09T10:38:26Z</time>
      </trkpt>
      <trkpt lat="43.66571" lon="3.86646">
        <ele>59.200012207031</ele>
        <time>2016-10-09T10:38:29Z</time>
      </trkpt>
      <trkpt lat="43.66577" lon="3.86645">
        <ele>59.400024414062</ele>
        <time>2016-10-09T10:38:31Z</time>
      </trkpt>
      <trkpt lat="43.66601" lon="3.86646">
        <ele>59.599975585938</ele>
        <time>2016-10-09T10:38:37Z</time>
      </trkpt>
      <trkpt lat="43.66626" lon="3.86653">
        <ele>60</ele>
        <time>2016-10-09T10:38:44Z</time>
      </trkpt>
      <trkpt lat="43.66633" lon="3.86654">
        <ele>60.200012207031</ele>
        <time>2016-10-09T10:38:46Z</time>
      </trkpt>
      <trkpt lat="43.66639" lon="3.86655">
        <ele>60.799987792969</ele>
        <time>2016-10-09T10:38:49Z</time>
      </trkpt>
      <trkpt lat="43.66648" lon="3.86658">
        <ele>61.200012207031</ele>
        <time>2016-10-09T10:39:57Z</time>
      </trkpt>
      <trkpt lat="43.66653" lon="3.86662">
        <ele>61</ele>
        <time>2016-10-09T10:39:59Z</time>
      </trkpt>
      <trkpt lat="43.66664" lon="3.86668">
        <ele>60.799987792969</ele>
        <time>2016-10-09T10:40:03Z</time>
      </trkpt>
      <trkpt lat="43.66671" lon="3.86672">
        <ele>60.400024414062</ele>
        <time>2016-10-09T10:40:07Z</time>
      </trkpt>
      <trkpt lat="43.66676" lon="3.86678">
        <ele>58.799987792969</ele>
        <time>2016-10-09T10:40:10Z</time>
      </trkpt>
      <trkpt lat="43.66677" lon="3.86679">
        <ele>58.200012207031</ele>
        <time>2016-10-09T10:40:11Z</time>
      </trkpt>
      <trkpt lat="43.66679" lon="3.8668">
        <ele>57.599975585938</ele>
        <time>2016-10-09T10:40:12Z</time>
      </trkpt>
      <trkpt lat="43.66682" lon="3.86684">
        <ele>56.599975585938</ele>
        <time>2016-10-09T10:40:14Z</time>
      </trkpt>
      <trkpt lat="43.66686" lon="3.8669">
        <ele>55.200012207031</ele>
        <time>2016-10-09T10:40:17Z</time>
      </trkpt>
      <trkpt lat="43.6669" lon="3.86695">
        <ele>54.599975585938</ele>
        <time>2016-10-09T10:40:19Z</time>
      </trkpt>
      <trkpt lat="43.66693" lon="3.867">
        <ele>54.200012207031</ele>
        <time>2016-10-09T10:40:21Z</time>
      </trkpt>
      <trkpt lat="43.66698" lon="3.86703">
        <ele>53.799987792969</ele>
        <time>2016-10-09T10:40:23Z</time>
      </trkpt>
      <trkpt lat="43.66711" lon="3.86715">
        <ele>53.599975585938</ele>
        <time>2016-10-09T10:40:28Z</time>
      </trkpt>
      <trkpt lat="43.66722" lon="3.86729">
        <ele>55.200012207031</ele>
        <time>2016-10-09T10:40:33Z</time>
      </trkpt>
      <trkpt lat="43.66728" lon="3.86737">
        <ele>56.200012207031</ele>
        <time>2016-10-09T10:40:36Z</time>
      </trkpt>
      <trkpt lat="43.6673" lon="3.8674">
        <ele>56.400024414062</ele>
        <time>2016-10-09T10:40:37Z</time>
      </trkpt>
      <trkpt lat="43.6674" lon="3.86756">
        <ele>57.400024414062</ele>
        <time>2016-10-09T10:40:42Z</time>
      </trkpt>
      <trkpt lat="43.66752" lon="3.86775">
        <ele>58.799987792969</ele>
        <time>2016-10-09T10:40:47Z</time>
      </trkpt>
      <trkpt lat="43.66769" lon="3.86791">
        <ele>58.599975585938</ele>
        <time>2016-10-09T10:40:52Z</time>
      </trkpt>
      <trkpt lat="43.66772" lon="3.86796">
        <ele>59</ele>
        <time>2016-10-09T10:40:54Z</time>
      </trkpt>
      <trkpt lat="43.66774" lon="3.868">
        <ele>59.599975585938</ele>
        <time>2016-10-09T10:40:56Z</time>
      </trkpt>
      <trkpt lat="43.66775" lon="3.86802">
        <ele>59.799987792969</ele>
        <time>2016-10-09T10:40:57Z</time>
      </trkpt>
      <trkpt lat="43.66781" lon="3.86808">
        <ele>59.799987792969</ele>
        <time>2016-10-09T10:41:01Z</time>
      </trkpt>
      <trkpt lat="43.66782" lon="3.8681">
        <ele>59.799987792969</ele>
        <time>2016-10-09T10:41:02Z</time>
      </trkpt>
      <trkpt lat="43.66783" lon="3.86812">
        <ele>60</ele>
        <time>2016-10-09T10:41:03Z</time>
      </trkpt>
      <trkpt lat="43.66789" lon="3.86815">
        <ele>60</ele>
        <time>2016-10-09T10:41:05Z</time>
      </trkpt>
      <trkpt lat="43.66794" lon="3.86821">
        <ele>57.599975585938</ele>
        <time>2016-10-09T10:41:49Z</time>
      </trkpt>
      <trkpt lat="43.66798" lon="3.86826">
        <ele>56.599975585938</ele>
        <time>2016-10-09T10:41:51Z</time>
      </trkpt>
      <trkpt lat="43.66806" lon="3.86832">
        <ele>55.799987792969</ele>
        <time>2016-10-09T10:41:54Z</time>
      </trkpt>
      <trkpt lat="43.6681" lon="3.86835">
        <ele>55.400024414062</ele>
        <time>2016-10-09T10:41:55Z</time>
      </trkpt>
      <trkpt lat="43.66816" lon="3.8684">
        <ele>54.200012207031</ele>
        <time>2016-10-09T10:41:57Z</time>
      </trkpt>
      <trkpt lat="43.66824" lon="3.86846">
        <ele>53.200012207031</ele>
        <time>2016-10-09T10:41:59Z</time>
      </trkpt>
      <trkpt lat="43.66828" lon="3.86848">
        <ele>52.599975585938</ele>
        <time>2016-10-09T10:42:00Z</time>
      </trkpt>
      <trkpt lat="43.66832" lon="3.86849">
        <ele>52</ele>
        <time>2016-10-09T10:42:01Z</time>
      </trkpt>
      <trkpt lat="43.66839" lon="3.86853">
        <ele>50.599975585938</ele>
        <time>2016-10-09T10:42:03Z</time>
      </trkpt>
      <trkpt lat="43.66846" lon="3.86856">
        <ele>49.599975585938</ele>
        <time>2016-10-09T10:42:05Z</time>
      </trkpt>
      <trkpt lat="43.66849" lon="3.86857">
        <ele>49</ele>
        <time>2016-10-09T10:42:06Z</time>
      </trkpt>
      <trkpt lat="43.66856" lon="3.86858">
        <ele>48.200012207031</ele>
        <time>2016-10-09T10:42:08Z</time>
      </trkpt>
      <trkpt lat="43.6687" lon="3.86864">
        <ele>47</ele>
        <time>2016-10-09T10:42:12Z</time>
      </trkpt>
      <trkpt lat="43.66889" lon="3.8687">
        <ele>46.799987792969</ele>
        <time>2016-10-09T10:42:18Z</time>
      </trkpt>
      <trkpt lat="43.6691" lon="3.8687">
        <ele>46.599975585938</ele>
        <time>2016-10-09T10:42:24Z</time>
      </trkpt>
      <trkpt lat="43.66924" lon="3.8687">
        <ele>46.799987792969</ele>
        <time>2016-10-09T10:42:29Z</time>
      </trkpt>
      <trkpt lat="43.66934" lon="3.86873">
        <ele>48.200012207031</ele>
        <time>2016-10-09T10:42:34Z</time>
      </trkpt>
      <trkpt lat="43.66936" lon="3.86873">
        <ele>48.599975585938</ele>
        <time>2016-10-09T10:42:35Z</time>
      </trkpt>
      <trkpt lat="43.66939" lon="3.86872">
        <ele>49.599975585938</ele>
        <time>2016-10-09T10:42:37Z</time>
      </trkpt>
      <trkpt lat="43.66942" lon="3.86871">
        <ele>50.799987792969</ele>
        <time>2016-10-09T10:42:39Z</time>
      </trkpt>
      <trkpt lat="43.66945" lon="3.86869">
        <ele>52</ele>
        <time>2016-10-09T10:42:42Z</time>
      </trkpt>
      <trkpt lat="43.66951" lon="3.86868">
        <ele>53.400024414062</ele>
        <time>2016-10-09T10:42:46Z</time>
      </trkpt>
      <trkpt lat="43.66954" lon="3.86869">
        <ele>54</ele>
        <time>2016-10-09T10:42:48Z</time>
      </trkpt>
      <trkpt lat="43.66956" lon="3.86869">
        <ele>54.400024414062</ele>
        <time>2016-10-09T10:42:49Z</time>
      </trkpt>
      <trkpt lat="43.66957" lon="3.86868">
        <ele>54.799987792969</ele>
        <time>2016-10-09T10:42:50Z</time>
      </trkpt>
      <trkpt lat="43.66959" lon="3.86866">
        <ele>55.799987792969</ele>
        <time>2016-10-09T10:42:53Z</time>
      </trkpt>
      <trkpt lat="43.66963" lon="3.86864">
        <ele>56.400024414062</ele>
        <time>2016-10-09T10:42:57Z</time>
      </trkpt>
      <trkpt lat="43.66969" lon="3.86859">
        <ele>56.400024414062</ele>
        <time>2016-10-09T10:43:00Z</time>
      </trkpt>
      <trkpt lat="43.66983" lon="3.86857">
        <ele>56.200012207031</ele>
        <time>2016-10-09T10:43:04Z</time>
      </trkpt>
      <trkpt lat="43.66995" lon="3.86856">
        <ele>56.200012207031</ele>
        <time>2016-10-09T10:43:08Z</time>
      </trkpt>
      <trkpt lat="43.67007" lon="3.8685">
        <ele>56.599975585938</ele>
        <time>2016-10-09T10:43:12Z</time>
      </trkpt>
      <trkpt lat="43.67009" lon="3.86849">
        <ele>56.799987792969</ele>
        <time>2016-10-09T10:43:14Z</time>
      </trkpt>
      <trkpt lat="43.67011" lon="3.8685">
        <ele>57</ele>
        <time>2016-10-09T10:43:15Z</time>
      </trkpt>
      <trkpt lat="43.67012" lon="3.86851">
        <ele>56.799987792969</ele>
        <time>2016-10-09T10:43:16Z</time>
      </trkpt>
      <trkpt lat="43.6702" lon="3.86849">
        <ele>57.400024414062</ele>
        <time>2016-10-09T10:43:19Z</time>
      </trkpt>
      <trkpt lat="43.67022" lon="3.86849">
        <ele>57.599975585938</ele>
        <time>2016-10-09T10:43:20Z</time>
      </trkpt>
      <trkpt lat="43.67024" lon="3.86849">
        <ele>57.799987792969</ele>
        <time>2016-10-09T10:43:21Z</time>
      </trkpt>
      <trkpt lat="43.67032" lon="3.86849">
        <ele>60.200012207031</ele>
        <time>2016-10-09T10:43:49Z</time>
      </trkpt>
      <trkpt lat="43.67046" lon="3.86845">
        <ele>60.599975585938</ele>
        <time>2016-10-09T10:43:53Z</time>
      </trkpt>
      <trkpt lat="43.67057" lon="3.86839">
        <ele>61.200012207031</ele>
        <time>2016-10-09T10:43:56Z</time>
      </trkpt>
      <trkpt lat="43.67061" lon="3.86839">
        <ele>61.400024414062</ele>
        <time>2016-10-09T10:43:57Z</time>
      </trkpt>
      <trkpt lat="43.67074" lon="3.86835">
        <ele>62.400024414062</ele>
        <time>2016-10-09T10:44:01Z</time>
      </trkpt>
      <trkpt lat="43.67087" lon="3.86834">
        <ele>62.799987792969</ele>
        <time>2016-10-09T10:44:06Z</time>
      </trkpt>
      <trkpt lat="43.67098" lon="3.86831">
        <ele>63.400024414062</ele>
        <time>2016-10-09T10:44:11Z</time>
      </trkpt>
      <trkpt lat="43.67111" lon="3.86826">
        <ele>64</ele>
        <time>2016-10-09T10:44:17Z</time>
      </trkpt>
      <trkpt lat="43.67115" lon="3.86825">
        <ele>64.799987792969</ele>
        <time>2016-10-09T10:44:23Z</time>
      </trkpt>
      <trkpt lat="43.67118" lon="3.86825">
        <ele>65</ele>
        <time>2016-10-09T10:44:24Z</time>
      </trkpt>
      <trkpt lat="43.67126" lon="3.86822">
        <ele>65.400024414062</ele>
        <time>2016-10-09T10:44:26Z</time>
      </trkpt>
      <trkpt lat="43.6713" lon="3.8682">
        <ele>65.599975585938</ele>
        <time>2016-10-09T10:44:27Z</time>
      </trkpt>
      <trkpt lat="43.67134" lon="3.86817">
        <ele>65.799987792969</ele>
        <time>2016-10-09T10:44:28Z</time>
      </trkpt>
      <trkpt lat="43.67142" lon="3.86816">
        <ele>66.400024414062</ele>
        <time>2016-10-09T10:44:31Z</time>
      </trkpt>
      <trkpt lat="43.67146" lon="3.86822">
        <ele>68.799987792969</ele>
        <time>2016-10-09T10:44:42Z</time>
      </trkpt>
      <trkpt lat="43.67147" lon="3.86826">
        <ele>68.599975585938</ele>
        <time>2016-10-09T10:44:44Z</time>
      </trkpt>
      <trkpt lat="43.67153" lon="3.86835">
        <ele>67.799987792969</ele>
        <time>2016-10-09T10:45:34Z</time>
      </trkpt>
      <trkpt lat="43.67154" lon="3.86838">
        <ele>67.599975585938</ele>
        <time>2016-10-09T10:45:35Z</time>
      </trkpt>
      <trkpt lat="43.67155" lon="3.8684">
        <ele>67.400024414062</ele>
        <time>2016-10-09T10:45:36Z</time>
      </trkpt>
      <trkpt lat="43.67166" lon="3.86852">
        <ele>71.200012207031</ele>
        <time>2016-10-09T10:45:51Z</time>
      </trkpt>
      <trkpt lat="43.67168" lon="3.86858">
        <ele>71.599975585938</ele>
        <time>2016-10-09T10:45:53Z</time>
      </trkpt>
      <trkpt lat="43.67174" lon="3.8685">
        <ele>76</ele>
        <time>2016-10-09T10:46:28Z</time>
      </trkpt>
      <trkpt lat="43.67175" lon="3.86848">
        <ele>76.400024414062</ele>
        <time>2016-10-09T10:46:29Z</time>
      </trkpt>
      <trkpt lat="43.67178" lon="3.86845">
        <ele>77</ele>
        <time>2016-10-09T10:46:31Z</time>
      </trkpt>
      <trkpt lat="43.67184" lon="3.86844">
        <ele>78.799987792969</ele>
        <time>2016-10-09T10:46:34Z</time>
      </trkpt>
      <trkpt lat="43.67184" lon="3.86842">
        <ele>79.400024414062</ele>
        <time>2016-10-09T10:46:35Z</time>
      </trkpt>
      <trkpt lat="43.67185" lon="3.8684">
        <ele>80.200012207031</ele>
        <time>2016-10-09T10:46:36Z</time>
      </trkpt>
      <trkpt lat="43.67187" lon="3.86837">
        <ele>81.599975585938</ele>
        <time>2016-10-09T10:46:38Z</time>
      </trkpt>
      <trkpt lat="43.67188" lon="3.86835">
        <ele>82.400024414062</ele>
        <time>2016-10-09T10:46:39Z</time>
      </trkpt>
      <trkpt lat="43.6719" lon="3.86833">
        <ele>82.799987792969</ele>
        <time>2016-10-09T10:46:40Z</time>
      </trkpt>
      <trkpt lat="43.67195" lon="3.86827">
        <ele>83.599975585938</ele>
        <time>2016-10-09T10:46:43Z</time>
      </trkpt>
      <trkpt lat="43.67196" lon="3.86826">
        <ele>83.799987792969</ele>
        <time>2016-10-09T10:46:44Z</time>
      </trkpt>
      <trkpt lat="43.67201" lon="3.86823">
        <ele>84.400024414062</ele>
        <time>2016-10-09T10:46:47Z</time>
      </trkpt>
      <trkpt lat="43.67204" lon="3.86824">
        <ele>84.400024414062</ele>
        <time>2016-10-09T10:46:49Z</time>
      </trkpt>
      <trkpt lat="43.67207" lon="3.86825">
        <ele>84.400024414062</ele>
        <time>2016-10-09T10:46:51Z</time>
      </trkpt>
      <trkpt lat="43.67215" lon="3.86822">
        <ele>84.599975585938</ele>
        <time>2016-10-09T10:46:56Z</time>
      </trkpt>
      <trkpt lat="43.6722" lon="3.86818">
        <ele>85.200012207031</ele>
        <time>2016-10-09T10:46:59Z</time>
      </trkpt>
      <trkpt lat="43.67225" lon="3.86816">
        <ele>85.799987792969</ele>
        <time>2016-10-09T10:47:01Z</time>
      </trkpt>
      <trkpt lat="43.67227" lon="3.86816">
        <ele>86.200012207031</ele>
        <time>2016-10-09T10:47:02Z</time>
      </trkpt>
      <trkpt lat="43.67232" lon="3.86816">
        <ele>86.599975585938</ele>
        <time>2016-10-09T10:47:04Z</time>
      </trkpt>
      <trkpt lat="43.67241" lon="3.86816">
        <ele>86.599975585938</ele>
        <time>2016-10-09T10:47:07Z</time>
      </trkpt>
      <trkpt lat="43.67252" lon="3.86817">
        <ele>87.200012207031</ele>
        <time>2016-10-09T10:47:11Z</time>
      </trkpt>
      <trkpt lat="43.67259" lon="3.8682">
        <ele>87.799987792969</ele>
        <time>2016-10-09T10:47:14Z</time>
      </trkpt>
      <trkpt lat="43.67284" lon="3.86836">
        <ele>85.799987792969</ele>
        <time>2016-10-09T10:47:46Z</time>
      </trkpt>
      <trkpt lat="43.67288" lon="3.8684">
        <ele>85.200012207031</ele>
        <time>2016-10-09T10:47:48Z</time>
      </trkpt>
      <trkpt lat="43.6729" lon="3.86842">
        <ele>84.599975585938</ele>
        <time>2016-10-09T10:47:49Z</time>
      </trkpt>
      <trkpt lat="43.67295" lon="3.86846">
        <ele>83.599975585938</ele>
        <time>2016-10-09T10:47:51Z</time>
      </trkpt>
      <trkpt lat="43.673" lon="3.86848">
        <ele>81.599975585938</ele>
        <time>2016-10-09T10:47:53Z</time>
      </trkpt>
      <trkpt lat="43.67304" lon="3.8685">
        <ele>79.599975585938</ele>
        <time>2016-10-09T10:47:55Z</time>
      </trkpt>
      <trkpt lat="43.67307" lon="3.86851">
        <ele>78.200012207031</ele>
        <time>2016-10-09T10:47:57Z</time>
      </trkpt>
      <trkpt lat="43.67311" lon="3.86849">
        <ele>75.799987792969</ele>
        <time>2016-10-09T10:48:47Z</time>
      </trkpt>
      <trkpt lat="43.67312" lon="3.86847">
        <ele>75.200012207031</ele>
        <time>2016-10-09T10:48:48Z</time>
      </trkpt>
      <trkpt lat="43.67315" lon="3.8684">
        <ele>74</ele>
        <time>2016-10-09T10:48:50Z</time>
      </trkpt>
      <trkpt lat="43.67318" lon="3.86835">
        <ele>73.200012207031</ele>
        <time>2016-10-09T10:48:51Z</time>
      </trkpt>
      <trkpt lat="43.67323" lon="3.86831">
        <ele>72.400024414062</ele>
        <time>2016-10-09T10:48:52Z</time>
      </trkpt>
      <trkpt lat="43.67328" lon="3.86827">
        <ele>71.400024414062</ele>
        <time>2016-10-09T10:48:53Z</time>
      </trkpt>
      <trkpt lat="43.67333" lon="3.86823">
        <ele>70.200012207031</ele>
        <time>2016-10-09T10:48:54Z</time>
      </trkpt>
      <trkpt lat="43.67336" lon="3.86817">
        <ele>69</ele>
        <time>2016-10-09T10:48:55Z</time>
      </trkpt>
      <trkpt lat="43.67338" lon="3.86812">
        <ele>67.400024414062</ele>
        <time>2016-10-09T10:48:56Z</time>
      </trkpt>
      <trkpt lat="43.67339" lon="3.86806">
        <ele>65.799987792969</ele>
        <time>2016-10-09T10:48:57Z</time>
      </trkpt>
      <trkpt lat="43.67341" lon="3.86801">
        <ele>63.799987792969</ele>
        <time>2016-10-09T10:48:58Z</time>
      </trkpt>
      <trkpt lat="43.67342" lon="3.86796">
        <ele>62</ele>
        <time>2016-10-09T10:48:59Z</time>
      </trkpt>
      <trkpt lat="43.67344" lon="3.86792">
        <ele>60</ele>
        <time>2016-10-09T10:49:00Z</time>
      </trkpt>
      <trkpt lat="43.67346" lon="3.86789">
        <ele>58.200012207031</ele>
        <time>2016-10-09T10:49:01Z</time>
      </trkpt>
      <trkpt lat="43.67349" lon="3.86786">
        <ele>56.400024414062</ele>
        <time>2016-10-09T10:49:02Z</time>
      </trkpt>
      <trkpt lat="43.67351" lon="3.86784">
        <ele>54.799987792969</ele>
        <time>2016-10-09T10:49:03Z</time>
      </trkpt>
      <trkpt lat="43.67354" lon="3.86784">
        <ele>53</ele>
        <time>2016-10-09T10:49:04Z</time>
      </trkpt>
      <trkpt lat="43.67357" lon="3.86783">
        <ele>51.400024414062</ele>
        <time>2016-10-09T10:49:05Z</time>
      </trkpt>
      <trkpt lat="43.6736" lon="3.86783">
        <ele>49.799987792969</ele>
        <time>2016-10-09T10:49:06Z</time>
      </trkpt>
      <trkpt lat="43.67362" lon="3.86782">
        <ele>48</ele>
        <time>2016-10-09T10:49:07Z</time>
      </trkpt>
      <trkpt lat="43.67365" lon="3.86781">
        <ele>46.400024414062</ele>
        <time>2016-10-09T10:49:08Z</time>
      </trkpt>
      <trkpt lat="43.67367" lon="3.86781">
        <ele>44.799987792969</ele>
        <time>2016-10-09T10:49:09Z</time>
      </trkpt>
      <trkpt lat="43.67369" lon="3.86781">
        <ele>43.400024414062</ele>
        <time>2016-10-09T10:49:10Z</time>
      </trkpt>
      <trkpt lat="43.67374" lon="3.86781">
        <ele>41.400024414062</ele>
        <time>2016-10-09T10:49:12Z</time>
      </trkpt>
      <trkpt lat="43.67377" lon="3.86781">
        <ele>40.400024414062</ele>
        <time>2016-10-09T10:49:13Z</time>
      </trkpt>
      <trkpt lat="43.67379" lon="3.86781">
        <ele>39.400024414062</ele>
        <time>2016-10-09T10:49:14Z</time>
      </trkpt>
      <trkpt lat="43.67381" lon="3.8678">
        <ele>37.799987792969</ele>
        <time>2016-10-09T10:49:16Z</time>
      </trkpt>
      <trkpt lat="43.67383" lon="3.86779">
        <ele>36.799987792969</ele>
        <time>2016-10-09T10:49:18Z</time>
      </trkpt>
      <trkpt lat="43.67382" lon="3.86782">
        <ele>36</ele>
        <time>2016-10-09T10:49:21Z</time>
      </trkpt>
      <trkpt lat="43.6738" lon="3.86782">
        <ele>35.599975585938</ele>
        <time>2016-10-09T10:49:22Z</time>
      </trkpt>
      <trkpt lat="43.67372" lon="3.86778">
        <ele>35.200012207031</ele>
        <time>2016-10-09T10:49:26Z</time>
      </trkpt>
      <trkpt lat="43.67366" lon="3.86773">
        <ele>35.400024414062</ele>
        <time>2016-10-09T10:49:29Z</time>
      </trkpt>
      <trkpt lat="43.67366" lon="3.8677">
        <ele>35.799987792969</ele>
        <time>2016-10-09T10:49:30Z</time>
      </trkpt>
      <trkpt lat="43.67365" lon="3.86754">
        <ele>36.599975585938</ele>
        <time>2016-10-09T10:49:34Z</time>
      </trkpt>
      <trkpt lat="43.67363" lon="3.86751">
        <ele>36.799987792969</ele>
        <time>2016-10-09T10:49:35Z</time>
      </trkpt>
      <trkpt lat="43.67359" lon="3.86745">
        <ele>37.599975585938</ele>
        <time>2016-10-09T10:49:37Z</time>
      </trkpt>
      <trkpt lat="43.67357" lon="3.86743">
        <ele>38</ele>
        <time>2016-10-09T10:49:38Z</time>
      </trkpt>
      <trkpt lat="43.67352" lon="3.86741">
        <ele>38.599975585938</ele>
        <time>2016-10-09T10:49:40Z</time>
      </trkpt>
      <trkpt lat="43.67346" lon="3.86737">
        <ele>39.599975585938</ele>
        <time>2016-10-09T10:49:42Z</time>
      </trkpt>
      <trkpt lat="43.67344" lon="3.86733">
        <ele>39.799987792969</ele>
        <time>2016-10-09T10:49:43Z</time>
      </trkpt>
      <trkpt lat="43.67337" lon="3.86707">
        <ele>41</ele>
        <time>2016-10-09T10:49:48Z</time>
      </trkpt>
      <trkpt lat="43.67336" lon="3.86701">
        <ele>41.200012207031</ele>
        <time>2016-10-09T10:49:49Z</time>
      </trkpt>
      <trkpt lat="43.67334" lon="3.8669">
        <ele>42.200012207031</ele>
        <time>2016-10-09T10:49:51Z</time>
      </trkpt>
      <trkpt lat="43.67331" lon="3.86679">
        <ele>43.200012207031</ele>
        <time>2016-10-09T10:49:53Z</time>
      </trkpt>
      <trkpt lat="43.67327" lon="3.86662">
        <ele>45</ele>
        <time>2016-10-09T10:49:56Z</time>
      </trkpt>
      <trkpt lat="43.67325" lon="3.86656">
        <ele>45.599975585938</ele>
        <time>2016-10-09T10:49:57Z</time>
      </trkpt>
      <trkpt lat="43.67324" lon="3.8665">
        <ele>46.200012207031</ele>
        <time>2016-10-09T10:49:58Z</time>
      </trkpt>
      <trkpt lat="43.67318" lon="3.8662">
        <ele>47.400024414062</ele>
        <time>2016-10-09T10:50:02Z</time>
      </trkpt>
      <trkpt lat="43.67304" lon="3.86556">
        <ele>46.799987792969</ele>
        <time>2016-10-09T10:50:09Z</time>
      </trkpt>
      <trkpt lat="43.67301" lon="3.86536">
        <ele>46.400024414062</ele>
        <time>2016-10-09T10:50:12Z</time>
      </trkpt>
      <trkpt lat="43.67303" lon="3.8653">
        <ele>46.200012207031</ele>
        <time>2016-10-09T10:50:13Z</time>
      </trkpt>
      <trkpt lat="43.67301" lon="3.86514">
        <ele>46</ele>
        <time>2016-10-09T10:50:16Z</time>
      </trkpt>
      <trkpt lat="43.67298" lon="3.86505">
        <ele>46</ele>
        <time>2016-10-09T10:50:18Z</time>
      </trkpt>
      <trkpt lat="43.67296" lon="3.86488">
        <ele>46.200012207031</ele>
        <time>2016-10-09T10:50:22Z</time>
      </trkpt>
      <trkpt lat="43.67303" lon="3.86472">
        <ele>46.799987792969</ele>
        <time>2016-10-09T10:50:26Z</time>
      </trkpt>
      <trkpt lat="43.67322" lon="3.8644">
        <ele>47.400024414062</ele>
        <time>2016-10-09T10:50:34Z</time>
      </trkpt>
      <trkpt lat="43.67336" lon="3.86432">
        <ele>47.200012207031</ele>
        <time>2016-10-09T10:50:38Z</time>
      </trkpt>
      <trkpt lat="43.67353" lon="3.86433">
        <ele>47.400024414062</ele>
        <time>2016-10-09T10:50:43Z</time>
      </trkpt>
      <trkpt lat="43.67356" lon="3.86432">
        <ele>47.799987792969</ele>
        <time>2016-10-09T10:50:44Z</time>
      </trkpt>
      <trkpt lat="43.67358" lon="3.86428">
        <ele>48.599975585938</ele>
        <time>2016-10-09T10:50:46Z</time>
      </trkpt>
      <trkpt lat="43.67356" lon="3.86421">
        <ele>49.599975585938</ele>
        <time>2016-10-09T10:50:49Z</time>
      </trkpt>
      <trkpt lat="43.67353" lon="3.86419">
        <ele>49.599975585938</ele>
        <time>2016-10-09T10:50:50Z</time>
      </trkpt>
      <trkpt lat="43.67351" lon="3.86416">
        <ele>49.799987792969</ele>
        <time>2016-10-09T10:50:51Z</time>
      </trkpt>
      <trkpt lat="43.67345" lon="3.86409">
        <ele>50.200012207031</ele>
        <time>2016-10-09T10:50:53Z</time>
      </trkpt>
      <trkpt lat="43.6734" lon="3.86399">
        <ele>50.799987792969</ele>
        <time>2016-10-09T10:50:56Z</time>
      </trkpt>
      <trkpt lat="43.67332" lon="3.86385">
        <ele>51.599975585938</ele>
        <time>2016-10-09T10:51:00Z</time>
      </trkpt>
      <trkpt lat="43.67319" lon="3.86364">
        <ele>51.799987792969</ele>
        <time>2016-10-09T10:51:06Z</time>
      </trkpt>
      <trkpt lat="43.67317" lon="3.8636">
        <ele>52</ele>
        <time>2016-10-09T10:51:07Z</time>
      </trkpt>
      <trkpt lat="43.67299" lon="3.86329">
        <ele>52.400024414062</ele>
        <time>2016-10-09T10:51:15Z</time>
      </trkpt>
      <trkpt lat="43.67296" lon="3.86323">
        <ele>52.599975585938</ele>
        <time>2016-10-09T10:51:16Z</time>
      </trkpt>
      <trkpt lat="43.67291" lon="3.86311">
        <ele>53.200012207031</ele>
        <time>2016-10-09T10:51:18Z</time>
      </trkpt>
      <trkpt lat="43.67291" lon="3.86304">
        <ele>53.200012207031</ele>
        <time>2016-10-09T10:51:19Z</time>
      </trkpt>
      <trkpt lat="43.67292" lon="3.86287">
        <ele>54</ele>
        <time>2016-10-09T10:51:22Z</time>
      </trkpt>
      <trkpt lat="43.67291" lon="3.86283">
        <ele>54</ele>
        <time>2016-10-09T10:51:23Z</time>
      </trkpt>
      <trkpt lat="43.67285" lon="3.86274">
        <ele>54.200012207031</ele>
        <time>2016-10-09T10:51:26Z</time>
      </trkpt>
      <trkpt lat="43.67283" lon="3.86271">
        <ele>54.200012207031</ele>
        <time>2016-10-09T10:51:27Z</time>
      </trkpt>
      <trkpt lat="43.67282" lon="3.86267">
        <ele>54.200012207031</ele>
        <time>2016-10-09T10:51:28Z</time>
      </trkpt>
      <trkpt lat="43.67284" lon="3.86262">
        <ele>54.200012207031</ele>
        <time>2016-10-09T10:51:30Z</time>
      </trkpt>
      <trkpt lat="43.67293" lon="3.86259">
        <ele>54</ele>
        <time>2016-10-09T10:51:34Z</time>
      </trkpt>
      <trkpt lat="43.67297" lon="3.86257">
        <ele>54</ele>
        <time>2016-10-09T10:51:36Z</time>
      </trkpt>
      <trkpt lat="43.67316" lon="3.86243">
        <ele>55</ele>
        <time>2016-10-09T10:51:44Z</time>
      </trkpt>
      <trkpt lat="43.67329" lon="3.86232">
        <ele>55.400024414062</ele>
        <time>2016-10-09T10:51:50Z</time>
      </trkpt>
      <trkpt lat="43.67332" lon="3.86228">
        <ele>55.599975585938</ele>
        <time>2016-10-09T10:51:52Z</time>
      </trkpt>
      <trkpt lat="43.67338" lon="3.86216">
        <ele>56</ele>
        <time>2016-10-09T10:51:57Z</time>
      </trkpt>
      <trkpt lat="43.67344" lon="3.86208">
        <ele>56.799987792969</ele>
        <time>2016-10-09T10:52:00Z</time>
      </trkpt>
      <trkpt lat="43.6735" lon="3.86202">
        <ele>57.799987792969</ele>
        <time>2016-10-09T10:52:03Z</time>
      </trkpt>
      <trkpt lat="43.67352" lon="3.862">
        <ele>58.200012207031</ele>
        <time>2016-10-09T10:52:04Z</time>
      </trkpt>
      <trkpt lat="43.67355" lon="3.86196">
        <ele>59.200012207031</ele>
        <time>2016-10-09T10:52:06Z</time>
      </trkpt>
      <trkpt lat="43.67361" lon="3.8619">
        <ele>60.200012207031</ele>
        <time>2016-10-09T10:52:09Z</time>
      </trkpt>
      <trkpt lat="43.67366" lon="3.86186">
        <ele>61.200012207031</ele>
        <time>2016-10-09T10:52:12Z</time>
      </trkpt>
      <trkpt lat="43.67367" lon="3.86185">
        <ele>61.599975585938</ele>
        <time>2016-10-09T10:52:13Z</time>
      </trkpt>
      <trkpt lat="43.67376" lon="3.8618">
        <ele>62.599975585938</ele>
        <time>2016-10-09T10:52:17Z</time>
      </trkpt>
      <trkpt lat="43.67381" lon="3.86174">
        <ele>63.400024414062</ele>
        <time>2016-10-09T10:52:20Z</time>
      </trkpt>
      <trkpt lat="43.67382" lon="3.86173">
        <ele>63.799987792969</ele>
        <time>2016-10-09T10:52:21Z</time>
      </trkpt>
      <trkpt lat="43.67389" lon="3.86166">
        <ele>64.799987792969</ele>
        <time>2016-10-09T10:52:26Z</time>
      </trkpt>
      <trkpt lat="43.6739" lon="3.86165">
        <ele>65.200012207031</ele>
        <time>2016-10-09T10:52:27Z</time>
      </trkpt>
      <trkpt lat="43.67394" lon="3.86159">
        <ele>66</ele>
        <time>2016-10-09T10:52:30Z</time>
      </trkpt>
      <trkpt lat="43.67398" lon="3.86153">
        <ele>67.200012207031</ele>
        <time>2016-10-09T10:52:34Z</time>
      </trkpt>
      <trkpt lat="43.67399" lon="3.86147">
        <ele>67.799987792969</ele>
        <time>2016-10-09T10:52:37Z</time>
      </trkpt>
      <trkpt lat="43.67401" lon="3.86139">
        <ele>68.599975585938</ele>
        <time>2016-10-09T10:52:40Z</time>
      </trkpt>
      <trkpt lat="43.67401" lon="3.86134">
        <ele>69.599975585938</ele>
        <time>2016-10-09T10:52:42Z</time>
      </trkpt>
      <trkpt lat="43.67401" lon="3.86125">
        <ele>70.599975585938</ele>
        <time>2016-10-09T10:52:46Z</time>
      </trkpt>
      <trkpt lat="43.67402" lon="3.86119">
        <ele>72</ele>
        <time>2016-10-09T10:52:49Z</time>
      </trkpt>
      <trkpt lat="43.67404" lon="3.86114">
        <ele>73.400024414062</ele>
        <time>2016-10-09T10:52:52Z</time>
      </trkpt>
      <trkpt lat="43.67405" lon="3.86111">
        <ele>73.799987792969</ele>
        <time>2016-10-09T10:52:54Z</time>
      </trkpt>
      <trkpt lat="43.67407" lon="3.86104">
        <ele>74.400024414062</ele>
        <time>2016-10-09T10:52:58Z</time>
      </trkpt>
      <trkpt lat="43.67409" lon="3.86098">
        <ele>75.200012207031</ele>
        <time>2016-10-09T10:53:02Z</time>
      </trkpt>
      <trkpt lat="43.67409" lon="3.86096">
        <ele>75.599975585938</ele>
        <time>2016-10-09T10:53:03Z</time>
      </trkpt>
      <trkpt lat="43.67406" lon="3.86089">
        <ele>76</ele>
        <time>2016-10-09T10:53:07Z</time>
      </trkpt>
      <trkpt lat="43.67406" lon="3.86086">
        <ele>76</ele>
        <time>2016-10-09T10:53:08Z</time>
      </trkpt>
      <trkpt lat="43.67403" lon="3.86076">
        <ele>76</ele>
        <time>2016-10-09T10:53:12Z</time>
      </trkpt>
      <trkpt lat="43.67402" lon="3.86074">
        <ele>76</ele>
        <time>2016-10-09T10:53:13Z</time>
      </trkpt>
      <trkpt lat="43.67401" lon="3.86068">
        <ele>76.599975585938</ele>
        <time>2016-10-09T10:53:17Z</time>
      </trkpt>
      <trkpt lat="43.67401" lon="3.86059">
        <ele>76.799987792969</ele>
        <time>2016-10-09T10:53:20Z</time>
      </trkpt>
      <trkpt lat="43.67401" lon="3.86036">
        <ele>76</ele>
        <time>2016-10-09T10:53:26Z</time>
      </trkpt>
      <trkpt lat="43.67398" lon="3.86024">
        <ele>75.400024414062</ele>
        <time>2016-10-09T10:53:29Z</time>
      </trkpt>
      <trkpt lat="43.67398" lon="3.86016">
        <ele>74.400024414062</ele>
        <time>2016-10-09T10:53:31Z</time>
      </trkpt>
      <trkpt lat="43.67399" lon="3.86012">
        <ele>74</ele>
        <time>2016-10-09T10:53:32Z</time>
      </trkpt>
      <trkpt lat="43.67401" lon="3.86">
        <ele>73</ele>
        <time>2016-10-09T10:53:34Z</time>
      </trkpt>
      <trkpt lat="43.67404" lon="3.8599">
        <ele>72.200012207031</ele>
        <time>2016-10-09T10:53:35Z</time>
      </trkpt>
      <trkpt lat="43.67406" lon="3.85983">
        <ele>71.799987792969</ele>
        <time>2016-10-09T10:53:36Z</time>
      </trkpt>
      <trkpt lat="43.67407" lon="3.85975">
        <ele>71.400024414062</ele>
        <time>2016-10-09T10:53:37Z</time>
      </trkpt>
      <trkpt lat="43.67408" lon="3.85952">
        <ele>70.599975585938</ele>
        <time>2016-10-09T10:53:40Z</time>
      </trkpt>
      <trkpt lat="43.67408" lon="3.85926">
        <ele>69.799987792969</ele>
        <time>2016-10-09T10:53:45Z</time>
      </trkpt>
      <trkpt lat="43.67408" lon="3.85923">
        <ele>69.599975585938</ele>
        <time>2016-10-09T10:53:56Z</time>
      </trkpt>
      <trkpt lat="43.67402" lon="3.85917">
        <ele>69</ele>
        <time>2016-10-09T10:53:59Z</time>
      </trkpt>
      <trkpt lat="43.674" lon="3.85916">
        <ele>68.599975585938</ele>
        <time>2016-10-09T10:54:00Z</time>
      </trkpt>
      <trkpt lat="43.67397" lon="3.85914">
        <ele>68.400024414062</ele>
        <time>2016-10-09T10:54:01Z</time>
      </trkpt>
      <trkpt lat="43.67388" lon="3.85906">
        <ele>67.400024414062</ele>
        <time>2016-10-09T10:54:05Z</time>
      </trkpt>
      <trkpt lat="43.67387" lon="3.85902">
        <ele>67.200012207031</ele>
        <time>2016-10-09T10:54:06Z</time>
      </trkpt>
      <trkpt lat="43.67387" lon="3.85885">
        <ele>66.400024414062</ele>
        <time>2016-10-09T10:54:10Z</time>
      </trkpt>
      <trkpt lat="43.67387" lon="3.8588">
        <ele>66.200012207031</ele>
        <time>2016-10-09T10:54:11Z</time>
      </trkpt>
      <trkpt lat="43.67387" lon="3.85875">
        <ele>66</ele>
        <time>2016-10-09T10:54:12Z</time>
      </trkpt>
      <trkpt lat="43.67387" lon="3.85833">
        <ele>65.599975585938</ele>
        <time>2016-10-09T10:54:21Z</time>
      </trkpt>
      <trkpt lat="43.67381" lon="3.85813">
        <ele>65.599975585938</ele>
        <time>2016-10-09T10:54:26Z</time>
      </trkpt>
      <trkpt lat="43.67378" lon="3.85813">
        <ele>65.599975585938</ele>
        <time>2016-10-09T10:54:27Z</time>
      </trkpt>
      <trkpt lat="43.67371" lon="3.85822">
        <ele>66</ele>
        <time>2016-10-09T10:54:30Z</time>
      </trkpt>
      <trkpt lat="43.67368" lon="3.85825">
        <ele>66</ele>
        <time>2016-10-09T10:54:31Z</time>
      </trkpt>
      <trkpt lat="43.67352" lon="3.85841">
        <ele>65.400024414062</ele>
        <time>2016-10-09T10:54:36Z</time>
      </trkpt>
      <trkpt lat="43.6733" lon="3.85863">
        <ele>65.799987792969</ele>
        <time>2016-10-09T10:54:42Z</time>
      </trkpt>
      <trkpt lat="43.67323" lon="3.85867">
        <ele>66</ele>
        <time>2016-10-09T10:54:44Z</time>
      </trkpt>
      <trkpt lat="43.67315" lon="3.8587">
        <ele>66.200012207031</ele>
        <time>2016-10-09T10:54:46Z</time>
      </trkpt>
      <trkpt lat="43.67302" lon="3.85871">
        <ele>66.400024414062</ele>
        <time>2016-10-09T10:54:49Z</time>
      </trkpt>
      <trkpt lat="43.67286" lon="3.85872">
        <ele>67.200012207031</ele>
        <time>2016-10-09T10:54:53Z</time>
      </trkpt>
      <trkpt lat="43.67274" lon="3.85872">
        <ele>67.400024414062</ele>
        <time>2016-10-09T10:54:56Z</time>
      </trkpt>
      <trkpt lat="43.67258" lon="3.8588">
        <ele>68</ele>
        <time>2016-10-09T10:55:01Z</time>
      </trkpt>
      <trkpt lat="43.67251" lon="3.85887">
        <ele>68.200012207031</ele>
        <time>2016-10-09T10:55:03Z</time>
      </trkpt>
      <trkpt lat="43.67234" lon="3.85902">
        <ele>68.599975585938</ele>
        <time>2016-10-09T10:55:08Z</time>
      </trkpt>
      <trkpt lat="43.67214" lon="3.85921">
        <ele>69</ele>
        <time>2016-10-09T10:55:15Z</time>
      </trkpt>
      <trkpt lat="43.67189" lon="3.85937">
        <ele>69</ele>
        <time>2016-10-09T10:55:23Z</time>
      </trkpt>
      <trkpt lat="43.67175" lon="3.85945">
        <ele>69.400024414062</ele>
        <time>2016-10-09T10:55:28Z</time>
      </trkpt>
      <trkpt lat="43.67169" lon="3.85948">
        <ele>69.799987792969</ele>
        <time>2016-10-09T10:55:30Z</time>
      </trkpt>
      <trkpt lat="43.67158" lon="3.85952">
        <ele>70.400024414062</ele>
        <time>2016-10-09T10:55:34Z</time>
      </trkpt>
      <trkpt lat="43.6715" lon="3.85953">
        <ele>71.200012207031</ele>
        <time>2016-10-09T10:55:37Z</time>
      </trkpt>
      <trkpt lat="43.67136" lon="3.85953">
        <ele>71.400024414062</ele>
        <time>2016-10-09T10:55:42Z</time>
      </trkpt>
      <trkpt lat="43.67128" lon="3.85956">
        <ele>72.400024414062</ele>
        <time>2016-10-09T10:55:46Z</time>
      </trkpt>
      <trkpt lat="43.67117" lon="3.85972">
        <ele>72.799987792969</ele>
        <time>2016-10-09T10:55:51Z</time>
      </trkpt>
      <trkpt lat="43.67115" lon="3.85978">
        <ele>72.799987792969</ele>
        <time>2016-10-09T10:55:52Z</time>
      </trkpt>
      <trkpt lat="43.67108" lon="3.86002">
        <ele>72.799987792969</ele>
        <time>2016-10-09T10:55:55Z</time>
      </trkpt>
      <trkpt lat="43.67094" lon="3.86041">
        <ele>72.400024414062</ele>
        <time>2016-10-09T10:55:59Z</time>
      </trkpt>
      <trkpt lat="43.67076" lon="3.86061">
        <ele>71.799987792969</ele>
        <time>2016-10-09T10:56:02Z</time>
      </trkpt>
      <trkpt lat="43.67069" lon="3.86069">
        <ele>71.400024414062</ele>
        <time>2016-10-09T10:56:03Z</time>
      </trkpt>
      <trkpt lat="43.67052" lon="3.86091">
        <ele>70.200012207031</ele>
        <time>2016-10-09T10:56:06Z</time>
      </trkpt>
      <trkpt lat="43.67044" lon="3.86106">
        <ele>69.200012207031</ele>
        <time>2016-10-09T10:56:08Z</time>
      </trkpt>
      <trkpt lat="43.67036" lon="3.86122">
        <ele>68</ele>
        <time>2016-10-09T10:56:10Z</time>
      </trkpt>
      <trkpt lat="43.67032" lon="3.8613">
        <ele>67.400024414062</ele>
        <time>2016-10-09T10:56:11Z</time>
      </trkpt>
      <trkpt lat="43.67028" lon="3.86137">
        <ele>66.599975585938</ele>
        <time>2016-10-09T10:56:12Z</time>
      </trkpt>
      <trkpt lat="43.67021" lon="3.86149">
        <ele>65.400024414062</ele>
        <time>2016-10-09T10:56:14Z</time>
      </trkpt>
      <trkpt lat="43.67016" lon="3.86149">
        <ele>65</ele>
        <time>2016-10-09T10:56:15Z</time>
      </trkpt>
      <trkpt lat="43.67008" lon="3.86143">
        <ele>64.400024414062</ele>
        <time>2016-10-09T10:56:17Z</time>
      </trkpt>
      <trkpt lat="43.67004" lon="3.8614">
        <ele>64</ele>
        <time>2016-10-09T10:56:18Z</time>
      </trkpt>
      <trkpt lat="43.67" lon="3.86133">
        <ele>63.200012207031</ele>
        <time>2016-10-09T10:56:20Z</time>
      </trkpt>
      <trkpt lat="43.66998" lon="3.86123">
        <ele>62.799987792969</ele>
        <time>2016-10-09T10:56:22Z</time>
      </trkpt>
      <trkpt lat="43.66996" lon="3.86118">
        <ele>62.799987792969</ele>
        <time>2016-10-09T10:56:23Z</time>
      </trkpt>
      <trkpt lat="43.66985" lon="3.86093">
        <ele>62.799987792969</ele>
        <time>2016-10-09T10:56:29Z</time>
      </trkpt>
      <trkpt lat="43.66967" lon="3.86076">
        <ele>62.799987792969</ele>
        <time>2016-10-09T10:56:35Z</time>
      </trkpt>
      <trkpt lat="43.66934" lon="3.86069">
        <ele>62.799987792969</ele>
        <time>2016-10-09T10:56:42Z</time>
      </trkpt>
      <trkpt lat="43.66929" lon="3.86071">
        <ele>62.799987792969</ele>
        <time>2016-10-09T10:56:43Z</time>
      </trkpt>
      <trkpt lat="43.66918" lon="3.86081">
        <ele>62.599975585938</ele>
        <time>2016-10-09T10:56:45Z</time>
      </trkpt>
      <trkpt lat="43.66908" lon="3.86091">
        <ele>63</ele>
        <time>2016-10-09T10:56:47Z</time>
      </trkpt>
      <trkpt lat="43.66902" lon="3.86097">
        <ele>63.400024414062</ele>
        <time>2016-10-09T10:56:49Z</time>
      </trkpt>
      <trkpt lat="43.66897" lon="3.86098">
        <ele>63.799987792969</ele>
        <time>2016-10-09T10:56:51Z</time>
      </trkpt>
      <trkpt lat="43.66895" lon="3.86094">
        <ele>64</ele>
        <time>2016-10-09T10:56:52Z</time>
      </trkpt>
      <trkpt lat="43.66893" lon="3.8609">
        <ele>64.200012207031</ele>
        <time>2016-10-09T10:56:53Z</time>
      </trkpt>
      <trkpt lat="43.6689" lon="3.8608">
        <ele>64.799987792969</ele>
        <time>2016-10-09T10:56:56Z</time>
      </trkpt>
      <trkpt lat="43.6689" lon="3.86077">
        <ele>65</ele>
        <time>2016-10-09T10:56:57Z</time>
      </trkpt>
      <trkpt lat="43.66889" lon="3.86074">
        <ele>65.400024414062</ele>
        <time>2016-10-09T10:56:58Z</time>
      </trkpt>
      <trkpt lat="43.66884" lon="3.86053">
        <ele>66.200012207031</ele>
        <time>2016-10-09T10:57:05Z</time>
      </trkpt>
      <trkpt lat="43.66883" lon="3.8605">
        <ele>66.400024414062</ele>
        <time>2016-10-09T10:57:06Z</time>
      </trkpt>
      <trkpt lat="43.6688" lon="3.8604">
        <ele>67.599975585938</ele>
        <time>2016-10-09T10:57:10Z</time>
      </trkpt>
      <trkpt lat="43.66879" lon="3.86032">
        <ele>68</ele>
        <time>2016-10-09T10:57:13Z</time>
      </trkpt>
      <trkpt lat="43.66876" lon="3.86017">
        <ele>68.599975585938</ele>
        <time>2016-10-09T10:57:19Z</time>
      </trkpt>
      <trkpt lat="43.66874" lon="3.86013">
        <ele>69</ele>
        <time>2016-10-09T10:57:21Z</time>
      </trkpt>
      <trkpt lat="43.66871" lon="3.86006">
        <ele>69.599975585938</ele>
        <time>2016-10-09T10:57:24Z</time>
      </trkpt>
      <trkpt lat="43.66867" lon="3.85998">
        <ele>70.200012207031</ele>
        <time>2016-10-09T10:57:28Z</time>
      </trkpt>
      <trkpt lat="43.66866" lon="3.85993">
        <ele>70.599975585938</ele>
        <time>2016-10-09T10:57:30Z</time>
      </trkpt>
      <trkpt lat="43.66866" lon="3.85974">
        <ele>71.599975585938</ele>
        <time>2016-10-09T10:57:35Z</time>
      </trkpt>
      <trkpt lat="43.66866" lon="3.85968">
        <ele>71.599975585938</ele>
        <time>2016-10-09T10:57:36Z</time>
      </trkpt>
      <trkpt lat="43.66866" lon="3.85961">
        <ele>71.599975585938</ele>
        <time>2016-10-09T10:57:37Z</time>
      </trkpt>
      <trkpt lat="43.66866" lon="3.85939">
        <ele>72</ele>
        <time>2016-10-09T10:57:41Z</time>
      </trkpt>
      <trkpt lat="43.6686" lon="3.85917">
        <ele>72.400024414062</ele>
        <time>2016-10-09T10:57:46Z</time>
      </trkpt>
      <trkpt lat="43.66844" lon="3.85895">
        <ele>72.200012207031</ele>
        <time>2016-10-09T10:57:52Z</time>
      </trkpt>
      <trkpt lat="43.6683" lon="3.85869">
        <ele>72.200012207031</ele>
        <time>2016-10-09T10:57:59Z</time>
      </trkpt>
      <trkpt lat="43.66827" lon="3.85852">
        <ele>73</ele>
        <time>2016-10-09T10:58:03Z</time>
      </trkpt>
      <trkpt lat="43.66825" lon="3.8584">
        <ele>73.599975585938</ele>
        <time>2016-10-09T10:58:06Z</time>
      </trkpt>
      <trkpt lat="43.66824" lon="3.85826">
        <ele>74</ele>
        <time>2016-10-09T10:58:09Z</time>
      </trkpt>
      <trkpt lat="43.66819" lon="3.85805">
        <ele>74.599975585938</ele>
        <time>2016-10-09T10:58:13Z</time>
      </trkpt>
      <trkpt lat="43.66808" lon="3.85772">
        <ele>74.400024414062</ele>
        <time>2016-10-09T10:58:20Z</time>
      </trkpt>
      <trkpt lat="43.66794" lon="3.85761">
        <ele>75</ele>
        <time>2016-10-09T10:58:25Z</time>
      </trkpt>
      <trkpt lat="43.66791" lon="3.8576">
        <ele>75.200012207031</ele>
        <time>2016-10-09T10:58:26Z</time>
      </trkpt>
      <trkpt lat="43.66782" lon="3.85754">
        <ele>76.200012207031</ele>
        <time>2016-10-09T10:58:30Z</time>
      </trkpt>
      <trkpt lat="43.6678" lon="3.85755">
        <ele>76.599975585938</ele>
        <time>2016-10-09T10:58:31Z</time>
      </trkpt>
      <trkpt lat="43.66778" lon="3.85757">
        <ele>76.599975585938</ele>
        <time>2016-10-09T10:58:32Z</time>
      </trkpt>
      <trkpt lat="43.66775" lon="3.85768">
        <ele>76.599975585938</ele>
        <time>2016-10-09T10:58:36Z</time>
      </trkpt>
      <trkpt lat="43.66774" lon="3.85773">
        <ele>77</ele>
        <time>2016-10-09T10:58:39Z</time>
      </trkpt>
      <trkpt lat="43.6677" lon="3.85772">
        <ele>77.799987792969</ele>
        <time>2016-10-09T10:58:44Z</time>
      </trkpt>
      <trkpt lat="43.66763" lon="3.85762">
        <ele>79</ele>
        <time>2016-10-09T10:58:49Z</time>
      </trkpt>
      <trkpt lat="43.66763" lon="3.85761">
        <ele>79.200012207031</ele>
        <time>2016-10-09T10:58:50Z</time>
      </trkpt>
    </trkseg>
  </trk>
</gpx>